GFSSGP_sfc_wetblb_000.txt.gz
Wetbulb
57.92 55.60 53.73 51.10 42.07 38.62 34.65 37.36 39.74 39.05 41.00 41.53 43.59 43.11 43.31 43.97 44.50 39.93 51.49 58.39 60.26 62.45 64.91 68.43 71.25 72.03 72.39 72.73 72.46 72.32 71.97 72.19 71.48 71.64 70.95 70.66 70.26 69.44 68.81 69.39 69.85 70.69 70.79 70.17 69.00 67.94 67.48 66.87 66.66
54.17 54.79 51.57 45.09 38.86 31.82 33.16 37.94 40.15 40.67 40.87 42.28 42.66 42.49 42.26 43.83 46.79 49.57 52.89 58.90 61.34 63.21 64.24 65.57 69.94 71.47 71.84 72.48 72.43 72.38 72.41 71.81 71.33 70.66 69.71 68.97 69.04 68.91 68.19 67.44 67.75 68.39 69.07 68.27 66.40 64.95 63.85 63.37 63.04
53.58 52.02 48.20 41.33 34.83 32.48 34.73 38.54 39.32 40.59 41.32 41.31 40.47 42.15 44.38 43.76 46.89 49.44 54.82 58.78 60.63 61.64 63.13 64.37 69.10 70.34 70.86 71.76 71.55 71.66 72.11 71.38 70.11 68.86 68.21 67.76 67.37 66.73 66.05 66.03 66.77 67.05 66.41 64.96 63.84 62.64 61.63 61.17 61.16
51.15 48.02 43.91 39.41 35.99 39.40 39.19 41.17 38.86 39.80 40.91 42.18 40.97 41.02 42.50 46.06 48.01 49.95 54.41 59.03 59.42 59.81 61.51 65.31 68.55 69.22 69.70 69.92 70.50 69.95 70.26 69.03 68.04 67.13 67.56 67.11 66.31 65.37 64.10 63.40 64.24 64.02 63.30 62.42 61.51 60.48 60.14 59.89 59.59
47.04 43.65 36.85 34.24 34.98 39.02 39.77 41.52 40.07 39.63 41.18 39.62 41.34 41.74 41.44 43.95 46.35 49.99 56.06 58.61 58.35 57.62 59.40 62.66 67.81 68.49 68.36 68.48 69.21 69.18 68.89 68.33 67.43 66.87 66.64 66.01 64.29 62.81 62.00 61.51 61.78 61.45 60.96 60.27 59.67 59.64 59.64 59.55 58.31
43.47 41.66 35.31 31.81 33.89 39.32 41.06 41.09 39.65 39.18 39.17 39.03 40.90 40.31 42.10 42.79 46.66 49.15 55.75 56.10 56.83 57.02 58.06 60.81 64.99 66.75 67.48 67.71 68.53 68.36 68.05 67.74 66.79 66.25 65.07 63.50 61.99 61.30 60.54 60.30 60.15 59.94 59.72 59.18 59.16 58.56 57.89 57.28 56.75
42.36 39.29 34.64 32.33 34.71 38.31 40.87 39.87 38.35 38.80 40.64 41.50 40.69 40.56 42.51 42.93 45.65 51.02 54.10 53.82 54.78 55.88 57.01 58.51 60.43 62.69 64.70 65.98 66.59 67.05 67.52 66.50 65.61 64.59 63.05 61.47 60.65 60.03 59.38 59.42 59.46 59.37 58.96 58.82 57.04 56.76 56.30 56.11 55.24
43.33 40.77 33.84 33.73 34.27 37.60 40.64 38.94 39.77 40.46 41.29 40.49 42.43 41.08 41.82 43.38 46.54 50.49 51.33 51.68 53.17 54.49 55.54 56.05 56.83 57.81 58.09 59.62 63.18 64.26 64.61 64.38 63.61 62.70 61.61 60.50 59.65 59.47 58.73 59.12 59.07 58.89 58.54 57.09 55.65 54.93 54.71 54.05 52.98
41.97 36.30 32.28 35.03 35.33 38.67 40.43 39.92 42.94 41.07 41.10 39.89 43.28 42.01 42.83 41.62 47.42 48.54 47.00 48.73 50.20 52.66 53.29 53.76 54.31 54.52 54.69 55.01 57.30 60.52 62.23 61.71 61.02 59.85 58.32 53.24 47.65 48.90 49.34 52.86 58.37 57.51 56.88 55.66 54.13 52.65 51.52 50.43 50.08
41.77 34.11 36.10 38.47 37.93 39.51 40.43 40.54 41.53 42.08 40.29 38.92 40.82 42.38 40.45 41.19 44.63 47.52 47.58 49.76 50.32 51.70 52.75 52.65 51.95 52.12 51.80 53.64 53.29 53.77 54.97 54.10 52.19 50.60 48.18 44.61 43.26 44.14 46.89 51.59 56.03 55.89 55.30 53.52 52.46 50.31 47.71 42.25 37.44
40.66 38.34 39.32 41.65 42.42 42.24 41.47 39.93 41.18 39.25 40.10 41.11 41.96 43.23 41.31 40.44 41.91 46.84 48.77 50.84 51.62 53.13 53.28 52.51 51.53 50.11 49.60 50.02 49.93 49.84 49.49 48.53 47.48 45.96 42.88 40.83 40.21 42.94 43.04 42.28 41.12 40.48 43.66 39.13 39.75 37.26 36.41 36.34 36.16
39.63 42.24 42.09 42.78 43.52 41.80 41.47 41.76 40.36 40.94 46.47 45.26 44.08 43.53 40.50 40.63 41.14 44.12 46.79 48.60 50.05 50.22 52.11 52.21 50.82 49.15 47.84 47.61 48.78 47.72 47.32 44.97 44.11 42.91 40.73 37.46 37.92 38.89 38.69 36.63 35.09 34.80 34.71 34.44 34.55 34.67 34.98 35.14 35.56
39.67 41.35 43.67 43.91 42.28 43.18 42.72 43.15 41.73 40.22 44.74 44.16 43.36 42.33 41.76 40.95 41.02 42.74 45.34 46.69 46.77 47.75 51.02 50.85 50.08 49.98 48.55 46.19 46.48 45.78 45.35 45.00 42.70 40.34 39.66 37.60 37.96 36.66 36.12 34.93 33.89 33.28 33.49 33.50 33.07 33.35 33.80 33.88 34.24
39.86 40.83 41.45 41.36 42.27 42.49 42.28 44.07 41.68 43.53 42.55 43.85 41.54 42.25 41.23 40.45 42.08 40.46 40.20 42.87 42.39 45.94 48.27 50.37 49.24 50.02 48.36 47.15 46.20 46.90 45.22 42.29 40.09 38.34 38.87 37.32 37.57 36.11 35.62 34.39 33.36 32.59 32.76 32.53 32.63 32.46 32.32 32.40 33.13
40.27 38.88 38.74 38.68 39.72 40.00 40.47 39.05 38.02 44.99 41.42 42.74 41.89 40.78 40.75 40.83 40.65 41.82 44.62 43.68 44.14 44.15 44.19 47.14 48.90 48.89 47.59 47.11 45.43 45.52 43.93 40.90 39.64 38.80 37.36 37.17 37.03 35.78 35.10 34.07 32.40 32.15 32.13 32.29 31.86 31.38 31.14 31.07 32.02
35.15 35.06 32.43 36.75 37.59 38.74 39.95 33.88 41.78 41.42 38.79 40.54 41.12 41.39 41.20 42.58 42.14 42.78 44.07 44.33 44.01 43.94 41.73 42.99 47.01 47.34 47.00 46.79 44.57 43.92 41.54 41.14 40.17 37.86 37.50 37.17 36.63 35.64 34.26 33.48 32.09 31.82 31.50 31.17 30.52 29.90 29.83 29.85 30.10
30.85 29.59 30.07 34.02 39.04 37.95 37.07 34.47 40.44 39.63 39.02 39.91 40.57 41.66 41.90 44.81 44.90 43.18 43.53 44.06 43.31 43.57 42.96 40.61 42.70 44.61 45.63 45.64 43.21 41.74 39.90 40.18 39.18 36.98 36.97 36.43 36.19 35.29 34.76 33.22 31.68 31.42 30.60 30.08 30.16 28.86 29.06 28.72 29.36
29.76 27.67 29.84 30.40 37.07 34.55 33.94 35.21 39.92 41.52 40.50 39.96 41.24 43.02 43.90 44.26 45.45 47.70 44.33 42.12 42.72 42.54 43.15 41.43 40.52 42.54 43.12 43.38 39.80 36.72 36.03 37.21 35.68 36.56 36.14 35.66 36.15 34.73 33.82 32.31 31.39 30.92 29.95 29.18 28.65 28.66 28.54 28.49 28.04
30.77 30.26 30.08 33.17 37.18 33.15 36.84 37.42 39.10 40.63 39.82 41.67 42.73 42.73 43.02 44.18 46.07 46.45 43.78 41.86 40.43 38.93 39.85 39.98 38.38 40.10 40.86 39.67 37.19 36.13 37.57 36.25 36.00 36.30 36.20 35.69 35.18 34.29 33.68 32.27 30.78 30.30 29.84 29.06 28.46 28.35 27.93 27.36 27.30
32.51 31.99 33.03 36.17 37.99 33.38 34.70 35.33 39.12 40.32 41.02 41.80 42.45 43.28 43.30 43.55 44.31 45.05 40.93 39.29 38.67 39.73 39.27 38.81 38.26 38.55 40.24 40.26 39.98 37.45 39.70 36.04 37.60 35.53 33.89 34.82 33.45 33.36 33.33 32.38 30.95 30.29 28.71 28.14 27.94 28.33 27.11 27.04 26.34
31.11 30.34 33.50 32.47 33.70 32.78 31.03 32.63 33.02 37.25 37.62 40.54 41.30 42.80 40.76 41.22 43.21 44.42 39.68 39.13 38.02 37.26 37.09 38.79 38.42 38.07 39.54 39.08 37.61 31.38 31.06 30.13 30.44 30.66 32.12 31.97 33.32 32.97 32.95 32.18 31.33 30.13 29.53 28.77 27.80 27.30 27.92 26.42 26.20
32.70 35.54 34.87 33.22 29.35 27.16 31.00 27.08 30.63 35.72 37.22 38.11 39.96 38.28 39.08 40.04 40.18 40.25 39.62 38.37 38.57 38.94 37.40 37.58 37.12 36.94 38.44 38.30 36.93 36.05 35.57 34.79 35.40 36.79 36.13 33.81 32.86 32.45 32.10 31.81 30.88 30.18 29.05 27.33 27.58 27.68 26.78 27.28 25.89
33.86 34.92 32.72 29.92 28.21 26.27 26.05 24.33 29.69 32.10 34.02 36.79 38.30 39.08 38.54 39.37 39.02 39.38 39.44 39.26 38.91 37.54 36.16 35.62 36.00 35.94 37.54 37.83 37.38 37.03 36.84 37.25 31.88 32.16 33.19 32.44 31.11 31.52 30.98 30.79 29.49 28.91 28.79 27.47 27.81 26.55 26.34 26.34 26.59
34.20 31.54 29.77 27.92 27.35 22.63 28.51 27.41 33.64 30.36 32.72 35.08 38.64 42.31 39.77 39.82 39.66 39.11 38.41 37.59 37.25 34.53 33.23 33.35 34.38 34.66 35.81 36.69 36.47 36.90 36.56 30.86 31.42 30.13 31.65 30.67 29.99 29.21 29.20 29.72 29.67 29.23 28.34 27.51 27.71 26.82 26.41 26.01 25.85
31.67 28.65 22.20 19.79 18.71 22.24 26.75 24.95 34.17 36.90 39.30 37.42 38.03 38.32 38.84 38.59 37.60 37.88 37.81 36.80 36.22 33.37 32.01 32.14 32.64 32.55 33.74 34.96 35.39 35.72 35.69 32.61 33.38 31.59 32.70 30.60 30.02 29.87 29.71 29.80 28.73 27.96 28.43 27.46 27.15 26.80 26.07 25.72 25.20
30.11 31.57 23.81 19.65 17.87 26.68 23.97 24.31 35.24 38.27 38.79 38.80 36.83 37.58 36.53 37.87 37.81 37.56 38.14 35.73 35.17 34.19 31.88 32.57 32.39 32.14 32.24 33.57 34.27 33.83 33.95 33.60 33.56 31.92 32.56 31.49 31.95 31.96 29.96 28.77 28.29 27.96 27.32 26.98 26.82 26.37 25.67 25.05 25.22
28.99 28.10 33.49 27.67 29.36 23.07 30.01 31.70 36.95 40.03 36.10 35.02 34.24 35.60 36.61 38.05 37.82 38.54 38.30 36.34 34.50 33.40 32.55 32.07 31.93 32.43 31.99 32.60 32.76 32.79 33.12 32.89 32.45 30.25 30.50 31.26 31.57 30.77 28.38 28.76 27.59 26.86 26.92 26.71 26.22 26.27 25.19 24.97 24.82
32.78 33.13 26.18 25.41 20.80 19.85 25.44 28.49 31.04 36.72 39.62 37.57 36.42 35.78 38.92 38.12 37.60 37.71 38.95 38.03 35.49 33.86 32.68 32.16 32.09 32.23 31.92 32.17 33.52 33.90 33.71 34.06 32.73 30.66 30.58 30.06 30.37 28.69 27.42 28.05 27.58 26.49 26.83 26.53 26.14 25.36 24.47 24.35 24.10
30.81 28.70 28.76 29.25 28.28 24.60 23.36 28.72 37.28 39.10 40.13 34.96 35.59 38.11 38.20 35.26 35.05 35.81 36.70 37.18 37.40 36.49 34.22 32.78 31.82 31.28 31.11 30.90 32.04 31.48 30.80 31.65 31.50 30.50 30.75 30.68 29.46 28.27 27.41 28.10 27.33 26.54 26.39 26.30 26.00 25.47 24.39 24.29 23.43
33.07 34.04 32.41 27.70 26.16 27.33 27.56 27.78 38.97 38.17 38.90 35.46 32.02 32.23 33.61 33.51 33.03 34.26 34.92 35.27 35.86 36.78 37.97 37.48 34.88 32.83 32.82 32.07 31.81 30.48 31.25 30.32 30.06 30.45 30.38 30.01 28.98 28.15 28.24 27.87 27.09 26.86 26.84 26.16 26.03 24.57 24.35 23.63 22.76

GFSSGP_sfc_wetblb_003.txt.gz
Wetbulb
58.86 57.22 56.18 53.99 45.89 43.02 39.78 41.59 44.08 44.45 45.36 47.33 46.69 47.29 47.57 48.01 47.47 45.30 54.95 60.37 62.39 63.42 67.42 71.16 71.73 72.61 72.95 73.07 72.81 72.69 71.98 71.85 72.10 72.28 71.45 71.28 71.10 70.78 70.34 70.80 71.30 71.75 71.72 71.02 69.98 68.63 67.96 67.40 67.17
56.20 56.79 53.95 48.44 41.90 37.05 37.59 42.25 43.42 44.88 46.90 47.60 47.19 47.93 47.78 47.92 50.54 53.18 57.61 59.68 62.77 64.69 68.21 70.37 70.75 72.08 72.69 73.12 72.92 72.62 72.08 72.40 72.12 72.18 71.55 71.09 70.66 70.09 69.14 68.25 69.02 70.65 70.13 69.12 67.31 65.79 65.07 64.43 64.41
55.67 53.52 50.29 44.11 38.50 36.64 38.12 42.71 44.33 45.51 46.03 47.03 46.95 48.29 48.60 49.02 50.87 53.74 57.68 61.42 63.30 65.65 68.00 68.72 70.66 72.24 72.58 72.86 72.74 72.52 72.67 72.93 72.15 71.23 70.31 69.27 68.54 67.99 66.91 66.77 67.45 67.98 68.20 66.63 65.22 63.78 62.84 62.56 61.96
53.09 50.44 46.48 42.88 39.43 41.76 41.99 45.13 43.98 44.98 45.94 46.01 46.90 45.79 47.55 50.51 52.55 53.97 57.73 61.42 63.46 64.68 66.08 67.93 70.53 71.47 71.74 72.64 72.35 72.16 72.57 72.45 70.75 69.69 68.67 68.04 67.56 66.37 65.58 65.36 66.78 66.46 65.70 64.47 62.89 61.90 61.56 61.33 60.75
48.80 46.00 40.11 38.23 38.51 41.66 43.15 44.73 45.47 44.39 45.00 45.66 46.19 46.02 46.24 50.27 50.97 54.02 59.11 61.43 62.86 63.61 64.94 67.47 69.36 70.47 70.97 71.08 71.89 71.32 71.39 70.21 69.44 67.87 67.46 67.81 66.56 65.26 64.12 63.95 64.55 63.85 62.87 61.73 61.35 61.24 60.98 59.43 58.97
45.61 44.46 38.39 35.72 37.26 40.90 42.88 44.63 44.37 43.93 44.86 44.93 44.84 45.55 47.00 50.05 50.17 53.04 59.04 60.95 62.19 62.67 62.94 65.44 66.57 67.97 68.77 68.82 70.48 70.62 70.41 70.07 68.99 67.61 66.87 66.60 65.15 63.61 62.77 62.81 62.51 61.98 61.21 60.80 60.74 59.79 58.93 58.47 57.58
44.59 41.75 37.94 37.20 37.76 40.27 43.81 43.93 43.48 44.44 44.57 45.17 46.25 45.51 47.84 47.50 49.51 53.53 58.58 59.34 60.29 61.31 61.82 63.64 65.65 66.18 65.71 66.74 67.70 68.90 69.46 69.05 68.47 67.31 66.29 65.13 63.42 62.38 61.62 61.50 61.33 61.30 60.83 60.15 59.08 58.51 58.17 57.37 56.02
45.21 43.56 38.95 37.91 38.04 39.86 44.03 43.06 43.98 44.35 45.31 45.48 46.75 45.15 46.36 49.90 50.23 54.38 56.58 57.52 58.37 59.22 60.49 61.76 63.29 64.28 65.13 66.14 64.54 65.75 67.00 67.38 66.94 66.01 64.35 62.29 62.09 61.83 61.50 61.22 61.26 60.75 60.48 58.79 57.84 57.36 56.65 55.68 53.97
45.47 39.10 35.46 38.16 37.56 40.69 43.66 42.62 44.10 44.53 44.53 44.26 45.91 46.00 47.89 46.32 51.46 52.99 54.72 55.54 56.17 56.72 58.23 59.63 60.94 61.45 62.03 62.75 63.08 63.41 64.17 64.31 63.78 62.50 60.64 58.68 57.17 57.45 57.16 57.13 60.86 60.19 58.85 57.48 56.08 55.35 53.81 52.14 50.82
43.63 37.28 38.21 40.38 40.08 41.79 43.56 43.11 44.37 44.09 44.07 43.14 44.25 45.76 45.42 45.52 49.57 51.03 52.15 54.15 54.69 56.34 57.31 57.69 58.89 59.16 58.84 58.61 60.80 62.29 61.65 61.94 59.97 58.50 55.92 53.35 52.91 53.03 52.55 55.31 58.47 59.19 57.84 55.81 54.16 51.72 48.14 43.88 43.37
42.56 40.12 40.93 42.01 42.01 43.24 43.41 42.50 44.18 42.88 42.68 44.33 44.73 46.17 45.49 44.41 45.82 49.36 51.18 53.50 54.95 56.95 57.60 56.72 57.19 57.45 56.95 57.10 57.29 58.00 58.36 57.50 55.91 54.60 51.55 50.00 49.49 50.85 51.31 51.82 51.10 51.08 49.76 49.27 47.76 43.75 42.76 42.81 42.69
40.88 42.91 42.64 44.30 44.31 43.19 43.13 43.37 42.56 42.85 47.73 48.27 46.09 46.33 45.51 44.19 44.14 46.21 49.71 51.82 53.71 54.57 56.45 56.98 56.14 55.06 55.14 55.20 55.35 55.59 55.62 54.10 52.84 51.65 48.96 46.92 46.37 47.96 47.89 47.85 46.81 46.45 44.56 42.70 41.99 41.96 41.67 41.35 40.85
41.19 42.20 43.96 43.93 43.42 43.68 43.74 44.14 43.06 42.50 45.86 46.27 45.27 44.17 44.44 43.65 44.40 45.26 48.18 51.16 52.99 53.14 54.70 55.55 55.30 55.24 54.40 52.93 53.70 53.29 54.01 52.81 51.93 49.18 46.57 45.58 44.68 45.95 45.48 44.42 42.36 41.81 40.57 40.87 40.54 40.63 40.41 40.32 39.75
41.44 41.93 41.74 41.67 42.87 42.69 42.85 44.15 42.49 44.10 45.24 45.04 43.35 45.04 44.14 42.81 44.90 43.75 43.50 45.88 48.68 52.41 53.48 54.62 54.17 55.06 54.10 53.12 52.65 52.91 52.61 51.80 49.16 47.97 46.39 43.51 43.93 44.51 44.11 41.00 39.70 39.46 39.88 39.67 39.83 39.74 39.48 39.45 39.31
40.74 39.26 39.50 39.13 40.39 40.45 41.15 39.32 39.34 45.24 42.14 43.93 45.21 43.61 43.19 42.96 43.01 43.69 46.26 45.43 46.52 48.46 51.74 53.32 53.33 54.13 53.38 53.05 52.07 52.31 51.23 48.40 48.30 47.27 44.88 43.10 42.50 42.56 42.21 40.43 38.69 38.86 38.77 38.55 38.21 37.57 37.82 38.19 38.04
36.60 35.78 33.71 38.44 38.63 39.32 41.12 36.38 42.02 43.29 40.88 41.41 41.81 43.74 42.48 45.31 44.83 45.17 45.69 45.64 46.27 46.64 46.59 50.18 52.72 52.22 52.92 52.93 52.35 51.67 50.23 48.30 48.33 46.44 44.81 42.77 41.87 41.78 40.64 39.79 38.37 37.99 37.69 37.94 37.68 36.99 36.73 37.41 38.02
32.92 30.67 30.85 34.19 39.26 38.51 38.26 35.85 40.20 40.82 40.08 40.51 42.26 43.72 45.33 46.30 47.08 47.57 45.83 45.63 45.89 45.72 45.70 45.43 50.30 51.27 51.49 52.25 52.35 51.28 48.87 48.33 47.69 45.15 43.60 42.11 41.10 40.66 40.56 39.77 38.26 37.18 36.87 36.80 36.18 35.33 36.59 36.43 36.66
30.83 28.79 29.98 31.39 38.16 35.33 35.04 35.17 40.21 41.17 41.49 42.10 43.22 43.97 43.91 44.19 45.34 47.56 46.53 45.76 45.01 44.76 45.49 45.36 45.53 49.44 50.25 50.71 50.52 48.40 45.32 47.45 45.95 44.09 42.70 41.30 41.12 39.85 39.81 38.96 37.31 36.65 36.12 35.42 34.99 35.34 34.73 36.24 36.18
32.37 30.73 29.85 32.76 36.68 34.21 36.97 37.06 38.69 40.88 39.76 41.39 42.70 43.52 43.78 43.81 46.10 45.59 45.03 45.24 44.38 42.67 42.61 43.15 41.72 45.06 47.70 47.58 45.77 43.12 43.02 44.52 42.13 43.30 42.41 41.30 40.87 39.62 39.40 38.52 36.68 36.07 35.89 35.54 34.90 34.68 34.65 34.10 34.34
32.73 31.46 32.08 34.80 37.17 33.44 34.41 35.76 39.49 40.78 41.46 42.34 42.55 42.98 42.15 42.34 44.42 44.89 43.11 43.59 42.75 42.73 41.45 41.69 40.84 42.19 45.28 46.31 46.29 44.86 45.22 44.05 43.27 42.05 40.60 41.14 40.01 39.19 38.73 37.86 36.53 35.61 34.99 34.11 33.93 34.35 33.14 33.58 33.11
31.23 30.84 33.01 31.88 33.15 33.67 31.38 31.83 33.30 38.74 38.00 39.81 41.27 41.36 41.17 40.70 41.11 42.11 42.32 41.80 42.07 41.39 40.39 40.40 40.45 40.58 43.24 44.33 43.51 36.18 37.10 35.85 37.07 36.72 37.39 38.12 38.56 38.31 38.54 37.70 36.76 35.37 35.47 34.13 33.82 34.23 34.88 33.55 32.31
30.82 35.01 33.89 32.00 29.93 27.11 32.67 26.64 31.24 37.12 37.84 38.57 39.44 39.24 39.42 40.37 41.08 40.26 39.59 41.60 40.12 40.79 40.31 39.58 39.78 39.15 41.39 41.95 40.99 40.69 40.07 38.40 38.35 40.28 39.51 37.84 37.91 37.68 37.99 36.98 36.08 35.41 34.85 34.16 33.45 33.64 34.56 34.41 33.17
33.66 33.80 31.95 31.05 29.12 27.29 27.72 24.97 30.36 33.18 34.77 37.07 38.80 40.54 40.48 39.94 40.48 41.03 40.27 40.38 39.47 37.62 37.91 38.49 38.43 38.11 40.07 40.15 40.74 40.17 40.01 40.03 37.72 38.93 37.98 36.85 36.08 36.78 35.79 36.02 35.10 34.73 33.97 34.24 33.37 32.38 32.49 33.85 34.03
34.32 32.29 29.91 28.79 28.44 23.10 28.66 28.11 30.06 32.01 35.05 35.54 38.70 41.15 39.79 40.02 40.03 41.89 39.99 39.10 38.86 37.23 35.90 36.16 36.54 36.34 37.84 38.84 39.18 39.33 39.45 37.69 36.18 36.32 36.43 35.35 34.60 34.35 34.65 34.78 34.62 34.61 34.14 32.95 32.81 33.36 33.09 33.02 33.04
33.12 29.97 23.61 21.35 19.73 22.21 27.08 25.59 31.85 36.17 39.85 37.88 39.32 38.15 37.96 39.00 39.08 39.59 38.72 38.32 37.81 37.04 35.33 35.18 34.55 34.56 35.45 36.67 37.30 38.15 38.42 36.47 37.03 36.26 36.77 34.32 33.41 33.05 33.24 33.79 33.72 33.80 33.69 33.02 33.01 32.36 32.49 31.86 32.08
30.14 31.15 26.46 20.29 20.98 26.90 23.92 26.30 35.48 37.46 39.61 38.59 36.73 36.69 37.90 37.17 36.67 36.27 36.72 37.16 37.31 37.18 36.18 34.91 33.87 33.93 34.35 34.76 35.35 36.19 36.70 36.67 36.31 35.55 36.10 34.79 34.72 34.70 34.67 33.27 33.92 33.03 32.06 31.89 32.14 32.25 32.24 31.83 32.06
29.09 27.81 33.32 27.80 26.47 25.06 30.14 31.80 38.27 40.71 36.49 35.12 33.90 31.96 31.44 32.76 33.83 34.49 35.67 36.22 37.07 37.48 36.64 35.68 34.51 34.39 34.35 34.02 34.24 34.57 34.84 35.19 34.97 33.89 34.53 35.28 35.76 35.06 34.11 32.68 31.71 31.55 31.27 31.14 30.96 30.71 29.91 29.97 30.80
32.41 33.45 26.59 25.38 19.03 20.32 26.31 29.23 31.15 35.87 31.16 29.57 29.50 28.93 29.59 30.95 31.73 33.56 34.82 35.31 36.23 37.15 37.42 37.28 36.93 35.69 35.08 34.60 34.13 34.38 34.59 34.71 34.46 32.99 32.51 33.18 33.94 33.12 31.70 31.75 31.84 31.24 31.28 30.81 30.47 30.51 29.83 29.32 29.20
29.16 28.18 28.68 29.32 27.05 23.60 22.57 27.96 35.43 28.27 28.36 27.28 26.28 26.91 27.95 29.46 31.09 32.38 33.94 35.23 35.88 36.47 36.41 35.87 36.09 35.50 35.44 35.92 35.84 33.99 33.74 34.05 33.91 31.95 32.07 32.71 32.64 31.62 30.86 30.81 30.99 30.10 29.75 29.74 29.60 29.97 28.73 28.40 28.23
32.93 33.21 33.29 28.42 26.41 26.75 28.47 27.80 28.26 26.70 27.03 26.49 24.57 26.77 28.31 29.68 31.17 32.34 33.18 34.59 35.41 35.12 35.46 35.02 35.12 34.63 34.55 35.17 35.36 35.06 34.22 33.00 32.20 32.79 32.47 32.37 31.74 31.13 31.09 30.39 30.24 29.93 29.72 29.26 29.16 28.33 28.08 28.11 26.96

GFSSGP_sfc_wetblb_006.txt.gz
Wetbulb
63.03 62.54 64.00 61.66 51.02 50.07 45.89 47.16 49.62 49.47 49.62 51.21 51.79 51.94 51.47 52.54 50.24 48.18 60.24 64.08 64.95 66.34 70.21 72.10 72.33 73.09 72.97 72.99 73.06 72.69 71.94 71.94 72.23 72.52 71.30 71.10 71.76 71.22 71.12 71.46 71.66 71.97 71.46 70.90 70.01 69.19 68.14 67.61 67.16
61.49 60.91 62.34 58.21 47.48 43.52 45.07 48.73 48.39 50.18 50.96 51.48 51.56 51.59 51.41 50.92 55.09 56.83 60.53 63.64 65.50 66.33 69.96 71.55 71.18 72.73 73.10 73.04 72.99 72.67 71.87 71.77 72.16 72.42 71.72 71.44 70.91 70.01 69.10 68.95 70.76 70.76 70.14 69.16 67.96 66.48 65.30 64.96 63.95
59.68 58.81 56.02 52.02 48.43 43.88 45.06 48.63 49.67 49.83 51.01 51.08 51.19 52.40 52.62 52.48 54.81 58.11 61.55 64.10 65.75 66.28 69.04 70.58 70.68 72.39 72.89 73.22 73.05 72.72 72.09 71.97 72.36 72.34 71.85 71.18 69.45 68.76 67.19 67.04 67.57 68.72 68.72 67.37 65.60 64.23 63.58 62.66 62.36
59.93 58.39 55.21 47.54 44.91 47.91 47.51 49.63 51.03 51.15 50.23 50.68 51.17 50.13 52.81 55.39 56.22 58.87 61.47 65.12 66.10 66.69 68.56 69.43 70.88 72.11 72.58 72.96 72.97 72.60 71.91 72.26 72.59 71.91 69.97 69.09 68.23 67.43 66.03 66.21 67.32 67.50 66.75 65.49 63.68 62.58 62.22 61.40 60.29
59.04 55.65 48.11 45.62 45.00 47.22 49.79 50.55 50.35 49.84 50.05 50.28 50.42 50.23 51.27 54.02 56.01 58.02 62.47 64.93 66.04 66.94 68.76 69.94 70.51 71.66 72.15 72.52 72.64 72.51 72.39 72.71 72.19 70.09 69.17 68.88 68.02 66.76 65.73 65.55 66.32 65.58 64.54 63.09 62.32 62.23 60.59 59.72 58.94
53.35 53.86 45.45 43.48 44.47 47.37 49.72 50.91 49.83 49.50 50.03 49.92 49.38 50.17 52.34 54.63 54.68 57.36 62.27 65.09 66.55 66.86 68.54 69.37 67.89 69.15 70.48 71.30 72.02 71.99 72.11 71.53 70.51 69.53 67.48 68.56 67.17 65.80 64.68 64.62 64.58 63.80 62.49 61.89 61.73 60.64 59.32 58.54 57.51
50.64 49.49 44.88 44.82 45.48 47.01 49.22 49.33 49.08 49.79 49.68 50.41 51.32 49.42 53.27 54.00 54.45 57.27 61.47 64.71 66.00 67.19 67.83 68.74 69.51 68.79 66.66 67.98 68.95 69.98 70.48 70.00 69.64 68.95 67.91 67.09 66.36 64.49 63.45 63.36 62.83 62.26 61.50 61.24 60.13 59.24 58.57 57.30 55.73
54.71 51.82 45.46 46.32 45.31 45.15 49.50 48.88 49.82 49.79 49.85 50.73 51.81 49.62 50.55 54.53 55.24 58.37 60.96 63.02 64.55 66.10 66.92 67.63 68.57 68.88 68.88 68.59 64.89 66.42 68.19 68.29 68.22 67.35 65.79 64.57 63.84 63.57 62.86 62.20 62.29 61.51 61.14 59.76 58.82 58.42 57.21 55.75 53.83
52.38 47.60 44.68 44.90 44.59 46.28 49.81 48.48 49.09 50.51 50.23 50.20 51.72 52.52 54.98 53.09 55.50 57.36 58.83 60.51 62.45 63.45 65.41 66.66 67.04 67.71 67.93 67.89 66.22 64.05 65.21 65.90 65.58 65.02 62.77 61.30 63.28 62.02 60.81 60.42 62.02 61.47 60.08 58.87 57.86 56.91 55.08 52.95 50.82
51.11 47.00 46.06 48.26 48.39 47.53 49.26 49.00 50.01 49.25 50.36 51.03 51.11 53.55 53.67 52.41 54.28 55.24 56.82 58.18 60.22 61.70 63.06 64.72 65.59 65.89 66.30 65.92 67.25 67.46 67.59 67.81 67.55 66.79 64.76 63.76 61.98 61.05 59.68 58.22 60.12 61.07 59.43 57.49 56.40 54.14 50.15 47.28 49.03
50.21 47.04 49.61 48.51 48.85 48.47 48.25 48.94 50.06 49.42 48.30 51.06 50.74 52.29 53.97 52.68 53.04 53.50 55.35 57.01 58.86 61.25 62.63 62.83 63.81 64.82 64.93 64.93 65.58 66.27 66.57 66.05 66.68 65.90 63.79 62.09 59.75 58.54 58.39 59.27 59.35 59.34 56.21 55.75 53.73 49.87 48.14 48.07 48.34
47.01 49.93 49.99 50.37 49.31 48.71 48.24 50.21 48.67 49.71 50.31 52.51 53.11 53.65 53.02 52.44 52.67 52.93 54.00 55.87 57.28 59.01 61.22 62.51 62.69 63.10 63.72 64.41 64.16 64.76 65.32 64.90 64.23 63.24 61.32 59.38 58.42 57.59 56.82 57.69 58.08 57.43 55.73 53.60 49.92 48.23 48.05 47.22 46.16
47.24 49.15 49.96 50.35 49.18 49.14 50.13 48.68 48.96 49.37 51.94 52.95 52.90 52.21 51.40 51.95 52.64 53.43 54.00 54.56 56.25 57.02 59.14 60.94 62.17 62.01 62.38 62.52 62.72 63.19 63.34 63.32 62.81 61.37 59.30 58.48 57.18 55.79 55.30 56.12 55.79 55.22 52.92 50.14 47.60 47.47 46.58 46.08 45.16
48.35 47.87 48.27 48.37 48.23 48.73 46.88 47.99 47.93 48.91 51.51 50.69 50.89 51.10 51.83 51.81 51.88 52.16 52.41 52.19 53.18 55.46 57.41 59.59 60.66 61.26 61.53 61.44 61.53 61.58 61.85 62.33 61.72 59.87 58.07 56.93 56.07 54.41 53.63 53.93 53.10 52.02 49.72 47.49 47.18 46.58 46.22 45.67 45.30
46.59 44.54 46.76 47.13 46.75 45.88 47.23 44.46 45.03 49.79 49.99 48.82 49.57 50.64 51.10 51.25 52.04 51.52 52.65 52.96 53.60 54.06 56.02 57.50 59.11 60.19 60.42 60.42 60.90 60.78 60.75 60.46 60.15 58.64 57.39 55.35 54.33 52.66 51.84 51.80 50.63 48.97 46.95 46.32 46.03 45.16 45.11 44.40 43.70
43.67 43.16 40.82 46.34 44.30 45.19 46.17 41.39 47.08 49.45 47.44 47.40 48.69 49.55 50.18 51.13 51.63 52.78 53.12 52.67 53.21 53.64 53.45 55.43 57.23 58.37 59.18 59.86 60.19 59.84 59.58 58.76 58.26 58.03 56.67 54.35 52.64 51.29 50.41 49.78 48.34 46.58 45.41 45.18 44.67 43.94 43.56 43.91 43.49
42.45 39.30 40.76 42.10 45.10 43.87 44.14 42.09 46.41 48.42 47.21 46.64 47.80 48.74 49.49 50.26 51.16 52.31 53.03 53.31 53.03 53.19 52.90 52.87 55.37 56.64 57.50 58.84 59.25 59.43 58.72 57.86 57.45 57.08 55.93 53.74 51.35 49.98 49.14 48.52 47.37 45.13 44.42 44.21 44.02 43.33 43.79 43.01 42.92
40.75 40.33 40.51 39.62 44.39 43.87 41.90 41.64 44.62 46.46 45.89 45.76 46.89 48.09 48.96 49.44 50.23 51.48 51.42 51.85 52.39 53.12 52.87 52.59 52.70 55.01 56.28 57.05 57.81 58.02 57.47 56.81 56.69 56.20 54.97 53.34 50.78 48.56 47.98 47.15 46.70 44.50 43.61 43.39 43.08 42.71 42.78 43.66 42.69
41.60 39.96 39.40 42.06 44.49 41.87 41.22 41.93 43.64 45.75 46.15 45.93 46.64 47.80 48.43 49.25 50.31 50.68 50.61 50.69 50.73 51.27 50.51 50.48 50.76 51.54 54.31 54.34 54.38 55.04 54.60 54.59 54.59 55.08 53.52 52.59 50.79 48.43 47.33 46.58 45.50 43.54 43.07 43.29 42.60 42.39 40.97 40.57 42.07
40.95 38.81 39.16 42.64 43.53 39.88 41.28 40.61 43.45 45.05 45.46 46.67 46.69 47.16 47.81 47.61 48.19 48.56 48.31 48.51 47.82 47.94 48.55 48.63 48.85 49.20 51.79 53.22 53.86 54.28 53.58 53.91 53.75 53.47 52.02 51.59 50.13 47.99 46.55 46.32 45.01 43.31 43.03 42.56 41.90 41.14 40.43 41.36 41.19
40.33 38.43 39.77 39.51 41.04 41.96 39.49 40.91 41.67 45.55 44.66 45.73 46.08 46.65 46.62 46.39 45.95 46.10 45.69 45.03 45.16 44.37 45.06 45.83 47.20 47.43 48.82 51.02 51.82 51.46 48.57 49.24 50.10 50.43 49.87 48.91 49.15 47.55 46.53 45.88 44.85 43.54 43.56 42.39 42.11 41.95 41.79 40.18 39.71
37.41 42.61 40.17 38.22 36.94 36.11 39.49 34.35 42.10 44.12 44.11 44.62 45.63 46.30 46.05 45.63 45.27 44.07 43.13 42.97 42.78 42.33 43.56 44.40 45.11 45.29 45.86 48.43 48.55 47.88 46.42 45.39 46.72 47.13 47.54 47.53 47.57 47.03 45.70 45.51 44.71 43.84 43.02 42.57 42.26 41.96 42.68 43.70 39.57
39.77 39.49 37.54 36.47 36.41 35.16 37.08 33.82 41.06 40.86 40.37 43.20 44.23 43.65 44.75 43.35 42.56 41.72 41.88 42.33 42.54 42.58 42.58 42.38 43.36 43.18 44.44 45.05 46.37 46.04 46.08 47.39 47.27 45.53 46.08 45.88 45.60 45.51 45.03 44.59 44.11 43.06 42.31 42.86 42.06 40.74 41.34 42.52 43.25
39.08 38.37 36.99 36.35 36.14 31.83 37.33 35.46 38.57 40.15 41.05 42.44 41.73 40.70 40.24 40.59 41.08 41.19 41.79 42.23 41.72 41.98 41.45 41.58 41.33 40.70 41.85 42.97 44.00 43.84 44.18 44.78 44.36 43.47 43.74 44.25 43.99 43.19 43.60 43.23 43.45 43.11 41.94 41.48 41.38 41.03 41.18 41.41 42.04
38.65 36.91 33.59 31.72 31.74 31.44 36.05 33.10 38.00 42.37 40.24 40.05 38.82 38.20 38.47 39.45 39.61 39.54 39.35 39.84 40.26 40.12 40.63 40.34 40.17 39.27 40.32 40.62 41.31 41.82 42.13 42.78 42.84 42.88 42.94 43.08 42.13 41.15 41.40 41.78 41.91 41.74 41.74 41.44 40.79 39.96 40.13 40.46 40.53
37.68 38.16 33.73 26.48 29.08 33.02 30.75 31.53 39.13 41.95 39.09 38.09 37.71 37.19 37.11 37.43 38.74 38.95 39.42 39.46 39.48 39.43 39.44 39.90 39.45 39.04 39.64 39.79 39.64 40.23 40.24 40.85 41.70 42.10 42.29 42.33 42.28 42.14 41.70 40.93 41.16 41.07 40.70 40.34 40.08 39.81 39.27 39.07 39.69
36.15 33.53 39.09 32.88 33.00 29.45 34.72 38.81 43.10 42.62 36.36 36.16 34.76 35.13 34.33 35.14 35.89 37.19 38.43 39.20 38.46 38.67 38.70 38.74 38.34 38.25 39.10 39.26 39.55 39.29 39.71 39.52 39.57 40.14 40.47 40.97 41.67 41.08 41.23 40.32 39.38 40.19 40.11 39.46 38.85 37.81 37.50 37.72 38.11
37.58 39.70 32.70 32.75 24.86 24.34 30.82 33.37 35.50 38.20 34.85 33.37 32.21 32.13 33.07 34.36 34.82 35.50 37.12 37.99 38.34 38.37 38.66 38.56 38.65 37.31 37.44 38.45 38.71 39.22 39.26 39.08 38.91 39.12 38.21 38.36 39.69 39.79 38.70 39.36 38.57 39.38 39.00 37.96 37.53 37.39 37.37 36.24 36.70
36.60 33.76 33.62 33.38 31.54 25.93 24.94 30.71 37.70 34.95 32.21 30.95 30.37 31.03 32.04 33.09 34.28 35.22 35.84 37.65 38.17 37.53 37.59 37.39 37.10 36.80 36.14 36.54 37.27 37.62 38.02 38.37 38.38 37.68 38.37 38.10 37.98 38.04 37.58 37.70 37.32 37.55 37.15 37.19 36.53 36.83 36.51 34.79 35.41
38.70 36.77 36.67 30.67 28.54 31.95 30.13 29.78 33.80 32.71 31.07 29.93 28.42 29.44 30.93 32.41 33.14 34.53 35.68 35.48 36.95 35.79 35.80 36.02 36.23 35.77 35.92 35.69 35.58 35.25 35.67 36.04 35.95 36.65 37.56 37.93 37.16 37.60 36.68 36.94 35.96 35.72 35.20 36.13 35.32 34.93 34.51 33.58 33.41

GFSSGP_sfc_wetblb_009.txt.gz
Wetbulb
64.01 63.66 63.63 61.45 51.96 50.40 46.92 48.08 51.34 50.48 51.24 53.18 53.43 52.66 51.73 52.80 50.56 48.83 62.39 65.06 65.99 67.29 69.85 71.74 72.84 73.34 73.37 73.20 73.17 73.03 72.32 72.14 72.27 72.56 71.75 71.95 72.05 71.54 71.61 71.85 72.16 72.11 71.50 70.93 70.32 69.55 68.57 67.84 66.59
62.04 61.23 61.77 55.96 48.47 44.94 45.64 50.00 49.01 51.20 52.61 53.69 53.35 53.06 52.52 51.03 55.64 57.06 61.00 64.96 66.38 67.17 69.81 71.05 71.64 73.00 73.20 73.08 73.16 72.87 72.07 72.05 72.15 72.44 71.40 71.56 71.51 70.46 70.14 70.90 71.33 71.10 70.28 69.01 68.46 67.38 66.08 65.22 63.81
61.78 60.14 55.46 51.82 48.62 45.09 45.59 49.70 50.62 51.85 53.86 52.66 52.19 54.24 53.23 52.49 56.27 58.34 63.24 65.27 66.65 66.65 69.90 71.22 71.36 72.91 73.09 73.07 73.16 72.92 72.11 71.82 72.08 72.39 71.82 71.43 70.70 69.11 68.18 67.77 68.35 69.07 68.76 67.66 66.31 65.38 64.32 63.11 62.13
59.70 58.14 55.45 48.14 46.07 48.18 48.19 50.23 51.63 51.88 52.81 52.66 52.80 51.22 54.68 56.88 56.85 60.38 63.25 65.74 66.54 66.31 69.10 70.18 71.38 72.65 73.01 73.19 73.07 72.63 71.86 71.67 72.19 72.37 72.07 70.73 69.34 68.34 66.50 66.22 67.28 67.87 67.47 66.14 64.36 63.63 62.88 61.56 59.94
58.85 55.10 48.81 46.94 46.79 48.17 50.03 51.33 52.13 51.25 52.17 52.19 52.39 51.08 52.62 56.49 57.94 59.53 62.85 65.54 66.51 66.43 67.93 70.28 70.66 71.66 72.30 72.72 73.14 72.76 72.19 71.91 72.71 72.61 70.93 70.00 69.10 67.55 66.07 65.94 66.87 66.84 66.07 64.34 62.94 62.58 60.84 59.83 58.41
53.59 53.29 46.64 45.24 46.26 48.62 50.63 52.75 52.09 51.57 52.13 52.25 50.94 51.75 53.05 57.58 56.77 58.66 61.99 65.11 66.84 67.10 68.08 68.71 68.29 69.65 71.02 71.91 72.38 72.49 72.45 72.52 72.43 71.45 70.31 69.94 68.65 67.30 65.90 65.44 65.96 65.50 64.31 63.02 62.66 60.99 59.57 58.46 57.21
52.03 50.25 46.73 46.65 46.35 47.57 49.50 52.32 51.00 50.95 50.75 51.02 53.22 49.60 53.33 55.86 57.13 58.74 61.50 64.42 66.27 67.49 67.88 68.64 69.57 69.63 67.40 69.13 70.12 70.99 71.57 71.73 70.86 69.75 68.76 68.73 67.87 66.48 65.38 64.87 64.86 64.11 62.84 62.44 61.64 59.90 58.89 57.59 55.86
54.36 51.37 46.89 47.46 45.96 45.95 50.45 51.12 52.15 50.90 50.11 53.40 53.74 49.90 50.90 57.02 57.86 59.66 61.81 63.29 65.16 66.57 67.76 68.17 68.83 69.12 69.50 69.91 65.93 67.55 68.92 68.90 68.94 67.84 66.39 65.44 65.17 64.96 64.41 63.43 63.96 62.83 61.93 61.15 60.03 59.24 58.06 56.33 54.08
55.35 48.13 45.83 47.02 46.42 47.24 51.18 49.39 51.85 53.37 51.26 52.32 53.48 53.14 55.04 56.30 57.40 58.61 60.00 61.26 63.02 64.46 66.64 67.69 67.97 68.58 68.64 68.62 67.41 64.87 65.98 66.56 66.30 65.65 63.34 62.74 65.30 63.96 62.38 61.37 62.74 62.65 61.76 60.28 59.43 58.10 56.48 53.95 51.29
51.60 48.24 47.53 50.19 49.75 48.52 49.88 49.87 50.48 50.35 50.33 50.69 52.24 54.89 55.99 56.00 55.61 55.94 56.83 57.99 60.35 62.22 64.24 66.42 67.29 67.52 67.97 67.57 68.03 67.53 67.53 67.76 67.92 67.82 66.31 65.96 65.25 63.40 61.16 59.20 60.93 62.22 60.78 59.54 58.52 56.63 53.72 50.90 50.62
51.84 47.50 49.91 50.45 51.31 51.12 49.51 49.16 51.19 49.52 48.35 50.43 50.19 51.98 53.68 54.54 54.94 54.78 55.21 56.64 57.93 60.60 62.88 64.39 65.86 66.76 66.90 67.16 67.37 67.66 67.34 66.39 66.56 66.44 67.19 65.92 64.68 62.34 60.78 60.58 60.23 60.33 57.30 56.97 55.96 52.07 49.30 50.65 50.73
48.71 50.44 50.84 51.44 51.59 50.27 48.96 50.82 49.41 50.05 50.47 53.05 53.38 53.74 53.62 53.34 53.50 54.00 54.58 55.53 56.68 58.26 60.00 63.06 64.39 65.13 66.05 66.38 66.21 66.55 66.51 66.66 65.34 66.63 67.15 65.48 63.26 61.11 59.85 59.47 59.92 60.47 58.01 56.96 55.24 51.26 51.78 49.84 48.90
48.88 49.69 50.43 51.30 51.20 50.96 51.01 49.11 49.26 49.53 52.26 53.27 53.26 52.82 52.68 53.13 53.78 54.87 55.50 55.94 56.52 56.61 58.55 60.87 64.12 64.01 64.89 65.32 65.77 65.55 65.82 66.07 66.28 66.72 66.24 64.32 61.76 59.60 58.89 58.79 59.24 59.26 57.47 55.63 52.41 50.42 49.31 49.24 47.78
50.10 49.23 49.29 49.85 49.59 49.83 48.11 48.57 49.35 49.93 52.08 51.64 51.51 51.50 52.08 52.51 53.16 53.89 54.34 54.40 55.37 56.42 57.14 59.64 61.71 63.80 63.58 64.12 64.76 64.64 65.31 65.61 65.41 65.00 64.41 62.86 61.08 59.11 57.71 57.55 57.79 57.40 56.00 53.64 50.34 49.69 48.91 48.34 47.98
48.69 45.26 47.69 48.42 49.07 47.96 48.44 45.32 46.34 50.78 51.07 49.87 49.97 50.75 51.39 51.86 52.67 52.77 53.81 54.71 55.51 55.94 56.63 58.17 60.43 62.51 62.82 63.20 63.49 63.97 64.14 64.04 64.19 63.87 63.22 61.50 60.44 58.49 56.77 56.12 56.07 55.80 53.88 51.16 49.69 48.93 48.66 47.36 46.63
45.29 46.05 42.40 47.93 47.22 47.62 46.67 42.24 48.08 50.05 49.25 48.58 49.67 50.27 50.79 51.51 52.30 53.54 54.09 54.16 54.70 55.19 54.94 56.43 57.02 59.83 62.15 62.33 62.68 62.97 63.19 62.94 63.40 63.11 61.94 60.28 59.18 57.63 55.66 54.51 54.26 53.90 50.67 48.50 47.88 47.08 46.47 46.44 45.53
45.89 40.95 42.85 44.37 48.43 46.27 45.25 42.79 47.39 49.46 48.60 47.82 48.98 49.71 50.08 50.93 52.22 52.36 52.49 52.49 52.83 53.51 53.84 54.51 55.71 57.25 59.86 61.41 62.04 62.25 62.31 61.91 62.08 62.06 60.82 59.69 57.78 56.27 54.20 53.13 52.94 51.46 48.11 47.00 46.56 45.89 46.01 45.39 45.26
42.68 42.94 43.88 42.94 47.26 45.71 45.10 44.24 46.85 48.67 48.73 48.63 49.33 50.02 50.40 50.38 49.18 50.08 50.40 50.55 50.84 51.13 52.23 53.03 53.87 54.68 57.46 59.12 60.44 61.08 61.23 60.96 60.85 60.37 59.77 58.88 57.05 55.30 53.20 52.00 51.09 48.85 46.79 46.00 46.16 45.41 45.94 45.70 45.04
44.80 42.97 41.85 44.52 47.35 45.33 43.75 43.60 45.42 48.19 48.48 48.83 49.64 49.41 49.21 48.50 49.58 48.73 48.21 47.90 47.42 48.16 48.18 49.56 50.89 52.77 54.14 56.17 56.33 57.57 57.82 58.79 59.06 59.22 58.98 57.94 56.41 54.20 52.25 50.58 49.71 47.20 45.83 45.52 45.75 45.33 44.32 44.53 44.04
43.40 41.66 41.51 44.91 46.51 43.02 43.24 42.89 45.78 47.50 47.82 48.41 47.68 48.11 47.72 47.90 47.03 46.64 46.55 46.28 45.46 44.81 45.66 46.97 48.24 50.24 51.32 54.48 55.51 55.97 56.47 57.42 57.74 57.69 57.19 56.45 55.70 53.32 50.93 49.53 48.20 46.39 45.22 45.19 44.77 44.09 42.47 43.79 43.28
42.44 40.74 41.29 41.38 43.69 44.55 42.72 41.32 45.68 47.79 48.80 47.40 47.29 47.62 46.78 44.86 44.26 44.76 44.70 44.32 44.45 43.92 44.47 44.61 45.95 47.09 48.80 51.44 52.53 53.27 53.14 50.55 50.68 53.85 54.65 54.12 53.88 52.93 50.84 49.08 47.97 46.12 45.05 44.14 44.24 43.78 42.66 40.94 41.92
39.16 44.96 42.85 41.08 38.96 37.19 42.06 34.34 42.47 46.18 46.22 45.15 45.43 45.31 43.93 43.83 44.03 43.81 43.29 42.83 42.75 43.05 44.57 44.53 44.60 44.49 46.10 48.39 49.07 49.25 48.76 47.22 49.04 49.44 51.18 51.88 52.18 51.76 50.57 48.74 48.02 46.18 44.60 44.16 43.77 43.73 43.32 43.16 39.29
41.70 41.82 40.64 39.84 38.52 38.29 39.36 36.03 41.20 44.60 43.15 42.98 43.49 42.85 42.97 43.02 42.68 42.19 42.53 42.73 42.88 43.30 43.31 44.31 43.78 43.46 43.96 44.84 45.86 45.88 45.96 47.40 48.80 47.57 46.67 48.65 49.27 49.49 49.85 48.51 47.34 45.98 44.51 44.28 43.73 42.33 42.64 43.48 42.05
41.59 40.48 40.98 40.71 38.85 33.03 39.43 38.86 38.81 41.65 42.52 41.18 41.26 41.25 41.60 42.08 42.51 42.56 42.97 42.80 42.11 42.87 42.52 43.06 42.61 42.20 43.39 43.06 42.99 42.76 42.74 43.41 44.42 45.57 45.11 45.99 46.82 47.49 47.07 47.22 46.34 45.95 44.72 43.62 43.46 42.41 42.07 42.18 42.86
40.04 38.48 33.85 33.52 33.53 31.89 40.79 36.08 39.58 43.67 42.29 43.20 40.84 39.72 40.62 41.42 41.51 41.37 41.16 40.89 40.94 40.75 41.30 40.99 40.95 40.52 41.84 42.06 41.70 41.63 41.42 41.75 41.95 42.73 43.39 44.07 44.65 44.98 44.84 45.44 44.62 44.35 44.31 43.65 43.42 41.99 41.03 41.32 41.23
41.40 40.40 34.87 28.10 30.37 34.47 35.30 33.72 39.48 41.54 41.13 40.49 39.90 39.30 39.34 39.16 39.81 39.80 40.19 40.15 40.03 40.03 40.09 40.44 39.69 38.57 39.97 40.49 40.96 41.65 41.53 41.01 41.08 41.24 41.49 41.99 42.78 43.73 45.06 43.95 43.87 43.60 43.40 43.01 42.52 41.51 40.87 40.74 40.79
39.39 35.32 39.47 32.03 33.45 30.67 35.02 39.77 43.99 39.98 38.39 38.29 37.43 37.41 36.82 37.42 38.04 38.49 39.40 39.91 39.16 39.11 39.05 38.96 38.70 38.09 37.81 38.47 39.74 39.60 39.87 40.02 39.93 40.20 40.33 39.95 40.48 40.87 41.47 42.25 42.06 41.79 41.82 41.22 41.09 40.04 39.41 39.38 39.70
40.32 43.15 33.95 32.95 25.23 24.50 32.10 34.17 35.90 40.90 38.98 36.76 35.70 35.75 36.16 36.99 37.36 37.82 37.93 39.05 38.84 38.58 38.77 38.62 38.18 37.02 36.93 36.91 37.38 37.56 37.46 37.97 38.20 39.36 39.05 39.20 39.42 39.16 38.68 39.24 39.75 39.73 39.89 39.78 39.38 38.82 38.79 38.29 38.11
37.06 34.92 35.90 35.92 32.97 26.45 25.27 31.09 40.86 39.03 38.89 36.82 34.89 34.20 34.74 35.25 35.53 36.17 37.06 37.02 38.26 37.32 36.84 37.01 36.73 35.88 35.56 35.89 36.06 36.17 35.78 35.61 35.79 35.11 36.19 36.87 37.79 38.07 37.85 37.50 37.39 37.52 37.45 38.40 37.84 37.37 37.33 36.55 36.81
40.42 37.52 37.40 30.32 28.32 32.18 30.00 30.10 43.57 37.88 37.47 35.13 33.47 33.02 33.53 34.08 33.30 34.25 36.36 35.43 35.42 35.63 35.58 35.26 35.35 35.04 34.96 34.80 35.10 35.14 35.15 34.84 33.87 32.97 33.40 34.61 34.94 36.13 36.71 36.38 35.96 35.81 36.06 36.57 36.23 35.62 34.90 35.49 35.11

GFSSGP_sfc_wetblb_012.txt.gz
Wetbulb
63.27 62.23 60.59 57.81 48.57 47.08 43.27 45.18 46.14 47.97 47.90 49.14 50.09 48.72 47.23 48.39 47.72 44.19 57.77 61.99 64.00 65.92 69.49 71.24 72.87 73.52 73.39 73.62 73.24 73.01 73.00 72.52 72.11 71.97 72.15 72.17 72.34 71.96 71.81 71.66 72.35 71.97 71.91 71.26 70.29 69.62 69.01 67.83 65.84
59.79 59.87 58.40 53.85 44.59 41.00 41.30 45.39 46.83 47.87 48.74 49.48 49.78 49.27 47.69 46.83 52.27 55.52 58.26 62.39 64.09 65.63 69.62 70.08 71.94 73.10 73.29 73.38 73.01 72.88 72.91 72.86 72.40 72.58 71.99 72.16 71.68 71.52 71.62 71.73 71.79 71.43 70.66 69.61 69.23 68.22 67.09 65.33 64.46
60.45 58.94 52.27 48.18 44.41 40.97 41.31 45.80 46.80 49.19 50.73 48.86 47.86 49.46 47.42 48.53 53.00 54.52 59.97 62.81 63.93 64.11 69.38 70.07 71.52 73.06 73.30 73.12 73.02 72.86 72.77 72.80 72.86 72.52 71.71 71.93 71.34 69.89 69.40 69.02 69.64 70.06 69.09 68.16 67.03 66.50 65.08 63.99 61.89
57.96 55.31 52.09 43.81 42.96 44.33 44.36 46.24 47.94 48.65 49.15 49.89 48.57 47.24 48.91 52.36 52.84 57.25 61.51 63.52 62.53 63.46 67.89 69.70 71.68 72.92 73.17 73.07 73.14 73.02 72.52 72.11 72.62 72.71 72.02 71.76 70.68 69.78 67.56 66.42 67.91 69.05 68.23 66.82 65.16 64.55 63.53 61.82 59.88
56.03 52.47 44.97 42.96 43.99 45.28 44.98 48.82 49.00 47.53 47.83 47.70 48.05 47.06 48.39 51.69 56.26 57.04 60.80 63.01 62.60 62.46 65.60 69.91 71.14 72.21 72.74 72.96 73.07 73.06 72.71 72.37 72.56 72.95 72.66 71.30 70.89 68.54 66.40 65.63 66.78 67.29 67.06 65.33 64.08 63.50 61.72 60.24 58.59
50.75 49.28 42.35 40.90 43.08 46.13 47.41 49.04 47.63 47.12 47.13 47.19 45.32 45.73 47.30 53.00 53.11 54.75 58.31 60.67 63.05 62.87 64.87 69.20 68.61 69.90 71.16 72.20 72.49 72.54 72.48 72.29 72.33 72.88 72.12 71.45 70.11 68.69 66.58 65.86 66.02 66.10 65.73 64.15 63.57 61.46 60.34 58.86 57.37
49.03 46.86 42.54 41.63 42.95 43.95 47.21 48.02 46.09 46.35 46.35 46.70 47.87 43.46 46.86 50.37 53.68 54.15 57.60 59.66 61.79 63.41 64.94 65.46 68.17 68.34 67.70 69.18 70.12 71.17 71.65 71.68 71.98 71.87 71.00 69.97 68.86 68.09 66.55 65.83 65.62 65.55 64.44 63.38 62.72 60.37 59.30 58.28 56.20
50.78 47.46 42.43 41.83 42.31 42.96 47.23 46.73 47.12 46.34 46.09 48.69 47.75 43.83 45.82 50.38 54.37 53.98 56.94 58.79 60.84 62.24 64.32 64.57 66.52 67.64 68.53 68.31 66.80 67.84 69.37 69.97 70.32 69.10 67.44 66.25 65.91 65.64 65.09 64.04 65.46 64.70 63.33 62.77 61.28 59.81 58.54 57.02 54.37
52.63 43.36 41.24 43.43 43.16 44.14 48.10 45.35 47.64 48.80 46.85 47.84 49.32 48.25 50.39 53.31 54.50 53.39 55.49 56.29 58.07 60.67 63.13 64.37 64.57 66.11 67.03 67.69 67.00 65.30 66.74 67.13 66.95 65.71 63.71 62.13 62.67 62.25 61.55 61.47 63.47 63.95 62.98 61.63 60.42 59.32 57.72 55.34 52.21
47.52 43.52 44.57 47.26 45.94 44.89 47.19 46.06 45.87 45.75 45.83 46.34 47.04 49.72 50.94 50.73 50.30 50.87 51.35 52.40 55.42 57.80 60.07 63.23 63.87 64.46 65.50 67.01 65.69 67.29 67.27 67.57 66.51 65.53 63.00 62.72 62.18 61.06 60.88 58.65 61.14 62.63 62.09 61.49 59.97 58.31 55.88 52.86 45.21
48.65 43.72 47.28 47.36 49.04 48.71 47.40 46.31 47.21 45.29 44.03 46.96 46.65 48.62 49.96 49.52 49.10 48.40 49.79 50.85 52.07 56.26 59.13 61.38 62.85 63.66 63.95 64.57 63.81 65.70 66.43 64.99 66.45 66.12 64.54 63.78 63.24 59.11 57.02 55.90 57.18 56.56 56.87 54.72 54.99 52.11 48.02 45.15 44.06
45.11 48.46 48.24 49.08 49.39 47.80 45.88 47.95 45.96 46.21 46.66 49.85 49.50 49.73 48.90 48.46 48.65 48.98 49.54 50.13 49.88 51.84 55.21 59.53 61.81 62.49 62.89 63.36 63.02 62.93 63.57 63.50 63.84 65.60 64.76 63.64 62.40 57.36 55.17 55.28 55.35 54.73 53.15 51.74 49.95 46.14 44.52 44.14 44.17
46.08 47.86 49.29 49.11 48.28 47.35 48.58 46.31 45.72 46.42 48.74 50.01 49.72 49.53 48.48 48.07 48.52 50.06 50.97 51.20 50.60 50.49 51.83 54.95 59.91 61.19 62.07 62.28 61.99 61.93 62.24 63.14 63.38 63.14 64.05 63.88 61.24 55.95 54.74 54.08 54.64 54.91 52.77 50.91 48.01 44.23 43.99 43.13 42.66
47.30 47.06 46.81 47.21 47.07 47.15 45.95 45.20 44.98 46.75 48.41 47.77 48.18 47.37 47.34 47.76 48.08 47.67 48.64 49.17 50.07 51.41 51.71 53.20 56.29 60.10 60.58 61.27 61.26 61.33 61.16 61.52 62.64 62.54 62.85 62.41 59.27 55.30 53.68 52.61 53.44 53.80 52.52 49.32 45.32 43.64 42.68 41.91 41.85
46.64 42.16 44.60 46.02 46.42 45.08 45.54 41.32 42.42 47.06 46.69 46.20 45.96 46.08 46.99 47.84 48.23 48.05 48.69 48.83 49.41 49.94 51.76 52.30 54.09 57.62 59.16 59.10 60.20 60.51 60.29 60.76 61.12 62.48 61.13 60.10 57.80 55.12 53.13 51.71 52.02 51.93 50.00 46.81 43.58 42.93 42.54 41.10 41.83
42.34 41.59 37.37 44.74 44.94 43.70 43.48 37.51 44.64 47.17 45.59 46.06 46.04 45.19 46.24 47.34 47.13 47.32 47.47 47.52 47.17 47.37 48.85 49.76 52.85 53.61 57.26 58.14 58.57 59.77 59.36 59.10 59.33 59.95 59.14 58.60 57.32 55.08 51.95 50.66 50.66 50.43 47.31 43.47 41.97 40.92 40.25 39.45 39.04
40.67 35.48 38.72 41.88 45.40 43.20 41.32 38.19 44.73 46.48 45.67 45.29 44.89 45.51 45.51 45.33 45.22 45.36 45.35 45.08 45.41 45.74 46.19 47.47 48.88 51.06 53.76 57.17 57.54 57.74 58.44 58.03 58.01 58.37 57.82 56.92 56.46 54.67 51.39 49.49 49.46 48.13 44.16 41.45 41.61 39.69 39.40 38.12 38.03
37.18 37.63 39.65 38.39 43.15 42.54 39.47 39.23 44.16 45.83 45.35 44.15 45.08 44.25 44.44 43.61 43.57 44.86 44.39 44.28 43.62 43.56 44.84 45.72 47.69 48.67 51.77 54.10 55.22 55.71 56.28 56.54 56.65 56.51 56.49 55.96 54.80 53.71 49.84 47.85 47.80 45.54 42.00 40.46 40.03 38.86 38.91 38.51 38.26
41.01 39.50 38.09 40.50 44.17 40.63 40.49 39.95 42.30 45.06 45.91 43.48 41.54 43.32 43.21 42.80 44.06 43.93 43.40 42.74 42.26 42.43 42.39 43.74 44.64 45.97 47.86 50.96 51.42 52.29 52.55 54.12 55.45 55.92 55.49 55.81 53.58 52.28 48.98 46.02 45.38 42.86 42.03 41.02 40.22 38.67 38.07 37.60 36.65
39.76 37.68 37.20 41.17 43.56 39.35 39.74 39.23 42.90 44.88 45.09 43.22 43.05 41.93 41.45 41.58 41.95 42.37 41.32 40.98 40.85 40.96 40.93 41.57 42.61 43.54 46.03 48.59 49.33 50.20 48.25 49.76 50.65 54.35 53.98 54.01 53.50 51.46 48.89 45.76 43.81 41.43 39.81 39.43 39.19 38.45 37.15 37.14 37.45
39.53 37.18 37.54 37.75 40.89 39.17 37.85 36.46 39.69 44.35 44.14 44.01 43.24 42.22 41.55 40.26 39.82 39.84 39.85 39.39 39.37 39.51 39.96 40.81 41.14 41.59 43.22 44.58 47.16 47.80 47.33 45.48 45.99 46.44 49.53 52.36 52.35 50.87 47.78 45.87 43.48 41.54 40.02 39.72 38.75 38.14 37.98 34.62 35.43
36.58 41.25 40.30 38.63 34.74 30.55 37.63 29.05 37.58 42.01 39.65 41.19 40.37 38.94 38.77 38.87 39.75 39.86 38.83 38.27 38.56 38.58 39.52 40.40 40.80 40.88 41.73 41.99 41.97 41.04 42.01 41.88 43.68 44.39 44.40 45.17 48.90 48.75 48.55 45.59 43.83 41.49 40.04 38.75 39.54 39.84 39.32 35.81 35.12
38.52 39.25 37.16 36.49 33.93 32.75 33.72 29.63 35.05 39.35 36.84 38.13 38.23 38.84 38.52 38.41 38.71 38.31 38.01 38.83 38.68 38.24 37.93 38.66 39.43 40.16 40.42 40.10 39.62 38.76 38.19 39.31 40.33 41.09 40.92 41.38 44.03 45.81 45.83 45.16 43.57 41.93 40.10 38.47 38.42 37.36 37.42 37.97 35.00
40.11 37.52 36.96 35.34 33.75 26.36 33.95 33.81 32.69 35.45 37.50 35.97 37.36 37.88 38.60 38.41 38.36 38.63 39.03 38.89 37.42 37.35 36.61 36.45 37.32 38.05 38.79 38.93 38.64 37.31 36.48 36.28 36.48 37.17 37.51 38.93 40.29 41.82 43.34 43.23 42.05 41.80 40.30 38.65 37.76 37.25 37.14 36.71 36.35
37.14 34.63 27.44 25.53 24.62 25.28 34.67 31.36 34.82 37.41 39.13 38.43 36.63 36.00 36.77 37.17 36.56 36.55 36.01 35.95 36.29 35.71 36.07 36.47 35.19 35.12 36.44 36.78 36.89 36.97 36.64 36.20 36.17 36.00 36.10 35.78 36.40 37.78 38.99 40.08 39.75 39.98 40.07 39.39 38.30 36.75 35.75 36.22 36.71
37.58 36.87 30.00 23.51 21.82 25.64 32.17 27.34 35.25 37.44 37.78 37.78 37.09 35.89 36.01 35.18 35.77 35.65 35.97 35.18 35.00 35.29 34.73 34.36 34.07 33.40 33.95 34.51 35.09 35.54 35.67 36.19 36.60 36.20 36.15 35.58 35.50 35.75 36.38 36.63 37.70 38.84 39.33 39.06 38.00 35.85 35.40 35.05 36.14
35.77 32.50 37.58 29.06 25.47 24.31 29.71 34.95 38.45 36.54 35.01 34.71 34.29 34.37 33.15 33.84 34.29 34.30 35.71 34.77 34.12 33.88 33.91 33.56 32.92 32.75 32.81 33.04 33.06 32.89 33.25 32.94 32.65 33.32 34.46 34.98 35.52 36.91 35.78 35.28 35.31 35.69 36.76 36.62 36.41 34.52 33.57 34.07 33.89
36.55 39.78 30.31 30.78 23.56 19.74 26.68 28.89 31.60 33.80 33.33 33.60 32.67 32.27 32.88 33.58 33.53 33.59 33.30 34.50 33.43 33.32 33.46 33.12 32.71 32.08 31.72 31.97 32.22 32.48 31.90 31.72 31.17 30.79 30.48 31.55 32.94 33.99 34.25 34.11 34.18 34.46 34.59 34.64 34.05 33.26 33.22 32.75 32.56
34.41 32.09 35.08 34.29 29.75 21.61 21.46 25.51 34.83 35.03 35.41 33.06 33.10 33.21 32.36 31.89 31.15 32.14 32.31 32.02 32.39 32.17 31.70 31.21 31.52 31.10 30.84 30.75 31.39 31.13 31.13 31.42 30.88 29.32 29.63 30.20 30.92 31.87 32.65 33.41 32.88 32.44 32.55 33.14 32.51 32.58 32.63 32.15 31.81
36.94 35.34 34.69 28.57 26.94 29.21 28.39 27.98 40.40 36.17 34.36 34.67 31.95 32.32 31.14 31.81 30.07 30.86 32.06 31.18 31.68 31.26 30.49 30.10 30.21 30.08 30.75 30.55 29.92 30.62 30.86 30.44 29.57 29.18 29.15 29.02 30.23 31.22 31.75 31.98 32.18 32.12 32.06 32.04 31.31 31.51 31.57 30.86 31.01

GFSSGP_sfc_wetblb_015.txt.gz
Wetbulb
60.87 57.33 56.12 52.83 43.78 41.57 37.29 40.74 42.52 44.58 43.74 46.11 47.58 46.32 44.51 45.29 45.97 41.69 55.45 60.31 64.55 67.77 69.48 71.32 72.71 73.52 73.64 73.66 73.48 73.22 73.34 72.82 72.27 71.94 71.61 71.73 71.84 71.83 71.48 71.11 72.25 72.36 71.77 70.91 70.17 70.01 69.10 67.03 66.12
55.83 58.24 53.22 48.00 40.10 35.24 37.14 40.83 43.08 44.62 46.55 46.49 47.13 46.77 44.89 44.79 50.30 54.35 57.14 61.46 62.74 67.75 69.54 70.42 71.76 73.21 73.50 73.67 73.26 73.09 73.21 72.97 72.15 72.01 72.29 72.47 72.28 71.92 71.95 71.82 71.85 71.68 71.31 70.34 69.66 68.69 66.93 65.65 63.81
57.70 56.58 47.34 42.42 38.20 35.47 36.87 40.42 41.47 45.65 46.91 46.56 45.14 47.31 45.29 46.64 50.29 55.32 58.76 62.04 62.89 67.60 68.88 70.33 71.49 73.09 73.31 73.48 73.06 72.88 72.85 72.98 72.80 72.62 72.36 72.37 71.81 71.29 70.71 70.98 71.01 70.41 70.01 68.91 68.16 66.89 65.49 63.52 61.63
53.64 50.93 46.98 39.95 37.23 40.22 39.53 40.37 43.23 44.78 45.98 47.38 46.12 44.29 46.75 48.87 51.95 56.26 60.43 62.38 61.16 65.73 68.12 69.96 71.85 73.11 73.30 73.14 72.95 72.75 72.81 72.70 72.79 72.72 71.84 72.05 71.21 70.08 68.93 68.29 70.29 69.65 68.69 67.48 66.51 65.47 63.82 61.76 59.65
50.87 46.15 39.69 38.12 39.19 41.35 41.91 44.86 44.85 44.21 43.90 45.48 46.19 44.57 45.20 50.58 54.44 58.07 59.74 61.78 60.29 61.35 67.04 69.70 71.29 72.45 72.94 73.04 72.97 72.82 72.75 72.70 72.88 73.10 72.64 72.24 71.47 70.20 66.90 66.28 67.56 68.93 67.73 66.24 65.37 64.04 61.99 60.15 58.33
46.28 43.63 37.12 35.38 37.74 42.15 43.15 44.58 43.95 44.03 44.25 44.17 43.14 42.57 43.98 49.77 50.24 53.09 59.35 59.88 61.45 61.15 67.62 69.42 68.85 70.05 71.32 72.22 72.46 72.51 72.52 72.33 72.36 72.75 72.76 72.43 71.49 69.22 67.01 65.81 66.57 66.83 66.74 65.22 64.51 62.35 60.73 58.93 57.01
45.56 41.07 36.50 37.98 38.57 40.46 44.23 45.07 42.05 41.81 42.79 43.33 45.44 41.09 45.60 47.33 51.74 53.79 56.22 58.16 60.12 61.15 65.85 68.07 69.14 68.94 68.16 69.38 70.17 71.08 71.72 71.72 71.76 72.18 71.85 71.00 70.14 68.76 67.90 66.32 66.40 65.83 65.66 64.52 63.52 61.04 59.54 57.91 55.92
45.92 42.17 38.84 38.33 38.43 39.47 43.98 44.13 45.02 43.26 43.69 46.06 45.71 41.28 43.97 49.33 52.78 53.73 54.90 57.06 58.02 60.80 62.15 65.26 66.31 67.63 67.80 68.28 66.97 67.95 69.25 69.87 70.20 70.13 68.97 67.32 66.45 66.60 65.62 64.51 65.63 65.50 64.98 63.84 62.20 60.18 59.00 57.37 54.54
47.12 38.70 36.05 38.56 39.77 40.17 44.53 43.01 45.00 45.78 43.92 44.53 47.60 45.55 46.84 50.03 51.78 52.39 51.87 53.59 55.20 58.73 62.03 62.30 64.94 65.68 66.91 66.80 66.20 65.18 66.46 67.36 67.44 67.06 64.95 63.27 63.06 62.71 62.36 61.99 64.23 65.33 64.24 63.09 61.28 59.80 58.28 55.86 52.31
43.21 38.01 40.36 42.56 40.90 41.29 44.58 42.87 42.28 42.67 43.25 43.35 43.51 45.75 46.96 50.03 49.14 49.53 49.32 50.81 52.39 54.72 58.09 62.08 62.51 64.43 65.67 67.92 66.64 65.62 67.33 66.89 66.33 65.98 63.82 63.75 61.33 60.82 60.86 59.42 61.76 63.32 62.92 62.57 60.85 59.31 56.98 51.68 43.31
44.44 39.76 43.75 45.42 46.12 45.39 44.52 44.65 44.37 41.79 40.57 44.75 44.26 45.43 47.90 45.82 46.02 47.90 47.84 49.00 50.05 53.62 56.51 60.56 62.27 62.77 64.28 65.68 64.48 66.10 67.40 66.06 66.05 65.39 63.57 63.01 62.22 60.16 58.30 56.98 57.71 57.37 57.79 56.23 56.85 54.01 49.06 46.73 43.90
41.29 45.92 45.49 46.81 47.13 45.38 43.57 45.21 44.72 43.76 45.45 47.35 46.70 47.15 45.43 46.62 46.63 46.68 47.20 47.64 47.00 49.10 54.93 58.10 61.42 62.01 62.35 63.89 62.77 64.60 65.97 64.27 63.19 65.21 63.55 63.10 62.33 60.05 56.75 54.73 54.54 54.18 52.89 51.78 49.74 48.16 45.38 42.71 42.37
41.99 44.11 46.99 47.10 46.17 44.93 45.59 44.06 43.70 44.80 47.53 47.55 47.49 46.94 45.30 45.82 45.17 45.59 46.35 47.01 47.02 48.00 49.04 55.11 59.11 61.39 62.29 61.80 61.51 61.24 63.45 63.52 63.18 61.89 64.05 63.60 62.31 59.11 55.84 53.58 53.94 52.53 51.29 50.12 47.99 45.92 42.34 41.66 41.43
43.37 43.45 43.81 44.94 45.26 44.27 43.77 42.30 42.76 45.22 45.19 44.95 44.97 44.28 44.17 44.31 44.17 44.16 44.73 44.38 45.01 46.30 46.83 48.67 56.51 59.98 60.54 61.27 60.61 60.44 60.56 60.82 61.04 60.94 61.22 62.25 62.67 58.71 55.87 53.56 53.64 52.55 51.48 49.26 46.89 43.20 41.30 40.44 40.20
43.83 40.34 41.93 43.18 43.29 43.11 43.78 39.96 40.75 45.18 44.58 44.13 41.98 44.12 43.23 43.22 43.14 42.02 42.89 42.90 43.32 44.43 45.30 46.49 48.50 56.65 58.42 59.28 59.88 59.63 59.85 59.92 59.77 60.25 60.11 59.58 59.41 57.70 55.58 52.81 52.63 53.18 50.77 47.97 43.86 41.78 40.85 39.39 39.88
40.05 37.57 34.69 42.36 42.73 42.32 40.97 36.34 43.03 45.14 43.24 44.57 42.43 41.81 41.02 42.11 42.05 42.15 42.41 42.12 42.19 42.69 43.80 45.39 47.75 49.67 56.76 57.20 58.19 59.35 59.08 58.72 58.74 59.45 60.46 58.98 58.45 57.08 54.31 52.16 51.02 50.98 48.84 45.50 42.13 40.59 39.35 38.33 37.86
35.73 32.16 34.80 38.95 43.20 41.65 38.94 36.22 42.79 44.50 43.75 41.96 41.40 40.32 40.82 40.84 41.03 41.36 41.63 41.29 41.18 41.17 42.15 43.53 45.44 47.12 52.21 55.71 56.18 56.73 57.58 57.54 57.39 58.05 59.18 58.95 57.22 55.29 53.60 51.87 50.11 49.08 45.82 42.42 41.70 38.45 38.31 36.27 36.10
33.36 32.59 36.10 35.05 40.68 39.70 37.50 37.58 40.63 43.42 44.12 41.26 38.76 38.41 39.59 39.34 39.35 40.83 40.74 41.22 40.75 40.25 40.99 42.04 43.96 45.70 49.30 51.87 53.02 53.67 54.73 56.44 57.28 57.33 58.18 57.67 57.16 54.64 52.26 50.42 48.97 46.64 43.06 40.24 39.35 38.41 37.09 36.39 36.04
35.86 35.12 34.23 37.43 42.09 37.99 39.25 37.79 40.71 42.73 42.58 40.56 38.54 38.98 39.04 38.88 40.06 40.13 40.14 39.63 39.71 39.76 39.98 40.32 41.24 42.69 45.08 47.66 48.94 50.10 50.68 51.62 54.04 55.69 55.84 55.97 55.86 55.06 50.86 48.85 47.56 44.17 42.94 40.55 39.06 37.37 36.81 35.83 34.93
37.52 35.14 34.26 37.98 40.94 37.96 37.92 37.69 40.04 42.46 42.28 40.37 38.57 37.98 38.21 38.31 38.36 38.93 38.40 38.23 38.18 38.33 38.75 39.43 39.82 40.37 41.80 44.22 45.62 46.37 45.07 45.59 49.26 50.35 52.59 53.66 53.47 53.04 51.11 47.82 45.82 42.92 40.04 38.83 38.29 37.75 35.76 35.96 35.58
36.43 34.96 34.46 35.55 38.03 37.45 34.88 33.66 38.16 41.11 39.45 40.00 39.37 39.31 38.80 37.52 36.70 36.53 36.96 36.08 36.08 36.77 36.22 38.58 39.19 39.61 39.64 40.48 41.81 42.65 43.01 42.89 43.11 46.17 47.44 47.16 50.32 50.81 49.79 48.00 45.62 43.17 41.90 39.83 38.65 37.24 36.83 35.20 34.96
34.16 38.85 37.87 36.92 32.65 29.42 35.68 26.86 34.63 38.12 36.41 36.97 36.69 35.83 36.09 36.65 37.01 36.81 35.97 35.66 35.36 35.35 35.92 37.31 38.72 39.04 39.46 39.17 38.27 37.03 37.03 36.71 38.48 39.64 39.83 41.04 43.35 46.88 48.15 47.69 45.86 43.42 41.53 40.37 38.36 38.19 36.89 35.13 33.14
36.55 37.57 35.49 34.48 31.45 30.15 30.46 27.67 32.10 35.64 33.36 34.28 34.60 35.41 35.36 35.80 36.01 35.66 35.61 36.65 36.39 35.46 34.18 34.90 37.31 37.88 38.15 38.17 37.74 36.96 35.78 35.79 35.90 36.74 36.61 37.53 39.02 40.96 43.16 44.13 45.55 43.72 42.10 40.48 39.28 38.86 36.10 35.23 34.56
38.60 35.59 34.52 34.24 31.86 24.58 30.80 30.21 29.95 31.77 34.80 33.69 34.77 35.37 35.95 35.57 35.43 35.70 36.37 36.45 35.20 34.96 33.78 33.47 34.45 35.40 36.57 36.39 35.95 35.62 35.16 35.46 35.25 35.23 35.12 35.72 36.03 36.91 37.20 38.19 39.48 40.74 41.98 39.97 39.12 38.66 37.94 38.32 35.51
36.28 33.32 27.09 24.24 22.51 24.18 32.12 28.94 32.71 34.40 36.17 35.80 34.29 33.74 34.33 34.44 33.97 33.47 33.39 33.56 33.60 32.85 32.89 33.92 32.84 32.69 33.42 33.97 33.92 33.70 33.44 33.56 33.93 33.59 33.87 33.71 34.23 34.20 34.98 34.73 34.67 36.12 38.14 38.94 37.93 35.93 35.79 37.01 37.57
34.33 35.41 29.48 23.54 21.32 23.75 30.58 26.91 32.90 33.52 34.66 34.98 34.81 33.87 34.94 34.90 34.88 34.03 33.22 32.75 32.54 32.49 31.82 31.64 31.49 31.28 31.83 31.98 31.73 31.83 31.79 31.50 31.63 31.92 32.08 32.43 32.42 33.34 34.07 34.06 33.87 34.05 34.77 35.70 36.85 35.22 34.22 34.07 34.57
34.51 32.12 35.82 28.78 21.42 22.90 28.53 31.61 34.12 34.31 32.85 33.29 32.90 33.13 32.27 32.49 32.57 33.24 33.13 32.43 32.34 31.84 31.07 30.76 30.40 30.22 30.73 31.04 30.92 30.33 30.29 29.60 28.94 29.03 29.50 30.10 30.60 32.33 32.32 32.32 32.16 32.58 32.85 33.00 33.35 32.89 32.44 32.44 32.86
36.69 39.13 30.05 29.62 18.14 16.26 24.40 26.53 28.64 31.57 31.08 31.51 30.55 30.19 31.01 32.02 31.44 31.19 32.24 31.86 31.62 31.60 31.13 30.71 30.91 29.80 29.41 29.86 30.34 30.41 30.13 30.17 29.05 28.05 27.45 27.89 28.83 29.30 29.56 30.22 31.06 31.36 31.15 31.31 31.10 30.89 31.23 31.13 31.71
33.62 31.25 33.99 33.45 28.61 19.99 17.17 23.85 32.59 33.80 32.97 31.04 30.68 31.07 30.23 29.78 30.19 31.74 30.35 30.81 30.65 30.20 29.52 29.37 29.48 29.38 28.80 28.86 29.25 29.38 29.09 29.28 28.73 27.60 27.40 27.15 27.11 27.96 28.19 29.01 28.77 29.32 29.84 29.64 29.64 30.08 30.50 30.11 30.43
35.90 33.83 33.34 28.71 24.49 25.43 28.35 26.68 33.48 31.42 31.50 31.51 30.35 31.25 30.67 30.52 29.40 31.23 30.56 30.40 30.87 29.82 29.37 28.74 28.32 28.49 28.80 28.62 27.84 27.76 28.42 28.10 27.05 27.25 26.89 26.22 25.90 26.31 26.83 27.82 27.98 28.13 28.61 28.96 28.93 29.44 30.88 29.82 30.34

GFSSGP_sfc_wetblb_018.txt.gz
Wetbulb
57.92 54.48 54.41 51.48 43.71 39.14 35.70 39.09 40.37 42.18 41.82 44.78 46.10 44.91 42.98 43.79 44.40 40.35 53.88 60.16 63.16 66.63 69.27 71.37 72.69 73.54 73.98 73.86 73.94 73.42 72.96 71.89 71.53 71.46 71.30 71.16 70.96 70.90 70.57 71.50 72.64 72.43 71.37 70.67 69.83 69.77 68.28 67.18 65.70
55.43 56.40 51.64 45.55 38.57 34.18 35.96 39.67 41.28 42.49 44.72 45.17 45.70 45.30 43.61 43.21 48.85 52.93 55.11 59.91 66.18 67.36 68.91 70.57 71.57 73.19 73.70 73.69 73.44 73.26 73.18 72.76 72.18 71.75 71.46 71.69 71.87 71.63 71.25 71.24 72.02 71.90 71.53 70.72 69.27 68.53 66.77 65.27 63.97
55.96 53.88 46.26 40.75 35.49 34.67 36.37 39.11 39.99 44.04 45.35 44.99 43.62 45.60 43.99 45.16 49.66 54.18 57.63 60.70 65.12 67.03 68.63 69.76 71.30 73.14 73.56 73.54 73.22 73.07 73.17 73.05 72.18 71.84 72.10 72.44 72.03 71.71 71.50 71.63 71.54 70.99 70.57 68.86 68.34 66.66 65.48 63.16 61.80
52.10 49.61 45.26 38.92 36.27 37.91 39.20 40.22 42.24 43.15 44.81 45.87 44.60 42.44 46.40 47.68 50.61 55.39 58.85 60.92 64.92 66.48 68.36 69.46 71.64 73.15 73.44 73.38 73.19 73.02 72.96 72.39 72.18 72.40 72.35 72.06 71.44 70.57 70.28 70.67 70.50 69.61 69.26 67.81 66.91 65.49 63.44 61.11 59.60
48.55 44.02 38.40 36.71 37.07 39.34 41.21 43.07 43.18 42.95 42.61 43.99 44.59 42.50 43.24 50.04 53.84 56.29 58.75 59.93 62.72 65.10 66.55 69.06 71.30 72.42 72.90 73.30 73.11 72.91 72.69 72.52 72.74 73.01 72.49 72.01 71.36 69.96 68.17 66.90 69.28 69.59 68.13 66.18 65.42 63.93 61.79 59.59 57.97
45.21 41.87 35.91 34.03 36.43 40.63 41.98 42.87 42.72 41.45 41.04 42.89 42.50 42.19 42.74 49.33 50.17 55.38 58.63 58.94 59.16 63.03 65.80 68.47 68.79 70.08 71.37 72.24 72.39 72.28 72.28 72.38 72.37 72.66 72.49 72.45 71.62 70.21 67.08 66.69 67.19 68.38 67.28 65.49 64.87 62.58 60.61 58.43 56.46
42.93 39.14 35.45 35.37 35.94 38.37 42.78 43.61 41.06 40.70 40.32 41.76 44.21 41.67 44.83 46.99 50.90 52.49 57.26 57.76 59.48 60.91 65.85 67.07 68.54 69.03 68.38 69.59 70.16 70.94 71.56 71.64 71.68 71.98 72.07 71.31 70.75 68.83 67.50 66.43 66.58 66.25 66.10 65.19 64.23 61.33 59.30 57.48 55.22
44.29 40.44 37.02 36.11 36.85 37.81 42.80 43.64 43.19 41.89 41.63 45.65 45.07 41.18 41.23 48.72 51.30 50.71 53.82 55.55 57.49 59.08 64.53 65.93 66.74 67.73 68.65 69.21 67.09 68.00 69.31 69.75 70.11 69.97 69.19 68.04 67.70 67.07 66.34 64.86 66.04 66.06 65.47 64.72 63.35 60.65 59.00 57.13 53.72
44.33 37.64 34.66 37.22 37.33 39.00 42.91 42.14 43.97 43.18 41.93 42.45 45.22 44.55 44.67 48.33 50.46 51.08 50.71 52.67 53.77 57.69 60.40 63.80 65.33 66.64 66.91 66.71 66.66 65.43 66.81 67.52 67.61 67.39 65.92 64.74 64.29 63.91 62.66 62.49 64.43 66.13 65.56 64.37 62.72 60.40 58.83 56.14 51.75
41.49 35.92 38.11 41.21 40.25 39.69 43.04 41.37 41.78 41.78 42.01 40.99 41.49 45.28 45.68 47.37 49.31 49.08 48.38 49.73 51.24 53.44 57.63 60.72 63.70 65.03 65.53 67.91 66.61 66.06 67.99 67.40 67.62 67.18 65.46 63.93 62.82 61.22 61.25 60.16 62.38 64.25 63.78 64.30 62.28 60.30 58.25 51.17 41.66
42.16 38.26 41.48 43.78 43.97 43.51 43.56 43.41 42.67 40.49 41.45 43.70 42.82 44.31 45.87 44.52 46.02 45.70 45.31 45.92 47.74 50.74 54.28 59.53 61.47 63.88 64.57 65.80 66.09 65.06 67.34 66.85 64.92 63.88 63.24 62.26 62.39 61.04 59.92 58.17 58.96 58.56 58.76 57.70 58.32 55.96 49.53 43.23 41.82
39.91 44.78 44.49 45.93 45.66 43.61 42.00 44.45 43.27 42.90 44.87 46.80 45.40 44.25 44.47 43.47 42.18 42.30 42.35 42.70 43.03 44.65 45.82 51.95 59.54 61.14 63.42 64.39 64.34 64.88 66.30 66.02 65.96 64.39 62.40 62.83 61.81 60.71 59.22 58.22 57.26 55.32 54.17 53.03 51.46 49.51 47.31 43.41 41.98
41.15 42.55 45.04 46.29 44.99 43.62 43.87 43.01 42.00 43.71 45.69 45.73 44.72 43.39 42.06 41.82 41.81 41.88 42.66 42.53 42.49 42.75 43.60 44.79 51.37 59.87 61.59 62.02 61.67 63.00 65.32 64.98 64.42 62.11 61.67 61.97 61.94 60.32 58.78 57.26 55.99 53.93 51.83 50.62 48.79 47.64 44.50 41.01 40.22
42.46 43.11 43.41 43.85 43.95 43.10 42.70 40.39 41.39 44.75 42.98 43.63 44.01 41.14 40.32 40.66 40.43 40.42 40.85 40.71 41.22 42.70 42.81 44.23 45.56 54.38 59.79 61.23 60.18 61.48 62.31 62.39 61.80 61.13 61.76 60.97 62.57 60.60 57.36 55.87 55.18 52.44 51.29 49.56 48.29 46.67 41.61 39.97 39.33
42.11 39.80 41.21 41.28 41.63 41.63 42.46 38.97 40.50 45.18 43.27 42.21 39.76 38.17 39.73 40.06 40.12 38.91 39.71 39.67 39.79 40.85 42.22 43.38 46.34 47.96 57.30 59.08 59.12 59.09 59.51 59.74 59.66 60.27 60.14 60.31 60.64 60.09 57.19 55.52 54.72 54.50 50.77 48.98 46.78 43.78 40.30 38.61 38.43
37.91 36.29 34.05 40.74 41.38 40.70 40.10 36.45 42.88 44.31 42.01 40.00 37.38 36.50 38.16 38.99 39.20 39.07 39.85 39.37 39.20 39.35 40.33 42.77 46.02 48.66 54.28 56.31 57.61 58.57 58.20 57.82 58.29 58.92 60.39 60.06 59.86 58.22 56.17 55.06 54.55 54.29 52.01 48.25 44.86 41.37 39.04 37.75 36.66
33.91 30.96 32.93 37.77 41.57 40.28 38.35 35.91 42.28 44.05 41.76 37.82 36.16 37.13 37.87 37.52 37.98 38.29 38.95 38.51 38.52 38.31 39.20 41.00 43.58 45.11 50.45 53.89 54.98 55.92 56.27 56.36 56.86 59.41 60.15 59.96 58.95 57.33 55.75 54.30 53.91 52.75 51.28 47.73 43.90 39.31 39.06 37.02 35.67
31.73 31.11 33.69 34.16 38.51 38.06 36.42 36.99 40.16 42.88 40.84 37.09 36.09 36.25 36.17 36.29 36.69 38.46 38.36 38.81 38.40 38.18 39.01 39.74 41.67 42.62 46.39 50.19 51.68 52.28 51.76 54.42 56.62 56.73 57.78 58.44 57.36 55.17 55.08 53.81 52.06 51.01 49.17 45.18 40.61 39.61 37.05 36.77 36.07
34.57 33.51 33.24 35.75 40.32 37.18 37.47 36.52 39.40 41.94 38.13 35.96 35.99 36.44 36.20 36.21 37.58 37.95 37.89 37.33 37.54 37.72 38.33 38.67 38.99 39.52 42.49 44.66 46.19 46.37 45.66 46.47 50.47 52.51 52.88 54.39 56.03 55.33 53.82 52.77 50.67 48.41 47.05 45.90 43.03 38.04 37.24 35.60 34.71
35.15 33.20 33.51 36.49 39.43 36.90 36.35 36.52 39.50 39.52 39.55 37.74 36.76 35.84 35.74 35.57 35.62 36.50 36.14 36.29 36.34 36.27 36.79 37.79 38.19 38.32 39.10 40.47 42.80 43.83 42.97 43.60 45.62 46.47 45.53 45.57 50.85 52.07 52.06 49.68 48.10 46.89 44.58 42.84 40.92 39.94 35.67 35.90 34.95
34.41 33.43 33.02 34.88 36.59 36.08 33.53 32.79 37.10 36.46 36.93 37.58 37.13 36.78 36.13 34.63 33.85 34.20 34.56 33.85 34.91 35.03 35.34 37.11 37.57 37.91 37.86 38.02 39.04 38.92 39.29 38.51 38.84 38.96 39.24 40.27 44.15 47.23 48.29 48.42 46.48 45.09 43.80 42.98 41.29 39.59 38.94 36.64 34.10
33.32 38.33 37.57 35.70 31.90 28.78 33.13 25.59 32.60 35.74 33.87 34.56 34.39 33.58 33.54 33.65 34.24 34.37 33.86 33.41 33.28 32.85 34.47 35.82 36.69 36.76 37.69 37.48 36.86 35.72 34.86 34.06 34.79 35.21 36.04 37.38 38.18 38.17 38.90 41.50 44.61 44.36 42.76 41.57 41.07 40.63 39.09 37.75 36.22
36.24 36.37 34.58 33.08 30.36 27.89 29.15 26.65 30.39 33.61 31.05 32.31 32.33 33.23 33.08 33.25 33.51 33.17 33.28 34.15 33.41 32.74 31.96 32.59 34.77 35.18 35.22 35.44 36.26 35.66 34.55 34.55 35.05 35.06 34.86 35.23 36.05 36.34 36.15 36.35 36.85 38.19 42.06 41.82 40.24 39.53 38.29 37.96 37.20
37.40 34.94 33.81 31.76 29.77 23.64 29.46 29.00 27.78 30.47 33.15 32.03 32.93 33.08 33.58 33.07 33.06 33.20 33.77 33.64 32.09 31.67 31.15 31.52 32.21 32.31 33.02 33.04 32.91 32.70 32.29 31.71 31.59 31.47 31.46 32.31 33.77 33.91 33.97 34.75 34.44 35.05 35.72 36.48 38.94 39.38 38.58 38.35 37.73
34.31 32.05 25.92 23.99 21.73 23.62 29.95 26.74 30.89 32.86 33.58 35.06 32.75 32.07 32.63 32.40 31.99 31.77 31.47 30.88 30.67 30.05 29.92 31.51 30.78 30.59 31.05 30.90 30.65 30.65 30.13 30.07 29.54 30.00 29.95 29.71 30.28 30.87 31.30 32.03 32.11 33.10 33.49 33.82 34.64 35.00 36.24 37.11 36.62
32.70 33.60 28.25 23.56 20.23 23.41 28.15 26.13 31.40 31.59 32.72 33.92 33.83 32.77 32.92 33.93 33.93 32.57 32.09 31.51 30.67 30.25 29.39 29.39 29.63 29.55 29.91 29.72 29.44 29.40 28.98 29.08 28.97 28.55 28.69 28.97 28.89 29.56 30.21 30.40 30.57 30.63 31.28 32.11 32.44 32.25 32.02 32.46 32.16
33.19 30.70 34.71 29.27 21.24 20.92 27.36 29.36 31.08 32.26 30.87 31.37 31.20 31.77 31.41 31.91 32.53 32.46 32.71 32.18 31.41 30.28 30.03 29.70 28.91 28.82 29.52 29.60 29.32 28.93 29.09 28.11 27.22 27.12 27.30 27.35 27.87 29.59 28.80 28.60 28.54 28.93 29.19 28.93 29.35 29.36 29.55 29.81 30.47
34.53 37.56 28.72 28.11 19.16 15.88 23.75 25.47 27.63 29.14 29.04 30.05 29.75 29.80 30.35 30.68 30.89 31.75 30.93 30.60 30.62 30.50 30.30 29.54 29.28 28.04 27.82 28.41 28.45 28.51 28.21 28.24 27.59 26.89 26.14 25.90 26.50 26.80 26.70 26.77 27.68 27.86 27.72 27.59 27.10 26.98 27.87 28.36 29.23
31.78 30.80 32.61 32.04 26.84 19.35 15.83 22.92 30.93 32.22 31.56 30.08 29.50 30.42 29.99 30.04 30.20 30.12 30.99 30.70 31.07 31.01 30.27 29.42 28.75 28.19 27.88 27.48 27.13 27.07 27.18 26.85 26.62 25.95 25.71 25.49 25.33 25.53 25.69 26.02 26.13 26.26 26.30 26.72 26.18 25.97 26.46 26.39 27.11
34.28 32.78 32.09 25.99 23.53 25.34 25.24 25.99 33.53 33.59 32.81 31.57 30.35 31.09 31.09 31.69 30.43 30.31 28.72 28.57 28.05 28.30 27.63 27.95 27.76 28.06 27.78 27.48 26.52 26.15 25.90 25.51 25.22 24.64 25.06 25.28 25.18 25.66 25.06 24.98 24.67 24.56 24.59 25.04 25.15 25.40 25.30 25.30 26.11

GFSSGP_sfc_wetblb_021.txt.gz
Wetbulb
56.71 53.75 52.58 50.04 42.66 38.85 35.07 37.45 41.20 40.61 40.31 43.45 44.73 43.64 42.01 42.94 43.18 39.22 52.01 59.22 61.12 64.84 68.04 71.18 72.53 73.46 73.83 73.98 73.87 73.19 72.73 71.91 71.78 71.33 70.89 70.49 70.33 70.30 70.79 71.79 72.58 71.94 70.98 70.03 69.67 68.80 67.71 66.47 65.54
54.85 54.48 50.08 43.69 37.48 33.13 35.07 37.65 39.65 40.99 43.06 44.35 44.50 43.84 42.69 42.76 46.66 51.23 54.85 59.41 63.93 65.90 68.16 70.64 71.45 73.14 73.72 73.62 73.62 73.09 72.54 72.08 71.54 71.41 71.12 71.03 71.36 71.06 70.56 71.55 72.00 71.65 71.16 70.76 69.29 67.87 66.53 64.80 63.90
54.24 51.36 45.16 39.50 34.04 33.50 34.99 37.78 38.71 43.39 44.34 43.66 42.32 44.48 44.54 43.85 48.30 51.43 55.43 58.68 64.95 66.03 68.10 70.02 71.14 73.07 73.60 73.45 73.38 73.13 72.87 72.74 71.96 71.51 71.21 71.58 71.63 71.54 71.17 71.23 71.56 71.22 70.30 69.70 68.01 66.57 64.84 63.00 61.73
50.80 48.09 43.82 37.68 34.30 36.56 39.68 40.69 40.01 41.90 44.22 45.28 43.11 42.00 44.64 46.68 48.48 52.93 57.44 59.86 63.87 65.13 67.21 68.92 71.40 73.05 73.48 73.34 73.19 72.90 72.51 72.35 72.13 71.60 71.77 72.18 71.75 71.14 71.29 71.33 70.51 69.80 69.71 68.27 66.92 65.30 63.06 60.97 59.43
46.62 42.81 37.45 35.36 35.26 38.51 41.58 41.28 41.90 41.21 40.82 42.31 42.70 42.00 42.73 47.86 52.91 56.32 58.16 59.79 62.28 64.36 66.31 67.66 70.84 72.35 72.98 73.17 73.09 72.91 72.76 72.36 72.29 72.35 72.39 71.86 71.17 70.18 69.40 69.10 69.75 69.64 68.60 66.54 65.48 63.75 61.52 59.47 57.47
44.08 40.70 35.21 32.96 35.52 39.11 40.75 41.14 41.27 40.05 39.80 41.31 44.31 43.61 42.24 47.46 51.35 54.50 57.18 56.30 61.13 63.93 65.14 67.21 68.06 69.92 71.39 72.31 72.53 72.50 72.54 72.49 72.49 72.79 72.55 72.40 71.59 70.02 67.67 66.67 68.45 67.97 66.81 65.46 64.61 62.61 60.33 58.13 56.13
41.73 37.48 34.18 33.10 34.87 37.86 40.99 42.94 43.72 40.36 39.25 40.69 45.86 41.59 44.04 46.51 49.49 51.19 54.94 54.94 57.04 61.94 64.31 65.86 67.94 68.50 67.74 69.45 70.05 70.88 71.48 71.56 71.66 71.84 71.95 71.45 70.64 70.00 67.49 67.59 67.05 67.06 66.74 65.40 64.57 61.73 59.35 57.10 54.61
42.48 39.20 35.17 34.29 35.05 36.20 41.51 42.06 41.71 40.49 40.33 44.49 45.52 40.32 40.48 48.56 48.55 50.26 52.12 54.45 55.30 58.00 63.60 64.46 66.01 69.06 68.91 68.47 66.46 67.45 68.82 69.50 69.90 69.55 69.05 67.91 67.78 67.11 66.28 65.10 66.70 66.90 66.23 64.93 64.15 61.12 58.82 56.82 53.11
42.38 36.17 33.25 35.41 35.70 38.51 41.95 41.77 42.19 42.35 40.20 41.95 43.60 45.43 43.78 47.47 49.22 49.77 50.33 52.04 52.66 56.16 58.86 62.72 64.28 66.01 67.66 68.95 67.24 65.12 66.41 67.20 67.19 66.87 65.73 65.57 65.30 65.13 63.15 62.62 64.66 66.63 66.29 65.16 63.97 60.86 58.84 56.18 51.79
39.96 34.24 36.22 39.85 39.59 39.27 41.70 40.24 41.08 41.67 41.96 39.77 40.60 44.92 45.27 45.52 47.77 46.63 45.45 45.87 46.97 50.02 54.29 58.52 61.86 63.77 65.32 67.54 66.90 67.69 68.31 67.97 68.50 68.03 67.54 66.06 64.11 63.68 62.34 60.29 62.25 64.30 64.23 64.83 63.53 60.80 58.61 50.39 40.80
40.15 36.98 40.26 42.37 42.99 42.42 41.63 40.44 41.75 39.64 40.76 41.56 41.32 43.90 44.21 41.48 41.58 41.49 41.13 40.76 40.63 42.82 45.37 47.28 58.33 61.45 63.23 66.50 67.17 66.80 67.21 66.84 66.16 66.29 66.30 64.85 62.49 61.79 61.03 60.62 60.95 59.11 59.09 58.21 58.78 55.52 49.92 43.22 39.32
40.02 42.70 42.29 44.40 44.49 42.46 41.17 41.92 41.83 41.47 44.03 44.27 41.94 41.74 40.09 40.32 40.05 40.13 40.31 40.29 40.49 41.35 42.37 43.42 44.50 58.34 61.38 62.65 64.99 65.82 66.00 66.37 65.64 65.02 63.46 62.83 61.86 61.07 60.06 59.53 59.25 58.92 57.39 54.59 52.38 50.29 48.16 44.14 41.59
40.38 41.41 43.33 45.02 43.87 42.40 42.65 42.02 40.96 42.47 43.79 43.05 42.45 41.59 39.64 39.24 39.31 39.47 39.89 40.16 39.92 40.25 41.25 42.27 43.23 48.85 59.71 61.16 61.12 61.62 64.72 65.92 65.21 64.60 63.41 61.05 59.92 60.69 59.59 58.82 57.98 57.66 55.79 54.29 50.49 48.74 47.06 42.41 39.94
40.95 41.64 42.16 43.00 42.90 41.65 41.34 38.98 39.81 42.86 42.43 40.84 40.70 38.30 37.99 38.41 38.23 38.22 38.57 38.44 38.71 40.06 40.35 42.09 44.08 46.33 54.20 59.89 59.66 60.16 64.05 64.53 63.66 62.93 62.15 60.27 59.88 59.05 59.48 57.70 56.89 56.11 55.22 52.68 50.12 48.39 45.88 40.87 38.65
40.82 38.46 39.59 40.44 39.98 40.11 41.16 37.15 39.41 42.95 41.55 39.41 37.58 36.41 37.54 37.92 37.97 36.99 37.90 37.69 37.77 38.71 39.90 41.52 45.19 48.88 52.59 57.63 58.45 58.89 59.26 60.45 60.56 60.03 59.79 60.26 61.40 60.86 58.98 57.51 55.80 55.47 53.90 51.96 50.01 46.23 42.43 39.48 38.19
37.11 35.47 32.64 38.94 39.59 39.63 39.65 36.30 41.49 42.37 40.33 37.11 35.84 34.93 36.04 37.02 37.19 37.18 38.06 37.62 37.78 37.90 38.61 40.96 43.95 47.12 52.96 55.55 56.93 57.85 57.99 58.37 58.56 60.71 60.75 60.62 60.63 60.00 57.72 56.38 55.44 55.48 53.48 51.86 49.59 46.24 41.83 39.59 37.15
33.10 29.62 31.14 36.68 40.14 38.68 36.97 35.56 41.21 40.98 39.84 35.46 34.54 35.28 35.82 35.67 36.49 36.98 37.37 36.88 37.01 37.02 37.99 39.38 41.46 42.95 48.99 52.67 53.98 54.53 55.10 57.50 57.87 58.87 59.23 59.41 59.08 58.50 57.22 55.97 55.72 53.96 52.00 50.59 48.51 44.12 43.47 39.24 36.86
30.24 29.98 31.97 32.97 37.02 36.89 35.25 36.17 39.27 41.14 39.37 35.81 34.29 33.83 34.28 34.76 35.25 36.73 36.64 36.93 36.72 36.76 37.84 38.49 39.95 40.37 44.38 48.78 48.70 48.35 49.54 52.71 52.10 51.17 52.86 55.16 56.78 55.45 55.11 54.61 53.40 52.33 50.93 48.90 46.63 44.38 40.28 39.12 37.35
33.29 32.35 32.51 34.01 38.50 35.27 36.15 35.36 38.34 38.90 36.31 34.06 33.78 33.78 33.84 34.31 35.60 35.91 35.84 35.58 36.16 36.58 37.06 37.23 37.48 37.91 39.46 42.81 44.65 44.50 42.94 45.34 43.76 44.11 44.29 48.29 50.79 53.57 52.54 51.31 50.89 49.72 49.84 47.98 45.48 41.65 41.02 39.26 37.50
33.22 31.04 32.00 35.11 37.65 36.31 35.46 35.30 38.44 37.39 35.90 35.36 34.52 33.43 33.54 33.22 33.31 34.21 33.87 33.93 33.84 34.23 35.42 36.20 36.68 36.94 37.50 38.46 39.24 40.69 40.22 39.73 38.87 39.46 39.33 39.71 40.61 42.94 47.31 47.60 46.99 46.83 46.32 44.97 43.57 41.50 40.18 39.04 37.79
32.84 31.96 31.47 33.64 35.49 34.42 32.45 31.22 35.26 34.20 35.12 35.75 35.15 34.52 33.55 32.25 31.81 31.95 32.03 31.11 31.52 32.04 32.75 34.64 35.10 35.98 36.52 37.47 37.67 37.55 37.47 36.80 36.55 36.32 36.57 36.89 37.50 37.64 38.66 39.85 42.38 42.69 43.23 43.35 42.81 40.98 39.83 39.20 37.69
31.71 36.60 36.15 34.81 31.52 28.56 32.02 25.50 31.06 33.63 32.13 32.96 32.64 31.62 31.44 31.68 32.18 32.15 31.31 30.31 30.15 30.42 31.73 33.16 33.84 34.17 35.32 36.15 35.94 34.80 33.52 32.54 33.45 34.08 34.43 34.77 34.89 34.83 36.01 36.38 36.90 37.70 39.85 40.84 40.59 40.94 39.62 38.26 37.44
35.30 35.59 34.19 32.01 29.45 27.00 28.13 25.87 29.40 32.35 30.01 30.57 30.91 31.42 31.08 31.20 31.48 31.28 31.21 31.58 30.56 30.22 29.24 29.81 31.76 31.73 32.03 32.50 32.96 31.98 31.08 31.30 31.03 31.08 30.87 31.75 32.27 32.45 32.76 33.59 34.43 34.58 35.40 35.16 36.23 38.51 39.07 38.53 37.08
36.74 34.07 32.88 30.61 28.73 22.86 29.03 28.76 26.60 29.97 32.00 30.47 31.19 31.52 31.78 31.36 31.08 31.09 31.32 30.94 29.51 29.12 28.91 29.14 30.06 29.75 30.06 30.33 29.94 29.43 28.77 28.70 28.79 28.74 28.59 29.32 30.21 30.69 30.88 31.34 31.19 31.55 31.99 32.70 33.65 34.33 35.08 36.13 37.62
33.39 31.46 25.47 23.56 21.58 23.29 28.12 25.61 30.26 31.54 31.60 32.89 31.74 30.88 31.04 30.99 29.78 29.60 29.35 28.78 28.41 28.03 28.59 29.52 28.88 28.35 28.62 28.67 28.52 28.30 27.72 27.49 27.09 27.03 27.14 27.13 27.58 27.89 28.18 29.16 29.04 29.39 29.83 30.09 30.44 31.02 31.27 32.55 32.27
31.58 32.34 26.37 20.02 19.93 23.08 27.29 25.60 31.18 30.07 31.01 33.24 33.35 32.22 31.14 30.33 30.79 30.14 29.63 29.03 28.56 28.33 28.09 28.35 28.47 28.11 28.40 28.54 28.00 27.68 27.32 27.08 26.71 26.46 26.47 26.32 26.40 26.83 27.27 27.26 27.67 27.69 28.01 28.21 28.24 27.31 27.47 28.40 29.14
31.61 29.19 33.44 28.47 16.91 20.04 27.05 28.59 29.53 30.47 29.64 30.21 30.27 30.47 30.02 30.48 30.48 30.64 30.99 29.95 29.00 28.32 28.18 28.36 28.37 28.73 28.24 28.08 27.68 27.28 27.17 26.50 25.77 25.73 25.54 25.25 25.62 27.76 26.21 25.59 25.38 26.10 26.49 26.43 25.91 25.38 25.37 26.04 26.94
33.76 36.02 28.28 26.88 18.57 16.32 23.94 25.05 27.62 27.62 28.65 29.44 29.45 30.03 29.85 30.53 31.04 30.93 30.88 30.52 29.89 28.89 28.30 27.60 27.36 27.26 27.66 27.70 27.38 27.08 26.36 26.41 25.64 24.79 24.45 24.26 24.47 24.93 24.86 24.64 24.65 24.99 25.16 25.08 24.75 24.91 25.17 24.23 24.49
31.55 30.44 31.23 30.64 26.95 20.49 16.31 24.07 30.11 30.78 30.15 29.66 30.35 30.70 29.88 29.86 30.55 30.76 30.06 29.99 29.91 29.09 28.29 27.61 27.43 26.96 26.38 26.74 26.00 25.65 25.05 24.95 25.16 24.41 23.81 23.98 24.07 24.38 24.53 24.59 24.05 23.71 23.50 23.73 23.28 23.29 23.80 23.49 24.00
32.28 32.06 32.41 28.11 24.37 24.41 24.72 26.92 32.32 32.87 31.95 31.57 30.69 31.04 30.63 30.79 30.02 29.75 30.43 28.93 28.45 28.35 27.77 27.02 26.31 26.00 26.05 25.76 24.80 25.14 24.53 24.39 23.84 23.57 23.79 23.93 23.71 24.29 24.21 24.38 23.82 23.28 23.08 22.83 21.98 22.15 22.56 22.00 22.50

GFSSGP_sfc_wetblb_024.txt.gz
Wetbulb
55.52 53.25 51.03 48.61 41.72 38.10 33.66 36.65 39.58 39.60 40.58 42.23 43.53 42.66 43.21 43.59 41.94 38.57 49.66 57.41 60.81 64.31 66.55 71.09 72.68 73.49 73.60 73.59 73.66 73.15 72.79 72.05 71.69 71.25 70.87 70.72 70.65 70.65 71.01 71.84 72.36 71.63 70.72 69.92 69.06 68.74 67.66 66.27 65.60
53.51 53.05 48.47 42.04 36.75 32.11 34.23 37.12 38.28 40.01 41.58 44.70 43.30 42.61 43.24 41.49 45.26 50.58 53.57 58.12 62.24 64.75 68.02 70.37 71.47 73.25 73.65 73.79 73.68 72.99 72.50 72.13 71.57 71.12 70.78 70.69 70.96 70.52 71.09 72.05 71.92 71.42 70.89 70.96 69.16 67.77 66.10 64.84 63.87
52.90 49.60 44.50 37.98 33.04 32.60 34.12 37.79 40.72 41.64 42.86 42.31 44.94 44.54 45.60 42.53 46.51 51.67 54.67 58.50 63.65 64.55 67.43 69.64 71.07 73.06 73.58 73.36 73.49 73.01 72.66 72.40 71.59 71.25 71.03 71.24 71.36 71.32 70.70 71.26 71.35 70.79 70.30 70.12 68.15 66.72 64.72 63.20 61.82
49.83 46.79 42.65 36.29 34.25 35.70 37.94 39.96 39.01 42.15 42.84 44.12 42.65 43.51 43.68 46.57 46.77 51.77 57.47 59.54 61.98 63.59 66.39 68.84 71.35 73.05 73.45 73.22 73.35 72.91 72.24 72.15 72.02 71.56 71.31 71.74 71.79 71.23 71.31 71.35 71.09 70.20 69.63 68.92 67.28 65.42 63.32 61.55 59.93
45.21 41.93 36.70 34.64 34.85 37.09 38.99 41.58 40.37 39.62 43.05 41.12 42.65 41.34 42.47 45.45 53.12 55.10 55.91 59.49 60.38 63.00 65.30 67.14 70.75 72.28 72.99 73.09 73.05 72.98 72.57 72.42 72.35 71.77 71.84 72.22 71.38 70.86 70.88 70.62 69.55 69.35 68.59 66.97 66.18 64.32 62.15 60.00 58.16
43.17 40.02 34.39 31.98 34.60 37.43 40.55 39.97 40.26 38.53 38.90 41.52 43.55 41.81 41.28 46.15 50.87 53.01 56.11 54.09 59.05 62.22 64.72 66.35 67.69 69.83 71.34 72.18 72.52 72.55 72.62 72.51 72.34 72.33 72.26 72.03 71.28 70.10 68.94 68.65 68.61 68.53 68.79 66.13 64.27 63.30 61.01 58.82 56.66
40.69 36.25 33.02 32.66 34.21 36.47 39.09 41.02 42.16 42.12 41.80 42.40 44.41 41.32 43.54 47.90 47.62 48.93 54.80 56.87 57.28 61.25 63.17 64.27 66.09 67.48 67.58 69.51 70.12 71.02 71.49 71.61 71.57 71.42 71.44 70.97 70.54 70.23 68.32 67.98 68.08 66.67 67.10 65.44 64.12 62.52 60.12 58.02 55.45
40.90 38.17 33.44 32.70 34.08 34.82 40.11 40.29 40.68 41.85 39.24 43.69 43.94 40.39 41.41 44.40 48.62 50.44 52.00 52.47 54.41 56.83 60.72 62.36 63.97 68.27 69.19 68.40 66.30 67.59 69.00 69.67 69.97 69.56 68.81 67.41 67.87 67.98 66.46 65.37 66.82 66.80 66.10 64.75 63.64 61.78 59.47 57.62 54.32
40.53 34.99 32.19 35.69 35.34 37.52 40.11 39.93 40.95 41.25 41.65 41.68 42.09 44.72 42.39 45.06 48.91 48.20 47.06 46.78 47.63 51.20 55.41 59.23 62.33 66.59 67.33 68.14 67.28 64.42 66.07 66.93 66.96 66.69 65.63 65.34 65.45 66.36 64.28 62.75 65.01 66.82 66.28 65.02 63.95 61.20 59.12 56.27 51.86
38.40 32.89 34.82 38.23 40.19 40.02 40.22 39.92 40.31 41.17 40.65 41.22 40.52 43.58 42.89 41.86 41.36 41.29 40.43 40.47 41.02 41.82 44.74 46.69 55.01 62.41 65.93 67.07 67.38 67.60 68.46 66.68 66.17 66.66 67.12 66.83 66.33 64.53 63.46 61.12 62.39 64.44 64.12 64.88 64.01 61.02 57.17 48.93 39.02
39.13 35.27 37.84 40.77 41.41 41.15 40.38 39.34 40.45 41.17 38.15 39.41 41.27 41.49 40.58 40.17 39.86 39.64 39.36 38.97 38.95 39.99 41.84 43.12 43.94 48.71 63.42 65.83 66.78 66.89 67.48 67.25 66.69 67.17 66.98 66.09 64.61 62.63 61.94 61.39 61.37 61.49 59.91 59.69 58.29 53.72 49.97 43.95 39.20
38.79 41.06 41.02 43.29 42.88 41.47 39.81 40.81 39.72 40.23 40.28 41.95 39.46 39.36 38.62 38.41 38.15 37.85 37.80 38.22 38.29 39.28 40.63 42.04 42.98 43.87 54.29 64.61 65.60 65.92 65.97 66.18 65.54 65.27 64.69 64.18 62.79 61.84 60.84 60.53 60.21 59.95 58.96 57.52 55.73 52.72 48.82 45.21 41.28
40.30 39.89 41.68 42.96 42.59 42.18 41.66 40.52 40.23 41.58 41.01 40.80 40.55 39.57 37.80 37.40 37.44 37.69 38.02 38.41 38.16 38.40 39.67 41.17 42.36 44.55 47.44 59.07 63.54 63.87 64.32 65.19 65.52 65.04 64.15 63.18 62.09 61.35 60.62 60.11 59.29 58.93 57.44 56.74 54.75 51.25 48.62 45.59 40.94
39.23 40.19 41.01 41.70 40.80 40.36 40.39 37.76 39.30 38.89 39.12 39.15 38.75 36.68 36.42 36.79 36.55 36.75 37.18 37.20 37.58 38.81 39.24 41.01 43.25 46.54 49.60 55.85 60.41 61.54 63.64 63.94 63.91 63.64 63.09 62.61 61.86 59.10 58.97 58.56 56.37 57.72 57.03 55.61 53.77 51.56 48.17 45.19 39.91
39.56 37.49 38.73 38.99 38.48 38.99 40.07 36.51 37.88 39.77 39.54 37.41 36.17 35.11 35.86 36.13 36.26 35.38 36.24 36.18 36.44 37.56 38.73 40.10 43.88 47.61 52.68 56.89 58.90 59.47 61.87 61.99 61.79 61.62 61.32 61.01 61.15 59.61 59.51 58.47 57.41 57.36 55.89 54.05 52.04 49.76 47.04 44.32 39.67
36.30 34.41 32.37 37.27 38.61 38.31 38.25 35.91 39.38 40.21 39.49 35.94 35.19 33.60 34.55 35.59 35.57 35.58 36.21 36.03 36.43 36.54 37.47 39.53 42.19 44.73 52.90 55.81 57.16 57.85 58.81 59.10 59.31 60.08 60.61 60.38 60.66 60.55 58.74 57.69 56.44 56.03 54.47 53.20 51.44 49.06 46.82 44.90 42.09
32.48 30.62 29.98 35.60 38.96 37.50 36.34 35.74 38.67 38.57 38.09 34.84 33.75 33.72 34.46 34.05 34.69 34.93 35.32 35.09 35.53 35.67 36.68 38.12 39.63 40.53 47.51 50.27 52.35 53.26 51.28 49.41 48.76 49.78 52.32 55.43 56.03 57.02 57.24 55.68 54.79 54.61 52.96 51.51 49.85 46.61 45.83 44.83 42.96
30.17 28.86 30.70 31.80 35.21 35.43 33.17 35.74 39.03 39.56 38.29 34.65 32.76 32.32 32.72 32.81 33.07 34.29 34.41 35.03 35.11 35.19 36.16 37.14 38.54 38.76 41.84 47.27 47.57 46.15 44.19 42.89 42.93 42.10 43.10 44.86 47.04 50.87 52.61 52.60 51.87 52.17 51.33 49.65 48.39 46.47 43.09 41.40 40.59
32.63 30.91 31.89 32.78 36.62 34.85 35.72 35.14 38.50 38.72 34.90 32.56 31.73 32.10 32.06 32.21 33.33 33.47 33.53 33.03 33.53 34.29 34.88 35.44 36.37 36.84 39.03 40.98 41.88 41.55 37.75 40.02 39.16 38.74 38.89 39.87 40.73 43.00 45.19 46.81 46.72 47.89 47.33 46.70 45.69 43.51 42.81 41.85 38.87
32.35 30.65 30.86 34.05 35.96 35.29 34.59 34.12 37.29 35.56 34.45 33.84 32.74 31.77 31.83 31.23 31.49 32.29 31.72 31.38 31.30 31.70 32.59 34.06 35.16 35.70 36.95 37.30 37.36 37.73 37.02 36.94 37.38 36.89 35.68 36.11 36.93 37.74 38.70 40.04 41.60 42.26 43.11 41.68 41.43 40.52 40.07 39.74 38.67
31.76 31.26 30.20 32.61 33.70 33.54 31.39 30.90 34.11 33.06 33.82 33.94 33.38 32.66 31.84 30.81 30.23 29.95 30.19 29.39 29.49 29.58 29.84 32.33 33.41 34.58 35.54 36.31 36.87 36.13 35.62 34.42 33.63 32.66 32.29 32.35 33.45 34.49 35.80 35.97 36.57 37.07 38.19 38.54 39.36 40.10 39.10 38.81 38.54
29.85 34.83 34.67 33.10 30.94 28.17 30.92 24.95 30.16 31.75 31.01 31.68 31.31 30.31 30.17 30.30 30.24 29.99 29.24 28.66 28.54 28.68 29.25 30.17 31.30 32.36 33.36 34.13 33.44 31.97 30.80 29.21 29.35 29.37 30.24 30.95 31.44 31.57 32.18 32.70 33.12 33.95 34.62 34.25 35.58 38.06 37.07 36.10 35.30
33.95 35.31 33.71 31.77 29.20 26.43 27.11 25.19 29.34 31.47 30.27 29.94 30.16 29.96 29.61 29.34 29.55 29.35 28.90 29.55 28.60 28.44 27.45 27.68 29.17 29.75 30.15 30.44 31.03 30.46 28.77 28.62 28.11 28.06 28.56 28.67 29.49 30.04 30.36 30.44 30.41 30.55 31.13 31.39 32.06 33.26 34.32 35.62 34.71
35.78 33.66 32.02 29.27 28.09 22.07 28.93 28.53 26.49 28.77 31.17 29.69 30.63 30.48 30.51 30.13 29.70 28.61 29.23 29.11 27.92 27.50 27.35 27.26 27.81 27.79 28.42 28.77 28.42 27.91 27.10 26.47 26.97 26.35 26.66 26.90 27.52 28.10 28.15 28.87 28.53 28.84 28.87 28.87 29.59 29.44 30.46 30.70 32.09
32.46 30.62 25.21 23.07 21.27 23.19 27.29 24.88 29.04 30.48 30.88 31.57 31.70 30.38 30.08 30.05 28.87 28.28 27.45 27.04 27.09 26.79 27.21 28.13 27.24 26.74 26.92 27.24 27.07 26.79 25.98 25.65 25.31 25.16 25.12 25.06 25.21 25.13 25.54 26.19 26.00 26.35 26.69 27.08 27.24 26.33 26.97 27.11 27.42
30.94 31.58 26.24 19.90 19.61 23.08 26.52 24.72 30.65 29.73 30.67 31.40 32.89 31.24 30.36 29.30 29.25 28.74 28.49 27.50 27.01 27.24 26.93 27.14 27.03 26.89 27.22 26.88 26.28 26.18 26.09 26.34 25.71 25.00 24.50 24.56 24.31 24.57 24.72 24.41 24.34 24.51 25.05 25.00 24.71 24.64 24.80 24.78 25.15
30.69 28.65 32.34 26.95 14.88 18.82 26.58 28.62 29.31 29.93 29.04 29.27 29.28 29.83 29.05 29.12 29.18 29.30 29.12 28.05 27.00 26.66 27.12 27.48 27.51 27.38 27.05 26.96 26.71 25.93 25.88 25.15 24.57 24.41 24.44 23.88 24.60 26.11 24.46 24.15 23.65 23.65 23.94 24.15 23.68 23.16 23.08 23.45 23.74
33.02 34.91 27.71 26.25 18.44 17.41 23.80 24.61 28.26 28.95 29.15 28.42 28.48 28.88 29.16 29.59 29.78 29.76 29.60 28.98 28.59 28.96 29.20 28.53 28.51 27.24 26.83 26.82 26.25 25.75 25.49 25.06 24.22 24.21 23.84 23.63 23.93 24.32 24.09 23.88 23.53 23.28 23.31 23.07 22.41 22.36 22.83 22.43 22.23
31.24 29.74 30.34 30.06 27.15 22.43 17.06 24.81 29.51 30.38 29.59 28.71 29.41 30.59 29.84 29.91 30.23 30.17 29.76 29.64 28.77 27.92 26.65 26.08 26.08 26.26 25.72 25.78 24.79 24.47 24.00 23.40 23.33 23.22 22.87 22.91 23.16 23.19 23.31 23.65 23.25 22.78 22.29 22.19 21.18 21.05 21.65 21.02 21.44
31.67 31.60 31.75 28.29 24.27 23.43 24.61 27.96 30.33 30.19 30.54 31.27 30.60 31.13 30.76 30.72 30.34 30.29 30.14 29.20 28.37 27.77 27.04 26.42 25.94 25.57 25.26 24.29 23.98 24.56 23.62 23.53 22.91 22.63 22.90 23.14 22.67 23.34 23.13 23.18 22.66 22.23 21.88 21.76 21.02 20.78 20.73 20.25 20.72

GFSSGP_sfc_wetblb_027.txt.gz
Wetbulb
57.22 54.39 53.83 51.04 45.60 42.66 39.28 43.11 44.19 45.14 46.04 48.47 48.40 48.11 47.63 48.47 45.70 44.40 54.81 59.31 63.24 65.94 68.03 72.23 72.83 73.74 73.80 73.79 73.65 73.23 73.15 72.59 71.89 71.68 71.48 71.12 70.87 70.95 71.51 72.28 72.35 71.36 70.76 69.92 69.05 68.27 67.08 66.05 65.36
54.97 54.24 50.62 45.29 40.35 36.85 39.18 42.14 43.97 45.61 47.47 47.92 47.64 47.99 47.49 47.11 50.62 53.89 57.68 60.19 63.60 66.24 68.45 71.78 71.55 73.37 73.60 73.54 73.43 72.99 72.88 72.67 71.74 71.28 71.05 70.91 70.69 70.94 72.23 72.07 71.89 71.38 71.26 70.62 68.92 67.43 65.79 64.51 63.52
54.34 50.35 47.89 41.20 36.96 36.66 39.10 42.75 44.20 46.31 46.97 47.62 47.33 49.17 48.70 49.40 51.82 54.81 57.86 61.08 65.37 66.42 68.82 71.15 71.19 73.23 73.58 73.58 73.46 72.92 72.73 72.56 71.74 71.30 71.20 71.51 71.43 70.85 71.17 71.72 71.22 70.90 70.26 70.06 68.31 66.69 64.55 62.90 61.69
51.67 49.18 44.91 39.36 38.89 40.77 42.07 43.35 44.50 46.17 47.04 47.34 47.62 46.92 48.64 51.87 52.64 55.81 59.78 63.97 65.23 66.07 68.86 70.15 71.42 73.17 73.47 73.26 73.35 72.90 72.26 71.95 71.71 71.29 71.09 71.66 71.67 71.18 71.15 71.43 71.15 70.39 69.68 68.82 67.78 65.76 63.70 61.62 60.40
46.74 44.90 39.80 38.44 40.35 42.11 41.90 44.99 45.47 44.69 45.38 46.20 46.75 46.94 47.25 50.54 55.66 58.87 60.33 62.47 63.55 65.63 67.58 69.49 70.70 72.34 73.11 73.28 73.14 73.07 72.61 72.38 72.29 71.74 71.39 71.95 71.43 71.09 71.18 70.62 69.71 69.46 69.02 66.19 65.84 64.75 62.82 60.39 59.02
44.96 42.85 37.51 36.54 39.01 41.78 43.57 44.81 44.89 43.88 44.36 45.73 45.68 45.71 48.43 50.35 52.01 55.97 59.93 59.72 63.74 65.15 66.68 67.98 67.49 69.51 71.36 72.33 72.37 72.38 72.62 72.61 72.46 72.25 72.15 71.80 71.20 70.52 70.21 69.50 68.70 68.70 68.32 66.63 64.75 63.40 61.64 59.34 57.96
42.56 39.11 36.58 36.70 37.79 40.68 43.48 44.20 43.48 43.81 44.28 45.36 47.40 45.20 48.68 48.76 50.50 55.70 57.76 58.63 59.84 63.56 65.78 66.92 68.39 68.64 66.56 69.11 69.78 70.59 71.23 71.33 71.26 71.45 71.33 70.66 70.51 70.28 68.97 68.02 68.44 67.18 67.07 65.94 64.67 62.82 60.68 58.63 56.60
41.81 40.25 37.01 37.18 38.20 39.79 43.39 43.87 44.51 44.66 45.15 46.50 48.09 44.84 45.93 46.61 49.52 52.97 53.61 50.16 52.07 52.44 57.22 63.07 66.24 67.74 69.36 70.90 65.87 67.37 68.90 69.58 69.70 69.36 68.49 67.21 67.52 68.06 66.58 65.43 66.93 66.77 66.35 65.09 64.30 62.14 60.17 57.84 54.90
43.61 36.79 34.90 37.91 38.07 40.64 43.57 43.38 44.81 45.13 44.64 45.38 45.98 45.35 43.70 44.29 46.08 46.46 46.11 46.09 46.44 47.05 47.49 48.78 52.98 64.79 67.30 68.59 68.01 64.75 65.54 66.92 67.19 67.12 65.51 66.11 69.79 69.33 65.38 63.59 65.50 66.81 66.29 65.05 63.90 61.71 59.35 54.72 50.48
40.00 35.28 37.04 40.63 40.43 41.01 42.99 42.87 43.70 44.13 43.68 44.60 45.46 45.01 43.79 43.37 43.14 42.77 42.35 42.56 43.20 43.99 45.42 46.40 47.38 49.03 58.68 66.89 68.12 68.04 69.14 68.96 69.59 69.62 69.00 67.77 67.82 66.80 64.99 62.01 62.88 64.43 64.26 65.21 63.60 61.07 56.29 50.72 46.23
41.13 37.39 39.45 42.13 43.24 43.88 43.08 42.69 44.14 43.15 42.16 44.65 45.20 43.64 42.07 41.51 41.15 40.63 40.85 40.70 40.73 42.16 44.43 45.47 46.41 47.75 49.31 62.62 67.13 67.74 68.43 68.36 69.31 69.29 68.44 67.39 66.05 64.72 63.88 62.92 63.06 63.50 60.66 61.90 60.11 56.72 55.42 51.05 47.58
39.71 41.90 41.75 44.63 44.00 43.16 42.23 43.58 43.14 43.13 44.39 42.99 41.18 41.02 40.03 39.40 39.10 39.09 39.41 40.14 40.57 41.81 43.34 44.62 45.79 47.51 50.16 55.29 65.16 66.87 67.03 67.11 66.66 66.13 66.02 65.94 64.63 63.88 63.28 61.97 62.12 61.66 61.12 59.86 58.09 56.17 54.83 51.51 47.40
41.43 41.42 42.58 43.64 43.05 42.76 42.59 42.45 42.76 42.72 40.56 40.88 40.66 39.56 38.44 38.31 38.51 39.16 39.40 40.32 40.42 40.88 42.09 43.58 45.01 48.19 50.95 53.90 63.73 65.01 65.43 66.00 66.19 66.43 65.15 64.41 63.69 62.91 62.24 62.15 62.09 61.63 60.06 58.94 57.32 54.89 52.91 53.02 48.83
41.01 41.26 41.41 41.99 42.10 41.69 41.51 40.31 41.20 40.70 39.64 39.15 38.52 37.12 37.28 37.32 37.25 38.06 38.37 38.70 38.99 40.14 41.11 42.75 45.28 50.01 53.26 55.13 61.92 63.10 64.12 64.39 63.88 63.25 63.16 62.99 63.03 62.01 61.51 60.44 59.84 59.86 61.09 60.27 56.86 54.54 52.89 50.75 49.33
40.55 38.74 39.84 40.28 40.05 40.61 41.32 37.97 39.21 40.99 40.11 37.66 36.68 36.32 36.62 36.70 36.95 36.33 37.19 37.56 37.93 39.32 40.36 41.90 45.82 49.84 57.23 60.01 61.34 61.96 61.36 60.83 60.04 60.25 59.57 60.50 61.31 61.07 60.33 60.29 59.54 58.25 58.19 57.13 55.57 53.50 51.88 49.06 46.38
37.40 36.44 34.96 39.22 39.74 39.71 40.37 37.68 40.62 40.17 39.93 37.60 36.27 35.53 35.67 35.73 35.70 36.30 36.95 37.19 37.91 38.54 39.44 41.62 43.76 49.31 54.36 56.01 55.00 52.33 51.01 50.32 50.72 51.50 53.16 54.38 55.70 57.53 57.53 57.13 56.42 56.26 55.41 54.44 52.79 50.57 49.77 48.99 47.63
34.20 32.75 32.29 36.31 39.62 38.90 38.62 38.01 40.66 39.88 39.34 36.61 35.55 35.33 35.43 35.02 35.46 35.76 36.31 36.48 36.96 37.39 38.43 40.45 42.49 45.17 49.54 48.38 46.93 45.79 45.25 44.76 44.73 45.01 46.33 47.84 50.15 52.97 53.12 52.71 52.98 53.74 52.38 51.24 50.64 48.18 47.68 47.30 46.43
32.13 31.12 31.85 33.20 36.95 37.15 35.74 37.39 39.16 39.81 38.65 36.26 34.50 34.02 34.01 33.81 33.70 34.82 35.16 35.64 36.17 36.52 37.67 39.03 41.15 42.21 46.94 46.40 44.87 43.77 42.26 41.43 41.11 40.90 41.54 42.83 44.11 47.16 48.27 47.78 48.42 50.04 49.29 48.85 49.51 48.11 46.21 44.01 42.58
34.13 32.32 33.18 33.93 37.36 36.63 36.41 35.84 39.36 38.55 36.30 33.96 33.09 33.45 33.25 33.35 34.47 34.32 34.27 34.37 34.99 35.71 36.41 37.06 38.94 39.63 42.88 43.19 42.95 40.76 38.66 38.68 37.72 37.77 38.32 39.54 40.52 41.32 42.82 44.36 44.67 46.09 45.12 44.52 44.55 46.18 45.40 44.51 43.26
32.87 31.85 31.98 34.56 36.31 36.16 35.19 35.28 38.63 38.15 36.63 35.63 33.94 32.95 32.81 32.80 32.76 32.97 32.98 32.92 32.82 33.14 33.80 35.42 36.85 38.18 40.04 40.29 39.82 39.42 37.61 36.09 35.52 35.66 35.10 35.86 37.08 37.89 38.66 39.40 39.38 40.28 41.29 41.45 41.83 42.17 43.39 43.16 41.52
32.28 31.79 30.90 33.21 34.29 34.55 33.01 32.78 34.96 35.26 34.95 34.17 34.15 33.59 32.74 32.16 31.45 31.56 31.77 31.10 31.73 31.34 30.98 32.53 34.02 35.76 37.30 38.89 38.58 37.36 36.61 35.56 34.05 33.22 33.01 33.28 34.11 34.62 35.36 35.38 36.27 36.61 37.61 37.59 38.72 40.13 40.09 39.88 41.63
29.96 34.45 34.20 33.15 31.81 29.17 32.83 27.56 32.77 33.22 32.72 32.48 31.57 31.08 31.11 31.31 31.42 31.38 30.78 30.32 30.42 30.05 30.73 31.13 31.87 32.68 33.56 34.82 34.52 33.76 32.51 30.55 30.76 31.03 31.80 31.97 32.45 32.56 32.98 33.28 33.33 33.69 34.12 33.54 35.30 36.16 37.43 39.36 36.87
34.20 34.36 33.30 32.78 31.06 29.16 29.68 27.46 30.90 31.92 32.53 31.28 30.85 30.64 30.93 31.14 31.01 30.47 30.11 30.05 29.71 29.77 29.41 29.74 30.83 31.02 31.47 32.06 32.82 31.71 30.12 30.52 30.60 30.65 30.63 30.56 30.86 31.14 31.16 31.44 31.51 31.50 31.93 31.71 31.63 32.05 32.27 34.13 34.00
35.16 33.51 31.95 30.03 28.97 23.10 29.32 29.62 28.84 30.98 32.91 31.51 31.54 31.19 31.18 30.81 30.69 30.43 30.47 29.94 29.00 29.23 29.47 29.67 29.69 29.18 30.07 30.76 30.71 30.69 29.89 29.45 29.44 29.23 29.09 29.08 29.26 29.39 29.29 29.55 29.73 29.82 29.74 29.62 29.78 30.43 30.15 30.38 30.91
32.11 31.02 25.48 23.84 22.52 23.85 27.75 26.10 30.59 33.52 33.33 33.71 32.62 31.16 30.87 31.03 30.20 29.57 29.15 28.68 28.64 28.62 28.83 29.39 28.99 27.93 28.71 29.18 29.12 29.28 29.02 29.08 28.47 28.32 28.16 27.99 27.80 27.47 27.26 27.92 27.85 28.02 27.94 28.05 28.67 28.50 28.82 28.47 28.43
30.60 31.50 26.88 20.85 20.65 24.20 25.99 25.09 31.29 32.25 31.64 32.01 33.07 32.38 31.10 30.17 30.04 29.53 29.27 28.78 28.63 28.94 28.79 28.71 28.40 27.91 28.31 28.70 28.43 28.77 28.69 28.46 27.83 27.76 27.63 27.23 27.30 27.11 27.40 27.18 27.07 26.88 27.00 26.87 26.97 27.14 27.39 27.51 27.53
30.97 29.01 32.49 26.37 15.56 21.30 27.34 29.57 33.24 31.15 30.75 30.39 30.17 30.35 30.10 30.32 29.96 29.87 29.68 28.76 28.47 28.47 28.55 28.76 28.37 28.14 28.35 28.17 28.25 27.89 28.04 27.60 26.82 26.65 27.17 26.98 27.16 27.32 26.69 26.63 26.21 26.14 26.16 25.99 25.60 25.35 25.19 25.77 26.02
33.11 34.83 28.34 26.63 18.39 16.02 24.21 26.61 30.21 30.15 30.91 29.59 28.95 29.54 30.10 30.19 29.90 30.18 30.06 29.64 28.81 28.93 29.14 29.07 29.18 28.49 28.13 28.03 27.98 27.48 27.02 26.80 26.43 26.48 25.74 25.67 26.06 26.24 26.13 25.89 25.73 25.57 25.50 25.23 24.80 24.47 24.78 24.40 24.76
31.29 29.56 30.09 30.42 27.66 21.66 18.33 25.17 31.28 32.76 32.23 30.66 30.40 30.99 31.04 30.86 30.95 31.08 31.01 30.58 29.74 28.85 28.12 28.17 28.11 27.67 27.39 27.44 26.77 26.73 26.11 25.76 25.99 25.87 25.72 25.64 25.70 25.37 25.13 24.86 24.58 24.32 23.99 24.07 23.67 23.49 24.02 23.30 23.58
32.09 31.57 31.72 27.56 24.31 23.81 24.78 27.76 31.63 31.35 32.34 32.24 31.18 31.68 31.77 32.30 32.13 31.89 31.76 30.66 29.14 28.23 27.43 27.02 27.28 27.37 27.47 26.96 26.33 26.37 25.76 25.71 25.41 25.10 25.10 25.41 24.69 24.82 24.49 23.80 23.20 22.87 22.57 22.61 22.04 21.76 22.35 22.33 22.27

GFSSGP_sfc_wetblb_030.txt.gz
Wetbulb
61.51 60.44 62.24 60.05 52.01 51.14 45.30 45.88 49.35 48.12 48.74 51.74 51.83 51.28 50.62 51.69 48.94 46.77 61.28 64.29 66.17 68.56 71.19 73.03 73.00 73.96 74.06 73.67 73.30 73.12 73.20 72.47 72.35 72.09 71.45 71.26 71.25 71.28 72.21 71.88 71.66 71.18 70.40 69.88 68.72 67.53 66.49 65.57 65.11
60.32 58.75 60.00 56.57 48.71 43.72 44.45 47.98 47.18 49.46 50.88 51.91 51.69 51.31 50.94 49.65 54.43 57.57 61.43 63.60 66.49 68.70 71.10 72.94 71.91 73.52 73.68 73.63 73.26 73.09 72.93 72.20 71.54 71.12 70.86 70.68 70.89 72.10 72.39 71.79 71.56 71.24 70.47 69.89 68.78 66.95 65.35 63.79 63.33
58.55 56.05 56.41 52.76 49.04 43.59 44.27 47.76 48.81 50.40 51.08 51.19 51.00 52.44 51.80 51.52 56.32 58.63 63.40 64.31 67.50 68.91 70.92 72.51 71.60 73.38 73.66 73.61 73.18 72.87 72.89 72.54 71.62 71.30 71.18 71.22 70.80 71.10 71.89 71.47 71.30 70.66 69.91 69.25 68.12 66.48 64.54 62.61 62.18
58.28 57.56 53.97 48.72 44.65 45.86 46.49 48.37 49.93 50.50 51.15 51.50 51.40 50.05 52.32 56.16 57.33 60.97 64.31 66.61 67.55 68.95 70.35 70.83 71.68 73.40 73.57 73.39 72.96 72.37 72.19 72.05 71.74 71.41 71.39 71.69 71.41 70.83 71.27 71.22 70.81 69.89 68.11 67.75 66.83 65.85 63.49 61.14 61.14
57.08 55.52 49.76 46.26 44.98 46.45 48.42 49.75 50.33 49.69 49.39 50.41 50.76 48.56 50.79 54.92 59.94 62.99 64.32 65.55 66.32 68.33 70.04 71.43 70.99 72.58 73.15 73.24 72.89 72.88 72.33 72.04 71.93 71.47 71.27 71.93 71.27 71.26 71.09 70.52 69.86 68.92 67.67 66.00 65.56 64.34 62.53 59.73 60.49
54.24 53.38 47.29 44.19 44.86 46.66 48.82 49.88 49.48 48.59 48.81 50.07 49.41 49.02 50.71 55.35 56.33 60.88 63.59 64.70 67.36 68.17 69.43 70.27 68.38 69.77 71.55 72.37 72.42 72.35 72.48 72.69 72.56 71.98 71.45 71.09 70.94 70.67 70.37 69.55 68.54 68.19 67.23 66.13 65.30 63.41 61.58 58.53 59.04
51.38 50.83 46.13 45.90 45.41 46.19 48.17 49.44 48.53 48.71 48.66 49.13 50.92 48.10 51.71 52.44 54.72 60.24 61.33 62.62 62.55 65.28 68.46 69.85 70.69 70.00 66.76 69.52 70.17 70.63 71.28 71.48 71.51 71.60 71.43 71.10 70.44 70.24 69.04 67.90 68.12 67.62 66.85 65.77 64.66 62.65 60.86 57.76 57.63
52.48 51.23 45.35 45.82 44.80 45.55 48.74 48.71 49.68 49.39 48.84 50.80 51.51 48.30 49.45 51.19 52.42 56.76 56.13 55.35 55.41 55.56 57.43 59.24 66.35 68.94 69.27 71.72 65.97 66.39 68.86 69.65 69.92 69.69 69.03 68.16 67.90 68.33 66.63 65.78 67.25 67.29 66.34 65.22 63.97 61.91 59.96 56.96 55.81
50.16 46.77 44.41 45.35 45.17 46.65 48.94 48.11 49.44 50.35 49.67 50.23 49.72 49.53 48.27 49.70 52.09 53.59 53.92 53.48 53.57 53.02 53.60 54.79 56.53 61.10 64.16 68.18 68.13 65.74 65.07 66.55 67.13 67.55 65.81 65.83 70.49 70.20 67.69 64.78 65.88 66.90 66.39 65.23 63.57 61.71 58.72 53.75 50.20
49.49 46.82 44.44 47.98 48.13 47.93 48.78 48.62 49.12 48.63 48.91 48.44 49.08 48.47 48.82 49.64 50.31 50.20 49.89 49.99 50.42 50.65 51.59 52.68 54.09 55.68 59.72 65.55 68.27 69.19 69.59 70.99 71.01 70.81 70.66 70.40 69.68 69.49 67.68 62.95 63.19 64.43 64.62 65.21 63.53 61.09 56.73 55.81 53.60
47.97 45.93 45.44 47.10 48.37 49.39 48.66 48.54 49.63 48.69 47.59 49.13 49.07 48.04 47.52 48.16 48.27 48.02 48.08 48.00 48.20 49.83 51.97 52.46 53.44 54.32 55.39 63.48 68.38 69.07 69.42 69.65 70.60 70.46 70.13 69.74 67.64 67.07 65.81 64.81 64.36 65.12 61.66 64.17 62.52 60.20 62.31 58.84 55.96
46.63 47.45 47.63 48.76 49.28 48.26 47.96 49.46 48.63 49.38 49.05 47.72 47.48 47.10 46.57 46.43 46.18 45.89 46.47 47.12 48.09 49.78 51.28 53.03 53.49 55.28 56.58 57.16 66.80 67.82 67.98 68.92 69.08 69.99 68.85 69.60 68.66 66.38 65.25 64.57 64.22 63.47 63.52 62.23 60.86 59.03 58.73 58.85 55.19
47.77 47.80 47.94 48.97 48.28 48.37 47.84 48.41 48.43 48.39 46.94 46.66 45.95 45.79 45.38 45.17 44.82 45.38 45.78 47.22 48.31 49.18 51.31 52.74 54.49 56.70 58.18 57.32 65.80 67.19 67.11 67.10 66.72 67.25 66.40 66.27 67.18 66.63 67.31 65.41 63.58 63.54 63.05 63.12 60.18 57.58 55.54 56.64 56.22
47.35 46.91 47.38 47.78 47.34 47.24 46.48 46.86 47.00 46.49 46.55 45.51 45.67 44.97 44.41 43.57 43.29 45.04 45.38 46.22 46.88 48.50 50.33 52.78 53.91 55.38 57.58 59.29 65.01 65.31 64.82 63.35 62.74 61.25 62.57 62.76 63.87 63.75 63.62 63.03 63.53 62.39 61.52 60.48 58.68 56.13 54.84 52.61 51.23
46.36 45.21 47.24 47.52 45.98 46.04 46.94 43.52 44.84 46.48 45.89 44.88 43.73 43.57 42.63 42.33 43.32 43.13 43.80 44.74 45.42 47.96 50.03 48.39 50.24 57.20 60.36 61.33 58.88 56.79 56.75 56.78 56.11 56.69 57.91 58.48 60.52 61.31 60.44 59.23 58.56 58.40 58.50 56.70 55.78 54.13 53.55 52.56 53.53
44.64 44.31 43.37 45.51 45.20 44.96 45.77 44.29 46.45 45.57 45.57 45.13 43.85 43.51 42.63 41.26 41.70 42.74 43.20 43.98 45.16 46.83 47.53 46.47 49.87 51.98 51.17 50.77 50.57 50.23 50.11 49.65 50.03 51.45 52.62 54.86 56.74 57.34 56.58 55.86 55.07 55.55 55.01 54.14 52.60 51.82 51.26 51.05 52.58
43.08 42.41 41.80 43.48 45.02 44.59 44.50 44.77 45.41 45.54 45.73 45.26 44.97 43.79 42.39 41.70 41.87 42.38 42.74 43.33 44.30 45.79 46.46 45.63 47.68 48.82 47.98 47.26 46.09 45.56 45.87 46.25 47.07 48.38 48.62 48.52 50.73 51.37 51.07 52.74 52.89 52.80 52.25 52.25 51.87 51.49 50.23 50.01 49.06
41.92 40.47 40.56 42.00 43.69 43.51 43.72 44.36 45.15 44.93 45.12 46.29 45.05 42.76 41.86 40.77 39.13 40.25 41.41 42.42 43.91 45.48 46.94 44.93 45.27 47.84 46.88 46.16 45.30 44.93 45.18 45.81 45.96 45.01 45.71 46.32 47.18 49.25 49.93 49.32 50.27 51.39 51.74 50.45 52.00 51.52 50.88 49.27 48.55
43.02 41.71 41.96 42.46 42.96 42.44 44.02 44.14 46.60 46.14 44.64 44.63 44.13 42.42 41.30 39.37 39.28 40.31 40.64 41.80 43.62 44.48 46.44 44.92 45.00 45.01 47.38 46.39 45.54 45.04 44.58 43.93 43.07 43.10 44.45 45.35 46.26 47.09 47.93 47.82 48.59 49.23 48.42 48.28 48.63 50.44 49.34 47.83 48.19
40.87 41.02 41.52 42.36 41.57 41.81 42.69 41.72 45.31 45.74 44.99 45.51 44.69 42.15 40.62 39.17 39.34 39.25 40.32 41.24 41.75 42.17 43.73 44.97 44.42 44.23 46.63 47.31 46.16 44.77 42.05 40.99 40.88 40.68 40.37 41.12 41.53 42.25 43.01 43.98 43.83 45.13 45.22 44.86 45.85 46.79 47.50 47.23 46.29
40.33 40.12 41.00 40.20 40.19 41.28 40.27 41.16 43.71 44.33 41.08 40.36 41.75 42.30 40.46 40.03 39.16 38.98 38.74 39.07 40.26 40.08 40.78 41.70 43.04 43.94 44.61 44.03 42.93 41.69 41.41 40.83 39.35 38.51 37.79 38.06 38.86 39.11 39.52 39.65 39.79 39.95 41.03 39.93 41.18 42.84 43.98 43.32 45.22
38.73 41.89 40.64 39.17 38.17 36.84 40.40 37.13 42.39 42.89 40.54 38.74 38.52 39.55 39.25 38.75 38.61 38.19 38.23 38.43 38.65 38.41 39.65 40.71 41.40 41.87 42.07 43.45 43.73 42.94 40.62 36.85 36.54 36.60 36.73 36.49 37.16 36.98 37.41 37.50 37.59 37.57 37.66 37.16 37.07 37.98 38.45 39.39 37.36
40.94 40.47 39.86 39.12 38.35 36.94 37.81 36.40 41.22 38.85 39.37 38.88 38.32 38.79 38.85 39.18 38.81 37.52 37.12 36.47 36.09 37.77 37.93 38.54 38.97 38.84 39.53 40.29 40.41 39.19 37.05 36.51 36.73 36.38 35.56 35.37 35.43 35.75 35.69 36.04 36.07 35.78 36.03 35.91 35.79 35.95 35.96 36.26 35.84
39.86 38.92 38.16 37.77 37.21 31.96 37.84 37.53 39.18 40.81 41.45 39.99 39.38 38.17 37.97 37.70 37.50 37.07 36.63 36.06 35.66 36.45 36.97 37.44 37.31 36.82 37.86 38.45 38.58 37.91 36.45 35.81 35.45 35.28 34.55 34.39 34.44 34.18 34.05 34.03 34.07 33.99 33.87 33.75 34.24 34.45 34.00 34.39 34.33
39.46 38.79 33.54 31.15 30.42 31.03 33.78 33.86 40.01 43.06 40.18 40.60 39.27 38.09 37.73 37.47 36.98 36.21 35.06 35.09 35.18 35.17 35.66 36.07 36.08 34.81 36.09 36.39 36.42 36.57 36.33 36.27 35.35 34.92 34.32 33.65 33.07 32.85 32.34 33.19 32.75 32.20 32.12 32.05 32.73 32.46 32.08 31.84 31.74
37.76 40.16 35.99 28.74 28.82 33.00 30.71 30.94 38.33 37.79 37.37 37.53 39.12 39.39 37.72 36.96 37.20 36.49 36.06 35.52 34.63 34.26 35.06 34.92 34.61 33.80 34.90 35.19 34.90 35.45 35.51 35.28 34.61 34.21 33.84 33.39 32.99 32.32 32.42 32.05 31.68 31.20 30.99 31.11 31.33 31.05 30.66 30.76 30.72
36.42 34.19 39.85 31.88 25.83 31.23 36.00 36.75 40.31 35.90 35.99 35.98 36.69 37.18 36.43 36.66 36.68 36.28 35.94 35.41 34.67 34.62 34.58 34.89 34.32 34.03 34.40 34.36 34.41 34.05 34.15 33.67 32.92 32.95 33.34 32.99 32.72 31.48 31.52 31.53 31.27 31.11 30.74 30.64 30.89 30.42 29.61 30.00 29.79
38.73 40.58 33.16 34.08 28.93 27.65 32.56 33.81 38.13 35.43 37.03 35.67 34.79 35.88 36.55 36.83 36.98 37.11 36.54 36.03 35.65 35.45 35.22 35.06 34.91 34.03 33.94 33.92 33.95 33.34 33.15 33.12 32.98 33.04 32.23 31.95 31.39 31.38 31.15 30.97 30.86 30.43 30.21 29.95 30.05 29.73 29.78 29.30 29.94
35.26 35.30 35.40 36.48 34.71 30.98 30.59 34.84 40.85 41.61 40.23 37.58 38.18 37.54 37.72 37.40 37.63 37.41 37.28 36.89 35.93 35.67 35.03 34.64 34.35 33.66 33.03 33.24 33.11 32.60 32.30 32.40 32.70 32.29 32.03 31.73 31.29 30.97 30.20 29.56 29.17 28.64 28.33 28.28 28.35 27.98 27.91 27.06 27.51
40.27 38.48 37.28 34.50 29.92 31.76 30.67 34.87 36.98 38.55 40.65 40.53 40.28 38.34 39.16 39.02 38.59 38.37 37.90 37.02 35.49 34.72 34.65 34.43 34.24 33.32 33.44 33.36 32.51 32.21 32.22 32.10 32.12 31.86 31.51 31.19 30.40 29.68 28.96 28.08 27.64 27.12 26.74 26.65 26.19 25.82 26.16 25.59 25.64

GFSSGP_sfc_wetblb_033.txt.gz
Wetbulb
64.14 62.20 62.50 61.13 52.67 50.75 45.90 46.10 50.18 48.54 49.43 52.90 53.14 51.99 50.19 51.90 49.70 47.84 63.01 67.14 67.16 69.57 72.46 73.17 73.21 73.92 73.97 73.55 73.10 72.67 73.05 72.56 72.24 71.82 71.85 71.72 71.45 71.56 72.29 71.53 71.31 70.61 69.99 69.19 68.09 66.98 65.63 64.79 65.09
61.77 60.00 61.12 57.45 49.33 44.44 45.05 48.74 48.00 50.03 51.76 53.20 52.75 52.40 51.15 49.81 55.72 58.66 61.67 65.23 67.47 69.15 71.83 72.97 71.96 73.53 73.73 73.42 73.11 73.03 72.81 72.15 71.66 71.09 70.76 70.71 71.66 72.62 72.07 71.58 71.38 70.60 70.02 69.27 68.35 66.65 64.76 63.66 63.41
61.10 58.58 56.86 52.83 48.98 44.95 45.11 48.76 50.03 51.12 52.33 52.03 51.29 53.71 52.66 51.87 57.20 59.20 64.54 66.05 68.09 69.19 71.46 72.77 71.90 73.08 73.43 73.17 72.82 72.67 72.50 71.93 71.28 70.92 70.77 70.61 71.05 72.01 71.75 71.34 70.82 69.85 69.03 68.40 67.54 66.14 63.92 62.44 62.50
59.49 58.67 55.51 49.12 45.90 47.47 47.87 49.40 51.52 50.79 51.84 52.87 52.68 50.06 53.92 58.85 59.35 62.65 66.17 66.65 67.39 69.13 71.02 71.12 72.21 73.13 73.19 73.21 72.62 72.25 72.33 72.01 71.55 71.27 71.36 71.41 70.80 70.72 71.16 71.05 70.04 68.30 67.73 67.11 66.13 65.17 62.55 61.50 62.12
58.31 56.25 49.97 47.51 46.18 47.39 49.67 51.28 51.77 50.41 50.16 51.18 51.77 49.49 52.08 56.58 62.27 63.85 64.44 65.87 66.66 68.94 70.22 72.22 71.54 72.55 72.50 72.35 72.27 72.29 71.92 71.98 71.70 71.35 71.41 71.63 71.02 71.11 71.05 69.96 69.38 67.88 67.03 66.54 65.32 64.09 61.54 60.51 61.18
54.48 54.64 47.24 45.11 46.10 47.93 50.10 51.69 50.85 49.89 49.86 50.14 49.97 49.71 52.02 57.16 58.56 63.02 64.39 66.68 67.75 68.97 70.10 71.15 69.04 69.65 71.46 71.91 72.00 71.96 72.07 71.82 71.04 71.18 71.18 70.70 70.76 70.60 70.19 69.23 68.40 67.74 67.03 66.33 64.53 63.17 60.76 59.16 59.58
52.71 50.45 47.29 47.12 46.60 46.99 49.27 51.66 49.70 49.54 49.55 50.12 51.95 49.00 52.55 53.06 56.32 61.62 61.89 62.32 63.42 67.36 69.39 70.12 70.61 70.02 66.95 68.53 70.13 70.78 71.08 71.11 71.09 71.12 70.94 70.50 70.06 69.84 68.45 68.92 68.39 67.52 66.72 65.80 64.05 62.53 60.37 58.26 57.95
53.40 50.99 46.61 47.44 46.30 46.74 50.55 50.39 51.35 50.66 50.13 52.81 52.98 49.60 50.25 52.05 54.39 59.25 58.50 58.60 58.76 59.52 61.52 63.53 68.25 69.36 70.29 71.45 66.31 66.52 67.88 69.71 69.98 69.79 69.08 68.26 68.15 68.16 66.82 66.13 67.89 67.23 66.17 65.24 63.68 61.90 59.84 56.84 55.10
53.41 47.43 45.48 46.37 46.87 48.41 50.73 49.31 51.51 52.53 51.10 51.46 51.64 51.68 50.99 52.18 54.48 56.24 56.74 56.01 56.16 55.41 55.96 57.35 59.00 63.46 67.53 68.55 68.08 65.05 64.41 66.32 66.93 67.48 65.99 65.73 69.97 69.72 66.54 64.66 66.30 67.20 66.18 64.78 63.51 61.86 58.88 54.06 52.28
50.79 47.35 46.10 49.65 50.00 49.33 50.46 50.28 50.66 49.79 49.86 50.07 50.12 50.99 51.49 52.39 53.08 53.02 53.04 53.08 53.10 53.41 54.49 55.29 56.46 57.74 60.46 65.93 68.42 69.55 70.04 70.74 70.58 70.37 70.33 69.92 69.86 69.29 67.93 63.96 63.42 64.75 64.82 64.97 63.40 60.69 57.73 57.57 56.63
50.16 46.78 47.56 48.87 50.11 51.06 50.19 49.68 51.34 49.73 48.78 50.80 50.50 50.69 50.48 51.09 51.15 51.10 51.21 51.34 51.48 53.07 54.53 55.30 56.06 57.09 58.00 62.98 67.11 68.97 69.93 70.19 69.86 70.24 70.04 69.60 69.29 68.44 67.26 65.28 64.43 65.12 61.82 64.54 62.68 60.43 61.57 60.80 58.23
47.68 48.60 48.91 50.10 50.58 49.88 49.44 51.25 49.76 50.63 50.83 51.33 51.17 51.17 50.38 49.79 49.40 48.86 49.12 49.91 51.05 52.76 54.18 55.82 56.57 57.80 58.86 58.92 66.48 67.92 68.39 69.15 69.35 69.16 68.88 68.83 68.73 68.21 66.42 65.24 65.45 66.32 64.34 63.72 61.76 60.30 58.82 59.02 57.50
48.59 49.05 49.73 50.79 50.04 50.11 50.36 49.58 49.79 50.17 50.38 49.97 49.19 49.34 48.85 48.58 48.34 48.92 49.17 50.45 51.34 51.97 53.88 55.68 57.26 58.04 59.55 58.97 65.04 67.52 66.95 66.90 66.52 66.21 65.71 66.98 67.13 66.93 67.17 66.02 65.83 64.20 63.96 63.80 62.47 60.38 58.09 56.72 56.30
49.53 49.12 49.24 49.81 49.78 49.61 47.69 48.98 48.66 50.52 50.24 48.81 48.70 48.39 47.84 47.12 46.92 48.53 48.28 48.88 49.76 51.92 53.87 54.50 54.96 59.25 58.41 60.81 61.68 61.15 61.05 59.79 59.09 58.74 60.98 62.92 63.74 62.71 62.64 62.23 61.51 61.22 61.53 60.25 58.40 57.22 56.53 54.50 53.62
48.84 46.20 48.68 49.13 48.95 47.83 48.65 46.11 45.47 50.77 48.93 48.07 48.14 47.92 47.02 46.15 46.84 46.25 46.72 47.56 49.14 52.08 52.63 50.82 53.93 55.69 56.62 55.82 54.27 53.85 54.27 54.17 54.06 54.40 56.42 58.04 59.71 61.12 59.02 57.62 56.71 56.72 57.18 56.69 55.89 54.52 54.61 55.52 54.49
46.32 46.65 44.45 48.22 47.40 47.14 47.39 45.27 49.91 48.52 47.87 47.28 47.77 47.76 46.61 44.63 45.16 45.83 46.13 47.09 49.22 52.03 48.87 49.79 52.15 51.72 50.88 49.95 49.41 50.19 50.39 51.38 51.19 52.85 54.06 54.94 56.21 56.49 56.88 55.99 54.32 54.43 53.93 53.65 52.33 51.89 51.38 51.51 50.82
46.20 43.16 45.02 46.19 47.95 46.87 46.00 46.53 47.49 48.14 48.11 47.91 47.95 47.73 46.56 45.12 44.86 44.88 45.66 46.77 48.57 51.27 48.34 48.75 49.82 48.61 47.55 47.11 47.42 47.18 47.92 48.96 49.94 50.43 51.19 51.96 52.00 51.62 52.00 51.93 52.05 51.79 51.58 52.43 53.08 52.81 52.61 51.98 51.91
43.95 43.65 45.15 44.50 46.23 45.56 45.58 45.38 47.47 47.21 47.49 48.35 48.82 47.83 46.37 45.34 43.24 43.91 45.05 46.26 48.56 50.78 48.37 48.12 48.73 47.67 46.94 46.64 46.60 46.90 46.56 46.81 48.83 49.14 49.72 50.23 50.64 52.16 52.90 52.59 52.10 52.81 52.06 51.58 53.47 53.06 52.41 50.00 49.38
46.12 44.54 44.05 47.03 46.03 43.95 45.49 46.10 47.94 48.07 47.00 47.51 48.78 47.83 46.32 44.57 43.81 44.18 44.64 46.41 48.07 50.07 47.12 47.93 48.01 47.98 48.31 47.55 47.48 46.82 45.96 45.91 44.88 45.09 46.18 46.52 47.47 48.57 48.99 48.70 49.26 49.32 48.30 48.20 49.03 50.83 49.48 47.95 48.37
44.40 43.07 43.54 46.74 45.23 43.18 44.51 44.56 47.42 48.74 47.64 48.17 48.72 48.13 46.46 43.76 42.75 42.90 43.96 45.56 47.11 48.52 47.07 46.51 46.39 47.94 49.16 49.73 48.59 46.86 45.09 44.13 43.01 42.76 42.24 42.71 42.88 43.44 43.78 44.22 44.35 44.96 43.95 43.85 44.69 46.03 47.30 46.84 46.33
43.46 42.52 43.43 43.57 43.20 43.52 43.08 41.97 44.53 47.85 49.18 49.12 47.70 49.24 47.17 44.11 42.80 42.07 42.47 44.18 45.81 46.56 47.26 46.81 47.25 48.43 48.33 47.18 45.64 44.13 43.54 43.08 41.07 40.00 39.16 39.65 40.02 40.31 41.37 40.82 40.90 40.64 40.56 38.98 39.88 40.75 40.96 40.50 43.55
41.31 46.31 43.80 42.64 40.73 38.38 43.72 36.68 44.87 47.44 45.10 44.60 44.68 45.66 44.90 44.05 43.47 42.65 41.70 42.80 44.01 43.95 45.07 45.95 46.08 46.40 46.54 46.61 45.64 44.74 42.88 39.29 38.89 38.00 38.11 37.93 38.52 38.45 39.24 39.27 39.15 39.22 39.15 38.26 38.37 38.68 38.53 39.01 36.37
42.96 44.05 43.26 42.80 40.50 40.31 41.07 36.85 42.98 47.10 45.03 44.11 43.75 43.90 44.13 43.60 42.45 41.34 41.57 41.17 41.29 42.39 43.18 43.78 43.39 43.07 44.10 45.02 44.94 42.73 39.59 39.11 38.45 37.85 36.73 36.45 36.68 37.02 37.05 37.38 37.58 37.11 37.38 37.24 36.83 36.67 36.70 36.77 36.09
44.04 42.14 40.85 40.78 40.33 33.40 38.98 38.96 40.84 43.14 42.50 45.72 43.85 43.26 43.10 42.07 41.74 41.42 40.99 39.95 39.67 40.08 40.88 41.66 41.11 40.66 41.38 41.84 41.78 40.41 38.83 37.98 37.34 36.87 36.02 35.65 35.65 35.55 35.67 35.74 35.87 35.44 35.08 35.09 35.26 35.75 34.68 34.97 34.49
42.43 40.32 35.68 33.08 31.77 32.20 37.59 37.83 41.63 45.62 43.06 44.77 42.93 42.24 42.04 41.66 40.86 39.72 38.38 38.48 38.59 38.58 38.89 38.93 38.79 37.92 39.39 39.86 39.97 39.73 38.90 38.51 37.21 36.55 35.83 35.01 34.37 33.90 33.99 34.51 34.11 33.66 33.66 33.67 34.08 33.85 33.10 32.84 32.33
39.46 41.26 36.78 30.07 31.86 35.20 33.21 32.38 39.84 44.90 43.31 42.02 45.22 42.96 41.73 40.22 40.21 39.44 39.01 38.49 37.64 37.13 37.38 37.41 37.37 36.65 37.73 38.17 38.18 38.60 38.57 37.79 37.07 36.64 36.10 35.17 34.15 33.53 34.01 33.49 33.32 32.88 32.73 32.82 33.01 32.64 31.81 32.14 31.91
39.17 36.99 43.26 35.34 30.44 32.10 37.05 39.26 43.78 39.61 38.64 39.71 41.42 41.08 39.49 39.08 39.42 39.55 39.22 38.50 36.80 36.45 36.55 37.05 36.58 36.51 36.84 36.82 36.79 36.66 36.85 36.23 35.43 35.47 35.36 34.55 34.15 33.17 33.09 33.37 32.66 32.49 32.18 32.02 32.51 31.84 31.09 32.06 32.02
41.22 43.47 33.95 35.43 30.72 29.55 36.20 37.94 38.83 36.98 38.68 38.79 38.51 38.95 39.16 39.51 39.87 39.72 38.58 37.65 37.48 37.32 37.22 37.11 36.77 35.84 36.16 36.19 36.18 35.61 35.47 35.36 35.06 34.86 33.97 33.69 32.55 32.76 32.54 32.32 32.24 31.79 31.52 31.13 31.42 31.01 31.06 29.88 30.57
36.89 36.90 38.22 39.03 37.34 33.20 31.76 37.05 45.45 44.56 43.24 40.20 39.35 40.22 40.25 39.95 39.93 39.59 38.94 38.28 37.90 37.80 36.97 36.32 36.06 35.63 35.24 35.45 35.15 34.78 34.28 34.38 34.46 34.14 33.75 33.31 32.88 32.48 31.72 31.40 30.89 30.27 29.78 29.42 29.48 29.04 28.44 27.73 28.19
42.46 40.09 39.44 34.69 31.24 33.96 34.90 36.69 41.41 46.30 46.15 43.30 41.67 41.37 41.99 41.24 40.76 40.45 39.80 38.53 37.29 36.69 36.37 35.99 35.94 35.53 35.20 35.06 34.53 34.09 33.82 33.74 33.54 33.24 33.29 33.40 32.06 32.02 30.73 29.96 29.41 28.79 28.33 28.13 27.44 26.95 27.28 26.33 26.11

GFSSGP_sfc_wetblb_036.txt.gz
Wetbulb
62.58 60.85 59.56 58.36 49.60 47.66 42.11 43.16 46.30 46.54 46.38 48.82 49.25 48.35 47.18 48.89 48.55 45.53 60.83 64.26 65.66 70.31 71.91 72.67 73.36 73.68 73.93 73.48 73.31 73.25 73.43 73.13 72.55 72.56 72.33 71.88 71.69 72.36 71.88 71.26 71.28 70.47 69.90 69.29 68.10 66.71 65.63 64.88 65.14
58.47 59.81 58.26 54.90 45.26 40.55 40.47 45.01 45.70 47.20 48.71 49.22 48.61 48.87 48.22 47.71 54.99 57.44 58.75 64.32 66.16 70.14 71.37 71.88 72.18 73.26 73.62 73.28 73.20 73.19 73.14 72.89 71.66 71.20 71.02 71.64 72.50 71.95 71.91 71.56 70.80 70.11 69.15 68.26 68.01 66.18 64.52 64.01 64.06
60.08 59.01 53.00 49.79 44.96 40.76 40.94 45.66 46.22 48.15 48.38 48.34 46.78 49.56 49.75 50.48 56.12 58.17 60.84 64.41 66.57 68.16 71.08 71.36 71.87 73.16 73.02 72.60 72.91 73.03 72.77 72.34 71.63 70.97 70.80 71.17 72.19 71.86 71.56 70.92 69.72 68.83 67.90 67.21 66.84 64.85 63.57 63.31 63.68
57.02 55.89 52.71 44.65 42.92 44.29 45.02 46.50 47.82 47.68 48.62 49.53 48.71 46.67 51.86 56.79 56.69 59.86 63.17 63.65 66.12 67.00 71.16 70.58 71.93 72.60 72.88 72.69 72.77 72.79 72.62 72.23 71.54 71.20 71.26 70.94 70.90 71.28 71.25 70.21 68.66 68.00 67.54 66.45 65.57 63.45 62.35 62.21 62.87
55.62 53.37 46.88 43.08 43.24 44.45 47.04 48.68 47.45 46.99 45.53 47.44 46.50 47.01 48.60 55.47 60.29 60.66 62.08 63.81 65.34 66.31 70.44 71.17 71.56 72.04 72.17 72.20 72.34 72.37 72.07 71.28 71.30 71.75 71.60 70.96 71.02 71.13 70.39 70.08 68.40 67.75 67.17 65.65 64.59 62.60 61.16 60.99 61.51
51.78 51.26 43.52 40.74 42.47 45.02 47.00 48.01 46.96 46.38 46.26 44.96 44.48 47.84 47.63 54.08 58.17 59.65 62.44 63.27 66.17 67.16 68.93 70.52 69.13 69.43 70.79 71.61 71.78 71.89 71.88 71.70 71.38 71.29 71.25 70.82 70.75 70.67 69.97 69.09 68.23 67.73 66.74 65.44 64.28 62.03 60.28 59.46 59.04
49.71 47.35 43.39 42.63 42.77 43.24 46.68 47.70 44.14 45.09 45.05 46.58 47.24 45.11 47.33 49.54 53.51 58.01 57.71 58.76 59.74 61.75 65.98 68.16 69.62 68.73 66.10 67.14 68.88 70.29 70.76 70.61 70.62 70.74 70.57 70.26 70.00 69.94 69.36 69.01 68.52 67.44 66.48 65.46 64.02 61.94 59.30 57.55 57.05
49.97 46.80 42.12 40.48 42.68 43.10 47.31 46.98 47.91 46.78 45.40 48.87 48.60 44.47 43.63 46.40 51.45 55.72 54.73 54.24 54.31 55.20 56.59 58.31 62.74 67.82 68.26 69.16 65.36 65.46 67.31 68.87 69.48 69.26 68.47 67.68 67.75 66.94 66.80 66.21 67.58 67.32 66.23 65.25 63.98 62.01 58.71 55.78 55.06
50.85 42.92 41.05 41.78 42.96 45.00 47.79 45.81 47.21 47.75 46.47 47.63 48.42 46.28 46.93 49.33 52.19 52.95 51.59 51.67 51.78 52.49 51.99 53.63 54.90 58.00 65.38 67.57 66.41 64.27 63.99 65.54 66.89 66.86 65.63 64.78 67.73 66.11 64.39 64.49 66.22 66.99 66.10 64.92 63.54 61.52 58.07 55.63 55.24
46.57 43.12 43.99 46.69 46.24 45.38 47.34 46.16 47.42 45.05 46.15 44.80 45.55 47.40 48.67 48.90 49.39 49.55 48.40 47.71 48.10 48.39 50.15 51.69 52.29 53.64 55.46 64.15 66.65 67.96 67.92 68.30 68.67 67.90 67.17 67.50 67.14 67.80 65.57 62.32 63.38 64.86 64.68 64.76 62.81 60.77 59.21 57.52 50.95
47.05 42.82 44.96 46.64 48.77 48.85 47.68 45.36 46.91 44.41 43.95 45.99 46.28 46.38 47.64 47.89 47.40 47.62 46.88 46.91 46.46 47.60 50.90 52.40 52.51 53.18 53.76 55.95 64.69 66.25 66.92 66.96 67.22 67.73 66.96 66.69 66.33 65.15 64.38 62.39 62.66 62.78 61.75 61.37 60.76 59.44 59.01 55.82 52.69
44.17 46.29 46.94 49.12 48.83 47.80 46.26 47.78 45.35 46.17 44.75 48.09 47.60 47.82 47.41 46.58 45.75 45.56 45.64 46.18 46.79 48.84 50.87 52.77 54.13 54.83 54.80 54.47 61.23 65.91 65.39 65.69 65.29 65.17 65.42 65.95 65.40 64.41 64.17 63.61 63.83 63.58 62.10 61.27 60.03 56.80 55.61 55.83 54.60
45.32 46.55 47.99 48.99 47.57 46.46 48.45 45.71 45.73 45.04 46.52 47.08 47.43 47.89 45.92 45.37 45.48 45.37 46.15 47.16 48.05 48.62 51.37 52.00 53.75 55.47 56.16 54.98 62.79 64.19 62.19 60.99 60.50 61.74 62.81 64.13 64.11 63.15 63.79 63.64 63.33 62.50 61.66 60.21 59.90 57.35 55.19 52.74 53.69
47.23 47.49 47.14 48.06 47.63 47.15 45.32 44.91 45.24 46.36 46.36 45.22 46.31 45.11 44.32 44.43 44.34 44.82 44.66 45.20 47.10 50.18 50.17 51.27 54.30 56.66 57.33 57.78 57.84 57.91 57.64 57.54 56.34 58.32 59.17 60.92 61.46 60.59 59.71 58.59 58.38 58.11 58.46 57.66 55.69 54.73 54.30 52.76 52.65
47.02 42.95 45.51 46.05 46.38 45.05 45.70 42.57 43.64 46.76 46.41 44.94 44.71 43.69 43.74 43.54 44.19 42.81 43.18 44.46 46.00 49.62 49.56 50.65 52.63 54.02 53.62 53.01 53.00 53.73 53.94 54.19 54.31 55.00 55.70 56.58 58.24 58.36 56.60 55.48 54.84 54.77 55.19 54.65 54.19 53.76 53.37 51.89 52.32
43.00 42.12 38.67 44.91 46.00 44.09 43.17 39.38 46.02 46.17 44.75 43.95 43.88 42.41 42.37 42.73 43.29 42.87 43.24 44.25 46.34 48.31 47.85 50.67 51.36 50.03 49.92 49.65 50.17 50.07 50.75 50.36 51.55 51.18 51.68 52.02 53.81 53.89 53.45 52.92 52.37 53.24 53.45 53.13 51.97 51.49 51.51 51.44 50.42
41.57 36.67 39.69 41.66 45.72 43.75 41.90 40.55 43.71 45.21 44.59 43.21 42.80 42.93 42.87 41.49 41.48 41.76 42.81 43.36 46.40 47.09 48.80 49.09 49.15 48.06 47.88 47.66 48.15 48.75 49.39 49.21 49.39 49.78 50.45 50.87 50.20 50.55 50.41 50.29 50.17 51.25 51.46 51.56 51.91 49.95 48.82 45.50 45.03
38.48 37.50 41.00 39.58 42.70 42.66 40.49 40.03 43.84 44.34 44.22 43.45 43.19 42.91 42.24 41.60 41.29 41.95 42.58 43.98 47.22 46.31 48.10 48.38 47.79 46.87 46.87 47.21 47.10 46.79 46.51 46.67 46.95 45.95 45.94 46.88 47.64 48.85 48.39 47.41 47.14 47.41 46.46 45.66 46.73 46.50 45.84 43.55 42.80
42.60 40.15 39.42 41.94 42.83 41.02 41.19 41.65 44.32 43.87 43.01 42.54 43.25 42.94 42.12 41.68 40.81 41.36 42.38 43.75 46.46 45.96 47.27 47.52 46.66 46.82 47.18 46.89 45.86 45.15 43.13 42.28 40.62 41.44 41.87 41.81 43.50 44.59 44.00 43.73 43.75 42.55 41.59 41.05 42.35 45.15 43.20 40.97 40.41
42.22 39.36 38.80 42.57 42.56 39.92 40.18 40.43 43.61 44.81 43.41 44.15 44.33 43.49 42.46 39.94 38.90 40.36 40.87 42.62 45.27 44.72 45.77 46.53 47.27 47.63 48.16 48.43 46.11 44.61 41.46 38.85 38.25 37.98 38.27 38.83 39.00 39.41 39.82 38.41 37.78 37.61 36.50 36.08 36.22 36.87 39.11 39.47 37.08
40.11 38.73 38.63 39.49 40.36 39.07 36.84 35.91 40.46 44.18 46.40 45.25 45.19 44.51 43.98 40.02 38.31 38.62 39.59 40.60 42.69 44.71 45.15 45.28 46.06 47.34 46.66 44.24 42.06 40.14 39.02 37.31 35.66 34.62 34.32 35.76 36.63 36.79 36.63 35.99 35.65 35.03 34.59 33.98 33.39 33.50 33.85 32.20 34.29
37.69 42.31 42.19 40.36 36.36 31.91 37.87 29.58 39.02 42.89 43.47 44.96 43.06 41.46 40.97 39.79 39.59 38.87 39.08 39.87 41.05 41.59 45.09 45.66 45.80 44.82 44.22 42.18 39.97 38.50 36.74 33.89 33.39 33.16 33.38 33.87 34.39 34.39 34.95 34.92 34.31 33.85 33.50 32.57 32.47 33.55 31.95 32.10 29.99
39.82 41.99 39.82 38.65 36.15 34.37 34.35 32.23 36.65 42.66 41.65 42.55 40.05 40.68 40.22 39.41 38.64 37.77 37.97 39.98 39.62 39.72 40.10 41.82 40.23 40.89 41.86 42.05 40.31 36.94 34.47 33.48 32.88 32.48 31.96 31.62 32.06 32.81 33.05 32.87 32.09 32.00 32.37 31.55 31.07 30.41 30.29 30.34 29.19
42.37 39.78 38.10 36.66 35.50 28.22 35.27 34.99 34.23 40.17 42.43 42.38 41.31 40.90 40.25 39.01 37.69 37.69 37.76 37.42 37.01 37.22 37.85 37.84 37.82 37.74 38.56 38.19 36.99 35.15 33.32 32.68 32.20 31.16 30.42 30.15 30.26 30.73 31.28 31.77 30.59 30.47 30.17 30.02 29.99 29.40 28.82 28.70 28.19
39.69 36.71 29.47 27.02 25.49 26.55 33.78 33.36 37.25 40.23 39.93 41.61 41.84 40.59 40.02 38.49 37.19 36.35 34.73 34.42 34.70 35.00 35.86 36.43 35.83 35.47 36.51 36.39 35.99 35.31 33.93 33.11 31.90 30.98 30.24 29.52 28.92 28.50 28.98 29.59 28.86 28.50 28.84 29.39 29.21 27.92 27.26 27.32 26.28
36.33 37.75 31.09 25.26 25.93 27.69 29.15 27.72 35.10 39.08 39.30 39.96 42.17 41.31 39.38 37.63 37.33 35.83 35.01 34.51 34.32 34.67 34.34 34.10 33.98 33.89 34.62 34.74 34.35 34.31 34.08 32.53 31.94 31.59 30.65 29.56 28.66 28.59 29.12 28.73 28.43 28.36 28.50 28.42 28.19 26.66 26.17 26.03 25.61
36.16 33.51 40.74 31.51 23.68 24.42 31.16 33.85 39.06 36.85 36.07 36.80 38.56 38.74 37.69 37.50 36.79 36.05 35.76 34.29 33.67 33.41 32.91 33.42 33.10 33.09 33.51 33.34 32.93 32.56 32.15 31.63 30.86 30.91 30.36 29.17 28.92 30.00 28.91 28.35 27.71 27.64 27.55 27.36 27.13 25.78 24.94 25.31 25.51
38.03 40.06 30.67 30.87 20.65 21.58 29.64 32.42 33.91 33.44 35.54 35.63 37.27 37.48 37.74 37.78 37.07 36.70 36.20 34.90 34.02 33.70 33.37 33.18 33.06 32.70 32.74 32.66 32.16 31.82 31.41 31.18 30.70 30.09 28.62 28.52 27.72 28.21 27.78 27.39 27.14 26.72 26.11 25.92 25.62 24.66 24.44 23.95 23.84
34.74 33.22 35.38 35.70 32.00 26.11 24.41 30.59 38.74 39.59 39.07 36.19 37.57 38.49 37.80 37.27 37.28 37.11 36.21 35.25 34.08 33.46 32.79 32.27 32.13 32.20 31.62 31.75 31.35 30.32 29.70 30.09 29.89 28.64 28.31 27.51 27.35 27.54 27.05 26.70 25.98 25.47 24.74 24.49 23.68 23.37 23.53 23.07 23.18
37.41 36.29 36.42 30.02 28.57 31.69 28.36 33.31 38.57 39.96 40.80 39.31 38.21 38.99 38.51 37.87 37.45 37.37 36.02 34.68 33.64 33.28 32.83 32.49 31.39 31.36 30.84 30.97 30.21 29.20 29.22 28.67 28.26 28.08 28.08 27.40 26.76 26.68 25.87 25.76 25.03 24.56 24.17 23.85 23.29 22.92 23.01 22.19 22.32

GFSSGP_sfc_wetblb_039.txt.gz
Wetbulb
58.14 55.51 53.69 53.78 45.34 40.22 36.13 38.99 41.02 42.78 42.71 45.07 46.95 49.32 47.35 47.00 48.34 43.71 58.97 63.49 69.91 70.73 72.18 72.20 72.62 73.91 73.67 73.46 73.55 73.57 73.44 73.42 72.84 72.55 71.98 72.22 72.36 71.91 71.48 71.04 70.69 68.84 68.16 68.62 67.24 66.33 65.39 65.27 66.17
54.97 57.89 53.86 48.36 40.66 33.99 35.20 39.18 42.05 43.09 45.61 47.41 47.86 46.63 46.89 47.95 54.59 56.15 56.91 63.83 70.15 70.74 71.82 72.38 71.35 73.14 73.11 73.21 73.20 73.20 72.96 72.53 71.54 71.32 71.99 72.39 72.05 71.87 71.32 70.42 69.31 68.31 67.59 67.82 66.56 65.71 64.78 64.66 65.04
57.28 55.67 48.13 44.32 38.01 35.10 36.46 39.96 42.65 44.87 46.13 45.75 45.05 48.18 48.04 49.02 54.37 56.82 59.47 63.75 69.88 70.10 71.37 71.57 71.31 72.70 72.77 72.72 72.93 72.94 72.59 72.26 71.48 71.07 71.54 71.96 71.64 71.53 70.63 69.40 68.62 67.63 66.61 66.48 65.33 64.43 63.79 63.71 63.73
52.21 51.43 47.82 40.31 36.54 40.22 40.90 41.50 44.56 44.86 45.98 48.12 46.15 46.13 49.86 54.75 55.24 59.19 61.11 64.96 65.60 69.18 70.86 70.38 71.84 72.80 72.72 72.53 72.69 72.71 72.63 71.79 71.42 71.37 71.14 71.23 71.36 71.11 69.66 68.87 68.41 67.10 65.93 65.01 63.91 62.80 62.36 62.36 62.60
50.48 47.19 41.38 37.36 37.94 41.08 41.40 44.47 44.47 43.66 43.66 44.18 45.99 45.07 47.52 54.81 58.12 59.85 61.53 64.28 65.41 68.77 70.04 70.48 70.97 72.05 72.40 72.35 72.19 72.49 71.96 71.95 71.67 71.82 71.34 70.94 71.13 70.52 69.84 68.62 68.19 66.77 66.32 64.95 62.95 61.60 60.65 60.41 60.70
47.29 45.16 38.05 35.21 36.68 42.02 42.50 44.51 44.73 42.50 42.49 43.71 45.60 44.66 45.43 51.95 57.26 57.08 59.55 59.21 63.46 67.50 69.99 70.50 67.93 69.55 70.53 71.27 71.56 71.80 71.88 71.67 71.62 71.71 71.22 70.89 70.70 70.07 69.37 68.67 68.05 66.86 66.43 65.38 63.64 60.88 59.43 58.79 58.29
44.37 40.96 37.09 36.11 37.38 39.52 43.42 44.46 41.41 42.70 42.50 43.33 46.24 43.01 44.63 47.59 54.04 55.72 56.08 56.24 56.66 58.30 60.67 68.75 69.22 67.64 66.61 67.01 68.61 70.03 70.60 70.72 70.73 70.64 70.30 69.95 69.73 69.87 69.44 68.75 68.13 67.00 66.41 65.50 63.65 60.49 58.29 57.28 56.62
45.09 41.32 37.18 38.33 38.41 38.82 44.35 44.24 44.85 45.12 42.39 46.30 45.95 42.21 41.08 45.64 52.79 52.92 52.12 51.37 51.05 52.26 53.47 54.53 58.04 67.50 68.54 67.93 64.16 65.41 68.18 68.75 68.97 68.60 67.77 66.82 66.98 67.19 66.93 65.93 67.55 66.82 66.10 64.92 63.04 59.98 58.05 56.69 56.29
44.89 38.07 35.75 38.21 39.73 41.49 43.83 42.94 45.12 45.79 45.09 45.13 45.46 43.82 44.86 48.43 51.62 49.95 48.60 48.49 48.57 50.07 50.20 51.30 52.54 54.27 59.32 66.94 65.74 63.78 64.27 65.79 66.13 66.16 64.92 64.23 66.01 65.12 64.75 64.39 66.35 66.99 65.87 64.59 62.76 60.63 57.87 55.79 55.69
42.06 37.31 39.03 41.98 41.96 41.86 44.60 43.39 45.11 43.15 42.90 42.02 42.24 44.61 46.38 47.08 48.03 47.47 45.48 44.71 45.25 46.47 49.07 50.28 50.86 52.10 54.12 62.14 66.80 67.80 67.75 67.16 67.47 67.26 66.21 66.94 66.23 66.62 65.22 62.60 63.17 64.67 64.48 63.92 62.82 62.36 59.29 55.28 48.99
42.35 38.39 41.40 43.71 45.74 45.74 45.26 43.76 44.94 43.29 40.75 43.24 43.63 44.19 45.62 45.17 44.79 44.58 44.30 44.46 45.04 47.01 49.73 51.39 51.50 51.93 52.28 54.48 63.51 65.42 67.46 65.86 66.01 66.23 66.38 66.96 64.99 64.42 63.10 61.15 61.40 61.61 60.38 60.88 59.51 57.74 55.95 52.41 50.65
39.30 42.96 44.20 46.82 46.66 45.56 43.60 45.13 43.23 43.02 42.90 44.97 44.84 45.29 44.53 44.01 43.76 43.83 43.91 44.66 45.83 47.91 50.05 51.69 53.06 53.71 53.42 53.13 59.80 65.46 63.93 63.17 62.67 63.30 65.19 65.99 65.25 63.97 62.83 63.04 63.74 62.27 61.64 58.64 58.05 56.31 55.25 53.43 54.13
41.43 43.04 45.49 46.27 45.25 44.05 46.11 43.37 43.46 42.01 42.93 44.95 45.67 45.45 43.56 42.97 43.06 43.55 44.86 45.86 46.93 48.59 49.10 50.80 52.69 54.35 55.76 54.67 62.71 61.49 58.97 59.03 60.06 60.43 62.85 63.65 62.78 63.75 63.62 62.83 61.85 60.88 58.62 59.94 56.71 55.51 53.65 52.79 52.51
43.79 44.16 44.38 45.79 45.48 44.70 43.47 42.11 42.78 43.04 42.85 43.46 44.16 42.39 42.07 43.05 42.91 42.49 43.42 44.23 46.82 49.06 48.20 50.28 51.93 53.81 55.45 57.81 58.05 56.79 57.02 56.90 58.17 58.09 59.00 60.93 60.56 59.81 59.05 57.82 57.37 57.12 57.18 56.41 55.09 53.19 52.66 52.49 52.20
44.14 39.79 42.13 43.44 44.25 43.14 43.91 40.68 41.83 43.44 42.94 42.40 41.85 40.62 41.20 41.97 42.55 41.51 42.37 43.52 47.29 48.01 48.55 49.78 50.60 53.09 51.17 53.39 53.34 53.47 54.06 54.63 53.47 54.34 55.81 56.70 57.91 56.78 55.83 55.11 54.73 54.90 54.95 54.53 53.92 53.02 53.03 52.26 52.27
39.66 38.41 35.49 42.00 43.51 42.63 41.81 37.11 43.95 43.26 42.13 41.04 40.50 39.00 40.03 41.08 41.56 41.14 42.39 43.70 46.97 47.06 47.72 49.98 50.05 50.08 49.65 49.69 50.33 50.64 50.91 51.57 51.43 51.19 52.49 53.89 53.75 52.78 51.44 51.32 51.23 53.08 52.78 50.95 50.41 50.24 47.55 46.74 45.20
36.38 32.74 35.29 39.78 42.98 41.71 39.86 37.70 41.92 43.01 42.52 40.55 39.43 39.03 39.57 39.24 39.48 40.10 42.00 43.48 45.95 46.71 46.99 47.39 47.88 47.87 47.95 48.64 49.19 48.92 49.10 49.14 49.40 49.91 50.10 50.34 50.03 49.81 49.67 48.73 48.10 47.69 46.97 48.62 47.68 44.40 43.24 41.16 41.70
34.22 33.72 37.32 36.67 40.93 39.85 37.49 37.87 41.20 42.71 42.03 41.05 39.71 39.02 39.00 38.71 39.00 40.23 41.58 44.47 45.35 45.98 46.55 46.85 47.36 46.79 47.10 47.23 46.87 45.79 44.87 44.61 44.85 44.31 44.50 44.81 45.71 46.19 45.40 43.98 43.15 43.34 42.78 42.47 44.63 41.75 39.80 38.74 38.88
37.93 36.15 35.54 38.24 41.36 39.15 38.31 38.51 41.07 42.44 40.63 39.54 39.28 39.29 39.68 39.27 38.72 39.94 41.53 44.18 44.33 44.58 45.61 46.30 46.36 46.52 47.23 46.62 45.21 43.44 41.09 41.01 40.50 39.66 39.16 39.88 41.24 41.50 41.61 40.67 39.18 38.02 37.36 36.88 40.86 41.41 36.09 35.11 35.91
38.86 36.55 35.95 39.13 40.49 38.88 37.99 38.02 40.77 41.74 41.07 42.23 42.07 41.29 40.89 37.10 37.37 38.92 40.06 42.70 43.27 43.69 44.91 45.84 46.71 46.97 47.48 47.10 45.24 43.00 39.86 38.05 36.77 36.12 36.15 36.68 37.29 37.54 37.42 36.23 35.13 34.47 34.68 34.14 33.66 35.15 35.54 33.57 33.14
38.06 36.41 35.61 37.38 37.99 37.37 35.32 33.95 37.63 41.19 42.98 42.03 43.21 43.56 42.47 38.82 37.19 37.63 39.16 40.43 42.25 41.77 42.90 46.61 47.28 47.50 44.71 42.83 41.15 39.17 38.00 36.89 34.16 32.96 33.19 33.94 35.06 35.57 35.46 34.62 34.00 33.25 33.10 31.93 30.94 31.38 31.78 30.66 31.71
35.35 39.82 39.96 38.30 34.85 30.61 35.25 28.68 35.77 40.24 40.90 40.65 42.74 40.57 41.46 38.28 37.78 38.32 39.03 39.19 41.69 41.59 42.89 45.73 46.45 44.28 42.86 42.13 39.78 36.74 35.19 32.84 31.58 31.24 31.66 32.36 33.31 33.53 33.93 33.62 33.09 32.39 31.92 31.05 30.90 31.02 30.04 29.81 28.07
37.70 39.96 37.90 36.94 33.50 31.76 31.87 29.76 34.25 39.83 39.50 42.94 42.40 41.55 39.46 37.91 37.62 37.56 38.75 40.47 40.88 40.63 41.96 44.19 44.02 43.11 42.07 40.84 38.40 36.01 33.19 32.93 32.26 31.29 30.66 30.46 31.43 31.84 31.93 31.71 31.36 31.09 30.96 29.62 29.40 28.62 28.48 28.53 27.35
40.39 38.32 37.25 35.25 33.34 26.40 32.63 32.72 31.40 37.75 40.77 42.26 38.92 38.02 37.81 36.92 36.86 37.18 38.16 38.85 37.99 37.87 37.98 38.74 41.27 41.27 41.20 38.34 35.75 34.82 32.89 31.87 30.79 30.09 29.63 29.70 29.59 29.85 30.00 30.29 29.60 29.73 29.51 28.68 28.08 27.71 27.09 26.84 26.48
38.41 35.48 27.67 25.98 24.39 27.02 32.37 30.77 36.45 39.83 40.62 41.41 41.61 38.57 37.22 36.92 35.75 35.71 35.69 36.35 35.75 35.66 35.70 36.22 36.25 35.61 35.69 35.84 34.82 34.09 33.00 32.37 31.10 30.04 29.76 29.14 28.40 27.81 27.92 28.32 27.85 27.93 28.16 27.93 27.24 26.53 26.25 25.61 24.90
34.77 35.61 29.23 23.54 23.82 26.12 28.96 27.05 34.31 40.15 40.20 39.00 41.52 40.68 37.25 35.66 36.17 35.44 35.23 35.18 35.36 35.46 34.84 35.21 34.21 33.72 34.15 34.69 34.11 33.79 33.17 32.74 31.87 30.87 30.13 28.90 28.36 27.83 27.89 27.29 27.23 27.09 27.46 27.18 26.39 25.62 25.53 24.92 24.39
34.29 32.80 38.58 30.93 19.61 22.29 29.37 32.68 37.34 36.94 36.84 35.64 37.02 37.60 36.82 36.26 35.23 34.16 33.93 34.01 34.00 33.93 33.61 33.57 32.83 32.67 33.39 34.14 33.86 33.26 32.56 32.23 31.48 30.08 29.21 28.55 27.95 28.65 27.35 26.78 26.24 26.28 26.28 26.57 25.73 24.64 24.30 24.34 24.13
37.18 38.87 31.62 29.98 20.03 19.13 26.81 29.06 33.91 34.15 36.42 35.30 35.70 36.28 36.52 36.38 34.72 34.16 33.62 33.09 33.62 33.84 32.98 31.90 32.60 32.98 33.05 32.98 33.23 32.62 31.63 31.33 30.59 29.89 28.17 27.84 27.14 27.17 26.27 25.73 25.67 25.53 25.61 25.62 24.88 23.53 23.54 23.51 22.91
34.47 32.89 35.23 35.87 30.32 24.89 22.73 29.71 37.03 39.63 39.70 36.08 37.03 37.41 37.12 36.13 35.36 34.49 34.18 33.55 33.37 33.15 32.18 32.29 32.26 31.96 31.46 31.86 30.71 30.23 29.75 30.00 29.53 28.37 27.60 26.73 26.24 26.21 26.08 25.88 25.20 24.68 23.98 23.95 22.97 22.71 22.93 22.69 22.53
37.72 35.64 34.19 29.91 28.50 28.09 27.31 33.14 37.17 38.04 39.41 38.09 37.90 38.29 37.99 37.93 36.54 35.16 34.19 32.98 32.46 32.35 31.81 31.53 31.77 31.63 31.68 31.00 30.16 29.12 29.15 28.54 27.93 27.48 26.51 25.97 26.15 26.03 25.68 25.36 24.59 23.93 23.49 23.32 22.74 22.74 22.51 21.94 22.16

GFSSGP_sfc_wetblb_042.txt.gz
Wetbulb
57.65 54.39 52.26 52.44 43.60 39.03 34.32 36.91 38.77 40.92 41.49 44.10 47.55 48.64 46.29 46.57 46.60 41.43 57.49 67.60 69.70 70.40 71.17 71.51 72.42 73.41 73.36 73.45 73.42 73.30 73.40 73.05 72.34 71.81 72.65 72.14 71.67 71.53 70.66 69.20 68.15 67.67 68.24 67.69 66.90 66.16 65.79 65.73 66.17
56.27 56.07 52.33 45.92 37.49 32.78 34.14 37.52 40.67 41.59 44.41 46.48 47.16 45.74 47.34 47.62 53.14 55.40 56.76 68.29 69.88 70.86 71.46 71.28 71.35 73.01 73.10 73.24 73.18 72.88 72.65 72.19 71.36 72.28 72.39 71.79 71.73 71.01 69.87 68.92 67.48 67.05 67.32 66.62 65.69 65.10 64.69 64.37 65.06
55.32 53.06 47.66 41.38 35.27 33.85 35.34 39.08 41.62 44.19 45.29 44.42 44.02 48.13 47.26 48.14 54.08 55.61 58.48 68.56 69.77 70.19 71.33 70.67 71.30 72.61 72.85 72.53 72.67 72.60 72.34 71.98 71.12 71.88 71.80 71.51 71.48 70.22 69.30 68.45 66.90 66.02 65.25 64.87 63.99 63.68 63.36 63.33 64.17
51.23 50.17 45.93 38.06 35.06 36.83 39.88 40.90 42.05 43.55 44.02 46.44 46.13 45.10 50.23 53.21 54.31 57.60 61.05 69.06 68.54 69.61 70.66 69.90 71.53 72.54 72.64 72.72 72.74 72.42 72.09 71.38 71.21 71.12 71.52 71.09 71.04 69.70 69.03 67.98 67.08 66.40 65.00 63.55 62.44 61.74 61.66 61.98 63.02
48.68 45.54 39.46 35.59 36.48 39.69 39.04 41.43 43.40 42.21 41.88 42.81 44.71 43.37 48.81 54.45 58.56 60.49 62.52 66.56 67.68 68.61 69.74 70.07 71.01 71.88 72.21 72.46 72.53 72.52 72.05 71.68 71.50 71.33 70.87 70.91 70.71 69.66 68.88 67.68 67.33 66.75 65.83 64.18 61.31 60.39 59.97 60.15 60.88
45.89 43.12 36.58 33.99 34.65 40.30 41.24 43.60 43.50 40.95 40.79 43.74 44.63 43.80 44.98 51.80 57.17 57.36 59.27 60.97 67.13 68.44 69.81 69.82 68.56 69.49 70.67 71.32 71.82 71.76 71.07 71.32 71.13 71.09 70.59 70.70 70.37 69.62 68.82 67.81 67.36 66.71 65.81 64.10 61.30 59.24 58.38 58.69 59.37
42.84 39.33 36.31 35.25 35.82 38.56 42.29 44.09 41.43 40.91 41.74 41.82 46.43 42.24 44.31 49.03 53.91 56.15 54.84 54.32 55.47 58.15 63.65 68.12 68.30 67.48 67.84 68.77 69.10 69.98 70.41 70.54 70.58 70.71 70.67 70.27 69.64 69.55 69.08 68.18 67.38 66.77 65.72 63.69 61.45 59.37 58.12 58.10 58.19
43.18 39.94 34.92 34.67 36.87 37.78 42.32 42.70 43.60 42.70 41.42 45.15 44.44 41.21 41.96 46.56 52.54 51.46 50.36 49.86 50.14 52.15 53.42 54.95 63.43 67.75 67.70 67.15 64.55 67.06 68.39 68.69 68.99 68.62 67.73 66.70 67.10 67.45 67.13 66.12 67.16 66.66 65.37 63.20 61.61 59.58 58.35 57.67 57.23
42.29 36.42 34.48 36.29 37.61 39.77 42.02 41.83 43.49 44.04 43.94 43.07 43.61 42.78 43.72 49.28 49.58 47.96 46.75 47.00 47.89 49.75 50.15 51.10 53.19 56.41 65.42 68.18 65.47 64.16 65.91 67.03 66.14 65.63 64.39 64.06 65.02 65.34 64.54 64.17 66.09 66.19 64.98 63.23 61.71 59.96 57.78 55.96 56.93
40.89 35.51 37.94 40.59 39.81 40.23 42.61 42.57 44.11 42.24 41.68 40.17 40.62 42.97 45.04 48.04 47.38 46.48 44.69 44.62 44.32 45.65 48.56 49.72 50.63 51.98 54.56 62.29 67.36 67.67 67.67 66.52 66.54 66.44 65.27 65.92 64.25 64.71 65.16 62.63 63.42 64.39 63.62 63.82 62.86 60.27 57.09 52.56 47.37
39.95 37.24 39.95 41.87 43.94 43.71 43.27 41.42 43.20 41.63 39.22 42.42 42.38 43.52 44.53 44.66 45.08 44.80 43.51 43.89 44.80 46.45 48.99 51.36 51.66 52.17 51.53 53.75 62.93 65.69 67.31 65.96 64.96 65.90 65.56 66.68 65.24 64.40 63.38 62.44 62.07 60.46 59.03 57.97 56.63 55.08 53.06 50.37 49.02
37.17 41.10 42.66 45.01 44.81 44.06 43.02 43.20 41.84 42.16 42.14 44.55 44.42 44.19 43.33 43.32 43.11 43.29 43.42 44.29 46.10 47.42 48.04 50.47 51.86 52.88 52.96 52.47 59.39 63.47 64.14 63.66 61.67 62.86 64.80 65.40 64.49 63.18 62.28 61.94 62.30 62.24 60.51 56.32 54.86 53.64 52.42 51.74 50.63
39.48 41.15 43.61 44.70 44.19 42.60 44.41 42.21 42.18 41.69 41.00 42.67 44.01 44.49 42.91 42.42 42.41 42.51 43.85 45.13 46.45 47.89 46.91 49.40 51.56 52.59 54.39 54.69 61.70 60.84 59.05 60.49 60.19 59.85 63.22 64.75 64.21 63.32 63.35 61.56 60.90 59.87 60.06 57.82 54.41 53.56 53.14 51.39 51.94
42.81 42.55 42.93 44.01 43.51 43.27 42.46 40.56 41.54 41.73 41.72 42.24 43.08 42.01 41.50 41.89 41.86 41.69 43.06 44.41 46.73 48.26 46.40 49.41 51.24 53.06 55.51 57.95 57.78 57.32 57.10 58.10 58.63 58.33 60.21 60.90 61.17 60.23 59.14 58.19 57.53 57.01 56.73 55.72 54.27 53.56 51.69 52.46 51.80
42.52 38.40 40.15 41.70 42.90 42.16 42.69 39.50 40.84 41.99 41.53 41.25 40.81 40.04 40.62 41.57 41.77 41.72 42.52 43.54 47.24 47.52 48.53 49.11 50.74 51.74 52.55 54.26 54.24 54.47 55.04 55.33 54.89 55.50 56.84 57.21 57.56 57.08 56.50 55.80 55.09 55.00 55.02 54.44 53.64 51.40 51.15 49.74 50.03
38.11 37.19 34.32 40.04 42.00 41.59 40.70 35.87 41.46 41.27 40.58 39.82 39.41 38.14 39.11 40.17 41.39 40.77 41.86 43.46 46.59 46.95 47.59 48.12 50.63 49.26 48.61 51.70 51.62 51.68 51.85 52.03 51.93 52.90 54.12 54.44 54.30 54.23 53.74 53.54 53.11 53.28 52.79 51.43 48.71 46.48 43.72 43.11 43.70
35.46 32.17 33.10 38.18 41.52 40.24 38.99 36.81 40.93 39.77 40.26 39.26 38.09 37.89 38.56 38.51 39.12 39.57 41.15 43.70 45.75 46.65 46.50 46.27 47.47 47.41 47.71 49.00 49.69 49.31 49.48 49.34 49.87 50.97 51.42 51.20 50.79 50.09 48.77 46.97 47.18 47.62 46.95 45.14 42.20 40.05 40.66 40.50 42.10
32.57 31.94 34.41 34.75 39.38 38.00 35.84 37.11 39.92 40.59 40.21 40.14 38.35 37.68 37.89 38.30 39.52 39.27 40.54 44.18 45.38 45.75 45.89 45.52 45.69 47.65 47.77 47.28 46.10 45.36 44.64 43.99 44.44 46.00 46.50 46.02 45.05 44.64 43.66 42.30 42.12 43.26 43.52 41.67 38.85 36.33 35.98 37.30 41.22
36.33 34.29 34.18 36.37 40.54 38.23 37.35 37.30 40.01 40.52 39.17 38.67 38.17 38.05 38.55 39.05 38.44 38.94 40.36 43.99 44.20 44.33 44.47 44.81 44.31 45.95 46.57 45.83 44.80 43.40 42.04 40.88 40.67 41.38 42.13 40.52 41.04 41.25 39.92 38.31 37.64 37.98 38.88 38.64 38.36 35.86 33.41 33.35 34.80
36.01 34.21 33.98 37.54 39.71 38.04 37.29 36.62 39.25 40.07 40.23 41.33 41.73 39.86 39.97 37.51 36.61 38.02 39.39 42.52 43.15 43.66 44.10 44.22 44.85 44.86 46.35 47.13 44.24 41.85 39.80 37.16 37.59 37.31 35.90 36.84 36.97 36.68 36.21 35.19 34.19 34.23 34.11 33.01 33.45 34.67 33.16 31.45 31.03
36.21 34.64 33.94 36.50 36.31 36.05 33.89 32.95 36.91 40.80 40.52 41.21 41.72 43.53 42.07 40.01 37.71 37.63 39.09 42.42 42.25 42.97 43.36 44.63 45.24 45.90 46.03 43.39 40.48 38.05 37.67 36.92 35.75 32.81 32.67 33.43 34.70 34.65 34.33 33.49 33.16 32.28 32.34 31.08 30.58 31.56 31.49 29.50 29.72
34.39 39.29 38.59 36.82 34.12 29.92 34.65 28.72 33.53 38.12 39.31 40.05 42.03 40.95 41.65 39.70 38.75 38.47 39.13 41.00 42.41 43.04 43.29 45.16 45.85 44.74 41.96 41.16 39.81 38.05 34.96 32.89 32.59 30.68 31.09 31.79 32.70 32.92 33.16 32.74 32.27 31.66 31.74 30.71 30.11 30.12 29.69 29.60 27.93
37.68 39.26 36.97 35.19 31.96 30.21 30.41 28.51 32.36 36.64 36.83 40.59 44.29 41.62 40.51 39.19 38.35 37.86 39.06 41.57 42.79 42.29 42.88 43.83 43.07 40.67 41.14 41.51 40.01 37.02 32.64 31.88 31.26 30.62 30.27 30.24 30.73 31.49 31.52 31.28 30.60 30.35 30.21 29.09 29.02 28.42 28.10 27.79 26.49
39.38 37.39 35.76 33.68 31.94 26.26 32.47 31.26 30.36 35.43 39.71 40.05 41.25 40.23 39.53 38.18 38.18 38.85 39.41 40.85 41.49 40.14 40.79 41.18 40.45 41.25 40.92 39.91 38.03 35.17 32.12 31.38 30.43 29.52 29.26 29.06 29.28 29.22 29.55 29.84 29.20 29.03 28.64 28.06 27.60 26.93 26.74 26.06 25.60
37.41 34.26 26.64 25.53 24.03 26.33 30.67 28.68 35.97 38.91 40.37 41.70 42.97 41.04 37.07 36.81 36.88 36.40 37.09 39.23 39.89 39.17 39.18 40.35 40.61 40.11 39.57 37.72 35.67 34.17 33.02 32.40 30.87 29.67 29.60 28.57 28.18 26.95 27.28 28.21 27.83 27.63 27.41 27.22 26.83 26.18 25.74 25.17 24.39
35.71 34.18 27.76 22.08 22.61 25.17 29.07 26.91 33.58 39.42 42.22 39.30 39.51 39.57 35.80 34.13 35.74 36.06 37.61 38.90 39.60 38.36 37.23 39.16 38.12 38.54 36.50 34.41 33.27 33.09 32.61 31.87 31.11 29.90 29.72 29.05 27.85 27.56 26.90 26.70 26.87 26.81 26.57 26.06 25.66 25.47 24.94 24.52 24.09
33.70 32.22 37.15 30.14 17.15 22.09 29.19 32.31 36.94 37.71 37.80 37.78 37.39 36.08 33.32 33.50 34.29 35.31 36.31 37.53 37.58 37.21 36.86 36.06 34.95 35.42 34.71 33.95 32.88 32.01 31.73 30.94 30.11 29.22 28.52 27.72 26.79 27.62 26.45 26.27 25.87 25.82 25.84 25.78 25.51 24.78 23.81 23.73 23.87
36.00 38.30 30.08 28.61 19.78 18.68 26.79 27.94 32.91 34.01 36.81 38.99 37.57 35.64 34.72 33.64 33.18 33.77 35.00 35.58 36.05 36.66 35.47 33.59 34.92 34.23 33.73 33.31 32.92 32.20 31.80 31.22 30.02 28.86 26.91 27.07 26.54 26.57 25.79 25.24 25.19 25.39 25.71 25.23 24.42 23.60 23.67 23.11 22.64
33.65 32.54 33.36 33.85 28.99 23.66 20.67 28.55 35.56 39.51 39.22 38.69 38.69 37.43 35.46 34.53 33.88 33.54 33.71 33.95 34.57 34.47 33.01 33.88 32.65 31.85 31.80 32.55 32.27 30.79 29.41 29.35 29.27 28.10 27.20 26.95 26.31 26.01 25.76 25.70 25.13 25.13 24.80 24.42 23.09 22.80 22.97 22.69 22.62
34.45 33.73 34.25 29.07 26.55 27.78 27.11 33.62 37.17 37.80 38.64 38.55 39.22 37.81 36.07 36.19 34.88 34.25 33.40 32.35 31.89 32.69 32.73 32.68 31.98 31.70 31.95 31.95 30.92 30.34 29.65 28.74 27.97 27.42 27.11 26.31 26.54 25.85 25.64 25.49 24.90 24.31 24.03 23.50 22.54 22.44 22.55 22.10 22.10

GFSSGP_sfc_wetblb_045.txt.gz
Wetbulb
58.53 53.79 52.05 50.32 41.71 38.04 32.71 35.58 37.23 39.40 40.76 44.61 46.92 45.31 44.31 46.49 44.72 38.86 56.81 63.33 67.95 69.07 70.29 70.92 72.57 73.24 73.09 73.20 73.27 73.25 73.14 72.50 72.19 72.44 71.78 71.66 70.97 69.69 68.60 67.58 68.07 67.88 67.34 66.75 66.19 65.59 65.55 66.74 67.25
56.24 53.99 50.86 43.66 36.26 32.14 33.66 37.09 39.16 40.01 45.25 46.53 45.94 45.42 47.28 46.92 52.15 54.93 57.40 67.43 69.25 69.87 70.38 70.87 71.19 72.54 72.74 72.80 72.89 72.77 72.42 72.15 72.30 72.04 71.71 71.38 70.28 69.34 67.98 66.82 65.95 65.79 65.50 65.19 64.79 64.55 64.80 65.94 66.44
53.64 51.02 46.26 38.97 33.73 32.75 34.37 37.57 39.17 42.80 45.76 42.56 44.72 47.17 47.00 47.63 53.75 54.59 58.27 68.45 69.66 69.71 70.34 70.05 70.93 72.51 72.57 72.59 72.56 72.29 71.97 72.01 71.92 71.79 71.35 71.00 69.76 69.06 67.51 67.08 65.66 64.59 63.68 63.29 63.21 63.33 64.29 64.77 65.95
50.48 48.69 43.32 37.30 33.67 36.02 38.07 40.18 39.73 42.79 42.52 45.11 45.76 45.12 49.80 52.98 53.07 57.24 62.02 68.50 68.24 69.11 69.84 69.78 71.38 72.58 72.56 72.51 72.15 71.89 71.49 71.07 71.44 71.36 71.00 70.70 69.77 68.84 67.69 67.39 66.44 65.24 62.99 61.98 61.81 62.11 63.19 63.15 64.01
47.43 44.28 37.48 35.28 34.69 37.75 37.48 40.36 41.37 41.75 40.63 41.23 43.02 43.89 47.55 54.12 58.28 60.29 65.35 67.51 67.53 68.20 68.92 69.40 70.82 71.76 72.29 72.41 72.14 71.96 71.79 71.24 71.05 70.99 70.80 70.55 69.63 68.69 67.85 67.38 66.66 65.66 63.51 61.42 60.47 60.91 61.63 61.73 62.38
44.40 41.79 35.38 32.71 34.64 38.63 39.77 41.14 41.84 40.05 40.26 42.46 44.09 44.33 46.53 52.02 57.16 57.80 63.82 64.89 66.22 68.05 68.67 69.10 67.98 69.24 70.64 71.06 71.49 71.66 71.75 71.96 71.58 71.27 70.81 70.47 69.61 68.67 67.89 67.37 66.68 65.70 64.06 61.88 59.84 59.69 60.29 60.28 60.33
41.86 38.62 34.97 33.44 34.30 37.02 41.04 42.35 40.16 39.94 40.39 40.19 45.84 41.83 44.88 50.74 54.88 55.54 55.26 56.89 59.42 63.79 67.58 67.62 68.37 68.26 67.21 68.60 69.14 69.81 70.50 70.73 70.85 70.88 70.76 70.17 69.53 69.09 68.11 67.80 66.86 65.69 64.52 62.91 61.07 59.73 59.38 58.84 58.86
41.11 39.28 33.53 33.35 36.01 37.10 41.42 41.40 41.38 41.59 39.60 43.33 43.33 41.07 44.63 48.18 53.63 51.12 50.69 51.12 52.71 54.41 57.88 62.21 66.69 66.85 66.69 66.40 63.78 66.06 67.96 68.61 68.95 68.54 67.75 66.67 67.09 67.35 66.83 65.50 66.77 65.31 63.87 62.81 61.16 59.81 58.90 58.34 57.91
40.00 35.52 33.43 35.34 36.40 38.66 41.36 40.50 41.75 41.59 42.65 41.03 42.02 42.57 43.30 50.45 49.15 48.09 47.64 47.96 49.05 50.48 50.61 52.20 58.05 60.92 66.24 67.11 64.96 63.34 65.47 66.00 66.05 65.53 64.12 63.65 65.16 65.15 64.45 63.91 65.61 65.38 63.88 62.39 60.63 58.67 56.68 54.95 55.37
39.12 34.30 37.54 40.19 38.37 39.08 41.00 40.44 43.18 41.41 40.19 38.34 39.36 41.71 45.46 47.83 46.05 47.32 46.89 47.29 46.14 46.99 48.76 49.61 50.65 53.25 55.39 61.68 67.08 67.15 67.03 66.26 66.04 65.65 64.49 64.49 64.09 64.11 64.76 62.22 62.97 63.19 62.70 62.89 60.31 57.69 54.83 50.30 45.72
37.23 36.40 39.04 40.66 42.31 42.45 41.37 39.85 41.13 40.72 38.53 41.63 42.07 43.01 44.91 45.26 45.00 45.37 44.39 44.51 45.07 45.76 48.83 51.17 51.53 52.37 51.85 55.01 63.91 66.33 67.70 67.21 66.25 66.33 66.10 65.30 64.49 64.11 63.45 62.53 61.63 59.84 57.28 55.73 54.56 52.62 50.77 48.57 47.21
38.77 39.40 40.48 43.13 43.36 42.01 41.25 42.12 40.53 40.77 41.93 42.43 43.43 44.66 43.37 44.85 44.66 44.09 43.32 43.42 44.58 46.54 47.56 49.63 51.03 52.07 52.43 52.09 60.57 64.46 64.57 64.10 63.41 64.91 64.53 65.42 64.04 62.98 62.26 61.98 61.68 60.92 58.64 54.42 53.07 51.59 50.74 49.89 49.29
37.79 39.41 41.94 43.02 42.29 41.30 42.98 40.80 40.94 41.97 41.70 41.24 42.65 43.46 42.99 43.63 43.24 42.62 43.16 43.56 45.37 47.03 47.69 48.57 50.37 51.54 53.10 52.69 62.22 61.59 61.27 61.23 61.08 63.34 64.79 64.58 63.66 62.64 62.88 62.00 61.04 60.17 58.88 56.61 52.74 51.74 51.54 50.64 50.41
41.05 41.41 41.17 42.23 41.83 41.54 41.45 39.90 40.10 42.11 40.02 40.08 41.94 41.78 41.63 42.39 42.27 40.79 41.95 43.51 45.38 47.51 47.58 48.94 50.76 52.71 55.00 56.84 59.13 58.26 59.10 59.47 59.76 59.77 61.56 62.28 62.88 61.57 60.36 58.83 57.83 57.32 56.72 55.72 53.97 51.34 52.30 51.76 51.29
41.07 37.55 39.13 39.64 41.52 40.71 41.45 38.95 40.11 40.42 40.29 40.43 40.42 39.61 40.32 41.03 41.14 41.52 42.10 43.25 45.15 47.03 47.85 48.74 50.22 53.63 55.06 56.12 55.62 56.41 56.65 56.65 56.82 57.40 58.10 58.84 59.68 58.70 57.65 56.53 55.62 55.28 55.06 54.15 52.65 50.55 50.06 49.35 49.27
37.19 36.18 33.73 38.31 40.50 40.00 39.61 34.56 40.81 40.61 40.01 39.72 39.02 38.18 39.12 40.49 40.89 40.50 41.88 42.43 45.46 46.18 47.16 48.45 50.97 52.34 53.13 53.23 53.34 53.14 53.30 53.66 53.81 54.98 55.49 55.77 55.77 56.13 55.42 54.60 53.63 53.51 52.18 50.54 48.25 46.36 44.25 43.96 44.13
34.38 31.10 31.84 36.95 40.38 38.73 37.73 35.60 39.30 38.56 39.04 39.11 37.91 37.94 38.44 38.54 39.28 39.97 40.52 41.36 45.33 46.07 46.39 46.60 47.43 50.27 50.21 49.96 50.15 50.45 50.12 50.37 51.80 52.85 53.07 52.76 52.62 52.71 52.69 51.76 50.58 49.58 46.83 44.60 41.61 39.94 41.49 42.98 41.81
31.58 31.10 32.33 32.95 37.69 36.80 34.80 36.29 39.39 38.73 38.42 39.42 37.51 37.57 37.44 38.40 40.48 39.76 39.65 41.53 44.93 45.40 45.76 45.80 46.39 48.25 47.80 46.25 46.63 46.08 44.91 44.40 45.58 46.41 48.33 49.04 48.51 48.35 48.24 47.08 46.09 44.56 40.01 37.47 37.62 38.02 37.91 40.29 40.97
35.01 32.63 32.82 35.08 38.86 37.02 36.55 36.47 39.65 39.58 37.66 37.46 37.96 37.71 38.35 39.25 41.16 38.86 39.27 41.59 43.90 44.41 44.51 44.55 44.79 45.41 45.04 44.42 43.93 43.72 42.92 42.24 42.01 42.64 44.50 44.48 43.90 42.17 42.23 41.56 41.30 40.48 37.56 35.78 35.55 35.22 38.82 34.75 36.41
34.24 32.64 33.02 35.83 37.92 37.12 36.35 36.30 38.72 38.22 38.77 40.43 40.67 40.48 40.17 40.13 36.71 38.22 38.03 41.28 43.24 44.57 44.46 44.09 44.83 44.55 45.17 45.14 42.58 41.47 40.50 36.77 38.50 39.16 39.92 40.70 38.79 38.24 38.40 38.42 36.92 35.64 34.35 33.61 33.44 33.25 31.48 30.20 30.51
34.64 33.10 33.01 34.91 35.45 34.67 33.70 32.44 35.86 39.82 39.25 39.70 40.84 43.30 43.33 41.84 39.98 38.66 37.76 40.63 42.68 43.49 44.07 44.72 44.70 44.66 45.20 42.75 38.73 36.94 36.54 37.76 37.02 36.10 36.45 35.99 35.23 35.03 35.10 34.22 33.43 32.10 31.88 31.06 31.25 31.81 31.18 28.80 29.04
32.85 37.83 36.86 35.23 33.09 29.19 33.10 27.26 33.07 36.70 38.83 38.72 41.74 41.92 42.32 40.98 40.51 39.48 38.66 39.73 42.30 44.02 44.02 44.81 44.94 44.83 41.88 39.59 38.21 38.81 36.34 33.94 35.18 34.63 34.44 32.24 32.78 32.72 32.96 32.54 31.90 31.28 30.80 30.16 29.99 30.75 29.89 29.36 27.59
36.14 37.59 35.73 33.57 31.31 29.05 29.75 27.80 32.13 34.33 36.53 39.93 42.53 43.15 41.45 40.43 39.93 38.88 39.05 40.51 42.79 43.61 43.76 44.33 44.45 42.53 40.53 40.40 40.97 40.02 37.04 31.73 31.49 33.18 32.68 30.57 30.72 31.31 31.23 30.90 30.17 30.07 29.66 28.93 29.00 28.85 28.43 27.66 26.49
38.96 36.44 34.42 32.32 30.98 25.59 31.93 30.62 30.57 34.13 38.07 39.42 41.27 42.32 41.28 39.55 37.73 38.57 39.20 39.77 41.90 42.46 43.06 43.02 43.55 40.72 40.02 40.92 40.25 38.44 35.67 32.03 30.78 30.45 31.41 29.27 28.84 28.94 29.03 28.94 28.28 28.10 28.30 28.16 27.63 27.10 26.89 26.25 25.73
36.76 33.79 26.28 24.41 23.06 25.65 29.35 28.11 36.01 37.82 39.47 41.31 43.12 41.81 39.84 36.26 35.21 35.27 35.80 38.22 40.57 40.85 41.98 43.09 42.62 39.54 39.17 39.40 38.65 37.09 35.90 34.55 32.21 30.95 30.19 28.46 27.28 26.69 26.98 27.42 27.07 27.37 27.31 26.99 26.78 26.50 25.87 25.30 24.85
34.79 34.13 27.75 21.16 21.16 23.99 28.48 26.42 33.35 37.95 40.29 39.87 40.28 40.26 37.40 35.36 34.65 35.28 36.63 38.46 40.26 41.06 41.56 42.57 41.40 39.58 37.94 37.68 37.67 36.35 35.41 34.96 33.77 31.65 30.55 29.98 28.68 27.18 26.86 26.81 26.68 26.28 26.50 26.23 25.60 25.81 25.10 24.70 24.32
33.54 30.77 35.80 29.90 17.00 21.65 28.72 31.96 36.22 37.89 37.72 37.85 38.86 37.86 36.64 35.91 33.75 33.93 35.49 38.00 39.66 40.47 40.68 42.44 40.88 38.52 37.43 36.67 35.59 34.99 34.64 33.67 32.28 29.32 28.94 27.90 26.46 27.77 25.95 26.01 25.83 25.38 25.84 25.75 25.34 25.31 24.01 23.90 23.93
35.26 37.31 29.52 27.81 18.92 16.67 25.43 27.30 31.92 36.00 37.30 39.80 38.53 38.93 36.31 34.45 32.80 32.99 34.62 36.57 38.64 39.79 40.21 39.66 39.31 37.20 36.07 34.09 33.59 33.25 32.73 32.56 31.51 29.36 27.85 26.90 26.13 26.62 25.99 25.58 25.66 25.42 25.44 25.37 25.04 23.99 23.70 23.47 22.97
32.87 31.74 31.94 32.29 28.39 22.97 19.93 28.74 34.73 39.14 38.84 38.90 39.73 40.13 37.37 34.96 32.97 32.80 34.03 35.35 36.60 37.26 36.22 35.80 35.95 34.77 33.90 33.04 32.14 30.82 29.90 30.53 29.39 28.69 27.67 26.85 26.75 26.08 26.05 26.04 25.67 25.65 25.09 24.52 23.89 23.55 23.30 23.11 22.79
32.87 32.30 34.25 27.63 25.64 26.89 26.18 31.97 36.08 37.42 39.28 38.45 39.66 39.67 36.04 35.53 33.90 32.93 32.88 33.23 33.62 34.66 34.32 35.99 35.06 33.63 33.53 32.68 31.45 30.48 29.56 28.78 28.27 27.65 27.06 26.72 26.34 26.11 25.97 25.72 25.83 25.49 24.97 24.21 23.77 23.19 23.03 22.41 22.32

GFSSGP_sfc_wetblb_048.txt.gz
Wetbulb
58.54 53.27 51.51 47.89 41.05 37.20 32.69 34.90 38.39 38.43 38.99 43.36 45.23 43.19 42.52 45.68 42.96 37.37 55.13 62.37 67.65 68.12 69.63 70.66 72.24 72.75 73.12 73.15 72.50 72.72 72.84 72.74 72.20 71.72 71.32 69.93 68.81 67.66 67.65 67.49 66.86 66.48 66.35 66.06 65.98 67.44 67.86 69.59 69.57
55.56 52.87 49.30 41.58 35.99 31.48 32.97 36.25 38.06 39.47 45.26 46.12 45.73 44.85 46.48 45.22 51.93 54.80 58.23 65.98 68.23 68.87 69.71 70.24 71.11 72.53 73.01 73.08 72.92 72.50 72.33 72.79 72.02 71.49 70.78 69.71 68.43 67.43 66.53 65.84 65.34 65.03 64.98 65.05 65.66 66.85 68.13 68.88 68.23
52.39 49.78 45.49 38.04 32.42 31.79 33.42 36.48 38.68 41.63 45.39 41.16 43.88 46.86 46.54 47.75 52.58 54.39 58.12 67.83 68.84 68.71 69.66 69.51 70.82 72.35 72.68 72.54 72.33 72.11 72.56 72.63 71.75 71.18 70.51 69.70 68.38 67.94 66.98 65.87 64.45 63.71 63.49 63.99 65.06 66.07 66.95 67.85 67.19
49.85 47.73 41.76 36.52 33.66 34.66 36.57 38.47 38.86 42.53 42.11 43.96 45.31 45.06 48.14 51.67 52.19 55.61 64.30 68.05 67.95 68.39 69.04 69.44 71.16 72.48 72.34 72.22 71.89 71.67 71.71 71.70 71.23 71.06 70.24 69.80 68.45 68.29 67.46 66.53 64.83 62.90 62.47 62.88 64.09 64.59 65.29 66.05 65.22
46.25 42.74 36.81 34.33 33.28 36.60 37.51 39.38 40.89 40.88 38.82 40.90 41.78 43.11 45.97 53.01 56.83 58.37 65.27 67.33 67.13 67.51 68.26 68.94 70.87 71.77 72.15 72.10 71.82 71.77 71.57 71.50 71.46 71.12 70.06 69.45 68.47 68.16 67.41 66.70 65.22 63.24 61.60 61.70 62.70 62.97 63.26 63.30 62.11
43.81 40.86 34.55 32.08 33.82 37.87 38.99 39.69 40.76 39.25 39.47 41.09 44.13 46.01 47.25 50.56 55.32 56.77 64.90 65.19 66.33 67.45 67.86 68.58 68.00 69.42 70.61 71.39 71.61 71.71 71.72 71.58 71.30 71.02 70.44 69.62 68.53 68.11 67.49 66.73 65.59 64.20 62.35 60.98 61.28 61.12 61.01 60.88 59.44
41.39 37.64 33.65 32.39 34.53 36.22 39.81 41.14 38.42 39.89 40.61 41.13 46.38 42.43 44.75 49.21 54.41 56.31 59.65 60.99 62.99 65.81 66.83 67.38 67.84 67.69 67.21 68.54 69.16 69.95 70.84 70.87 70.93 70.75 70.51 69.72 68.99 68.53 67.75 67.35 65.99 64.91 63.64 62.07 60.83 59.95 59.81 59.29 57.92
39.84 38.44 31.95 32.58 35.19 36.00 40.68 40.33 39.51 40.51 38.85 42.37 43.22 41.12 43.63 49.28 54.33 52.32 53.60 54.90 56.47 59.43 63.15 65.24 67.14 67.82 67.74 67.42 64.81 66.48 68.01 68.65 68.93 68.73 67.58 66.65 66.80 66.74 66.06 64.95 65.56 64.37 62.97 61.65 60.43 59.52 58.94 58.10 56.96
38.43 35.31 32.60 34.52 35.67 37.29 39.94 39.26 39.27 40.18 41.13 40.08 41.47 42.40 43.66 51.60 50.12 50.59 50.82 51.00 51.91 52.55 53.13 55.39 63.07 64.80 66.04 65.76 64.65 62.88 65.55 66.22 66.05 65.34 63.99 63.65 64.85 64.33 63.66 63.57 64.68 64.08 62.94 61.09 59.04 56.95 56.13 55.50 55.04
37.14 33.57 36.28 38.16 36.76 39.21 39.78 39.27 41.70 39.80 38.80 39.94 39.69 40.58 45.83 48.85 47.96 51.73 52.38 53.67 51.23 50.78 49.98 50.60 53.55 55.99 58.01 63.72 67.34 66.78 66.64 66.05 65.71 65.45 64.51 64.38 63.87 63.96 64.18 61.51 61.96 62.87 61.88 60.32 58.67 56.27 53.10 48.74 44.54
36.05 34.87 38.10 39.42 40.78 41.06 40.50 38.48 40.82 39.91 37.74 41.20 41.82 42.41 46.04 45.85 47.08 51.01 51.29 51.93 51.00 48.46 49.00 50.72 51.07 52.97 54.73 57.57 64.69 66.99 67.57 65.74 65.16 66.25 65.91 65.26 64.40 64.03 63.56 61.96 60.40 58.42 55.75 53.29 52.23 50.05 48.55 46.95 46.10
38.23 37.93 38.54 41.68 42.04 40.47 39.61 40.76 39.85 39.85 41.35 41.15 42.40 43.66 45.17 45.37 45.60 46.76 48.07 46.73 46.04 46.66 48.12 50.09 50.88 51.73 52.17 52.57 57.80 64.18 65.59 65.80 65.65 65.72 65.59 64.64 63.91 63.21 62.52 61.76 60.47 58.86 56.28 52.69 51.03 49.69 49.05 48.46 47.42
38.32 37.89 40.51 41.62 40.95 41.26 41.96 40.05 40.20 40.51 41.39 40.79 41.36 44.18 44.77 45.46 44.46 43.43 43.78 43.31 43.80 45.47 47.34 49.13 49.64 51.04 52.36 51.57 61.96 61.48 62.79 63.12 63.36 64.62 65.31 64.59 63.03 62.68 62.35 61.84 60.94 58.73 57.14 54.64 51.40 50.97 50.97 48.74 47.08
39.57 39.97 39.73 40.61 40.54 40.20 39.87 40.44 41.70 42.32 39.17 39.19 40.73 41.69 43.04 44.07 44.25 41.75 41.87 42.60 43.55 45.75 46.80 47.98 49.55 50.90 52.29 53.46 59.43 60.34 60.94 61.05 61.56 62.53 64.18 64.27 63.52 62.70 61.48 59.85 58.92 57.43 56.48 55.01 53.56 52.63 51.75 50.75 48.53
39.66 37.00 37.95 37.39 39.56 39.33 41.30 38.32 39.92 40.40 39.10 40.04 39.37 39.14 40.07 41.38 42.11 43.40 42.86 42.31 43.57 45.75 46.84 47.71 49.20 51.18 54.18 54.27 57.80 58.01 58.74 58.91 59.22 59.04 60.52 61.59 62.07 61.23 59.74 57.86 56.53 55.57 55.12 53.85 52.17 50.35 50.34 47.65 44.83
36.25 35.21 33.27 36.70 39.32 39.04 38.52 33.79 40.03 39.32 39.58 40.42 38.78 38.01 38.88 40.40 41.26 41.03 41.66 42.08 43.38 45.25 46.33 47.54 51.25 54.03 55.17 52.27 55.35 54.12 55.83 55.46 56.19 56.73 57.47 58.42 58.75 58.92 57.53 55.95 54.77 54.15 53.08 51.17 48.42 47.57 45.40 41.92 39.97
33.59 30.04 30.40 35.90 39.38 37.49 36.27 34.28 38.41 37.20 37.82 38.93 38.26 38.04 38.41 38.70 39.59 39.94 40.52 41.08 42.67 45.07 45.91 46.79 47.81 52.39 53.03 50.48 51.60 50.44 52.24 53.15 53.59 54.36 54.83 54.83 55.68 55.81 55.53 54.31 52.93 50.98 48.96 47.02 45.37 43.61 43.22 39.57 37.50
30.70 29.47 31.10 31.84 36.24 35.20 34.23 35.08 38.74 39.10 37.79 38.44 37.76 37.56 37.48 38.12 40.80 41.76 39.91 40.16 42.64 44.53 45.59 46.07 46.66 48.46 50.27 48.82 47.22 46.29 47.22 46.88 49.25 50.58 51.43 51.33 50.99 51.46 51.26 50.15 48.08 45.89 43.47 42.31 42.67 41.28 39.63 39.42 36.09
33.36 31.32 31.97 33.29 37.10 35.09 35.15 35.09 38.01 39.58 36.87 37.66 37.62 37.18 38.62 39.61 43.35 39.90 39.57 39.34 42.17 43.60 44.39 44.84 45.41 48.25 48.02 47.01 46.55 45.12 45.35 44.54 44.54 45.76 47.75 48.34 47.97 48.01 48.30 46.53 43.86 40.57 40.10 39.01 41.66 40.35 38.75 35.16 34.50
33.23 31.79 31.78 34.62 36.06 35.36 35.19 35.52 38.83 38.25 37.89 39.26 40.90 39.95 40.23 40.02 38.52 38.48 37.95 38.24 41.63 43.68 44.63 44.28 45.42 47.76 47.99 47.23 43.04 42.05 40.87 37.81 40.74 41.27 41.92 42.96 43.19 43.78 44.45 43.58 38.29 36.00 36.50 37.40 38.19 37.52 32.01 30.19 30.80
33.44 32.01 31.56 33.72 34.50 34.08 32.22 31.86 34.45 38.14 37.69 38.54 39.38 42.66 42.29 41.92 41.90 39.15 37.11 38.43 40.66 42.95 44.25 45.17 45.37 45.84 47.58 45.58 38.75 36.94 38.51 38.97 38.79 38.34 38.78 38.70 39.94 39.74 38.98 37.56 35.33 33.55 35.43 36.88 33.36 33.87 33.66 28.74 27.54
31.28 36.32 35.30 33.57 31.90 28.09 31.52 26.22 31.67 36.56 38.37 38.61 41.66 40.05 41.41 42.26 41.28 40.47 38.39 37.67 40.05 42.72 44.92 45.73 45.30 45.12 45.17 41.88 40.54 40.80 37.33 36.24 36.30 37.46 36.46 35.62 36.48 35.74 35.26 34.15 32.91 31.95 31.28 31.81 31.27 31.23 30.04 29.64 26.61
34.94 36.73 34.79 33.22 30.60 27.72 27.27 27.00 31.06 33.26 35.60 39.24 42.60 41.62 41.08 41.72 40.20 39.98 38.57 39.88 40.58 42.38 44.05 45.06 44.49 44.46 43.29 41.04 42.00 41.41 39.10 33.67 33.05 35.40 34.56 33.90 33.32 32.18 32.19 31.94 30.59 29.95 29.55 29.07 29.20 28.20 28.52 28.06 26.96
38.13 35.55 33.45 31.21 30.04 25.15 29.91 29.80 29.92 32.54 36.81 37.54 41.53 42.71 41.43 39.43 38.56 37.69 37.71 37.86 39.06 41.39 43.07 43.67 43.80 43.81 40.76 40.06 39.73 41.66 37.20 33.34 33.46 33.63 33.36 32.52 31.74 29.22 29.50 29.36 28.84 28.65 28.62 28.22 27.62 27.07 27.46 26.78 25.97
35.10 33.58 26.47 23.12 21.99 24.64 28.18 27.40 35.59 36.05 39.17 38.31 40.61 41.53 39.14 38.40 37.06 35.85 35.38 35.73 38.47 40.54 42.25 43.40 43.69 42.14 40.32 39.89 39.32 38.54 37.68 36.70 36.65 34.01 33.43 31.18 29.89 27.10 27.83 28.03 27.64 27.60 26.92 26.77 27.18 26.94 26.58 26.31 26.49
33.96 33.85 26.72 19.96 19.54 23.03 27.45 26.00 32.21 37.44 38.81 39.07 38.60 39.79 37.78 37.90 36.72 35.70 35.01 35.67 38.40 40.23 41.67 43.37 43.64 41.94 39.43 39.88 38.45 36.91 37.38 38.01 37.66 35.52 33.47 32.69 32.01 29.28 28.02 27.43 26.79 26.46 26.43 26.11 26.05 26.50 25.77 26.09 25.25
32.99 31.06 34.95 29.31 15.64 21.32 27.55 29.86 35.49 36.77 37.54 37.99 38.00 37.62 38.35 37.21 37.07 35.64 34.25 35.28 37.46 39.60 41.02 42.81 42.86 42.02 39.26 39.20 37.77 35.72 36.90 36.67 35.49 33.96 32.84 31.37 30.41 28.70 26.84 26.62 25.97 25.43 25.67 26.06 25.83 25.87 24.53 24.62 24.42
34.81 36.91 29.44 27.68 19.82 15.98 24.75 26.06 30.33 35.27 37.35 38.48 37.71 38.64 39.06 36.26 36.62 34.31 33.50 34.80 37.08 39.27 40.80 42.23 42.70 41.39 38.64 37.83 36.80 35.90 35.64 35.88 34.75 32.92 31.65 30.05 29.81 27.38 25.69 25.32 25.38 24.91 25.13 25.31 25.39 24.35 24.03 24.13 23.42
32.95 31.82 30.95 31.77 27.86 21.62 18.52 28.78 33.49 37.01 38.50 37.93 39.70 39.14 38.00 37.71 36.64 35.32 33.18 34.52 36.38 37.67 39.31 40.94 40.71 37.75 36.30 36.17 34.11 32.96 34.07 34.16 32.69 32.11 31.03 30.18 29.19 26.24 26.17 26.10 25.59 25.50 25.22 25.12 24.60 24.23 23.91 23.78 23.19
31.20 31.74 32.23 26.69 23.91 25.50 25.06 31.27 35.90 37.05 38.14 37.32 38.85 38.90 37.33 36.45 36.33 34.33 32.97 33.81 34.52 35.87 36.52 37.71 38.82 37.45 37.10 34.46 32.52 31.61 31.75 32.24 31.52 31.39 30.17 28.94 28.28 26.67 26.62 25.89 25.74 25.56 25.46 25.04 24.75 24.16 23.92 23.08 22.69

GFSSGP_sfc_wetblb_051.txt.gz
Wetbulb
59.68 54.91 54.35 50.30 45.14 41.84 38.36 40.74 42.75 43.04 44.31 47.69 46.77 46.35 46.31 49.09 45.47 42.74 58.50 66.92 68.16 68.92 70.58 70.85 71.88 72.93 72.87 72.95 72.87 72.79 72.71 72.67 71.96 70.73 69.58 68.20 67.71 67.57 67.29 66.85 66.73 66.49 66.79 67.94 68.92 70.31 70.00 68.86 68.37
56.15 54.04 50.77 45.22 40.30 36.99 38.14 40.73 41.39 43.16 48.20 49.01 48.48 49.50 49.70 49.82 54.85 57.65 63.30 66.07 69.01 69.75 70.91 71.50 71.00 72.46 73.08 72.44 72.67 72.70 72.88 72.58 71.63 70.53 69.45 68.28 67.54 66.75 65.93 65.42 65.18 65.41 66.41 67.60 68.52 69.49 68.75 67.77 67.33
54.37 50.14 48.97 41.24 36.48 36.31 37.60 41.12 42.35 46.07 47.53 46.06 47.99 50.51 50.47 51.45 55.63 58.34 61.39 67.42 69.50 69.99 70.88 70.94 70.86 72.55 72.29 72.29 72.37 72.46 72.23 72.34 71.39 69.92 69.32 68.79 68.18 67.41 66.05 64.57 64.17 64.46 65.64 66.57 67.83 68.31 67.38 66.58 66.05
52.13 49.73 44.57 40.16 39.59 40.84 42.06 42.46 43.28 45.75 46.89 46.93 48.88 48.21 52.20 55.63 56.23 59.00 67.91 68.99 69.18 69.76 70.23 70.12 71.50 72.40 72.32 72.22 72.24 72.51 72.33 72.01 71.20 69.72 68.91 68.98 68.40 67.62 66.31 64.39 63.31 63.62 64.44 65.31 66.51 66.52 65.16 63.87 63.43
47.61 45.24 40.07 38.48 39.51 41.45 41.17 43.24 45.07 44.84 44.36 46.63 47.22 46.57 50.69 55.64 59.96 61.25 67.96 68.78 68.54 69.30 69.79 70.61 70.50 71.68 72.07 72.03 71.94 72.11 72.08 71.71 71.51 69.99 68.91 68.94 68.23 67.53 66.31 64.83 63.00 62.66 63.33 63.80 64.07 63.58 62.02 61.26 61.43
45.97 43.37 38.19 36.76 38.47 41.57 42.82 43.00 44.59 43.99 44.24 45.78 47.35 48.35 50.55 54.11 59.87 61.65 67.52 68.19 69.14 68.97 69.46 70.30 68.18 69.33 70.67 71.34 71.58 71.56 71.61 71.31 71.33 70.83 69.31 68.82 68.18 67.44 66.45 65.41 64.11 62.63 62.18 62.13 62.22 61.70 60.40 59.42 59.93
44.18 40.84 37.55 36.72 37.67 40.10 42.43 42.76 42.56 43.16 44.02 45.57 49.32 46.82 49.69 53.36 59.14 62.12 65.56 66.58 68.24 68.67 69.01 69.76 70.27 69.15 67.41 68.79 69.35 69.95 70.38 70.47 70.51 70.09 69.80 69.03 68.47 67.99 67.10 66.37 64.95 63.62 62.46 61.61 61.04 60.21 59.10 58.37 58.30
41.79 40.30 36.73 36.25 37.77 39.95 42.48 42.30 43.14 44.02 43.69 46.64 48.36 45.68 48.10 53.76 56.72 58.76 60.80 61.91 63.94 66.92 67.57 68.40 69.12 69.41 69.60 69.43 65.95 66.94 68.07 68.60 68.95 68.57 67.36 66.25 66.32 66.13 65.29 64.09 64.43 63.25 62.11 61.16 60.18 59.29 58.34 57.43 56.94
42.54 38.33 35.63 37.35 37.87 40.90 41.08 42.20 42.62 44.26 44.23 44.84 45.53 46.97 48.85 54.25 53.91 55.85 56.51 56.80 58.02 59.35 62.64 66.03 66.52 66.93 67.47 67.58 65.37 63.98 65.54 66.19 66.15 66.05 64.06 64.42 66.67 65.96 64.68 63.03 63.63 62.75 60.78 59.20 58.62 58.04 56.94 55.77 55.83
39.35 36.37 38.11 39.78 39.70 40.72 41.75 42.39 42.66 43.39 43.10 43.61 44.32 45.49 48.86 52.79 53.49 56.67 57.67 58.89 58.17 57.84 56.04 58.38 60.95 62.73 64.77 66.89 67.85 68.09 68.58 68.78 68.47 68.20 67.69 67.08 66.25 66.04 64.59 61.34 61.52 61.49 60.29 58.69 56.92 54.97 52.30 50.58 50.80
38.75 36.51 39.45 40.95 42.23 42.72 42.15 41.25 42.80 42.25 41.43 43.95 44.24 45.09 48.07 51.71 52.75 56.68 57.90 59.17 58.71 57.23 54.96 54.14 55.64 57.12 59.92 62.00 66.90 68.04 68.72 68.43 68.16 67.85 67.38 66.23 65.15 64.43 63.95 61.40 59.28 56.62 54.87 54.10 53.18 51.87 50.64 50.07 50.63
38.94 39.41 40.17 43.35 43.29 42.11 41.16 42.22 41.57 41.61 44.23 45.10 44.96 45.99 48.11 50.70 52.57 55.20 56.88 56.24 54.26 52.83 53.74 53.52 54.32 55.24 56.37 57.41 59.94 65.84 67.47 67.60 67.54 67.44 67.01 66.39 64.96 64.86 63.28 61.40 58.97 56.88 54.84 52.45 52.91 51.86 50.66 49.60 49.30
38.84 39.70 41.39 42.60 41.79 41.25 42.67 41.24 41.78 41.78 43.34 44.17 43.78 45.54 47.51 50.39 52.47 50.47 53.33 53.10 51.60 51.32 51.56 52.63 53.23 54.26 55.20 55.78 58.87 63.99 65.44 66.36 66.86 66.27 66.52 66.51 64.52 64.26 63.05 61.42 60.27 57.41 55.61 53.19 52.80 51.20 49.74 48.64 48.24
40.94 41.25 40.72 41.52 41.79 41.53 41.44 40.79 41.59 43.54 42.82 43.13 42.81 44.11 45.98 48.32 49.79 47.25 46.58 48.94 47.44 48.83 50.06 51.36 52.03 53.54 54.33 55.39 58.63 63.03 63.93 64.25 64.07 64.74 65.72 65.20 64.69 64.17 62.37 61.47 58.75 57.03 55.79 54.43 53.01 51.06 49.45 47.32 45.30
40.14 37.68 39.78 39.06 40.89 40.90 41.73 39.52 40.66 42.60 42.22 42.85 42.51 42.13 42.72 45.39 46.20 47.90 49.29 46.78 46.51 47.37 48.81 49.81 51.03 52.92 54.13 54.95 58.04 61.03 62.22 62.38 61.81 62.32 63.29 64.66 63.81 63.52 61.62 59.63 57.50 56.36 55.54 54.11 52.53 50.68 47.36 43.75 41.09
37.40 36.80 34.67 38.37 39.97 40.27 40.32 36.08 40.82 40.94 41.50 42.70 42.14 41.12 40.72 42.46 44.95 46.12 45.98 45.71 45.59 46.95 48.08 49.34 51.37 53.35 54.24 55.53 57.36 59.14 59.51 60.53 59.74 59.75 61.04 61.74 61.74 61.39 60.10 58.16 56.32 55.60 54.39 52.68 50.59 47.16 43.84 40.36 39.07
34.47 31.46 32.37 36.66 39.68 38.79 38.19 36.70 40.08 40.40 39.72 40.58 40.44 40.68 40.49 40.90 41.92 43.18 44.50 45.16 45.34 46.44 47.84 48.52 50.63 53.06 54.12 55.31 55.25 55.90 56.42 57.95 56.90 58.02 57.96 58.26 58.96 59.03 58.51 56.77 54.26 53.29 50.89 49.60 48.03 44.66 41.61 38.88 37.35
31.76 31.59 31.97 33.10 36.94 36.63 35.91 36.23 39.53 40.41 39.91 40.84 40.70 40.54 40.22 40.85 42.65 44.99 43.14 43.29 44.22 45.66 47.29 48.34 49.61 52.43 53.35 52.61 51.48 50.54 51.28 53.40 54.31 54.58 55.01 55.21 55.97 56.49 55.74 53.85 52.33 50.55 47.65 46.58 45.55 42.46 40.54 39.45 37.22
33.91 32.19 32.35 34.06 37.55 36.62 35.99 35.90 38.32 41.39 38.96 39.14 40.37 40.54 41.31 41.43 45.16 43.41 42.70 42.91 42.61 44.67 46.10 47.37 48.29 50.27 51.10 50.19 50.09 48.88 49.46 49.52 50.11 50.42 51.36 52.23 52.86 53.40 53.53 52.16 48.17 48.21 46.63 45.81 44.04 41.19 38.68 36.28 36.60
33.81 31.95 32.90 34.95 36.32 36.64 35.69 36.24 38.91 39.40 42.00 41.78 42.92 43.19 42.51 43.28 41.90 41.97 41.19 41.42 42.04 43.98 45.67 46.71 48.00 49.14 50.34 51.43 48.73 48.21 46.30 45.31 47.22 46.31 47.48 48.46 49.44 49.55 49.87 48.23 45.32 44.38 43.57 43.68 42.58 41.02 38.08 37.01 37.60
33.10 32.22 31.76 34.24 34.63 34.55 33.45 33.05 35.26 38.70 39.13 39.98 40.87 43.71 43.90 44.02 44.63 43.25 39.74 40.67 41.45 42.61 44.79 46.49 47.50 49.00 50.15 50.18 43.85 40.70 40.83 41.93 42.41 42.64 43.44 43.68 45.95 46.16 46.04 45.05 42.28 42.48 44.51 43.83 43.55 41.11 39.05 36.37 34.66
31.19 35.48 34.73 33.25 32.69 29.11 32.88 26.84 33.13 36.96 37.79 39.10 41.26 41.41 42.42 43.74 42.61 42.01 39.89 40.05 40.55 42.50 45.03 46.79 47.31 48.63 49.47 46.57 45.47 44.86 46.14 42.26 43.10 43.02 42.86 40.64 41.92 42.54 43.11 40.14 40.06 41.79 43.95 43.23 41.98 40.77 39.68 38.15 35.22
34.33 35.89 34.40 33.24 31.61 29.96 29.54 28.70 32.96 34.19 36.17 38.74 41.87 43.17 43.97 41.42 41.40 42.20 40.61 41.38 41.57 42.30 43.97 46.14 46.82 47.35 48.80 45.98 47.53 46.37 43.66 41.70 40.54 39.96 39.54 39.02 37.90 39.65 38.25 36.89 37.41 38.92 40.96 42.04 40.52 37.44 36.33 37.22 34.27
36.91 34.98 33.25 31.49 30.80 25.70 29.61 30.90 30.11 33.17 36.76 38.69 40.98 42.08 42.01 40.98 40.52 40.44 40.38 39.73 39.54 41.04 43.58 45.42 45.70 46.14 46.89 46.65 46.45 46.35 45.79 39.20 38.70 37.45 37.98 37.05 35.98 35.71 35.51 34.01 35.77 36.24 37.17 37.67 37.69 35.94 35.39 33.90 32.78
34.18 32.88 25.97 23.34 22.61 25.29 28.31 28.09 34.81 36.82 38.46 38.92 41.59 42.41 40.78 40.81 40.72 40.31 38.97 37.68 37.77 39.79 42.44 44.25 44.94 45.27 44.44 44.09 45.18 45.18 43.77 41.43 40.93 38.95 38.60 35.59 33.99 32.86 32.88 33.02 32.78 33.00 33.20 33.01 33.04 33.04 32.70 32.31 32.61
33.27 33.10 26.52 19.86 19.33 23.02 27.39 25.92 32.73 37.42 39.09 38.97 38.66 39.72 38.69 39.08 39.48 39.74 39.22 37.95 37.48 39.62 41.71 43.38 44.28 45.06 43.23 43.49 43.39 43.97 44.04 41.94 41.47 40.46 39.65 37.87 37.05 35.73 33.16 32.47 32.29 31.40 31.33 31.04 31.49 31.89 31.47 31.91 31.53
32.68 30.92 34.21 28.36 15.67 21.62 26.71 29.94 35.09 36.08 37.27 38.20 40.20 37.88 39.00 39.42 39.42 39.34 38.74 36.91 36.99 39.31 41.12 42.75 43.91 44.87 42.60 42.70 42.54 41.27 41.82 41.32 40.56 39.66 38.26 36.96 35.72 34.49 31.93 31.62 31.03 30.56 30.52 30.64 30.93 30.55 29.76 30.88 30.16
34.22 36.49 29.53 27.62 19.66 16.71 24.77 26.18 31.58 35.02 37.97 39.37 38.13 39.55 39.18 39.03 39.48 38.98 37.40 36.18 36.57 39.03 40.57 42.25 43.83 44.20 42.19 42.10 41.15 40.58 40.32 39.51 39.01 37.35 35.83 32.94 32.08 31.09 30.20 29.57 30.17 29.52 29.61 29.50 29.73 29.13 28.98 29.48 28.63
32.86 31.29 30.56 31.13 27.84 21.50 18.71 28.44 33.24 36.78 37.85 38.14 38.83 38.94 39.15 39.86 39.75 39.10 37.30 35.78 36.45 38.35 39.52 41.17 42.43 42.44 40.31 40.35 39.39 38.79 38.69 37.37 36.09 35.76 35.42 33.04 31.56 30.37 29.79 29.06 29.24 28.80 28.41 28.29 28.71 28.82 28.11 28.26 27.66
31.67 31.29 31.95 27.21 23.86 25.37 24.85 30.98 35.23 37.61 38.21 37.64 38.44 39.14 39.12 39.11 39.61 38.08 36.76 35.34 35.43 37.00 38.38 39.94 41.51 40.96 40.17 39.44 37.63 37.14 36.83 36.15 34.36 35.15 33.84 31.93 30.69 30.01 29.72 28.47 28.47 28.37 27.99 27.93 28.14 27.32 27.49 27.25 26.78

GFSSGP_sfc_wetblb_054.txt.gz
Wetbulb
63.44 60.82 62.57 58.88 51.26 50.83 45.61 45.86 48.57 47.68 48.30 50.89 51.11 51.28 50.81 52.49 48.63 49.13 65.49 69.51 69.92 70.02 70.94 71.05 71.39 72.81 73.10 72.86 72.75 72.61 72.70 71.76 70.23 68.77 68.08 67.71 67.41 67.13 67.06 66.78 67.27 68.06 68.72 70.28 70.12 69.73 69.05 67.96 67.19
60.63 58.49 59.81 56.50 48.60 44.04 44.98 47.74 46.78 49.24 51.70 53.30 53.37 53.95 53.39 53.22 59.02 62.41 66.08 69.20 70.20 70.40 70.77 71.09 71.26 72.89 72.80 72.25 72.21 72.03 72.30 71.68 70.12 68.91 68.40 67.72 66.67 65.95 65.74 65.85 66.90 67.66 68.33 69.72 69.49 68.78 67.71 66.74 66.04
58.81 55.63 57.33 53.56 49.03 43.70 44.98 47.68 49.08 50.92 52.63 51.10 52.05 54.71 54.19 54.97 60.51 64.79 67.37 69.81 70.28 70.60 71.04 70.98 70.86 72.50 72.10 72.72 72.54 72.11 72.17 71.61 69.96 69.12 68.96 68.37 67.19 65.59 64.92 65.15 66.14 66.77 67.55 68.96 68.56 67.39 66.29 65.52 64.99
58.77 57.37 53.73 48.90 45.25 46.46 46.48 48.86 49.40 51.20 50.34 50.13 52.85 51.58 56.32 59.93 62.10 63.75 68.96 70.02 69.98 70.53 71.23 70.19 71.41 71.95 71.78 72.40 72.48 71.96 71.79 71.61 70.32 69.24 69.13 68.46 67.31 65.63 64.24 64.52 65.14 65.81 66.72 66.81 66.14 64.87 64.39 64.20 64.23
57.96 55.66 50.38 47.51 45.68 46.58 47.90 48.94 52.05 49.96 49.60 51.21 52.53 50.82 54.29 59.72 62.64 66.83 68.91 69.84 69.39 70.18 70.61 71.04 70.86 71.44 72.13 72.24 71.98 71.65 71.48 71.57 70.40 69.18 68.94 68.20 67.09 65.73 64.07 63.68 64.30 64.50 64.96 64.58 63.46 62.80 62.65 62.84 63.29
54.77 53.82 47.81 44.99 45.45 46.80 48.11 49.38 51.84 50.12 49.40 50.95 50.60 52.27 54.29 60.79 62.89 67.35 69.46 69.83 70.17 69.88 70.52 70.99 68.30 69.36 70.76 71.43 71.46 70.81 71.15 71.09 70.74 69.47 68.84 68.07 67.10 66.04 64.82 63.59 63.25 63.03 63.03 62.52 61.40 60.78 61.21 62.03 62.32
52.90 51.73 47.12 45.78 45.34 45.95 47.80 50.29 50.61 49.96 49.33 50.11 53.71 50.75 54.55 58.70 63.93 67.56 69.27 69.91 70.12 70.36 70.22 70.77 70.90 69.60 67.40 68.49 69.52 69.99 70.00 69.98 70.01 69.66 69.27 68.51 67.66 67.17 65.87 65.18 63.56 62.93 62.19 61.41 60.33 59.58 59.89 61.02 61.26
53.36 52.60 45.58 45.77 44.92 45.41 48.48 49.36 49.51 50.13 49.39 51.86 54.98 49.94 51.40 59.07 63.88 67.15 68.04 69.20 69.42 69.86 69.99 70.07 70.73 70.74 70.57 70.74 66.14 67.18 68.25 68.80 68.94 68.36 67.09 66.06 65.88 65.29 64.58 63.50 63.58 62.70 61.75 60.68 59.58 58.61 58.77 60.02 60.41
49.58 48.42 45.50 45.67 45.10 47.02 47.93 48.05 47.52 49.19 49.76 51.20 52.75 51.65 54.50 61.65 63.59 62.99 62.84 65.77 65.97 67.20 68.93 69.63 69.96 70.20 70.43 70.43 68.12 65.59 65.89 66.42 66.37 65.94 63.85 63.92 66.43 65.45 64.55 62.16 62.45 61.91 60.89 59.98 58.91 58.22 58.36 58.29 57.56
49.94 47.22 46.48 47.55 48.26 47.48 48.00 48.58 48.62 48.25 48.55 49.80 50.01 51.33 53.07 60.11 62.55 62.45 61.57 62.46 63.79 63.61 66.25 68.24 67.68 68.63 69.94 68.96 69.99 70.16 69.82 69.80 69.49 69.20 67.97 68.11 67.45 66.43 64.44 60.89 60.50 60.11 59.12 58.24 57.14 55.47 54.71 57.26 58.16
46.58 45.81 45.95 46.74 47.39 48.08 48.08 47.16 48.88 48.35 47.34 50.52 50.54 51.85 52.56 59.04 61.36 62.68 63.80 64.88 65.23 65.06 62.27 62.52 67.29 69.50 68.66 67.47 69.34 69.86 69.98 69.86 69.74 69.62 68.90 68.41 66.92 65.43 64.85 61.54 59.98 58.30 56.38 55.96 55.26 55.28 55.67 56.16 56.66
45.48 45.61 46.97 48.06 48.46 47.68 46.85 48.28 47.41 48.44 50.60 50.53 52.23 52.38 53.35 57.21 59.51 61.69 62.95 64.45 65.26 65.65 62.77 60.95 64.47 65.57 63.51 65.57 66.23 69.18 69.90 70.52 70.01 69.60 69.10 68.18 66.56 65.08 63.09 61.21 58.50 56.59 55.87 55.98 56.01 55.08 54.77 54.52 54.02
45.78 46.28 46.95 48.16 47.64 47.47 46.89 47.40 47.86 47.83 51.48 50.14 49.42 50.02 52.50 55.51 59.19 61.38 63.45 64.83 65.06 63.90 64.60 60.32 59.77 63.80 64.70 65.00 63.23 64.21 67.43 69.46 69.74 69.95 69.02 68.71 66.45 64.88 63.39 61.33 59.30 56.50 54.74 55.22 54.67 54.49 53.84 53.06 51.24
47.00 46.90 46.84 47.41 47.62 47.42 46.63 47.62 47.26 50.06 51.23 49.59 49.13 50.90 52.02 53.84 57.61 60.19 60.99 62.60 63.21 63.48 63.49 63.31 61.60 62.90 62.96 63.32 64.93 65.86 66.69 67.38 68.61 68.88 68.55 67.91 67.71 64.96 63.04 61.44 60.87 57.84 56.62 54.24 53.00 52.90 51.22 49.33 48.24
46.30 45.08 46.35 46.33 46.93 46.97 47.18 45.45 45.52 50.42 48.42 49.49 49.98 50.90 51.24 52.50 55.21 57.96 59.46 60.49 62.44 61.86 62.58 60.90 60.12 60.36 60.65 62.10 63.23 65.46 67.04 66.92 67.09 67.46 67.72 67.59 66.62 65.02 62.60 60.98 59.32 57.69 55.03 53.90 52.97 49.34 46.00 44.27 44.63
45.07 45.47 43.02 44.95 45.35 46.38 46.25 43.63 47.44 47.59 47.85 48.94 50.57 51.28 50.95 51.21 52.52 55.31 58.02 59.63 60.63 60.43 58.81 58.77 56.38 57.52 58.75 59.98 61.16 63.10 65.67 66.05 66.36 66.37 64.81 65.47 66.78 64.60 62.23 60.10 58.09 56.94 54.21 52.77 49.52 45.97 42.51 42.42 43.01
44.07 41.35 41.49 43.08 45.44 44.96 45.22 44.74 47.56 46.96 46.72 48.26 49.69 49.98 50.39 50.87 51.28 52.30 55.31 56.37 56.86 56.68 56.34 56.09 55.95 56.30 57.07 57.96 58.93 60.48 62.99 64.44 65.18 65.25 64.42 63.65 64.89 63.86 61.27 59.57 57.69 55.16 53.13 52.55 47.62 44.83 43.59 40.37 41.67
41.02 40.62 40.54 41.56 43.75 43.36 43.99 43.95 47.68 49.11 46.52 48.47 50.11 50.78 50.64 50.05 50.63 52.70 52.33 54.05 55.28 55.05 54.57 54.61 54.59 55.58 56.78 57.55 57.83 58.66 59.96 60.45 62.90 63.11 63.03 61.77 62.32 61.79 59.52 57.67 55.79 53.70 52.87 49.20 47.14 42.85 40.92 40.38 41.41
42.38 41.18 40.74 42.39 43.54 42.92 44.25 44.63 46.51 48.74 48.95 47.99 49.25 50.25 51.01 51.28 53.14 53.21 52.55 52.18 52.53 53.43 52.93 53.16 53.52 54.61 56.05 56.14 54.65 54.62 55.98 54.89 56.43 59.35 59.87 58.81 58.33 58.32 57.81 56.00 54.42 52.31 51.20 50.52 45.33 42.33 39.08 38.74 41.01
41.77 40.99 41.45 42.52 41.95 42.19 43.48 42.97 46.41 47.75 48.06 49.44 49.90 50.48 51.16 52.02 52.63 52.33 51.38 51.15 50.63 51.31 51.98 52.49 52.91 53.96 55.67 55.74 55.48 56.30 56.29 53.69 55.33 55.07 54.46 54.69 55.08 55.88 55.73 53.86 52.69 50.07 48.65 48.14 43.52 41.79 38.72 39.26 41.25
41.18 40.82 40.92 40.37 40.95 42.29 40.88 41.59 44.77 46.75 46.89 47.96 49.04 50.18 50.78 51.34 51.82 52.74 51.13 50.21 50.95 50.45 51.12 51.46 52.40 53.40 54.66 55.39 55.39 52.59 51.38 47.31 47.96 49.07 49.74 50.30 51.94 51.24 52.08 53.17 51.99 50.75 49.13 44.87 43.52 42.13 42.50 40.01 41.44
39.11 42.79 40.82 39.51 39.74 37.24 40.56 35.46 42.60 45.53 45.63 46.51 48.46 50.14 50.69 51.06 51.35 51.42 52.02 50.05 50.26 50.92 51.73 51.65 52.14 52.80 53.90 54.95 53.57 51.73 52.27 50.00 49.58 50.82 49.42 47.93 48.97 49.97 49.47 46.32 47.71 47.14 47.85 46.74 44.95 43.04 44.10 44.24 40.76
40.72 41.38 40.68 39.76 39.80 37.60 38.50 36.14 41.04 41.08 42.69 45.26 48.28 49.84 51.19 52.18 51.62 50.82 50.93 50.62 50.91 51.08 50.72 51.16 51.63 52.03 53.13 54.17 53.31 53.29 53.15 54.51 49.38 50.71 50.24 48.37 47.02 46.97 47.01 45.39 45.20 45.00 47.27 46.67 46.08 43.88 45.02 45.32 44.51
41.64 41.01 40.02 39.62 38.83 33.72 38.90 37.33 39.03 41.95 43.27 45.00 47.34 49.06 50.37 50.21 50.01 49.66 49.89 48.87 48.96 49.82 49.43 50.27 50.48 50.80 52.30 53.12 52.68 52.78 53.01 52.25 48.70 51.10 50.02 48.12 47.40 46.59 45.18 42.22 43.09 44.74 46.46 48.52 48.07 46.86 45.61 45.18 44.61
41.57 40.44 34.05 32.45 31.62 32.04 34.90 34.23 39.19 43.44 45.34 45.34 46.73 49.16 49.40 48.48 49.21 49.82 49.64 48.78 47.28 46.58 47.47 48.57 49.33 49.28 50.77 52.03 51.88 52.58 52.91 51.93 50.84 50.69 51.16 49.19 47.49 46.02 44.31 39.90 38.59 39.75 43.38 47.64 47.47 45.81 44.46 44.04 42.52
39.53 40.85 35.25 28.50 29.41 33.90 32.09 32.16 39.82 44.45 45.85 46.18 46.65 47.68 48.11 47.42 48.46 49.09 49.89 49.32 47.67 45.88 46.72 47.65 47.82 48.41 49.47 50.30 50.88 51.99 52.47 52.15 51.02 49.15 50.92 49.29 48.38 47.10 46.45 41.68 38.85 37.26 40.25 44.62 45.06 44.32 43.66 42.65 41.66
38.18 35.79 42.01 35.50 27.79 30.90 36.33 39.90 42.90 43.88 42.93 43.87 45.51 46.81 47.64 48.92 49.31 49.23 49.88 48.68 47.36 46.14 46.22 47.02 47.44 47.91 48.76 48.49 49.94 50.31 50.78 49.61 48.95 47.54 48.26 47.82 48.48 45.64 41.34 39.26 37.12 35.52 36.92 41.43 41.79 41.78 39.30 38.81 38.54
39.94 42.24 34.28 35.44 29.98 27.71 34.59 35.28 37.47 42.75 44.20 46.14 45.17 46.47 47.54 48.33 47.42 48.61 48.64 47.21 46.01 45.72 46.31 46.85 47.53 47.55 48.25 47.71 48.65 49.25 48.90 48.54 47.91 46.71 45.39 46.07 44.25 42.09 38.63 35.52 35.00 33.62 34.51 38.95 38.95 38.01 36.99 36.44 36.39
37.30 36.42 36.19 37.35 35.04 31.36 30.00 35.71 43.57 43.95 45.30 45.16 45.89 45.64 46.84 47.69 47.94 47.75 47.30 45.52 44.63 44.53 45.15 45.84 46.54 46.95 47.13 46.79 47.63 47.61 47.91 47.61 47.03 45.40 44.46 42.68 39.58 39.02 37.31 33.97 33.24 32.40 32.90 35.11 36.53 35.68 34.83 34.61 33.46
38.60 38.87 38.75 34.13 30.29 32.54 31.36 35.86 42.42 45.30 46.32 45.16 45.79 45.96 47.03 46.67 46.97 46.48 46.04 45.09 44.17 43.94 44.36 44.85 45.84 46.33 46.87 46.53 46.54 46.10 46.63 46.49 45.51 43.50 41.88 39.70 38.14 37.80 36.65 32.33 31.34 31.02 31.68 31.58 34.98 33.69 33.30 33.23 31.84

GFSSGP_sfc_wetblb_057.txt.gz
Wetbulb
65.87 62.65 62.83 60.92 52.16 50.37 46.94 46.91 50.56 48.98 50.03 52.89 53.94 52.71 52.30 53.73 51.06 51.45 67.95 69.94 70.44 69.95 70.42 69.70 71.22 71.94 71.86 71.45 71.58 71.69 71.39 69.38 68.59 68.16 67.84 67.52 67.43 67.30 67.43 68.22 69.19 70.48 70.28 70.01 69.34 68.35 67.52 67.04 66.33
62.41 59.87 60.90 57.47 48.90 45.40 45.70 49.61 47.78 50.42 53.31 53.74 53.78 54.08 53.71 54.56 60.26 63.19 66.29 69.66 70.54 70.54 70.93 70.46 70.60 72.35 71.86 71.68 71.88 72.02 71.48 69.50 68.83 68.11 67.35 66.63 66.36 66.47 67.25 67.88 69.14 69.94 69.74 69.12 68.40 67.36 66.81 66.08 65.74
60.78 57.96 56.94 53.41 49.62 45.05 45.55 48.84 50.40 52.10 53.90 53.42 53.08 55.78 55.00 56.16 61.59 65.25 69.23 69.80 70.57 70.26 70.59 71.02 71.10 72.38 71.99 72.09 72.14 72.05 71.45 70.02 69.28 68.81 68.00 66.50 65.74 65.72 66.69 67.14 68.10 69.00 68.81 68.09 67.14 66.65 65.83 65.33 65.48
59.51 58.16 55.58 49.38 46.39 48.38 47.48 49.69 51.48 52.42 51.78 52.67 53.74 52.41 57.10 62.21 64.05 66.01 69.73 70.03 70.11 69.87 70.33 69.99 71.55 72.01 72.01 72.17 71.63 71.21 71.40 69.73 69.55 69.03 68.14 66.75 65.40 65.22 65.82 66.47 67.10 67.30 66.75 66.33 65.67 65.25 65.00 64.99 65.22
59.02 56.51 50.66 48.08 47.60 48.94 49.67 50.93 51.92 51.18 51.33 51.82 53.40 51.62 54.79 61.44 64.69 67.62 69.12 69.59 69.41 70.07 70.80 70.24 70.93 71.36 71.92 72.49 71.81 71.53 71.29 70.33 69.54 68.83 68.02 66.76 65.21 64.68 65.13 65.41 66.14 65.79 64.79 64.29 64.06 63.96 64.01 64.26 64.27
54.52 54.78 48.12 46.19 47.35 49.01 50.03 51.17 52.18 51.23 51.02 52.58 51.70 52.20 55.19 62.83 63.67 67.57 69.13 69.27 69.92 69.26 70.12 70.00 68.15 69.19 70.69 71.62 71.44 71.03 70.54 70.61 69.99 68.79 67.84 66.88 65.52 64.49 64.26 64.23 64.31 63.91 62.80 62.26 62.64 62.90 63.25 63.65 63.45
53.45 51.43 48.19 47.84 46.66 47.85 49.46 52.05 51.41 51.15 50.16 50.98 54.20 50.81 56.25 60.26 63.66 67.71 68.29 69.43 69.68 70.20 69.60 69.86 70.44 69.33 67.63 68.76 69.35 69.70 70.12 70.15 69.76 69.26 68.57 67.69 66.72 65.77 65.22 64.53 63.46 62.67 61.66 61.18 61.52 62.05 62.52 62.98 62.52
53.96 52.36 48.11 48.18 46.40 46.30 50.68 51.42 52.53 51.63 50.02 54.07 55.65 51.10 52.23 59.20 64.38 67.67 68.05 68.08 68.64 69.29 68.84 68.77 69.35 69.75 69.49 69.88 66.63 67.40 68.39 68.76 68.70 68.15 66.74 65.50 65.35 64.86 64.21 63.18 63.55 62.19 61.14 60.35 60.33 61.09 61.91 61.68 61.11
53.34 48.25 46.20 47.47 47.03 47.93 50.80 49.86 51.05 52.48 51.27 52.46 54.58 53.61 57.92 61.64 64.40 66.16 65.89 66.01 67.25 68.00 68.51 69.18 68.77 69.34 69.03 69.05 67.74 65.42 66.09 66.60 66.29 65.55 63.64 63.00 64.50 63.68 63.32 61.79 62.64 61.96 60.67 59.71 59.86 60.60 60.17 59.20 59.23
51.04 47.91 47.81 50.09 50.31 49.37 50.17 50.30 50.74 49.45 50.05 50.93 52.23 54.06 58.61 62.29 62.92 63.57 63.45 64.22 64.81 66.03 67.92 69.09 69.31 68.78 68.91 68.53 69.27 69.05 69.32 69.25 68.76 67.62 66.25 66.53 65.66 65.50 62.74 59.78 60.48 60.96 59.99 59.47 58.82 58.84 59.09 59.06 58.81
50.88 47.74 49.22 48.79 49.82 50.35 50.21 49.38 51.04 49.39 48.93 51.26 51.36 53.14 55.41 60.46 61.38 61.83 63.45 64.32 65.54 65.51 66.74 68.01 68.33 69.13 68.87 68.63 69.21 69.37 69.28 69.37 68.91 68.28 67.48 67.32 66.52 64.09 63.13 60.12 58.73 57.91 56.66 56.25 56.07 57.09 57.79 58.33 58.08
46.62 48.09 48.63 49.53 50.39 49.21 48.94 50.76 49.22 50.04 51.35 52.84 53.94 54.19 54.54 58.41 59.79 61.11 62.39 63.96 64.71 65.91 66.57 67.34 67.68 68.39 68.75 69.51 68.66 68.71 68.74 69.31 69.01 68.90 68.41 67.96 66.62 64.54 64.23 61.24 58.85 58.34 58.05 56.96 58.06 57.20 57.03 56.05 55.81
47.10 47.69 48.54 49.84 49.21 49.33 49.15 48.96 49.51 50.43 52.89 52.94 52.37 52.32 53.84 56.10 59.17 61.22 62.90 64.30 64.98 64.82 66.13 64.71 65.93 68.27 68.31 67.56 66.73 68.11 68.98 68.92 68.78 69.24 68.92 68.29 66.66 65.81 63.77 61.11 57.94 56.55 56.45 56.70 56.83 56.18 55.29 53.80 53.02
48.69 48.62 48.65 49.24 49.28 49.05 47.52 49.03 48.52 50.94 53.26 52.78 51.87 51.96 53.26 54.46 57.01 59.85 61.37 62.53 63.89 65.19 65.76 65.94 63.75 66.48 67.00 66.74 67.03 65.85 67.11 68.44 69.36 69.25 69.13 68.60 67.19 65.18 63.18 59.89 57.85 55.68 55.61 55.95 56.34 55.76 54.12 51.65 50.35
48.60 45.77 47.54 48.08 48.70 48.14 48.79 46.25 46.69 50.72 51.19 51.11 51.70 51.95 52.92 53.76 55.48 57.77 60.83 61.90 63.84 65.24 65.52 65.72 64.87 63.80 65.54 65.77 66.60 67.13 67.26 66.17 66.94 68.29 68.65 68.45 67.55 65.52 63.51 60.33 58.66 57.15 56.40 53.63 53.14 52.15 51.18 49.51 48.35
46.49 46.62 43.46 47.67 47.65 48.25 47.97 43.04 48.61 50.97 50.54 49.89 51.06 52.15 52.77 53.33 54.15 56.40 59.68 61.63 63.35 64.59 64.59 65.34 64.60 64.88 65.08 65.17 65.81 65.86 66.71 67.11 66.75 67.09 67.89 68.66 67.79 65.50 62.26 60.22 57.89 55.80 54.00 53.52 48.44 46.31 46.53 45.78 46.57
45.91 41.46 43.19 45.14 47.95 47.33 46.69 45.47 49.57 49.90 49.39 49.14 50.45 51.38 51.95 52.88 53.86 54.87 57.31 59.84 61.36 63.24 63.75 64.26 63.49 62.05 62.93 63.48 64.26 64.71 65.34 65.51 65.85 66.03 66.63 67.29 67.65 65.25 62.82 60.68 57.52 55.23 54.97 50.75 47.36 45.34 45.66 44.11 43.90
41.93 41.87 43.22 43.31 45.96 45.54 45.46 45.22 48.56 50.43 49.76 49.90 51.01 51.96 52.78 52.48 52.64 54.49 55.05 57.63 59.85 61.95 62.83 62.66 62.01 60.72 61.28 61.56 61.34 61.80 62.73 64.51 64.84 65.26 65.04 65.92 66.12 64.97 62.41 60.34 56.55 54.69 53.12 50.26 46.55 45.34 45.30 43.88 42.28
44.01 43.53 42.49 44.47 45.90 44.23 44.79 45.29 47.19 49.48 49.87 49.75 50.38 50.92 51.51 52.60 54.94 55.51 55.50 55.80 57.71 58.94 59.03 59.79 59.46 59.15 59.26 58.25 57.56 57.71 57.45 59.87 61.46 63.21 64.30 64.58 64.44 64.04 61.52 59.09 56.16 54.36 52.75 49.80 46.60 44.45 42.42 41.98 41.42
43.87 42.27 42.34 45.11 45.29 43.22 44.42 44.15 47.29 48.56 49.05 50.03 50.26 50.76 51.58 52.46 53.57 55.31 55.50 55.27 54.96 56.37 57.35 56.96 56.60 56.67 56.86 57.68 58.03 57.56 57.50 58.57 58.81 59.02 59.58 61.88 61.23 61.16 59.68 57.63 55.45 54.14 52.48 49.13 45.04 43.85 39.90 41.28 41.16
43.09 42.15 42.34 41.97 43.78 45.21 43.40 42.48 45.04 48.24 49.68 50.14 50.78 51.64 51.84 52.43 52.65 53.90 55.39 54.82 55.11 54.29 55.70 55.65 55.84 56.14 56.43 57.20 57.62 56.83 57.19 56.72 55.39 55.45 56.03 56.31 57.08 57.51 56.56 56.54 54.78 53.05 51.37 47.62 44.67 41.93 41.63 39.44 40.64
39.94 45.11 43.66 42.00 40.76 37.69 43.33 36.44 42.59 45.49 46.72 48.87 49.97 51.03 51.37 52.45 53.17 53.38 54.33 55.36 54.58 54.63 55.42 55.52 55.73 55.67 56.06 57.08 56.21 55.35 53.98 51.99 53.20 54.40 54.52 52.37 53.36 53.85 54.21 54.34 52.88 51.83 50.94 46.79 44.49 43.85 44.90 41.55 39.00
42.03 44.17 43.11 42.26 40.95 40.41 40.41 37.18 41.54 45.66 44.61 46.79 48.99 51.14 52.20 53.28 54.02 53.80 53.86 54.40 55.20 55.28 55.43 55.25 54.86 54.94 55.48 55.97 56.05 55.52 53.30 53.90 55.93 55.54 52.69 52.23 50.82 51.06 50.51 50.78 51.49 50.99 50.91 48.90 46.44 44.18 44.09 44.20 42.44
44.59 43.44 42.79 42.42 40.81 33.98 39.51 38.77 39.67 42.67 44.80 46.89 48.93 50.32 51.51 52.04 52.08 52.34 52.91 53.45 53.36 55.22 54.76 54.64 53.78 53.51 54.50 54.91 55.36 55.31 53.64 53.86 54.80 53.44 52.38 50.42 48.89 47.71 48.67 48.47 48.67 49.08 48.32 47.49 45.79 44.02 44.37 43.49 43.93
43.74 40.93 34.60 33.48 33.05 32.77 38.53 37.58 40.56 44.70 46.75 47.56 47.92 49.43 51.06 51.35 51.04 51.97 52.40 51.82 51.00 51.49 51.71 52.23 52.18 52.05 53.36 53.75 54.21 54.86 54.23 54.56 54.76 53.16 52.77 50.29 48.14 46.96 45.97 45.32 46.56 47.21 47.70 47.24 46.60 44.35 44.03 43.23 43.38
40.64 41.14 35.56 29.61 31.64 34.74 35.40 33.69 40.41 47.29 48.51 49.13 49.17 49.85 50.81 51.12 51.53 51.12 52.34 53.08 52.08 50.27 50.22 50.41 50.11 50.71 52.10 52.50 53.16 54.14 54.01 54.07 54.63 53.24 54.07 52.37 50.53 49.29 48.08 45.55 45.95 47.35 47.86 47.86 47.28 45.44 44.80 43.41 43.61
40.30 37.11 43.38 37.54 33.27 31.89 36.70 40.63 44.62 46.17 45.27 46.78 47.43 48.41 48.97 50.53 52.00 52.04 52.87 52.44 51.58 50.09 49.62 49.98 49.94 50.13 50.97 51.50 52.13 52.86 53.17 53.47 53.64 53.13 54.34 54.32 53.74 52.44 51.13 48.54 47.02 45.40 43.98 44.85 45.27 44.42 43.44 42.59 42.82
41.40 43.99 35.57 36.73 30.95 28.28 34.54 36.94 38.73 43.71 45.06 46.63 47.32 48.73 50.09 50.46 50.40 50.23 51.62 50.85 50.06 49.52 49.72 49.82 50.06 49.69 50.16 50.88 51.02 51.12 51.97 52.67 53.19 52.73 51.91 52.02 51.76 50.49 49.02 47.11 44.37 40.47 40.72 41.73 41.41 40.48 41.66 39.65 40.84
37.90 37.05 38.13 38.71 36.63 31.53 30.41 35.86 44.70 44.79 46.28 46.48 48.12 48.55 49.44 49.87 49.94 49.83 49.88 49.08 48.56 48.27 48.42 48.78 48.90 48.93 49.24 49.96 49.95 49.84 50.52 51.36 51.61 50.59 50.70 50.34 49.90 47.89 44.30 42.78 40.76 37.84 36.92 38.46 38.71 37.07 37.66 36.82 36.43
42.13 39.79 39.09 34.01 32.14 35.02 33.84 35.83 44.54 46.31 47.32 47.54 48.08 48.31 49.76 49.78 49.96 50.02 49.86 49.51 48.61 48.11 48.15 48.02 48.48 48.38 48.96 49.51 48.83 48.64 49.48 50.02 49.59 49.32 49.51 49.25 47.42 45.18 43.13 41.39 39.08 37.87 35.70 35.38 35.97 34.77 34.92 34.30 32.93

GFSSGP_sfc_wetblb_060.txt.gz
Wetbulb
64.55 62.71 59.92 58.26 48.88 47.11 42.68 43.81 47.36 46.94 46.81 48.62 51.81 50.03 48.94 52.69 51.98 50.55 65.29 67.49 67.47 66.67 68.30 69.04 71.14 71.58 71.34 71.20 71.37 71.20 70.14 68.88 68.70 68.25 68.06 67.84 67.89 68.40 68.55 69.53 71.06 70.66 69.41 68.71 67.76 67.68 67.06 66.33 66.06
60.17 59.80 58.07 54.44 45.27 41.36 40.97 45.85 45.42 48.21 50.46 50.70 51.39 50.54 49.75 51.46 59.62 62.17 63.98 68.53 67.98 68.13 68.62 68.71 70.45 71.91 71.31 70.94 71.34 71.14 70.16 68.81 68.05 67.32 66.98 66.94 67.48 68.16 68.57 69.87 70.47 69.56 68.66 67.71 67.38 66.97 66.37 65.94 66.18
60.42 58.71 52.79 50.61 45.38 40.63 41.52 44.62 47.26 50.35 50.86 49.93 49.64 51.34 51.48 53.49 61.23 63.55 66.78 68.53 68.91 68.68 69.29 69.26 70.80 71.84 71.31 70.95 71.00 71.14 70.44 69.69 68.70 67.56 66.62 66.37 67.12 67.63 68.04 69.47 69.13 68.45 67.40 67.14 66.57 66.11 65.98 65.86 66.10
57.45 55.41 52.23 45.05 43.67 44.71 44.55 45.31 49.69 49.17 48.34 50.11 50.26 49.82 54.23 58.68 62.14 65.46 67.43 68.45 67.72 68.69 69.67 69.53 71.33 71.99 71.84 71.15 71.37 71.27 70.30 69.42 68.58 67.88 66.58 66.18 66.60 67.03 67.52 68.19 67.58 66.69 66.30 65.94 65.82 65.67 65.57 65.49 65.52
55.92 53.73 46.94 44.56 44.70 46.29 46.07 48.38 49.82 48.58 48.01 48.51 48.51 48.25 52.05 59.37 63.35 66.68 66.57 67.80 66.98 68.22 69.52 69.99 70.79 71.46 71.89 71.81 71.54 71.30 70.53 70.00 68.86 67.91 66.55 65.79 65.97 66.23 66.91 66.84 66.11 65.38 64.90 64.87 64.81 64.76 64.78 64.81 64.96
51.28 51.22 44.19 42.27 44.25 46.96 46.35 47.46 48.67 47.72 47.81 48.84 46.46 47.28 51.80 59.92 61.79 64.92 66.57 66.11 67.79 68.43 68.79 69.51 68.23 69.43 70.34 71.32 71.10 70.83 70.54 70.35 69.29 68.03 66.62 65.51 65.43 65.44 65.67 65.35 64.39 63.73 63.79 63.81 64.06 64.15 64.26 64.27 63.88
50.33 48.86 44.04 44.14 43.23 44.79 46.98 48.24 45.53 46.84 46.79 47.50 49.25 45.38 52.33 57.12 61.74 64.84 65.50 65.76 66.65 68.28 67.93 67.74 68.81 68.60 67.63 68.79 68.99 69.68 70.01 69.79 69.20 68.58 67.72 66.52 65.89 65.68 65.47 64.78 63.03 62.65 62.87 63.18 63.32 63.62 63.55 63.30 63.56
50.12 48.58 44.93 42.42 42.93 43.31 47.35 48.13 47.69 46.95 46.01 49.43 50.43 45.81 47.58 56.36 61.62 64.25 64.33 64.90 65.61 66.70 68.01 67.31 67.86 68.39 68.61 68.01 66.24 67.14 68.13 68.43 68.26 67.29 65.79 64.65 64.56 64.36 63.97 62.90 62.96 61.90 62.01 62.42 62.89 62.71 62.33 62.48 62.14
51.16 43.45 41.57 44.15 43.74 44.29 48.03 46.10 46.73 47.34 47.20 47.51 50.87 48.40 53.01 58.91 62.88 62.01 61.65 62.40 63.24 65.22 67.14 67.35 67.81 67.05 66.81 67.44 66.20 65.01 66.06 66.25 65.75 64.50 62.79 61.46 61.17 60.53 61.12 61.32 62.24 61.54 61.14 61.87 62.18 61.54 60.85 60.19 60.41
46.86 43.16 44.41 47.12 46.40 45.07 47.13 46.56 46.73 44.27 45.32 45.48 47.72 50.60 55.34 59.23 60.70 61.06 60.42 59.97 60.89 62.58 65.35 66.89 66.97 67.03 67.31 67.56 66.82 67.35 67.47 66.82 66.33 65.02 62.53 62.92 61.31 61.23 60.11 58.95 60.44 60.79 60.59 60.91 61.01 60.36 60.33 57.83 55.18
47.54 43.54 45.80 46.45 48.13 48.07 47.21 45.42 46.72 45.13 43.37 46.45 47.19 48.85 55.31 57.15 58.35 61.16 61.01 61.01 61.60 62.11 64.11 65.73 66.49 66.79 66.87 66.75 67.50 67.30 67.29 66.88 66.34 65.51 63.39 64.47 61.59 58.94 58.17 56.62 56.11 55.02 55.64 54.81 55.67 56.10 54.88 54.68 53.95
43.02 46.53 46.38 48.68 48.80 46.91 45.65 47.34 45.06 45.84 45.06 48.38 48.37 50.80 54.35 56.14 57.14 59.29 61.16 61.62 62.59 63.26 63.90 65.24 66.01 65.97 66.65 66.86 67.27 66.69 67.18 66.54 66.26 65.96 64.93 65.25 62.32 59.84 57.04 55.64 54.25 53.44 54.57 51.78 53.03 53.14 52.73 52.13 52.34
43.31 44.89 46.50 48.09 46.61 46.04 47.50 44.92 45.14 45.47 48.39 48.80 49.32 50.09 51.02 54.88 55.91 57.51 59.70 61.29 61.13 63.19 64.11 65.19 66.04 65.29 66.43 66.09 65.85 65.57 66.72 66.10 66.00 66.18 65.61 66.11 62.67 61.30 58.79 56.73 54.45 55.37 55.22 55.33 53.31 51.90 50.81 49.86 50.04
46.45 46.35 45.66 46.85 46.73 46.27 44.84 44.59 44.40 46.41 48.50 47.74 48.31 47.43 48.30 50.86 54.35 55.61 57.29 60.22 61.36 62.21 63.86 64.44 64.92 66.50 66.94 66.60 64.91 64.30 65.16 66.16 66.11 65.99 66.26 65.39 64.66 62.71 60.84 57.96 56.00 54.47 54.36 54.98 54.32 52.79 49.49 47.24 47.71
46.29 42.00 43.97 44.81 45.94 44.64 44.98 42.37 43.05 46.80 46.85 46.81 46.73 46.86 48.15 49.34 51.35 53.64 56.61 57.39 60.89 61.77 62.35 63.57 63.30 63.66 64.17 64.39 64.73 64.20 63.50 64.05 64.74 65.30 65.87 65.74 64.94 62.98 60.85 57.41 55.52 53.85 54.10 53.94 53.69 50.51 48.71 46.29 44.84
42.40 41.04 37.65 43.61 45.28 44.56 42.51 36.95 44.59 45.61 45.47 45.49 46.18 45.89 46.97 48.75 49.70 50.83 54.65 57.37 58.61 60.33 61.46 63.34 63.92 63.00 63.01 62.26 62.67 63.69 63.82 63.54 63.21 63.37 65.20 65.33 65.42 63.57 60.65 58.11 55.78 54.81 53.24 51.56 49.17 47.77 45.23 44.55 41.28
40.00 34.54 37.16 40.84 45.47 43.83 42.25 39.33 44.42 45.11 43.96 42.88 44.48 45.52 46.63 47.56 48.79 49.83 51.88 55.29 57.94 59.60 61.31 61.31 62.73 62.24 62.58 62.66 61.86 62.03 62.18 62.10 62.77 62.59 63.99 64.61 64.98 64.15 61.17 58.67 56.48 53.72 52.15 49.54 46.86 44.80 44.73 43.34 41.50
35.88 35.53 38.16 36.67 41.94 41.13 40.08 39.89 44.66 45.73 45.72 44.95 45.31 45.86 46.35 47.19 48.04 49.66 50.96 53.12 56.44 57.94 60.06 61.35 61.82 61.60 61.68 61.93 60.46 60.02 60.18 60.81 61.89 62.14 62.95 64.33 64.31 64.04 61.96 59.63 55.17 53.63 51.45 48.38 46.05 43.84 43.59 42.59 41.08
39.86 38.91 37.59 39.94 42.19 39.58 40.04 40.89 42.92 44.77 44.48 43.91 44.38 45.12 45.92 46.92 48.98 50.08 50.18 51.21 52.91 55.38 57.50 60.17 60.19 59.34 59.29 58.52 57.71 56.31 57.14 57.53 59.19 62.70 62.01 62.86 64.14 63.65 62.07 59.44 55.06 53.52 50.54 48.24 45.67 44.09 41.37 40.83 40.46
39.46 37.74 36.99 40.46 42.60 39.19 39.19 39.47 42.35 44.00 44.56 45.26 45.33 45.15 45.92 46.51 47.82 49.41 49.45 49.13 51.52 53.18 54.91 56.56 58.66 58.32 58.22 58.47 57.34 55.30 53.74 53.75 55.84 57.42 57.72 60.15 62.39 62.74 61.33 58.42 55.39 53.52 51.05 48.19 45.79 43.23 40.48 39.45 39.42
38.41 37.40 37.35 37.58 39.76 40.32 36.27 36.12 39.68 43.48 44.78 45.08 46.26 46.82 46.68 46.54 46.76 47.72 49.05 48.73 48.95 50.60 51.89 53.83 56.01 57.05 57.00 55.87 53.94 52.58 52.16 51.98 52.21 53.03 56.12 56.24 57.96 59.14 59.83 58.23 56.09 53.97 52.51 48.58 45.52 43.13 42.43 38.57 38.31
36.29 41.52 40.80 39.34 35.70 30.73 38.40 28.32 35.55 40.57 40.70 44.05 44.82 44.99 45.33 46.44 47.72 48.05 47.48 47.81 48.22 49.52 50.31 52.07 52.13 51.80 53.06 52.89 52.66 52.17 51.36 50.26 50.32 50.90 52.20 54.66 55.10 55.81 56.95 57.04 55.96 54.45 53.05 50.00 45.50 44.27 43.56 40.42 38.09
38.74 41.37 39.56 38.59 35.08 34.58 33.36 29.67 34.64 39.30 38.80 41.55 44.13 44.87 45.65 47.60 47.26 47.04 47.86 48.98 49.08 49.10 48.28 49.43 50.67 50.83 51.19 52.65 52.59 52.09 50.29 50.20 49.05 49.52 49.74 52.60 52.89 54.32 54.72 55.42 54.67 53.76 52.61 50.33 46.58 43.77 43.37 42.08 40.50
42.80 40.20 38.95 37.46 35.56 26.73 34.00 32.96 31.85 36.06 38.77 40.31 42.01 43.66 46.16 45.87 46.14 47.03 47.04 47.67 48.25 48.56 48.82 48.49 48.68 49.23 50.21 50.63 52.00 50.82 50.31 48.84 48.07 49.08 50.03 51.29 51.09 51.86 51.18 51.40 52.67 52.55 51.78 49.15 46.76 44.61 44.17 43.47 42.65
39.00 35.81 26.91 26.11 25.59 24.31 33.47 31.27 36.17 40.03 42.08 41.45 42.51 42.15 44.39 44.30 45.94 45.91 45.12 45.40 45.30 46.47 47.35 48.16 48.04 47.49 48.67 49.25 49.83 50.61 50.03 49.40 48.47 49.62 50.23 49.68 49.80 49.07 48.85 49.59 49.66 50.56 51.11 49.64 48.25 45.58 44.39 44.25 43.11
36.83 36.35 28.23 22.55 24.17 25.91 29.71 27.27 34.79 41.63 41.89 42.37 43.73 43.41 44.47 45.39 45.88 45.53 45.95 46.83 45.54 45.74 45.78 46.16 46.66 46.77 47.36 48.10 48.71 49.64 50.59 51.00 50.57 50.07 50.78 50.51 49.66 49.27 49.56 48.45 49.08 48.90 48.59 48.15 47.27 45.26 44.25 44.06 42.78
36.68 33.30 38.44 30.94 22.88 23.54 29.88 34.23 39.54 41.43 41.36 41.76 42.08 42.89 42.93 44.65 44.96 45.00 45.96 46.46 45.48 44.71 45.07 45.45 45.37 45.94 46.59 47.04 47.51 48.17 49.06 49.40 49.27 49.24 49.18 49.86 49.75 49.16 47.26 47.12 46.85 46.97 47.39 47.57 46.85 45.46 43.57 43.78 42.56
37.34 40.00 30.68 30.40 19.79 18.94 27.30 29.39 32.66 37.42 40.04 41.79 40.54 41.72 43.64 44.20 44.35 45.19 45.58 45.45 44.66 44.64 45.06 45.47 45.94 45.53 45.92 46.40 46.68 47.17 48.06 48.49 48.80 48.85 47.92 48.48 49.23 49.40 48.13 46.19 46.51 45.93 45.65 46.38 46.17 44.58 43.85 42.90 42.33
34.49 33.22 34.69 35.06 31.00 24.42 22.96 28.38 37.53 38.58 41.14 41.66 42.39 44.30 43.90 44.14 44.06 44.18 44.29 43.97 44.01 43.68 43.90 44.15 44.69 45.01 45.08 45.68 45.88 45.96 46.14 47.11 47.70 47.86 47.36 47.25 46.65 45.91 45.23 44.83 44.71 42.89 42.08 42.20 43.20 41.18 40.85 40.83 39.48
35.58 35.58 36.11 29.31 27.62 28.70 28.00 31.81 39.92 41.58 43.00 43.79 42.84 43.55 43.48 44.21 44.73 44.52 44.58 44.42 43.09 42.87 43.15 43.54 43.97 44.18 44.71 45.24 45.38 45.27 45.56 45.88 46.10 46.37 46.26 45.40 45.04 42.94 41.38 39.62 37.61 36.75 36.53 38.52 40.58 38.51 39.93 38.64 36.70

GFSSGP_sfc_wetblb_063.txt.gz
Wetbulb
60.08 57.03 56.45 53.61 44.92 41.39 36.69 39.09 42.56 43.95 43.60 45.78 48.40 48.83 50.32 50.52 52.29 46.77 61.67 64.02 65.79 66.32 67.92 69.74 71.07 72.04 71.18 71.17 71.17 70.40 70.28 69.06 68.67 68.45 68.36 68.51 68.85 69.85 70.67 70.25 70.51 68.92 68.14 67.97 67.47 66.69 66.67 67.03 67.79
57.71 57.40 53.19 48.03 40.75 34.73 36.28 39.53 42.41 44.66 46.42 48.50 49.91 49.22 49.18 50.83 58.20 60.97 60.76 65.71 66.48 67.11 67.82 69.27 70.39 71.71 71.60 71.05 71.00 70.26 69.80 68.37 67.74 67.53 67.75 68.23 68.62 69.85 70.44 69.64 70.00 68.07 67.72 67.30 67.00 66.44 66.85 67.04 67.63
58.47 55.36 47.52 45.08 38.35 35.38 36.88 41.09 44.35 46.23 47.68 47.54 47.25 50.03 50.75 53.18 60.63 61.96 65.00 66.06 66.81 67.05 67.56 68.87 70.56 71.53 71.45 71.19 70.99 70.39 69.96 68.63 67.49 67.09 67.45 68.01 68.34 69.70 69.64 68.82 68.23 67.27 66.71 66.61 66.51 66.49 66.93 66.75 66.78
52.92 51.34 46.79 40.64 37.61 39.63 40.00 43.91 45.84 45.11 46.59 48.45 48.50 48.37 52.66 56.49 62.17 64.27 67.20 67.62 67.14 67.06 68.06 69.07 70.99 71.59 71.40 71.34 71.09 70.66 69.98 68.83 67.75 66.99 66.97 67.60 67.80 69.00 68.38 67.66 66.96 66.25 66.03 66.11 66.06 66.22 66.37 66.28 67.11
50.70 47.57 41.71 39.74 39.19 41.09 42.50 46.04 47.11 44.91 45.09 45.19 46.87 46.81 50.71 58.57 64.39 65.38 66.10 67.11 67.79 68.06 68.28 69.57 70.50 71.23 71.20 71.41 71.21 70.77 70.28 69.14 67.78 66.84 66.75 66.93 67.32 67.84 67.32 66.56 65.82 65.43 65.34 65.29 65.20 65.74 65.68 65.01 66.20
46.89 45.58 38.64 36.56 38.64 42.58 42.18 45.34 46.73 44.53 45.60 45.74 44.94 48.65 50.89 59.50 63.06 63.85 65.17 65.32 68.64 67.64 68.62 69.41 68.10 69.40 70.33 70.47 70.67 70.47 70.18 69.73 68.22 66.78 66.33 66.39 66.74 66.70 65.94 65.35 64.92 64.86 64.61 64.65 64.78 65.20 64.57 65.04 65.34
45.77 43.04 38.62 38.48 38.73 40.31 43.28 45.28 44.25 43.87 45.43 45.38 48.13 45.99 51.01 56.33 61.90 64.16 64.24 65.03 68.10 68.27 68.51 68.35 68.68 68.40 67.62 68.66 68.88 69.41 69.70 69.18 68.43 67.52 66.90 66.68 66.48 66.47 65.06 64.48 63.98 64.12 64.08 64.15 64.32 64.30 64.16 64.61 64.77
45.70 43.51 38.72 37.47 38.76 39.61 43.26 44.33 45.08 44.56 43.41 47.60 48.35 45.20 48.42 54.87 61.63 63.23 63.42 64.67 67.03 66.49 67.20 66.90 67.40 68.04 68.30 67.77 66.09 66.90 67.80 67.91 67.62 66.58 64.97 64.07 64.31 64.43 63.68 62.71 63.64 63.48 63.53 63.72 63.53 63.38 63.32 63.89 63.66
45.39 39.10 36.80 38.92 39.93 41.08 44.21 42.61 44.94 45.13 46.34 45.90 48.05 49.41 51.34 57.28 62.04 60.94 60.57 61.06 65.14 66.09 65.89 66.54 66.63 66.81 67.15 66.99 65.38 65.07 65.70 65.66 64.83 63.62 62.03 60.59 60.16 60.00 59.61 60.88 62.46 62.88 63.12 62.96 62.76 62.19 61.45 60.64 61.71
42.11 37.06 39.05 42.43 41.23 40.99 44.30 43.35 44.11 42.47 42.79 42.41 44.75 49.87 55.33 59.52 59.30 58.69 58.13 58.86 60.93 64.04 65.63 66.88 66.60 65.92 65.93 67.66 65.59 66.05 66.32 65.89 64.31 62.75 60.78 60.20 59.01 59.35 59.52 58.44 60.39 61.91 62.13 62.04 61.77 61.15 59.61 56.46 54.24
42.71 39.58 42.79 43.69 44.99 44.83 44.21 42.44 44.46 42.56 39.87 43.64 45.63 50.28 55.35 56.67 59.14 59.13 59.31 58.40 59.89 61.74 64.11 66.29 66.53 66.50 65.72 65.95 66.36 66.45 66.13 65.61 64.26 62.28 61.22 60.50 59.29 58.12 57.43 56.24 55.61 55.71 56.24 56.59 57.10 54.66 53.68 53.07 52.78
40.21 43.48 43.79 46.12 46.40 44.74 43.04 44.51 42.40 43.23 43.54 45.85 46.56 53.70 54.98 55.29 59.39 59.39 59.34 59.93 60.20 61.92 62.06 64.67 66.43 66.15 66.31 67.06 66.60 66.89 66.20 65.74 64.67 63.65 62.06 61.34 58.16 56.86 55.49 54.95 54.14 52.98 52.24 51.06 52.17 51.67 51.18 51.09 51.36
40.40 41.73 44.69 45.75 44.59 43.00 44.94 41.93 42.54 42.65 45.68 45.55 48.07 51.79 54.69 55.52 56.63 59.59 60.12 60.35 60.35 61.24 62.29 62.71 64.00 64.34 66.07 66.59 66.53 66.59 65.92 65.96 65.60 64.92 63.42 62.81 59.76 57.54 55.29 53.86 53.23 51.89 51.72 52.19 51.38 50.12 49.77 49.15 49.34
42.84 43.18 43.36 44.41 44.21 43.69 42.33 41.29 42.10 44.50 45.57 44.51 46.28 47.97 51.47 53.97 54.85 54.63 58.78 60.21 60.26 62.31 62.38 62.88 63.47 64.42 64.81 66.30 66.46 65.53 65.55 66.48 65.60 65.10 64.22 65.12 61.48 58.96 55.77 54.92 53.47 52.77 54.00 54.48 53.10 50.80 48.54 49.44 47.69
43.23 38.63 40.22 42.38 43.46 42.12 42.99 38.38 41.02 44.22 44.37 44.55 44.15 43.65 46.55 50.03 53.02 54.80 56.89 59.45 61.11 61.10 63.42 63.36 63.82 64.67 64.83 64.07 65.43 65.65 64.41 64.93 65.23 65.36 64.74 65.31 62.52 61.90 57.68 55.81 54.62 54.50 54.45 53.44 52.78 49.78 47.62 45.38 46.04
38.69 38.07 34.82 40.55 42.69 42.31 40.36 33.89 41.11 44.04 43.09 44.03 43.42 42.12 43.64 45.68 48.59 53.00 54.93 57.11 60.23 60.70 61.95 63.59 64.49 64.21 64.44 63.22 65.28 65.12 63.79 62.74 65.05 65.49 65.62 64.93 64.47 62.57 58.91 56.02 54.53 54.04 53.38 52.32 51.51 48.00 45.53 43.44 41.21
36.22 30.71 33.87 37.84 42.58 41.78 39.05 35.23 42.31 44.37 41.59 41.41 41.81 42.71 43.34 43.73 45.30 47.43 51.56 55.58 56.65 60.22 60.46 62.39 63.30 63.34 63.56 62.38 62.50 62.69 62.34 62.71 62.47 62.63 64.83 64.80 64.38 62.96 60.21 57.19 54.31 54.04 52.65 51.39 49.50 46.63 45.31 42.31 40.52
32.16 32.22 35.20 34.37 39.52 39.60 36.91 37.41 41.29 43.31 42.96 43.13 42.81 42.53 42.89 43.51 45.03 46.86 48.61 52.28 55.98 57.24 60.03 61.91 62.46 62.30 62.72 63.34 60.09 59.67 60.18 60.52 61.20 62.21 62.36 64.04 64.54 62.96 61.54 58.41 54.37 53.30 51.84 48.72 47.83 45.38 44.14 42.27 40.21
36.79 35.09 32.86 36.09 40.32 38.36 37.52 37.32 39.99 42.71 41.04 40.69 41.51 41.76 42.63 44.36 46.42 46.33 47.83 49.30 52.90 54.85 57.76 59.50 61.15 61.24 61.51 61.52 60.94 58.17 59.59 57.58 58.36 59.68 60.24 62.43 63.92 62.92 61.67 58.95 54.89 53.11 50.62 48.09 47.07 44.75 42.43 40.04 39.67
37.09 34.11 32.90 36.78 39.85 37.30 36.32 37.42 39.24 41.14 42.79 42.26 43.07 41.27 42.23 42.92 44.85 46.28 46.12 46.62 50.08 54.70 56.75 59.00 60.03 60.22 61.15 61.38 61.35 61.04 56.73 54.71 57.08 57.52 58.30 59.31 62.07 62.87 61.88 59.06 55.56 53.20 51.34 48.48 45.77 44.76 41.69 40.17 39.43
35.38 34.26 33.73 34.34 37.10 35.99 34.00 33.65 36.07 40.61 41.02 42.08 42.92 43.66 43.64 44.11 44.17 44.87 45.26 45.22 47.92 50.04 53.84 56.95 59.07 59.25 60.41 59.52 55.61 52.20 52.59 51.35 52.66 53.29 56.97 56.54 57.85 61.39 61.73 59.41 56.61 54.22 52.28 48.35 45.61 44.06 43.43 39.49 39.08
33.70 37.87 38.36 36.77 33.24 28.83 35.45 26.18 32.25 38.93 39.78 39.53 41.43 42.12 42.52 42.88 44.08 44.70 45.02 44.94 44.84 50.28 52.80 54.76 56.35 56.87 58.11 55.64 55.69 54.83 55.53 54.30 55.28 54.75 53.40 53.99 54.73 56.23 60.15 58.77 56.67 54.64 52.97 49.87 46.80 44.57 44.91 42.84 38.40
36.43 39.07 37.32 36.25 32.83 31.08 30.37 27.56 31.65 35.00 36.52 39.56 41.03 41.45 41.42 43.01 43.43 44.47 44.77 46.16 45.43 46.40 47.68 49.49 50.82 52.24 55.63 55.35 54.92 53.86 53.23 50.17 48.04 48.80 50.02 50.42 50.77 52.70 54.66 57.36 56.38 54.72 53.81 52.14 48.58 45.62 45.62 44.21 41.71
40.89 38.72 37.48 35.35 32.38 24.46 31.16 30.21 27.78 33.10 37.12 37.16 40.30 40.78 43.30 43.88 43.64 44.12 44.87 45.74 46.20 44.82 45.61 47.40 48.84 48.64 48.98 51.13 49.84 51.43 51.56 47.72 47.51 46.92 47.98 48.16 49.01 49.39 50.84 53.66 55.61 55.20 54.28 52.77 49.87 47.47 45.96 44.87 44.46
37.75 32.98 24.90 23.79 23.58 23.44 29.30 27.47 31.65 37.31 40.33 39.18 40.33 40.48 43.48 43.45 43.53 44.27 44.75 44.36 44.04 44.71 45.06 45.54 46.24 46.82 47.51 48.08 48.88 49.15 49.85 49.18 48.92 47.64 48.52 47.21 48.09 48.43 51.55 52.75 53.87 54.13 54.03 53.42 50.46 47.58 45.53 44.88 43.78
35.56 33.36 25.58 20.90 22.10 23.83 28.49 26.57 34.14 39.61 40.70 41.19 41.57 41.00 41.42 42.12 42.79 43.17 43.36 44.04 43.40 43.34 44.59 45.62 45.79 45.60 46.26 47.02 47.56 48.73 48.90 49.11 49.66 48.21 49.54 49.88 49.90 49.77 49.71 50.62 52.39 53.26 52.57 51.86 49.80 47.36 46.09 45.25 44.32
34.78 31.98 36.31 29.16 18.22 21.61 27.08 31.33 37.32 39.62 40.57 40.88 40.27 41.40 41.46 41.84 43.59 43.36 44.10 43.84 43.67 43.34 43.96 44.44 44.63 45.31 45.46 45.95 46.45 47.12 48.33 48.81 48.99 47.87 48.30 49.90 49.83 49.10 48.61 49.92 50.23 50.86 49.97 50.21 49.45 47.89 45.59 44.94 43.95
36.63 38.30 30.26 28.48 18.48 17.37 24.03 26.53 30.77 35.81 38.92 40.00 40.52 41.58 42.53 42.53 42.93 42.50 43.15 43.21 43.12 42.96 43.48 43.88 44.19 44.25 44.84 45.11 45.38 46.54 47.66 48.35 49.13 47.73 47.85 47.29 48.62 47.64 46.56 48.07 48.79 48.76 48.69 48.41 47.49 46.14 45.27 44.18 43.99
33.54 32.32 33.20 33.41 28.79 22.76 20.17 26.63 34.71 36.70 38.31 39.68 40.91 42.31 42.64 42.96 42.49 42.65 42.70 42.60 42.91 42.67 43.10 43.32 43.41 43.83 43.91 44.39 44.61 44.70 45.49 46.42 46.92 47.69 47.91 46.74 45.82 47.22 46.13 45.15 46.47 46.70 46.36 46.14 46.36 46.23 44.83 43.18 43.12
33.46 33.65 33.88 27.29 25.88 26.49 26.18 30.49 38.75 40.30 40.65 41.53 41.53 42.27 41.38 42.33 42.91 42.89 43.21 42.50 41.75 42.02 42.14 42.68 42.89 42.95 43.49 43.98 44.06 44.04 44.50 44.86 44.90 45.68 45.52 45.04 45.59 44.40 45.43 44.34 43.57 44.43 44.97 44.40 45.04 43.79 43.66 42.37 41.38

GFSSGP_sfc_wetblb_066.txt.gz
Wetbulb
57.49 55.37 54.14 52.27 44.15 39.64 35.21 37.26 39.87 41.78 41.66 44.70 46.86 49.93 48.96 50.21 50.80 42.18 60.29 62.93 64.82 65.25 67.92 69.71 70.84 71.17 71.35 70.88 70.71 70.56 70.10 68.99 68.74 68.55 68.82 69.50 70.67 70.59 70.00 68.98 69.17 67.88 67.47 67.01 67.49 67.75 67.91 67.73 67.99
57.02 55.88 51.76 46.12 39.04 33.83 34.99 38.59 41.15 42.83 44.65 47.08 49.41 48.94 49.90 50.55 58.01 57.89 58.95 64.24 65.52 65.97 68.09 69.43 70.49 71.60 71.41 70.69 70.33 69.89 69.17 68.14 67.99 68.19 68.46 69.49 70.63 70.21 69.41 68.11 68.11 67.28 67.03 66.55 67.46 67.78 67.69 67.45 68.26
55.94 53.59 47.09 42.97 35.70 34.15 35.84 39.82 42.97 44.12 45.67 45.80 45.84 49.88 50.63 54.21 59.09 58.50 62.08 64.96 65.99 66.05 68.03 69.09 70.42 71.57 71.37 70.61 70.06 69.64 69.05 67.85 67.59 67.97 68.37 69.22 70.30 69.39 68.42 67.53 67.14 66.55 66.44 66.46 67.53 67.34 67.04 66.94 67.17
51.46 50.14 45.90 39.11 35.34 38.36 39.61 42.79 43.91 44.20 44.30 47.36 47.97 48.60 51.87 57.56 61.48 63.01 64.72 65.50 65.47 65.73 67.66 68.95 70.74 71.50 71.21 70.81 70.05 69.14 68.45 67.69 67.37 67.87 67.98 68.93 69.62 68.88 67.81 67.01 66.34 66.11 66.05 66.42 67.19 66.61 67.02 68.15 67.68
48.70 45.74 39.95 37.50 37.41 39.54 40.88 43.60 43.52 42.80 43.50 44.57 47.09 46.40 50.76 59.68 62.79 64.33 64.58 65.57 65.13 65.59 67.27 68.96 70.21 70.84 71.28 70.93 70.23 70.00 69.13 67.82 67.28 67.52 67.65 68.23 68.60 67.79 66.95 66.14 65.81 65.66 65.41 66.06 66.41 65.88 66.77 67.68 67.28
45.35 43.65 37.19 34.66 36.29 40.15 41.66 44.98 44.75 41.84 42.70 44.28 47.64 49.23 51.94 59.80 62.88 63.73 65.52 65.48 66.57 66.41 67.93 68.83 67.82 68.97 70.18 70.43 70.42 70.02 69.75 68.64 67.53 67.18 67.12 67.46 67.52 66.81 65.99 65.50 65.26 65.13 64.85 65.68 65.58 65.78 66.23 65.65 65.51
44.37 41.19 37.45 37.46 37.39 38.76 42.11 44.27 43.23 43.63 42.54 43.60 49.56 46.07 50.03 55.91 62.38 63.19 64.71 66.46 66.76 67.54 67.76 67.76 68.40 67.98 67.32 68.30 68.60 69.00 69.17 68.31 67.49 67.45 67.37 67.34 66.84 66.00 65.19 65.19 64.72 64.60 64.39 65.25 64.96 65.04 65.16 64.89 64.46
44.84 42.14 36.91 37.56 37.89 38.50 42.39 43.13 44.20 43.09 43.37 46.23 49.64 47.21 48.69 55.59 61.44 62.67 64.47 66.10 66.22 66.80 67.07 66.57 67.06 67.87 67.96 67.70 65.83 66.54 67.35 67.31 66.82 66.17 65.15 64.38 64.63 64.36 63.83 63.35 64.32 64.01 64.15 64.49 64.15 64.41 64.44 64.23 63.74
43.56 38.62 35.32 36.47 38.33 40.11 42.35 42.15 42.94 43.98 44.96 44.66 46.05 48.73 50.67 58.02 61.17 60.54 60.15 63.01 65.50 66.01 65.95 66.33 66.35 66.68 66.93 66.71 65.31 64.83 65.16 65.17 64.29 63.07 61.80 60.52 59.91 59.27 58.78 60.75 63.48 63.77 63.56 63.60 63.24 62.87 62.60 61.94 61.64
40.89 36.28 38.23 40.40 40.29 40.92 43.05 41.95 43.99 42.06 41.96 44.50 45.08 50.94 53.96 58.49 59.49 59.39 57.87 60.16 61.10 62.95 63.79 65.84 65.99 66.08 66.25 67.12 65.26 65.72 65.41 64.26 62.50 60.97 59.58 59.14 58.27 58.10 58.58 58.46 61.35 62.82 62.63 63.10 61.96 60.34 58.85 56.26 54.19
40.57 38.05 40.78 42.05 42.85 43.73 43.52 40.99 42.94 41.54 39.07 43.23 44.93 50.12 54.66 56.88 58.00 59.47 57.68 60.40 61.37 62.83 63.85 64.82 65.48 65.66 65.86 65.93 65.40 65.72 65.47 63.93 61.98 60.03 58.86 58.32 57.89 57.24 56.37 56.10 56.96 57.48 58.04 57.12 55.93 53.83 52.89 53.06 53.08
39.94 41.66 41.98 44.59 44.57 42.93 42.33 42.58 40.69 41.75 42.69 45.02 45.83 53.19 55.47 57.60 58.12 59.02 58.33 57.78 59.30 60.88 63.32 64.73 65.39 64.88 65.28 65.76 65.53 65.67 65.38 64.83 62.27 60.26 59.76 58.29 56.63 55.72 54.71 54.06 54.08 54.26 53.75 53.03 51.77 51.41 51.09 51.38 52.39
39.27 40.10 43.50 44.03 43.12 41.93 43.20 40.40 41.03 41.71 44.15 43.85 46.05 53.45 54.95 57.62 58.16 58.96 59.54 58.87 59.28 60.43 61.32 63.83 64.86 65.13 65.05 64.95 65.35 65.53 65.50 64.83 63.46 61.26 61.62 58.95 56.86 55.70 54.53 53.44 52.95 52.12 51.39 51.29 50.54 49.65 49.66 49.41 50.54
41.78 41.95 42.10 42.72 41.92 41.88 40.45 39.10 40.35 42.64 43.41 42.88 46.41 51.36 53.05 54.75 56.80 56.76 57.38 59.11 59.40 61.39 61.69 62.44 62.95 64.21 64.99 65.08 65.23 65.74 65.94 65.28 64.38 63.23 62.15 60.68 59.10 57.51 55.89 53.94 54.04 52.30 50.45 51.41 50.42 49.77 49.17 48.04 48.64
41.71 37.48 39.12 39.99 41.18 40.29 40.87 36.55 39.66 41.54 42.53 42.19 43.06 45.72 50.63 52.92 53.39 56.77 59.42 59.46 60.69 61.36 62.47 62.22 62.99 63.48 64.20 64.73 65.01 65.47 65.73 65.44 65.20 64.27 63.09 63.02 60.69 58.25 56.27 54.75 53.97 53.21 53.08 53.14 50.27 49.71 48.85 47.67 45.87
37.66 36.51 32.31 37.68 40.84 40.68 37.72 33.52 38.46 41.90 39.66 41.75 41.01 40.29 42.78 47.78 51.85 54.30 56.55 59.49 59.00 60.39 61.36 62.74 63.66 63.69 63.93 64.15 64.13 64.34 64.75 65.16 64.79 64.91 64.13 63.85 61.76 59.44 56.76 55.16 54.27 54.12 53.71 53.27 50.38 47.16 46.62 45.68 45.09
34.72 29.53 31.36 35.70 41.41 39.75 37.04 34.91 39.41 41.00 41.21 39.45 40.37 40.91 41.37 42.13 43.52 47.79 53.74 55.99 58.65 60.04 60.49 62.04 62.50 63.11 63.99 63.74 63.91 62.57 62.99 64.49 64.75 64.81 64.76 63.89 63.19 61.67 58.46 56.58 55.21 54.35 53.35 52.24 49.47 47.01 46.47 43.54 41.59
31.23 31.05 32.54 31.80 37.99 37.50 35.51 37.06 40.01 41.92 40.20 40.98 40.71 40.94 40.91 41.66 43.61 45.75 47.63 53.44 56.15 58.93 59.77 61.82 62.60 62.85 63.45 63.46 61.30 60.67 62.11 63.07 63.72 63.40 64.43 64.34 64.11 62.70 60.16 58.16 55.78 54.18 52.83 50.91 48.85 46.36 44.38 42.94 40.81
35.27 33.34 31.72 34.17 38.37 36.59 36.37 36.02 38.80 40.90 39.29 39.35 39.63 40.11 40.42 42.13 45.22 44.11 44.92 47.51 52.41 54.67 58.15 59.66 61.20 62.39 62.66 62.32 60.67 60.50 60.96 61.52 61.20 62.08 61.77 63.52 63.99 63.30 60.86 58.63 55.70 54.26 52.46 50.65 48.35 45.20 42.08 37.51 39.13
34.24 32.29 31.72 35.16 38.13 35.99 34.82 36.54 38.65 39.69 39.61 39.80 40.33 39.73 40.44 41.31 42.62 44.54 44.59 43.52 47.03 52.86 56.26 58.52 60.69 61.36 61.96 62.63 62.33 61.94 60.01 56.92 60.09 58.44 58.48 61.55 62.67 63.56 62.19 60.08 55.61 54.44 52.84 50.00 47.40 45.30 41.81 39.56 39.28
33.97 32.65 31.98 33.29 35.22 34.05 33.14 32.23 34.02 38.02 38.91 40.38 41.10 41.26 41.18 41.57 42.07 42.56 43.41 43.51 43.62 48.00 53.11 57.09 59.84 60.74 61.23 61.82 59.15 53.29 53.11 51.68 53.41 53.86 57.33 56.75 60.33 62.57 62.14 60.81 57.09 54.76 53.55 50.13 47.45 45.97 43.76 38.83 37.42
32.40 37.00 36.13 35.26 31.77 27.78 32.19 25.23 30.72 36.39 37.72 38.03 39.45 38.37 39.61 40.67 41.59 42.09 42.49 42.05 42.45 46.13 50.46 54.37 57.84 59.49 60.42 60.27 59.17 57.81 58.41 57.78 58.09 59.09 54.99 55.16 55.43 60.09 61.25 60.28 57.72 55.12 53.75 51.42 48.77 47.62 46.08 44.14 38.68
35.45 37.42 35.65 34.15 31.43 29.12 28.84 26.83 30.41 32.74 35.50 38.06 38.52 38.98 40.61 40.23 41.45 42.54 42.94 43.30 43.63 43.72 46.00 50.51 54.08 56.85 58.41 57.85 58.60 57.43 56.76 54.96 49.65 49.57 50.97 51.73 52.37 54.01 59.23 59.38 57.49 55.55 54.17 53.02 49.91 47.88 46.34 45.38 43.84
39.58 36.66 34.55 32.94 29.85 23.66 29.30 28.34 27.32 31.56 35.15 35.75 38.21 39.56 41.60 42.63 43.41 42.96 43.87 44.58 45.16 43.03 44.42 47.47 50.46 51.15 52.48 54.13 53.29 54.57 54.69 49.70 47.77 47.14 47.99 48.31 49.81 51.18 52.39 55.83 57.05 56.40 55.12 53.78 51.12 48.73 46.85 46.48 45.89
35.42 31.84 23.95 22.50 21.96 22.36 27.36 26.40 30.11 35.77 37.42 37.61 39.09 39.41 42.11 41.77 41.37 41.58 42.28 42.76 42.65 43.87 43.46 44.34 46.79 47.39 48.63 50.55 50.13 51.29 52.38 50.28 49.57 48.45 49.07 46.55 48.54 48.15 49.95 53.80 54.57 55.30 55.18 54.65 52.83 49.69 47.78 46.98 45.64
33.72 31.97 24.70 19.64 19.89 22.70 27.72 25.89 33.27 37.44 39.51 38.99 40.19 39.09 40.57 41.68 41.50 42.06 42.40 42.20 42.42 42.97 44.33 44.82 44.70 45.22 45.88 46.45 47.82 48.41 49.05 50.40 50.62 48.90 49.35 49.23 49.87 50.66 50.39 49.96 51.83 53.65 54.21 54.05 53.56 51.26 49.24 48.26 47.55
34.10 30.46 34.03 27.12 15.11 20.79 25.78 29.84 36.13 37.78 37.21 37.84 39.62 41.16 41.30 41.21 41.06 41.35 42.40 42.94 42.59 42.39 43.57 44.36 44.65 44.86 44.83 45.17 45.81 46.34 47.40 47.90 49.07 47.98 48.50 49.66 49.30 49.13 46.70 48.44 48.75 49.72 50.89 52.89 53.10 51.21 48.86 48.07 46.55
34.83 37.37 29.79 27.09 17.40 15.77 22.82 24.75 29.50 34.98 37.66 38.29 40.27 40.63 41.10 41.23 42.22 42.33 42.56 42.84 42.68 42.34 43.06 43.08 43.53 43.68 44.02 44.36 44.28 45.10 45.97 47.10 48.22 47.14 47.49 47.81 47.59 47.07 46.12 46.50 47.36 48.45 50.24 50.79 50.71 50.19 48.90 47.18 46.29
33.23 31.98 31.88 32.17 27.36 21.50 18.25 25.64 33.38 34.70 36.84 38.81 39.35 40.14 40.19 39.98 41.86 42.26 42.54 42.36 42.32 42.11 42.14 42.59 42.93 43.30 43.37 43.21 43.39 43.51 44.13 44.94 45.65 46.47 47.30 46.59 45.45 45.82 46.37 46.09 48.07 48.42 48.51 48.55 48.64 48.76 48.08 45.46 45.35
32.31 32.72 32.46 26.93 24.52 25.17 25.16 27.57 36.60 38.97 38.82 39.71 40.37 41.42 41.34 41.99 42.12 42.50 42.55 42.35 41.82 41.84 41.61 42.17 42.35 42.56 43.38 43.65 43.34 43.28 43.53 43.67 43.86 44.97 45.76 44.45 44.92 43.64 45.52 43.89 46.04 46.89 46.91 46.75 46.39 46.22 45.72 43.48 43.03

GFSSGP_sfc_wetblb_069.txt.gz
Wetbulb
56.60 53.50 52.76 51.41 43.90 38.41 34.32 36.52 39.15 40.60 40.62 43.67 46.14 47.17 46.18 48.34 45.13 39.06 59.01 62.63 63.74 64.41 68.01 69.30 70.76 71.16 70.79 71.10 70.86 70.58 69.96 68.90 69.08 69.55 70.59 71.02 70.66 69.65 68.63 68.16 67.42 67.01 67.36 67.84 67.81 68.01 68.01 67.73 67.01
54.86 53.67 50.86 44.80 38.23 33.13 34.06 37.23 40.18 41.56 43.76 49.65 49.30 48.06 49.06 48.26 56.98 56.75 58.37 62.90 64.26 65.92 68.23 68.89 70.21 71.51 70.93 70.86 70.36 69.87 68.90 68.48 68.75 69.27 70.50 70.84 70.09 69.02 68.38 67.58 67.13 66.66 67.25 67.78 68.10 68.08 68.12 67.25 66.65
54.46 50.81 46.69 41.21 34.04 33.53 34.82 38.53 40.71 42.61 44.69 44.28 45.18 49.56 50.28 52.36 56.46 57.64 60.38 64.05 64.66 66.11 68.24 68.95 70.33 71.46 70.38 70.25 69.81 69.45 69.06 68.17 68.31 68.99 70.11 70.48 69.66 68.54 67.69 66.93 66.60 66.31 66.99 67.57 67.38 67.42 67.47 66.51 66.05
50.72 49.22 44.92 37.32 33.97 36.49 37.46 40.84 41.15 42.69 43.13 45.95 47.30 47.61 51.50 57.95 58.42 59.91 63.39 64.58 64.43 66.06 67.76 68.82 70.81 71.46 70.29 70.05 68.80 68.19 67.88 67.89 68.10 68.35 69.61 69.90 69.04 67.84 67.05 66.39 66.21 66.10 66.76 66.51 66.60 66.93 66.78 66.65 66.14
47.68 44.53 39.03 36.51 35.99 38.07 39.54 43.22 41.93 41.21 42.36 43.56 45.63 46.17 49.44 58.15 61.99 62.74 63.32 64.54 63.93 65.08 66.94 68.59 70.30 70.92 70.67 70.25 69.36 68.76 68.21 67.66 67.98 67.86 68.94 69.12 68.38 67.08 66.38 66.00 65.86 65.69 66.30 65.95 66.59 67.02 67.41 66.91 66.74
45.14 42.70 36.37 34.28 35.68 39.05 41.16 43.23 41.58 40.68 41.34 42.59 47.85 48.74 52.49 58.81 61.16 62.02 63.78 63.58 64.64 65.36 67.19 68.37 67.57 69.00 69.77 69.99 69.92 69.54 68.85 68.39 68.05 67.92 68.23 68.42 67.05 66.41 65.88 65.59 65.37 65.18 65.66 65.36 66.70 67.09 67.09 66.81 66.60
43.70 40.14 36.13 35.82 35.24 37.02 41.25 44.01 40.69 41.76 41.98 42.42 50.19 46.64 49.29 55.47 61.56 62.72 63.51 64.24 65.13 66.29 67.23 67.19 67.84 67.86 66.95 67.96 68.19 68.66 68.30 67.88 67.86 67.96 68.09 67.60 66.87 66.18 65.56 65.34 64.88 64.74 65.22 64.97 65.87 65.60 65.52 65.71 64.65
43.42 41.34 35.96 36.02 37.07 37.09 40.77 42.21 43.07 42.60 42.83 44.34 49.82 45.95 48.53 56.92 61.66 62.66 64.66 64.54 64.89 66.10 66.54 66.31 66.70 67.37 67.53 66.90 65.20 66.07 66.67 66.52 66.66 66.47 65.61 64.71 64.66 64.76 64.63 63.79 64.68 64.41 64.94 64.76 65.04 64.78 64.58 64.28 63.44
42.49 37.85 34.93 35.63 36.93 39.00 41.62 40.43 41.29 42.66 43.74 44.73 45.40 49.35 50.44 59.21 61.03 60.67 61.61 62.49 63.94 64.96 65.24 65.75 66.10 66.26 66.44 66.30 64.49 64.09 64.55 64.57 64.17 63.25 62.01 60.54 59.77 59.45 59.61 61.22 63.88 64.31 64.61 64.19 64.38 64.03 63.33 61.82 61.06
40.20 36.29 38.10 39.83 39.96 39.79 42.11 40.49 42.98 42.77 41.58 43.43 44.41 49.29 52.80 58.74 59.71 60.02 58.76 60.42 62.40 63.20 63.37 65.13 65.40 65.69 65.65 67.11 64.80 64.68 64.27 63.05 61.37 60.45 59.55 58.81 57.41 57.13 58.52 59.20 61.72 63.10 63.18 63.42 62.49 62.03 59.74 56.70 54.38
38.74 37.25 40.04 40.86 41.36 42.47 42.31 39.55 40.76 41.08 40.30 42.87 44.45 48.65 54.29 56.44 57.74 59.16 58.10 60.14 61.45 62.36 63.60 64.22 64.83 65.35 65.49 65.82 65.75 65.26 63.71 61.77 60.39 59.19 58.21 57.57 56.88 56.42 56.21 57.03 57.85 57.69 58.11 56.71 55.83 54.77 53.24 53.38 53.04
39.31 40.24 41.21 44.00 43.23 42.34 41.30 41.38 39.33 39.73 42.25 43.28 45.83 51.28 55.00 56.73 58.39 58.52 57.82 58.61 59.59 60.39 62.47 63.71 64.57 64.81 65.11 64.83 65.82 66.03 65.14 62.28 60.09 58.74 58.01 57.00 55.75 54.95 54.52 55.00 55.27 55.40 54.25 52.77 51.44 51.50 51.78 52.18 52.17
38.91 39.70 42.96 43.12 42.16 40.63 42.43 39.36 39.94 40.71 42.72 43.03 44.01 52.70 55.26 57.76 58.87 59.55 59.21 58.08 59.25 59.96 61.69 63.01 64.09 64.33 64.99 64.42 65.18 65.05 64.60 64.24 61.33 59.18 58.68 57.56 55.86 54.71 53.98 53.65 53.92 53.71 52.76 51.60 50.44 50.08 50.37 50.94 51.21
40.02 41.87 41.15 41.38 40.88 40.59 39.66 37.72 41.48 40.20 41.41 40.54 47.14 50.60 53.08 55.99 57.42 55.52 56.71 57.69 58.10 60.69 61.29 62.88 63.52 64.15 64.48 64.45 64.73 64.84 64.79 64.55 62.80 60.02 59.42 58.10 56.95 55.32 53.83 52.83 53.17 53.16 52.63 51.04 49.98 49.29 48.90 49.48 49.89
40.36 36.92 37.41 38.85 40.08 38.97 39.92 35.43 38.60 40.35 39.58 40.75 42.33 47.72 50.93 54.21 54.84 56.34 58.82 58.57 59.58 60.48 61.45 61.79 63.01 63.79 63.75 63.92 64.04 64.57 64.84 64.45 63.38 61.98 60.25 58.84 57.84 56.03 54.92 54.17 53.96 53.94 52.82 52.73 51.18 50.47 48.75 47.27 48.98
36.97 34.95 30.95 36.29 39.28 38.98 36.36 32.26 36.30 39.72 37.94 39.69 39.73 40.13 45.17 50.01 52.53 55.19 57.04 58.41 58.54 59.29 60.34 61.76 63.09 62.57 63.41 63.78 64.03 64.18 64.70 64.98 64.74 64.20 62.20 60.94 60.16 58.82 56.77 55.13 54.37 53.48 52.89 52.74 50.89 49.21 47.67 46.90 46.01
33.62 28.65 30.51 34.68 39.85 38.27 35.88 34.09 37.91 39.86 39.51 39.46 38.05 39.45 40.10 41.87 45.03 50.05 53.48 56.40 58.01 59.52 60.04 61.05 61.83 62.21 62.65 63.03 63.75 63.60 62.83 63.56 64.26 64.92 64.33 61.55 61.60 59.63 57.48 55.98 55.07 53.62 53.02 52.57 50.01 47.64 47.37 45.38 43.57
30.18 29.24 30.96 30.22 35.86 36.47 34.05 36.52 38.69 40.62 38.57 39.75 39.43 39.41 39.52 39.96 42.65 45.39 49.02 53.73 56.39 57.77 59.47 61.44 61.74 62.52 62.84 63.30 62.47 61.46 61.67 62.35 62.97 63.75 64.38 63.60 62.77 60.99 58.50 57.25 55.31 53.99 52.85 52.07 49.74 47.75 44.93 44.29 42.56
33.04 31.74 31.25 33.42 37.38 35.56 34.47 34.88 38.03 40.13 37.05 38.37 38.59 39.05 39.01 40.56 43.46 42.92 43.42 45.75 51.48 53.97 56.56 58.38 60.46 61.56 62.47 62.49 61.52 61.25 61.48 61.16 61.11 62.33 62.65 64.22 63.75 61.78 59.63 58.71 56.26 54.46 52.86 52.06 49.77 46.70 44.13 40.02 39.52
33.35 31.50 31.09 34.32 36.96 35.65 33.97 35.24 37.54 38.91 38.64 39.15 39.42 39.07 38.89 38.71 39.75 42.55 42.35 41.38 44.86 51.43 55.71 57.45 59.32 60.68 61.56 62.75 63.10 62.89 62.51 61.50 60.41 58.80 59.93 62.62 63.66 63.61 61.74 59.78 56.68 54.68 53.66 51.94 49.06 45.65 42.02 40.24 40.04
31.47 31.09 30.97 31.45 33.89 33.49 31.53 31.03 32.10 35.93 36.38 38.88 39.55 39.64 39.29 39.81 40.35 40.59 41.07 41.54 40.85 43.79 50.72 55.94 58.03 59.86 61.38 62.15 59.24 54.12 53.77 52.32 53.74 54.04 57.03 58.55 62.35 63.11 62.46 61.14 57.89 55.23 54.43 51.83 49.36 47.20 46.27 41.20 38.94
31.76 36.30 35.26 34.06 30.79 27.11 30.37 25.12 29.74 33.88 35.63 36.87 38.05 36.46 37.55 38.35 38.97 40.34 40.48 40.70 40.44 41.85 45.46 52.08 56.16 58.75 60.08 60.84 59.16 58.55 59.69 58.91 58.68 59.25 55.43 56.28 57.55 60.41 62.39 61.65 59.48 57.05 55.63 54.29 50.24 49.41 48.24 46.99 39.78
34.06 36.84 34.99 33.01 30.06 28.98 28.17 26.57 30.00 30.42 34.26 36.09 37.21 38.32 40.31 41.05 41.96 42.33 42.48 42.09 41.66 41.65 42.36 49.05 53.49 56.32 57.40 59.07 59.32 58.37 57.79 57.31 53.97 52.42 53.15 53.34 53.39 58.10 61.04 61.41 59.81 57.74 56.38 55.30 52.39 49.46 48.00 48.02 46.10
37.99 35.15 32.91 31.27 28.39 23.25 28.00 26.83 26.64 29.96 31.92 36.20 37.77 39.69 40.56 40.09 40.00 40.76 41.20 42.09 42.56 42.01 43.46 46.90 51.66 52.77 54.41 55.61 55.58 56.40 56.88 53.56 49.93 49.02 49.74 50.09 50.63 52.33 55.86 59.14 59.60 58.40 56.52 55.05 52.84 50.37 48.66 48.23 47.80
33.93 30.86 23.76 21.82 21.09 21.59 26.01 25.08 29.24 33.20 35.01 34.63 36.68 38.02 38.69 39.46 40.02 40.63 41.18 41.32 41.55 42.74 42.34 44.62 47.83 48.35 51.41 52.95 53.06 53.99 55.07 52.35 51.44 50.56 50.84 47.65 48.59 47.87 51.22 55.35 57.41 57.44 56.51 55.52 54.04 50.65 49.40 48.39 47.98
32.47 31.56 24.65 19.05 18.19 21.83 26.99 24.92 31.80 36.31 36.72 36.34 36.98 38.37 39.32 39.76 39.75 40.42 41.09 41.45 41.38 41.95 43.22 43.41 44.51 45.66 46.42 48.58 49.84 49.71 50.45 50.91 51.91 50.25 49.96 49.73 50.04 50.28 49.30 50.31 54.52 56.56 56.29 55.17 54.21 52.51 50.35 49.56 48.35
33.07 28.85 32.23 25.11 13.36 19.73 24.60 28.34 34.83 35.75 34.94 37.97 39.86 40.20 39.78 40.24 40.44 41.27 41.95 41.95 42.30 42.39 42.58 43.12 44.07 44.39 44.22 44.68 45.38 45.80 46.83 47.47 48.83 48.06 47.38 48.78 47.42 47.49 47.44 47.67 48.60 50.51 53.19 54.71 54.15 53.31 51.55 49.90 48.42
33.72 36.28 28.52 25.49 16.05 14.50 21.23 23.46 28.16 32.64 35.07 36.80 38.29 38.98 39.45 39.82 40.70 41.25 41.39 41.67 41.57 41.49 41.67 42.19 42.47 42.71 43.09 43.56 43.65 44.04 44.77 45.47 46.33 46.28 46.17 46.52 46.88 46.11 45.45 45.86 46.88 46.83 47.80 48.75 50.08 52.01 51.63 50.46 49.09
32.48 30.98 30.59 31.07 26.12 19.84 16.29 24.14 31.66 32.83 36.76 37.26 37.19 39.36 40.06 39.68 40.65 41.25 41.23 41.26 41.28 41.33 41.38 41.39 41.90 42.14 42.46 42.47 42.38 42.48 42.83 43.47 44.08 44.59 45.76 45.90 45.35 44.84 45.52 45.65 45.83 46.15 45.97 46.59 48.57 49.62 49.42 48.25 47.71
32.98 31.93 31.59 26.15 23.76 24.02 24.50 26.03 35.44 37.76 37.66 38.78 38.62 39.76 39.46 41.66 41.97 41.11 41.30 41.30 41.66 41.58 41.43 41.07 41.29 41.39 41.88 42.06 42.10 42.06 42.46 42.48 42.48 42.95 43.97 43.92 44.33 43.71 44.89 44.30 44.39 45.27 46.86 47.97 47.47 47.69 47.65 47.22 45.56

GFSSGP_sfc_wetblb_072.txt.gz
Wetbulb
56.10 52.30 51.40 49.96 42.30 37.77 33.23 35.93 40.30 39.31 39.58 42.50 45.39 45.49 46.56 47.49 45.98 37.89 57.89 62.32 63.92 65.19 68.06 69.08 70.77 71.09 71.04 70.84 70.74 70.21 69.99 69.67 70.29 71.24 71.38 70.64 69.61 69.05 68.30 67.57 67.55 68.18 67.95 67.72 67.93 68.47 67.52 66.53 66.49
53.41 52.13 50.24 43.67 38.06 32.67 33.27 36.59 39.80 40.83 44.08 49.72 47.70 48.02 48.32 46.09 55.41 55.67 58.94 62.44 64.69 66.61 68.14 68.95 70.06 71.09 71.15 70.96 70.70 70.20 69.78 69.42 70.27 71.28 71.12 70.17 69.16 68.38 67.82 67.19 67.11 67.98 67.82 67.85 68.43 68.57 67.37 66.51 66.18
52.71 49.36 46.12 39.88 33.28 33.57 33.53 37.14 40.13 41.25 46.80 43.22 46.07 49.45 49.69 49.84 54.52 57.35 59.43 63.15 65.03 66.52 68.00 68.58 70.11 71.13 70.90 70.46 69.99 69.49 69.04 68.84 69.88 70.80 70.66 69.82 68.81 67.94 67.28 66.76 66.70 67.81 67.48 66.96 67.99 67.78 66.83 66.35 66.16
50.08 48.38 43.84 36.98 32.83 35.66 36.80 38.42 40.49 41.97 41.94 44.35 47.85 46.71 50.27 55.67 57.52 58.67 62.56 63.51 64.75 66.29 67.76 68.72 70.78 70.56 69.77 69.73 68.93 68.24 68.32 68.41 69.11 70.18 69.99 69.12 68.05 67.29 66.65 66.36 66.38 67.46 66.51 66.23 66.88 66.99 66.53 66.07 66.04
46.70 43.73 38.24 35.06 35.52 36.84 38.34 40.18 41.63 41.36 42.64 44.60 46.29 45.09 48.76 56.49 60.73 61.76 62.71 63.56 64.33 65.49 67.12 68.52 70.38 70.23 69.97 69.43 68.52 68.34 68.48 68.35 68.43 69.63 69.70 68.79 67.28 66.39 66.26 66.07 66.09 66.28 66.25 65.99 67.02 67.19 66.58 66.56 66.63
44.88 42.31 36.16 33.68 34.22 38.13 41.02 41.19 41.45 39.90 40.28 43.35 46.96 48.89 51.61 56.86 60.16 60.97 63.04 62.65 64.75 65.36 66.86 68.08 67.64 68.61 69.25 69.43 69.14 68.86 68.83 68.99 68.59 69.26 68.97 67.77 66.66 66.26 65.97 65.75 65.53 65.58 65.47 66.12 67.41 67.25 67.01 66.91 66.55
42.98 39.14 35.06 34.19 35.04 37.08 40.89 43.03 39.49 41.04 39.56 41.55 50.22 46.87 47.56 53.86 60.01 61.53 62.15 62.60 63.81 65.53 66.70 66.98 67.86 67.53 66.73 67.80 67.92 68.04 68.16 68.35 68.38 68.73 68.43 67.43 66.86 66.25 65.72 65.47 65.04 65.45 64.82 65.72 66.35 66.43 66.39 65.61 65.12
42.45 40.44 35.06 34.21 35.36 35.93 39.67 42.24 40.82 42.31 41.59 44.74 48.92 44.05 46.02 55.96 60.98 61.49 62.30 62.64 63.36 64.96 65.92 65.90 66.32 67.19 66.65 66.34 64.91 65.49 66.25 66.79 66.93 66.73 65.58 64.58 64.73 65.06 64.61 63.80 64.95 65.10 64.56 65.23 65.18 65.39 65.08 64.38 63.59
41.32 37.31 34.42 35.82 36.37 38.13 39.08 39.60 39.78 41.61 42.52 43.13 45.55 47.89 48.87 58.95 60.90 60.95 60.54 61.63 62.81 64.21 64.54 65.08 65.51 65.77 65.72 65.56 63.79 63.44 63.97 64.39 64.25 63.45 61.99 60.49 59.95 60.11 60.09 61.56 63.94 65.41 64.26 64.27 64.82 64.49 63.44 62.28 61.79
39.67 36.01 37.82 39.04 38.46 38.27 40.21 39.33 41.81 41.82 42.02 42.28 43.29 47.20 51.65 58.72 60.15 59.90 60.35 61.27 62.33 63.11 63.85 64.81 65.01 65.38 65.13 66.31 64.43 63.93 63.31 62.35 61.41 60.75 59.81 58.69 57.53 57.53 59.09 59.48 61.88 63.44 63.42 64.18 63.92 62.57 59.80 56.71 54.47
37.90 37.21 38.98 39.61 40.48 42.22 41.87 38.70 39.81 40.78 39.46 42.52 43.74 46.38 54.28 56.31 58.75 59.56 60.16 61.31 62.27 63.39 63.72 63.67 65.04 65.54 66.11 66.25 65.32 63.42 62.30 60.80 59.69 59.02 58.36 57.13 56.15 56.17 57.01 57.67 57.97 57.92 57.34 56.80 57.61 54.94 53.90 53.43 53.07
38.08 39.07 39.39 42.15 41.91 41.52 41.64 41.26 38.75 39.86 42.43 41.54 43.78 48.75 54.37 57.10 58.27 59.15 58.68 58.77 60.00 60.82 62.47 62.79 63.90 65.36 65.66 65.70 65.24 65.42 63.85 60.32 58.72 58.10 57.60 56.22 54.95 54.50 54.83 55.75 55.58 55.53 54.42 51.99 51.70 51.78 51.94 52.23 52.31
37.67 38.38 40.92 41.58 41.69 40.88 41.99 38.85 39.70 40.24 41.80 41.82 42.75 51.68 54.89 57.60 58.43 59.26 59.36 57.69 58.78 60.09 60.90 61.91 63.31 64.74 65.00 64.58 65.21 65.08 64.50 62.06 59.28 57.94 57.51 56.50 54.99 53.96 53.93 54.25 54.40 54.05 53.11 51.21 50.46 50.51 50.97 51.02 51.12
39.50 39.48 39.78 39.98 40.11 40.41 39.24 37.24 40.89 40.84 41.13 39.84 43.75 48.13 52.56 56.03 57.26 54.69 56.58 57.28 57.95 60.25 60.64 61.66 62.83 63.65 64.78 64.52 64.66 64.30 64.44 64.33 60.58 58.18 57.63 56.83 55.73 54.28 53.54 53.11 53.46 53.00 52.51 51.58 50.56 50.14 50.11 50.21 49.88
39.64 37.02 36.23 37.13 38.67 38.86 39.32 35.73 38.19 38.84 38.36 38.81 39.61 43.90 48.75 52.34 53.35 56.33 58.79 58.65 58.98 59.58 60.44 61.10 62.33 62.87 63.70 64.35 64.24 64.25 64.21 64.08 63.27 59.77 58.00 57.28 56.42 54.87 53.66 52.71 53.93 53.41 54.03 52.90 51.70 50.52 50.17 49.34 49.70
36.14 33.51 31.08 34.07 38.32 37.71 36.01 32.26 35.06 38.08 38.19 38.53 38.42 38.65 41.98 48.77 52.18 54.49 56.06 57.13 57.63 58.09 59.61 61.13 62.72 62.47 62.69 63.37 63.83 64.09 64.09 63.73 63.52 62.66 59.59 58.94 58.51 57.42 55.89 54.87 54.52 54.35 53.19 52.85 51.23 49.81 48.56 48.71 48.80
32.17 28.47 28.68 31.63 37.57 36.82 34.87 34.06 36.94 38.36 38.18 38.83 38.34 38.34 39.35 40.79 45.03 49.90 53.13 55.54 56.84 58.05 58.57 60.04 61.60 61.87 62.32 62.44 62.81 62.95 63.18 63.75 63.46 63.07 61.56 60.44 59.29 58.77 57.26 55.97 55.15 53.76 52.80 52.34 50.85 48.44 48.38 46.94 45.90
29.07 28.79 28.81 29.04 33.71 36.15 33.59 35.71 37.75 39.56 38.44 39.43 38.53 38.21 38.25 39.08 41.54 44.06 49.01 53.11 55.74 56.62 58.41 60.06 60.86 61.81 62.11 62.52 61.54 61.43 60.52 63.20 62.95 63.48 63.18 60.79 60.60 59.67 58.11 57.11 55.40 53.76 52.66 52.01 50.74 48.89 45.49 46.13 45.22
32.02 30.22 29.47 32.86 35.48 34.19 33.38 34.01 37.17 39.19 37.26 37.65 38.11 38.08 38.08 39.14 41.49 41.88 42.10 45.12 51.37 54.09 56.11 58.56 59.42 60.79 61.63 62.01 61.96 62.06 61.78 62.25 61.57 61.84 62.63 63.31 61.26 60.89 58.83 58.10 56.16 54.26 52.82 52.24 51.29 47.63 44.98 41.95 40.85
32.97 31.23 30.27 33.00 35.45 34.99 32.41 34.49 36.94 38.02 38.34 38.60 38.25 37.98 37.75 37.36 38.65 40.47 40.74 39.85 44.05 50.29 54.96 56.76 59.24 60.06 61.33 62.31 62.31 61.07 62.23 62.17 61.75 61.19 61.53 63.37 63.13 62.39 59.79 59.03 56.76 55.13 54.04 52.38 50.50 48.18 44.00 42.28 41.78
31.11 31.05 29.99 31.04 32.03 31.59 29.49 30.49 31.50 34.03 35.02 37.09 37.18 37.38 36.92 37.59 37.56 38.56 39.63 39.07 38.91 41.50 48.58 54.65 57.24 59.29 60.84 62.24 58.34 55.16 56.09 55.60 56.63 56.81 59.40 61.29 63.14 63.06 61.68 60.27 58.99 56.05 55.44 53.65 51.62 49.98 48.32 44.23 39.95
30.47 34.92 34.07 33.63 29.96 27.12 29.72 24.94 30.00 32.95 34.72 35.53 36.14 35.77 37.35 38.83 39.69 40.06 39.77 39.24 38.66 39.77 40.92 49.59 53.53 55.95 58.69 59.63 59.07 58.96 60.44 59.79 60.18 59.61 56.92 56.84 59.14 62.31 62.71 61.67 60.12 57.63 56.45 55.80 52.94 51.33 50.19 49.37 42.29
33.01 35.51 33.79 31.44 29.29 28.11 27.36 26.21 30.26 29.84 32.59 35.00 37.88 38.04 37.80 37.64 38.25 39.27 39.96 41.57 41.32 41.10 39.45 42.87 49.56 53.74 55.99 59.01 59.25 58.40 57.28 57.20 54.60 53.63 53.80 53.74 53.97 57.87 60.41 61.87 60.71 58.23 57.09 56.83 54.56 51.36 49.68 49.84 47.91
36.66 33.69 31.83 29.50 27.57 22.79 26.66 26.07 27.56 30.14 31.09 33.00 34.44 35.87 37.82 38.52 39.01 39.91 40.27 40.83 41.58 41.42 43.35 45.45 48.67 51.19 53.97 56.13 55.92 56.32 56.39 54.91 51.43 50.41 51.10 51.30 51.20 52.36 54.20 58.81 60.64 59.74 58.00 57.00 55.78 52.59 50.82 50.26 49.93
32.36 30.18 23.56 21.84 20.86 21.26 25.12 24.43 29.09 32.52 34.39 33.49 35.02 36.53 38.15 38.02 38.66 39.68 40.15 40.57 40.80 41.75 41.92 44.97 48.16 49.25 51.12 52.84 53.29 53.57 53.89 53.25 52.03 51.34 51.11 49.36 49.06 48.62 50.57 54.22 57.68 58.81 58.38 57.20 56.25 53.25 51.75 50.29 49.77
31.21 30.63 24.92 19.03 17.23 21.35 26.14 23.83 30.14 33.40 35.14 34.97 36.83 37.58 37.96 38.91 39.40 40.13 40.47 40.46 40.27 40.66 41.60 42.41 43.92 45.07 46.89 48.89 50.24 50.53 51.23 51.37 51.08 50.76 49.86 49.36 49.34 49.66 49.57 49.69 53.21 56.75 57.68 56.36 55.33 53.69 51.93 51.52 49.81
32.41 28.42 30.96 23.54 12.07 18.67 23.44 27.10 32.15 33.60 36.19 36.70 37.91 38.64 38.25 38.57 39.35 39.62 40.17 40.08 40.40 40.41 40.58 41.09 41.71 42.16 42.77 43.49 43.82 44.52 45.90 46.93 47.95 48.13 47.59 47.76 47.47 47.43 47.43 47.52 47.93 49.51 52.68 55.50 55.12 53.71 51.59 50.57 49.52
33.33 34.77 28.03 24.61 14.61 14.71 20.43 22.68 26.48 30.07 33.84 35.12 37.30 37.73 38.22 38.39 39.39 39.52 39.61 39.70 40.01 39.94 40.28 40.87 41.23 41.40 41.39 41.66 41.85 42.40 42.89 43.52 44.27 44.69 45.09 45.18 45.68 45.29 45.09 45.28 45.69 46.21 46.70 49.05 52.31 52.89 52.70 51.32 50.06
31.43 29.80 29.37 29.49 25.56 18.97 15.29 23.35 29.56 34.31 34.97 35.17 35.79 37.04 38.74 38.80 39.53 39.50 39.99 40.17 40.12 39.92 39.77 39.76 40.01 40.30 40.41 40.63 40.81 40.94 41.27 41.78 42.12 42.25 43.03 43.29 43.54 43.80 43.91 44.03 44.10 44.67 44.85 44.61 46.46 48.80 50.05 49.97 49.81
31.98 31.04 30.47 24.70 22.30 21.92 22.74 23.98 33.15 35.54 35.66 37.16 36.96 37.98 37.55 38.59 38.25 38.83 39.67 40.02 39.81 39.95 40.34 40.23 40.45 40.38 39.90 39.98 40.20 40.44 40.69 40.86 41.03 41.47 42.23 42.20 42.46 42.54 43.08 42.80 42.66 43.58 44.08 44.02 44.27 46.03 47.50 47.58 47.31

GFSSGP_sfc_wetblb_075.txt.gz
Wetbulb
57.93 53.89 54.25 52.04 46.05 41.68 38.77 41.73 44.51 44.31 44.78 47.71 50.62 51.77 51.89 51.95 49.95 43.86 60.80 64.02 66.13 67.71 69.45 70.55 70.85 71.22 71.39 70.84 70.61 70.52 70.82 70.84 71.79 71.79 70.79 69.82 69.03 68.48 67.99 68.35 69.31 68.60 67.92 68.60 67.98 67.22 67.29 66.73 66.69
53.94 53.61 52.30 46.50 41.62 37.08 38.02 41.23 42.95 44.79 48.09 51.41 50.61 51.65 51.50 51.06 58.32 57.96 61.02 63.74 67.14 68.13 69.16 69.79 70.21 71.46 71.43 71.08 70.61 70.30 70.48 70.83 71.77 71.44 70.33 69.50 68.48 68.15 67.53 67.89 69.09 68.34 68.54 69.26 68.16 67.09 66.36 66.05 65.62
53.82 50.68 48.68 42.33 37.39 38.18 38.12 41.01 44.14 45.94 50.24 48.31 50.41 52.68 52.89 53.91 58.28 60.04 61.94 64.62 67.18 68.12 69.31 69.60 70.29 71.51 71.33 70.88 70.33 70.12 70.12 70.59 71.52 70.90 70.07 69.08 68.21 67.62 67.13 67.63 68.68 67.44 67.98 68.43 67.60 66.80 65.96 66.06 66.44
51.41 50.49 45.93 41.20 39.84 41.24 41.82 43.11 44.56 46.19 47.37 47.89 50.98 50.30 55.25 59.28 59.29 61.06 63.49 65.58 67.00 68.01 69.23 69.68 70.67 71.05 70.44 70.01 69.41 69.44 69.21 70.11 70.92 70.47 69.45 68.28 67.26 67.00 66.66 67.45 67.44 66.81 67.09 67.69 66.66 66.42 66.28 66.51 66.26
47.99 46.55 41.40 39.25 40.75 41.64 42.04 44.62 44.75 44.92 46.01 48.43 49.33 48.96 54.56 59.85 61.48 62.42 63.72 65.80 66.35 67.70 68.88 70.26 69.74 69.97 69.97 69.65 69.19 69.33 69.30 69.66 70.26 69.84 69.00 67.78 66.80 66.53 66.36 66.87 66.89 65.76 66.55 66.64 67.22 66.51 66.48 66.87 67.11
46.19 44.37 39.39 37.59 39.28 41.77 44.28 44.56 45.26 45.05 45.51 47.76 49.92 52.14 55.71 60.21 61.26 62.49 63.96 65.22 67.13 67.47 68.76 70.11 67.35 68.21 68.90 69.06 69.05 69.20 69.42 69.55 70.21 69.71 68.54 66.91 66.63 66.30 66.13 66.24 66.02 65.37 65.82 67.49 67.23 66.85 67.09 67.16 66.47
45.05 41.66 38.88 37.61 38.26 41.21 44.18 44.52 44.13 44.39 45.03 46.93 52.29 49.82 53.44 58.99 61.81 63.02 63.48 65.03 66.52 67.53 68.30 69.40 69.43 67.88 66.38 67.28 67.44 68.06 68.81 68.75 69.44 69.36 68.41 67.58 67.04 66.76 66.03 66.34 66.21 65.24 66.19 67.45 67.21 66.80 66.48 66.38 65.78
44.18 42.75 38.69 37.46 38.37 40.20 42.88 44.48 44.44 45.48 45.22 50.00 52.91 47.87 52.24 58.97 61.80 62.54 63.29 64.07 65.48 66.80 67.57 68.39 69.01 68.54 68.66 68.46 64.66 65.37 66.65 67.23 67.50 66.78 65.50 64.64 64.91 65.08 64.71 63.90 65.67 65.21 65.61 65.04 66.27 65.74 65.46 65.24 64.67
44.69 39.87 36.97 38.54 38.52 40.87 42.04 43.34 43.94 45.45 46.06 47.00 50.69 50.63 53.59 60.59 61.92 61.86 62.01 62.57 64.02 65.36 66.59 67.60 68.06 68.09 68.04 67.69 65.13 63.54 64.22 64.72 64.43 63.90 62.06 61.89 64.21 63.76 63.09 62.19 64.50 65.31 64.81 64.91 65.36 64.79 63.64 62.83 62.61
42.27 38.61 40.01 40.75 40.82 41.07 41.91 42.81 43.86 44.50 44.30 45.26 46.90 50.90 56.23 60.58 61.11 60.41 60.57 60.66 62.27 63.23 64.90 66.55 67.12 67.37 67.20 66.70 66.15 65.96 65.05 65.62 64.93 64.25 63.24 62.41 62.13 62.13 62.23 60.97 62.21 63.36 63.10 64.43 64.17 62.54 59.76 58.99 60.73
40.82 39.63 40.77 41.16 42.19 42.70 42.49 41.60 43.30 43.17 42.27 45.18 45.93 48.30 56.39 59.25 60.11 60.21 60.67 61.61 61.84 63.33 63.94 65.05 66.15 66.42 66.77 66.49 66.04 65.64 64.67 64.09 63.45 63.16 61.98 60.70 59.97 61.07 62.01 62.70 62.62 62.88 59.52 62.44 61.09 58.82 58.61 58.37 58.96
40.64 40.29 41.43 43.79 42.96 42.43 42.08 42.41 41.51 42.53 44.95 45.02 45.69 50.29 56.75 58.46 59.31 60.05 60.55 61.63 62.18 62.74 63.04 64.12 65.22 65.21 66.14 66.66 65.52 65.54 64.15 63.01 62.13 61.92 61.10 59.63 58.97 59.66 60.42 61.07 61.11 61.02 59.83 59.00 58.06 57.95 57.53 57.26 57.31
40.12 40.39 42.23 42.59 42.32 41.65 42.65 40.83 41.79 42.24 43.68 43.65 45.25 52.24 56.61 58.75 59.50 60.54 61.28 61.32 62.59 62.04 62.78 63.29 64.58 65.04 65.29 65.43 65.27 65.53 64.79 62.96 61.91 61.08 60.54 59.52 58.46 58.45 59.19 59.84 59.80 59.75 58.12 56.96 56.60 56.55 56.82 56.60 56.23
40.32 41.11 41.33 41.58 41.13 41.28 40.39 39.37 41.26 41.82 42.18 42.44 45.59 49.04 53.62 57.48 58.63 58.33 59.21 59.62 60.37 62.41 62.71 63.70 64.14 64.81 64.95 64.85 65.17 65.02 65.29 64.48 62.17 60.81 60.36 59.39 58.55 57.90 58.08 58.34 58.55 58.44 58.01 56.19 56.00 56.01 55.99 56.14 55.84
40.13 38.59 38.81 39.77 40.26 39.67 40.38 37.32 39.46 41.59 40.64 41.48 42.72 45.45 48.95 54.03 56.89 58.51 60.30 60.17 60.53 61.61 62.56 62.70 64.08 64.13 64.43 64.30 64.67 64.71 64.90 64.77 63.51 61.43 60.20 59.52 58.65 57.79 57.39 57.28 57.41 57.19 57.29 55.73 54.39 53.11 53.06 53.48 52.79
36.41 35.78 34.41 36.82 39.82 39.69 37.84 34.61 36.86 40.38 40.13 40.95 41.45 41.64 42.21 47.92 53.90 56.70 58.25 59.56 59.87 60.70 61.27 62.51 63.47 63.53 64.01 64.07 64.23 64.21 64.26 64.42 64.40 62.72 60.99 59.69 59.07 57.88 56.55 55.67 56.17 56.52 55.72 54.93 53.66 52.59 51.53 51.13 50.96
34.41 30.96 31.32 33.90 39.01 38.33 36.45 34.63 38.15 40.32 40.24 40.13 40.77 40.97 40.59 41.57 43.97 50.89 55.69 58.25 59.07 60.09 60.92 61.69 62.90 63.30 63.65 63.93 63.98 64.00 63.99 63.77 63.97 63.76 61.77 60.44 59.66 58.91 57.21 56.29 56.14 55.62 54.88 53.98 53.50 52.60 51.25 50.43 51.93
30.90 30.23 30.85 31.17 35.81 36.29 34.28 36.15 38.27 40.04 39.40 40.44 40.30 40.32 40.26 40.77 42.68 44.47 48.62 54.32 57.48 58.90 60.03 61.68 62.21 63.07 63.48 63.81 63.67 63.32 63.12 63.22 63.53 63.36 63.09 61.57 60.79 59.60 59.13 57.72 56.61 54.93 54.10 53.87 52.58 51.41 51.05 50.38 51.56
32.39 30.95 30.70 32.69 36.46 35.62 34.55 34.87 37.43 39.43 39.22 39.79 40.25 40.16 40.03 40.44 42.79 43.33 43.82 45.65 52.91 56.54 58.31 59.80 60.71 62.10 62.62 62.54 61.95 61.82 61.29 62.08 62.51 62.84 62.95 62.27 61.60 59.85 58.72 58.28 57.88 55.55 54.10 53.72 53.95 52.71 47.74 47.70 46.65
32.98 31.85 31.09 34.24 35.89 35.60 33.32 35.45 37.49 38.03 38.75 39.37 39.83 39.81 39.34 39.36 40.18 41.03 41.78 42.39 44.75 51.64 56.37 58.46 59.96 61.07 62.22 63.02 63.11 63.25 62.84 62.88 63.00 62.21 62.37 63.22 62.78 61.25 59.49 58.76 57.54 56.35 56.26 53.63 52.40 49.90 47.46 48.26 44.49
30.57 31.80 31.47 32.75 33.05 32.84 30.70 31.81 33.00 35.01 36.05 37.12 37.79 37.97 38.47 38.50 39.10 41.19 41.43 42.45 42.19 43.14 49.92 55.72 58.59 60.21 61.67 62.77 62.12 58.59 59.29 58.69 59.76 60.02 61.52 61.87 63.36 63.08 61.58 60.01 59.85 57.77 56.60 55.95 53.57 52.25 51.18 48.44 42.97
30.92 34.80 33.88 33.36 30.99 28.08 31.23 27.25 31.60 33.39 34.74 36.47 38.04 38.31 38.74 39.33 40.46 40.73 41.60 43.22 43.17 42.93 42.18 49.99 55.04 57.90 60.30 61.54 61.03 61.25 60.93 60.27 61.49 61.69 61.33 61.79 61.85 63.03 62.68 61.39 60.01 58.53 57.05 56.80 55.41 53.36 53.01 51.48 46.21
32.12 35.05 33.62 31.44 30.15 28.84 29.10 28.15 31.63 31.23 32.27 35.99 37.30 37.97 38.68 39.38 39.96 41.13 41.40 42.53 43.49 43.90 43.72 43.52 49.73 54.82 57.71 60.49 61.42 60.79 60.88 60.85 59.03 58.36 58.13 58.24 58.02 60.74 62.18 62.06 61.29 59.61 58.06 57.70 57.18 53.28 51.92 52.00 52.39
35.64 33.24 31.55 30.33 28.63 24.04 27.88 27.01 28.72 31.09 32.51 34.44 35.76 37.64 39.51 39.73 40.33 41.12 41.72 42.44 43.27 43.88 46.42 48.93 49.97 52.66 55.89 58.10 58.54 59.01 58.94 57.63 56.13 55.51 56.05 56.03 55.86 56.15 57.30 59.59 60.76 60.57 58.82 57.73 57.23 55.39 53.14 52.48 51.76
32.48 30.56 24.58 23.31 22.07 22.37 25.88 25.56 30.23 33.18 34.30 34.71 36.00 38.59 38.70 39.52 40.37 40.71 40.91 41.40 41.95 42.67 43.71 46.94 49.91 51.38 54.17 56.30 56.48 56.74 56.98 56.68 56.12 55.73 55.48 54.32 54.33 53.63 54.69 55.05 57.47 58.92 59.02 58.25 57.48 55.89 53.99 52.35 52.07
31.51 30.69 25.64 20.18 18.74 22.57 26.03 24.56 30.52 33.61 35.78 35.63 38.09 37.82 38.81 39.37 39.78 40.02 40.54 40.89 41.17 41.56 42.37 43.41 43.98 44.71 46.92 49.95 51.54 52.43 53.53 54.37 54.46 54.05 53.83 53.20 53.01 53.18 53.24 53.10 53.86 56.28 57.88 58.19 57.31 56.65 54.50 53.70 51.99
32.00 28.74 31.03 23.68 12.38 19.42 24.30 27.93 32.59 34.71 36.03 36.80 37.58 38.17 38.04 38.43 39.11 39.38 39.98 40.02 40.40 40.90 41.03 41.90 42.51 42.47 42.91 43.71 44.47 44.94 45.90 46.96 48.16 48.75 49.55 50.15 50.14 49.55 49.91 50.06 50.24 50.83 52.35 54.67 56.11 55.64 54.31 52.28 51.79
32.66 33.87 28.06 24.72 15.27 15.24 20.97 23.10 27.00 32.52 34.36 35.73 36.58 37.29 38.20 38.91 39.53 39.63 39.71 39.90 40.22 40.26 40.60 41.51 41.69 41.43 41.58 42.25 42.53 42.83 43.32 44.03 44.68 45.11 45.42 45.91 46.53 46.92 47.16 47.39 47.72 48.32 48.76 49.65 51.55 52.92 54.25 53.13 51.94
31.48 29.80 29.21 29.52 26.34 19.97 15.98 23.78 29.41 33.35 35.31 35.92 36.54 37.51 38.28 38.53 38.78 39.54 40.09 40.24 40.51 40.72 40.94 40.80 40.99 40.61 40.71 41.09 41.52 41.98 42.12 42.52 43.00 43.20 43.59 43.80 44.18 44.45 44.67 45.19 45.58 45.98 46.54 47.04 47.34 48.94 50.45 50.86 51.02
31.08 31.23 30.85 26.13 22.43 21.48 22.33 24.87 33.12 35.32 35.77 36.42 36.60 37.70 37.75 37.98 38.58 39.29 39.54 39.84 40.04 40.20 40.32 40.23 40.08 39.91 39.41 39.73 40.09 40.10 40.32 40.36 40.53 40.77 41.34 41.90 42.10 42.54 42.70 42.77 42.98 43.68 44.49 45.34 45.40 46.10 46.90 47.63 47.64

GFSSGP_sfc_wetblb_078.txt.gz
Wetbulb
60.95 59.97 62.10 60.71 51.30 51.49 45.38 46.77 51.98 49.76 49.94 52.06 58.32 55.69 54.81 55.77 51.83 49.39 65.03 66.82 68.83 69.12 70.29 71.42 70.99 71.48 70.41 70.57 70.48 71.24 71.25 71.55 71.28 70.81 70.14 69.12 68.54 68.56 68.46 68.52 69.13 69.30 68.13 67.67 67.71 67.61 67.64 66.82 66.58
58.89 58.26 61.31 57.48 49.63 43.78 44.39 48.65 49.78 50.72 51.97 55.41 55.16 55.51 54.30 53.79 60.91 61.80 64.03 66.73 68.94 69.41 70.64 70.07 70.21 71.36 71.27 70.86 70.60 70.36 70.65 71.40 70.97 70.43 69.67 68.69 68.05 68.17 68.27 68.71 68.97 69.48 69.07 67.90 66.80 67.13 66.03 65.78 66.10
57.75 56.90 55.38 53.16 49.70 44.38 44.17 48.26 51.43 51.61 53.70 53.14 53.86 57.06 56.18 55.99 61.11 63.56 66.10 67.88 69.07 69.51 70.70 70.09 70.53 71.38 71.17 70.80 70.58 70.47 70.81 71.47 70.98 70.02 68.99 68.24 67.80 67.65 68.06 68.50 67.72 68.92 68.62 67.59 67.36 65.89 66.96 66.19 65.97
58.21 57.87 53.50 48.98 45.20 46.08 46.73 48.87 50.96 53.16 51.95 52.33 55.33 53.60 59.41 62.68 62.57 64.71 66.92 68.51 68.77 69.59 70.39 69.88 70.83 71.28 70.78 70.29 69.80 69.61 70.82 71.32 70.62 69.64 68.38 67.77 67.41 67.15 67.64 68.26 67.66 67.54 67.92 66.64 66.17 66.55 66.77 66.48 66.76
57.03 55.94 49.53 46.96 45.18 46.10 47.67 50.13 52.75 52.46 51.43 52.63 53.97 52.11 56.50 62.43 64.47 65.35 66.70 68.22 68.42 69.49 70.57 70.10 70.04 70.18 70.12 69.95 69.36 69.53 70.63 70.99 70.13 69.15 67.96 67.40 66.96 66.72 67.15 67.32 66.61 66.76 67.17 66.90 66.42 66.47 67.02 67.06 66.72
52.46 53.66 47.02 44.51 45.13 47.18 49.34 50.70 52.26 51.01 51.14 52.82 53.24 54.05 57.28 64.09 63.62 65.41 66.95 68.03 69.18 69.14 70.50 69.87 67.14 68.20 68.97 69.26 69.50 69.64 70.12 70.74 70.18 68.87 67.49 67.08 66.68 66.44 66.86 66.17 65.61 66.13 67.69 67.19 66.59 66.74 67.17 66.59 66.27
51.32 50.27 46.79 46.06 45.67 46.84 48.73 51.01 50.71 50.49 50.91 51.80 56.61 51.89 58.16 62.74 64.98 65.96 66.80 68.26 68.76 69.43 69.92 69.98 68.89 67.36 66.23 67.23 67.74 68.64 69.12 69.91 69.76 69.07 68.16 67.62 67.36 67.05 66.56 66.76 65.81 66.89 67.93 67.50 67.34 67.07 66.91 66.24 65.65
53.40 51.90 45.30 45.09 44.82 45.33 49.69 49.74 50.43 50.79 50.05 54.59 57.67 51.75 54.10 63.00 65.26 65.85 66.65 67.41 68.22 69.02 69.68 69.61 69.57 68.09 68.33 68.30 64.74 65.90 67.03 67.90 67.86 66.71 65.46 64.72 65.00 65.04 64.56 64.51 65.73 65.35 66.36 66.89 66.17 66.00 66.03 65.59 64.54
51.52 48.31 45.51 45.17 45.32 46.32 48.77 49.18 49.27 50.63 51.57 53.91 55.99 55.11 59.68 65.25 64.98 64.46 64.51 65.64 66.80 67.56 68.68 69.33 69.08 68.88 68.56 68.21 65.73 64.15 64.65 64.94 64.38 64.02 62.29 63.09 65.42 64.87 63.95 63.11 64.47 65.29 64.45 65.48 65.45 64.59 64.10 63.59 62.83
50.38 47.58 47.35 48.53 48.43 48.02 49.19 49.78 49.92 49.66 49.92 50.82 52.86 55.79 62.70 64.64 63.82 62.88 62.50 62.85 64.71 65.89 67.09 68.21 69.06 69.00 68.68 67.49 67.73 67.50 67.18 67.45 67.31 66.80 65.86 65.10 64.82 64.43 63.51 62.18 62.44 63.09 63.50 64.86 63.87 62.20 60.28 61.85 64.35
47.64 47.04 47.40 46.28 47.68 48.88 49.29 48.37 49.54 49.27 47.92 51.02 51.26 53.93 61.52 63.58 63.17 62.92 63.12 63.55 64.12 65.96 66.66 67.12 67.97 68.61 68.63 67.75 67.84 67.44 67.07 67.12 66.98 66.57 65.43 64.58 63.87 63.87 63.92 64.59 64.24 64.01 61.34 64.06 63.40 61.75 62.91 61.99 63.49
46.23 45.20 47.00 47.77 47.88 47.72 48.47 49.11 48.19 49.12 50.11 50.26 52.04 55.13 60.96 62.50 62.49 62.55 62.94 63.76 64.30 65.45 66.07 66.29 67.01 66.99 67.64 67.50 67.41 67.61 66.54 66.40 65.94 65.91 65.07 63.80 63.07 63.34 63.45 63.46 63.81 63.83 63.70 63.29 62.55 62.24 61.86 61.36 61.34
46.68 45.61 46.88 47.13 47.07 47.33 47.55 47.28 47.93 48.01 50.10 49.17 50.07 54.60 59.23 62.06 62.84 63.60 64.14 64.70 65.24 65.05 65.82 65.26 66.00 66.11 66.43 66.46 66.23 66.53 67.09 66.03 65.75 65.33 64.83 63.84 62.59 62.57 62.99 63.03 62.86 62.80 62.43 61.84 61.42 61.38 61.13 60.80 60.62
46.51 47.08 46.44 46.35 46.48 46.55 46.74 46.00 46.93 47.84 48.11 48.36 49.89 53.20 57.59 60.99 62.58 63.76 63.97 64.07 64.68 65.35 65.33 65.06 65.02 66.19 66.40 66.16 66.12 65.79 66.48 66.91 65.89 65.12 64.59 63.86 62.83 62.29 62.26 62.41 62.08 61.97 61.67 60.83 60.82 60.49 60.22 60.51 60.80
46.01 44.32 45.24 45.74 45.97 45.46 46.04 43.52 44.62 47.31 46.63 47.54 48.88 51.36 54.77 59.23 62.32 62.81 64.14 64.23 65.10 65.77 66.29 65.59 65.75 66.47 66.07 65.74 65.81 66.17 66.21 66.12 65.92 65.33 64.58 63.70 62.81 62.05 61.49 61.77 61.72 61.47 61.43 60.99 59.88 59.40 59.22 59.39 59.43
43.23 44.34 41.93 42.43 44.74 45.17 43.83 42.21 42.78 46.47 46.10 46.92 48.25 49.84 49.91 54.12 59.69 62.60 64.14 64.82 65.64 66.16 66.13 66.84 66.54 65.43 65.46 65.40 65.55 65.70 65.61 65.55 65.28 65.18 65.34 63.88 63.00 62.40 60.49 59.62 60.28 60.45 58.52 60.34 59.26 57.75 56.99 57.73 56.68
41.65 39.43 39.86 38.53 43.65 44.15 43.09 42.57 43.82 46.21 46.44 46.90 47.54 48.18 48.34 49.37 51.30 58.09 62.54 64.14 65.16 65.58 65.88 65.92 66.69 66.14 64.63 65.20 65.23 65.41 65.12 64.95 65.31 65.06 64.68 64.81 63.70 62.69 60.72 60.50 59.20 58.94 58.80 56.79 57.19 55.81 56.34 55.69 55.89
36.72 37.65 37.05 38.92 42.01 42.33 42.02 42.02 44.60 46.14 45.69 47.83 48.61 49.32 49.53 49.28 49.97 51.34 53.65 60.42 63.51 64.75 65.60 66.06 66.11 66.73 66.41 64.89 64.56 64.58 64.49 64.63 64.91 64.83 64.43 63.79 63.83 63.79 62.50 61.86 61.38 58.45 57.41 56.32 55.54 55.10 54.29 56.17 54.15
41.78 38.95 38.69 39.21 41.01 41.24 41.47 42.10 44.38 46.55 46.45 47.55 48.70 49.07 49.02 49.03 49.72 48.75 50.03 51.47 57.03 62.02 63.51 64.39 65.11 65.83 66.30 63.96 62.64 62.51 62.13 63.05 63.62 64.33 64.48 64.06 63.32 64.05 62.56 60.87 59.93 58.83 58.21 58.52 57.44 55.05 54.65 53.31 54.03
39.97 38.89 38.71 39.87 40.84 41.03 40.28 41.73 44.97 45.76 45.78 46.34 46.97 47.56 47.38 47.06 47.41 47.83 48.41 48.71 49.93 54.97 60.29 62.66 63.87 65.00 65.62 65.65 64.07 63.82 63.24 63.09 63.57 63.81 63.89 63.96 63.47 63.51 62.62 59.94 59.42 58.55 57.39 57.53 57.43 56.42 55.38 52.69 52.25
38.72 39.32 38.06 39.39 39.38 39.67 38.89 40.01 40.81 40.42 42.09 42.83 44.76 44.79 45.41 46.24 47.38 48.51 48.14 48.44 48.73 49.60 54.49 59.12 62.01 63.60 64.72 65.46 64.66 63.01 61.92 61.74 63.12 62.89 62.81 63.11 63.21 62.68 63.05 62.03 60.40 59.44 57.99 57.70 57.61 56.06 53.87 55.68 54.02
36.87 40.00 40.06 38.61 39.39 36.64 38.36 35.53 40.17 40.24 41.38 43.43 44.84 45.66 46.30 46.82 47.85 48.19 49.23 50.17 50.09 49.78 49.17 54.00 58.53 61.48 63.17 64.53 63.10 61.69 61.08 60.64 62.15 62.50 63.06 62.88 62.60 62.84 62.88 62.32 61.63 61.29 59.69 58.53 58.05 56.15 55.59 54.65 53.14
38.29 40.64 39.75 38.99 38.94 37.82 37.14 36.18 39.46 38.62 40.17 42.74 43.41 44.80 46.39 46.91 47.10 47.71 48.41 48.98 50.13 51.86 50.53 49.74 54.61 58.17 60.95 62.75 63.49 61.77 60.61 61.57 63.39 64.01 63.69 63.82 63.95 63.42 63.11 62.77 61.85 60.42 59.83 58.96 58.35 56.47 55.12 55.31 54.51
39.98 39.80 39.06 38.69 38.21 32.84 36.06 35.56 37.25 38.61 39.63 41.54 42.83 44.96 45.37 46.57 47.53 47.95 48.42 49.82 50.96 53.87 55.21 53.67 53.60 56.00 58.89 60.96 62.03 61.85 60.64 60.54 60.66 61.53 62.03 62.57 62.68 62.23 61.58 61.21 60.99 60.91 59.90 58.72 58.39 58.09 56.10 54.79 53.80
39.98 39.50 32.56 31.36 31.44 30.82 31.75 32.43 38.69 38.81 39.93 41.43 42.74 44.55 45.56 46.67 47.72 48.01 48.32 48.68 49.22 50.17 52.66 55.71 56.48 54.40 56.74 57.77 58.54 58.92 59.32 59.69 59.58 59.58 59.29 59.12 59.66 60.26 60.38 60.28 59.59 59.66 60.28 59.77 58.63 57.44 56.44 54.87 54.05
39.32 38.74 33.71 26.63 26.57 30.90 30.31 31.57 38.42 39.16 40.36 40.85 44.09 44.69 45.43 45.87 46.60 46.90 47.26 47.70 47.71 48.22 49.44 49.77 49.88 49.76 52.65 55.14 55.29 56.63 55.82 56.93 56.54 56.30 56.50 56.88 57.69 57.79 57.60 57.02 57.46 57.78 58.17 57.90 58.60 57.93 57.11 56.29 54.59
37.13 34.71 37.27 29.95 22.75 30.66 33.76 36.14 39.77 39.81 40.37 41.79 43.07 44.76 45.15 45.54 45.90 45.80 46.20 46.89 47.27 47.38 47.55 48.54 48.49 48.22 48.59 49.09 49.86 49.92 50.46 50.67 50.68 51.02 51.93 52.36 52.51 51.50 51.51 52.88 53.16 53.87 54.34 54.88 55.50 56.13 54.77 55.23 54.81
38.87 38.71 33.84 33.84 27.78 26.78 30.56 31.30 36.74 37.66 39.19 41.47 42.01 43.42 43.99 44.79 45.34 45.73 46.21 46.37 46.61 46.87 47.12 47.34 47.16 46.46 47.08 47.87 48.03 47.89 48.17 48.68 48.98 49.26 48.70 48.89 49.41 49.47 49.42 49.87 50.36 50.80 51.26 51.72 52.06 52.49 53.75 53.85 54.08
35.25 35.08 34.61 36.10 34.02 30.54 28.19 33.13 38.94 41.22 42.12 42.18 43.47 44.04 44.34 44.76 45.30 45.58 45.68 46.04 46.25 46.67 46.78 46.55 46.44 46.14 46.04 46.54 46.79 46.63 46.21 46.46 46.70 46.51 46.46 46.26 47.02 46.75 46.82 47.10 47.41 47.89 48.38 49.20 49.41 49.96 50.31 50.22 51.27
36.57 36.85 37.27 34.16 28.63 30.27 30.56 34.63 38.29 42.40 43.91 44.29 43.03 42.75 44.21 44.93 44.71 44.95 45.42 45.62 45.54 44.94 44.79 44.38 44.50 44.07 44.23 44.91 45.15 44.39 44.33 44.34 44.11 43.85 43.80 43.98 43.93 44.39 44.05 44.08 44.44 45.05 45.64 46.51 46.70 46.89 47.83 47.88 47.93

GFSSGP_sfc_wetblb_081.txt.gz
Wetbulb
62.60 61.38 61.86 60.46 51.73 50.38 46.53 48.40 54.06 51.74 52.14 55.87 59.08 56.22 54.27 55.49 52.67 52.24 67.15 68.38 69.12 69.29 70.06 70.55 71.06 70.98 70.39 70.28 71.08 71.26 71.59 71.25 70.99 70.35 69.22 68.44 68.87 68.59 68.41 68.51 69.72 68.76 67.91 68.08 68.31 67.64 67.08 67.15 67.26
60.51 59.16 60.24 56.20 49.06 44.28 44.81 50.32 50.31 51.89 53.71 58.22 56.90 55.50 54.19 55.19 61.40 63.06 64.95 68.86 69.74 69.11 69.34 68.58 69.99 70.66 70.01 70.25 70.93 71.39 71.39 71.32 70.69 69.74 68.53 68.18 68.58 68.56 68.02 69.20 69.97 68.47 67.69 67.56 66.63 66.71 66.42 66.72 67.22
60.15 58.61 54.98 52.56 49.46 44.87 44.44 49.30 51.99 54.02 55.34 55.81 54.70 57.68 56.05 56.82 62.39 64.35 67.79 69.17 69.14 68.58 68.84 69.38 70.24 71.03 70.56 70.45 70.67 70.88 70.98 71.38 70.27 69.30 68.58 68.00 68.42 68.34 68.45 68.86 69.40 68.83 67.68 66.86 67.29 66.96 66.23 66.80 67.78
58.35 58.34 55.30 49.61 46.31 48.04 47.85 50.51 53.07 53.76 53.51 54.37 55.55 53.78 59.52 63.39 64.05 66.14 68.28 68.86 68.84 69.22 69.04 69.53 70.79 70.89 70.07 70.49 70.31 71.09 70.95 70.67 69.78 68.89 68.05 67.63 68.07 68.04 68.10 68.02 68.42 68.46 66.70 66.27 67.10 66.33 66.53 67.22 67.14
57.95 56.32 49.69 48.04 46.93 47.76 49.66 52.07 53.90 52.85 52.76 53.45 54.39 52.76 57.23 63.18 65.91 67.07 67.97 68.62 68.61 68.89 68.78 69.85 70.35 70.47 70.30 69.99 70.09 71.19 71.30 70.51 69.29 68.18 67.66 67.19 67.44 67.47 67.68 67.05 67.22 68.20 66.66 66.54 66.63 67.51 67.24 66.93 66.54
54.30 54.57 47.52 45.41 46.52 48.50 50.59 53.17 53.96 52.71 51.91 53.29 52.63 53.49 58.27 64.79 64.60 66.47 67.99 68.43 69.82 69.33 69.04 69.26 67.25 68.38 69.26 69.60 69.94 70.69 71.20 70.59 69.45 68.12 67.35 66.96 67.06 67.33 66.37 65.93 66.15 67.78 66.86 66.66 66.69 67.39 66.82 66.46 65.83
53.04 50.42 47.65 47.80 46.79 47.59 49.89 53.78 52.20 50.84 51.05 51.97 55.65 51.91 59.12 62.48 65.44 66.78 67.57 68.78 69.48 69.76 68.80 68.49 67.83 67.11 66.53 67.49 68.09 68.91 70.01 69.73 69.18 68.43 67.86 67.64 67.47 67.51 67.08 66.75 66.91 67.63 67.69 67.57 67.27 66.95 66.87 66.11 65.21
54.10 51.64 47.70 48.49 46.35 46.43 51.10 51.88 52.84 51.67 51.24 56.66 57.47 51.63 54.85 63.09 65.99 66.53 67.39 68.00 68.67 68.78 68.63 67.82 67.57 67.21 67.51 67.78 65.33 66.26 67.70 68.26 67.73 66.62 65.51 64.78 64.83 64.89 65.05 64.48 65.85 67.09 67.27 66.60 66.41 66.33 66.19 65.43 64.22
54.76 48.67 46.67 47.29 46.74 48.02 51.51 50.22 52.06 53.15 52.96 55.12 56.35 56.84 60.61 65.48 65.86 65.11 65.77 66.45 67.33 67.06 67.97 68.60 67.85 67.51 67.69 67.57 65.69 64.49 65.05 65.09 64.22 63.87 62.55 62.71 64.39 64.34 64.40 63.18 64.35 65.15 65.83 65.98 65.06 64.83 64.62 63.81 62.65
50.84 48.42 48.66 50.89 50.11 49.42 51.07 51.26 51.06 50.60 51.48 51.77 54.16 59.31 63.69 64.74 64.27 63.32 63.76 64.26 65.57 66.33 66.66 67.79 67.97 67.60 67.92 66.86 67.02 67.41 67.20 67.30 67.00 66.35 65.05 65.16 64.68 64.21 64.02 62.14 62.24 63.06 63.08 64.89 63.46 62.28 62.13 61.68 63.54
50.92 48.60 50.29 49.31 50.00 51.68 51.01 50.63 52.16 50.42 48.95 51.72 52.48 56.88 62.09 63.15 63.44 63.22 63.60 64.67 65.25 66.69 67.40 67.55 67.75 68.20 67.15 67.34 67.05 67.24 67.02 67.26 67.19 66.85 65.71 64.89 64.26 63.42 63.89 64.23 63.22 63.20 60.61 63.16 62.93 61.41 62.68 62.90 62.92
47.39 47.69 49.26 49.20 49.28 50.47 50.09 51.63 49.95 51.03 51.05 53.07 54.14 57.63 61.77 61.75 62.20 62.94 63.22 64.12 65.11 66.27 67.00 67.63 67.91 68.02 67.66 67.27 67.66 67.47 66.72 66.92 66.53 66.48 65.59 64.34 63.72 63.89 63.94 63.94 64.20 64.18 63.30 63.36 63.04 62.35 62.21 61.82 61.57
48.88 47.38 48.94 49.16 48.66 50.28 50.51 49.75 49.60 50.17 52.12 52.20 52.31 56.30 59.94 61.38 62.03 62.93 64.04 64.75 65.27 65.33 66.70 67.26 67.80 66.93 67.36 67.07 67.67 67.76 67.12 66.47 66.49 66.21 65.65 64.64 63.63 63.48 63.77 63.74 63.66 63.48 63.19 62.59 61.93 61.67 61.33 61.10 60.90
49.34 48.90 48.12 48.51 48.51 48.37 48.59 48.40 48.54 49.97 51.51 50.78 51.83 54.37 58.08 60.23 61.70 62.56 62.85 63.40 64.35 65.31 66.37 67.42 67.08 67.66 67.60 66.30 66.44 67.04 67.71 67.26 66.71 66.14 65.64 64.86 63.97 63.46 63.27 63.25 62.88 62.79 62.49 61.79 61.63 61.22 60.89 60.87 61.26
49.29 45.86 47.28 47.58 47.82 47.19 48.32 45.57 46.52 49.06 49.44 49.60 50.24 53.26 55.58 58.97 61.55 62.16 63.43 63.49 64.58 65.46 66.60 66.84 66.29 66.36 66.71 66.35 65.93 66.21 66.20 66.84 66.62 66.24 65.94 65.02 64.12 63.37 62.80 62.86 62.63 62.69 62.68 61.98 61.02 60.69 60.44 60.08 60.51
45.88 47.01 43.07 46.36 46.97 47.14 45.99 44.34 48.48 48.01 47.60 47.96 49.79 51.61 53.84 56.86 59.88 62.17 63.67 64.40 65.29 65.87 66.06 67.00 65.74 65.25 66.41 65.86 65.58 65.76 65.96 65.95 65.57 66.32 66.29 65.38 64.51 63.81 62.96 62.36 62.39 63.11 62.05 61.29 60.62 59.69 58.91 58.63 58.97
43.50 40.87 43.02 41.82 46.43 45.83 44.50 44.69 45.32 48.05 47.39 47.24 48.50 50.10 51.20 52.71 56.35 60.55 62.86 64.15 64.99 65.73 66.10 66.60 67.31 66.65 65.40 66.10 65.62 65.50 65.73 65.51 65.78 65.62 65.22 65.60 64.94 64.19 63.28 61.77 61.25 62.12 61.32 60.52 60.55 59.08 58.40 57.28 57.87
40.55 41.17 41.91 42.60 43.76 43.87 44.07 43.58 46.01 47.49 47.60 48.21 49.03 49.32 50.34 50.64 51.40 53.99 59.28 63.09 64.60 65.48 65.92 66.40 66.97 67.21 66.05 65.15 65.17 65.15 65.18 65.44 65.69 65.19 64.99 64.54 64.55 64.91 64.05 63.08 62.97 61.90 59.70 58.22 57.73 56.98 56.30 55.57 55.24
44.22 42.80 41.13 42.71 43.15 43.19 43.62 44.03 45.57 47.09 47.06 47.89 48.90 49.85 50.52 51.09 52.48 52.11 52.91 54.91 61.23 64.08 64.73 65.33 65.70 66.49 67.12 64.28 63.58 63.23 63.04 64.05 64.36 64.77 64.85 64.44 64.22 63.77 63.72 64.01 62.78 61.23 58.05 57.72 58.26 56.36 55.40 56.04 57.10
43.05 41.57 40.95 41.68 42.74 42.65 43.13 42.16 45.30 46.42 47.06 48.01 48.72 49.72 50.13 50.17 50.22 50.02 50.69 51.52 52.79 57.87 62.61 63.91 64.84 65.82 66.58 67.02 64.06 63.77 63.50 63.70 64.09 64.55 64.46 64.76 64.44 63.80 62.82 63.34 61.67 59.77 58.53 58.29 57.85 56.54 55.63 56.93 57.55
41.61 40.25 40.65 40.42 41.57 42.56 41.14 40.67 43.56 44.15 44.39 45.34 46.27 47.83 47.66 48.28 49.19 50.52 50.54 50.69 51.94 52.27 56.13 60.90 63.39 64.64 65.92 66.46 65.09 63.51 62.75 63.15 62.75 62.62 63.02 63.71 64.05 63.40 62.86 62.54 61.30 60.78 59.97 58.67 58.06 57.55 56.70 54.50 56.31
38.21 42.23 42.53 40.71 40.02 36.60 41.61 36.32 42.04 43.79 43.08 44.47 46.66 47.88 48.42 49.01 49.98 50.41 51.23 51.83 52.16 52.27 52.89 56.04 60.48 62.96 64.40 65.67 65.15 62.34 61.67 60.78 62.02 62.62 63.17 63.19 63.44 63.35 63.39 63.47 62.76 61.08 59.99 58.53 58.52 58.56 56.93 55.85 53.83
40.40 43.28 42.79 42.15 40.85 39.16 38.72 37.13 41.41 41.65 41.14 44.07 46.50 47.88 48.77 49.42 49.93 50.08 50.76 51.63 53.29 53.70 51.85 52.55 57.08 60.20 62.70 63.91 64.33 62.07 60.90 61.24 62.10 62.26 62.06 62.44 62.45 62.51 62.91 63.34 62.85 61.86 61.40 60.24 58.86 58.14 56.58 55.90 54.95
43.15 42.18 41.90 41.90 40.25 33.18 38.97 37.62 39.20 40.50 42.02 44.05 45.44 47.26 47.93 48.63 49.26 49.44 50.77 52.73 54.45 56.14 53.55 52.95 55.20 57.44 60.04 61.58 62.73 62.46 60.54 60.39 60.55 60.13 60.03 60.48 61.59 61.47 61.21 61.49 61.40 60.55 60.00 59.65 59.08 58.43 57.64 56.39 55.64
42.86 39.84 33.52 32.00 32.10 31.36 34.73 34.50 39.52 41.22 43.74 44.62 45.42 46.48 47.63 48.69 49.25 49.58 49.88 50.48 52.20 54.51 56.61 56.29 56.28 56.32 58.69 59.71 60.18 59.91 59.73 59.84 59.04 58.25 58.06 57.28 57.73 58.27 59.25 59.57 59.31 59.62 60.12 59.99 59.55 58.27 57.71 56.84 55.68
39.94 39.73 34.84 27.54 28.99 33.04 31.94 32.13 38.95 43.02 43.02 43.96 46.76 47.75 47.46 47.59 48.14 48.53 48.89 49.27 49.53 50.47 51.63 52.90 54.30 56.09 56.88 56.69 56.80 56.74 57.49 57.72 57.10 56.83 56.85 56.80 56.55 56.11 55.58 55.01 55.50 55.97 56.63 57.07 57.69 56.74 56.44 56.90 56.03
39.63 36.54 40.56 32.27 27.40 32.65 35.36 38.22 41.98 41.64 41.51 43.46 45.18 46.29 46.47 46.83 47.26 47.54 48.45 48.98 49.21 49.49 50.00 50.31 50.00 50.07 50.78 51.18 51.42 51.46 51.99 51.98 51.58 52.01 52.36 51.93 52.19 50.50 51.06 52.19 52.16 52.67 53.00 53.45 53.57 53.76 53.99 55.15 55.19
40.31 41.50 33.84 36.01 28.23 28.38 33.36 34.86 37.78 37.75 39.81 42.57 43.97 45.74 46.40 46.73 46.97 47.50 48.14 48.23 48.48 48.74 49.00 49.36 49.32 48.79 49.28 49.47 49.39 49.18 49.37 49.73 49.89 49.57 48.68 48.68 49.08 48.74 49.04 49.11 49.38 49.69 50.29 50.79 51.06 51.37 52.18 51.79 52.32
36.50 36.03 37.33 38.23 36.52 32.88 29.98 34.20 40.85 42.48 42.38 42.78 44.43 45.77 45.31 46.26 47.00 47.54 47.61 47.91 48.14 48.62 48.58 48.23 48.15 47.74 47.68 47.93 47.69 47.42 46.92 47.05 46.95 46.43 46.07 45.90 46.75 46.11 45.89 45.96 46.38 46.74 47.13 47.82 48.03 48.49 48.89 48.49 49.11
39.97 38.95 38.43 34.41 30.22 32.99 32.50 35.76 39.94 43.13 44.68 45.56 45.28 45.60 46.64 47.15 47.26 47.20 47.49 47.76 47.27 46.59 46.32 45.88 45.79 45.27 45.73 46.06 45.50 44.95 44.67 44.70 44.18 43.77 43.78 44.17 43.68 44.64 44.18 43.94 44.13 44.33 44.68 45.19 45.07 45.14 45.90 45.78 45.92

GFSSGP_sfc_wetblb_084.txt.gz
Wetbulb
64.40 61.11 59.60 57.49 48.61 46.93 43.11 46.59 51.31 50.13 49.55 54.32 55.67 52.92 52.25 54.54 53.68 52.22 65.20 67.03 67.44 67.72 69.79 70.10 70.93 71.35 70.91 71.42 71.62 71.74 71.89 71.25 70.22 68.97 69.03 68.89 69.03 68.67 69.32 69.06 69.29 68.44 68.15 67.80 67.68 67.66 68.07 68.46 69.05
60.09 58.61 57.37 53.69 45.00 40.32 40.67 48.17 48.23 49.61 53.33 54.53 53.44 52.14 51.82 52.95 60.54 61.92 62.58 67.32 68.34 67.92 68.34 68.92 69.96 70.89 70.78 71.55 71.51 71.23 71.88 71.14 69.73 68.47 68.72 68.92 68.58 69.41 70.05 68.90 69.34 67.74 67.15 67.25 66.97 67.44 67.72 68.47 68.77
59.96 58.00 52.04 48.96 45.48 40.56 40.89 47.24 48.87 51.46 53.43 53.20 51.07 53.94 54.16 54.71 61.32 62.43 66.10 67.67 67.45 66.35 67.58 68.89 69.78 70.57 70.62 71.22 71.20 71.04 71.49 70.92 69.40 68.51 68.43 68.37 67.87 68.03 69.55 68.98 67.99 67.57 67.19 67.53 67.08 66.65 68.06 68.09 67.58
56.81 55.07 51.98 44.46 43.68 44.28 44.83 48.43 51.11 50.21 50.98 52.03 52.11 51.58 56.71 60.47 61.49 64.97 67.27 66.58 65.78 66.04 67.93 69.47 70.45 70.65 70.62 71.14 71.55 71.00 71.32 70.43 69.07 68.30 68.12 68.56 67.95 67.36 67.88 68.66 68.31 67.17 67.25 67.10 66.88 67.17 67.70 67.42 66.99
54.72 53.42 45.95 43.97 44.10 45.09 46.29 50.41 51.03 48.82 49.46 50.52 49.53 50.45 54.55 61.38 65.25 66.10 66.04 66.66 66.00 65.48 68.10 69.24 69.99 70.22 70.42 70.98 71.47 71.02 71.08 69.75 68.45 67.89 67.60 68.06 67.42 66.74 66.88 68.12 67.52 66.68 67.07 67.16 67.85 67.32 66.91 66.74 66.07
50.97 51.58 43.23 41.46 43.20 45.63 46.32 49.81 50.67 49.70 49.01 49.35 47.15 52.87 55.73 61.87 63.62 64.92 66.12 66.41 67.85 66.38 67.78 68.68 66.83 68.16 69.11 69.97 70.51 70.50 70.50 69.74 68.68 67.74 67.29 67.69 67.40 66.61 66.46 66.80 67.97 66.91 67.07 66.96 67.53 66.86 66.50 66.01 65.25
49.97 47.69 43.73 44.00 43.15 44.07 47.16 49.42 48.84 47.64 47.43 47.96 50.35 49.62 56.15 59.29 63.51 65.18 65.21 67.40 67.82 67.47 66.84 66.71 66.71 66.38 66.40 67.30 68.09 69.41 69.44 68.99 68.56 68.21 67.88 67.52 67.51 67.23 66.64 67.40 67.94 67.52 67.52 67.33 66.99 66.60 66.31 65.56 64.63
50.86 48.88 44.31 43.99 43.20 43.27 48.08 48.78 48.48 48.11 48.27 52.52 53.36 48.22 51.63 59.77 63.57 64.59 64.83 66.38 67.43 67.24 66.15 64.51 64.64 65.44 65.64 65.90 64.91 66.20 67.31 67.43 67.21 66.21 65.13 64.32 64.55 64.75 64.35 64.05 66.86 67.39 66.91 66.65 66.58 66.35 65.86 64.94 63.82
52.59 44.28 42.37 44.53 43.94 45.09 48.91 46.38 48.79 49.14 50.08 51.02 53.03 55.29 59.63 62.67 63.38 62.49 62.60 63.56 66.09 66.59 66.82 65.78 63.66 64.40 65.05 65.87 63.61 64.23 64.58 64.56 63.96 63.41 62.39 61.54 61.83 62.29 62.55 62.37 64.17 66.05 66.24 65.45 65.17 65.04 64.60 63.48 62.39
47.16 43.44 45.75 48.57 46.19 46.54 48.23 48.10 47.75 46.26 48.74 48.95 51.97 58.90 61.84 62.01 61.54 60.95 61.34 61.57 63.33 65.00 65.61 66.83 66.45 64.47 64.51 65.86 64.84 65.18 65.09 64.09 63.85 63.10 61.66 62.46 61.18 61.02 61.94 60.04 61.42 62.29 63.79 64.54 63.37 62.18 62.62 61.38 59.67
47.28 44.34 48.26 47.23 48.19 49.68 48.39 47.21 48.86 46.34 44.89 48.86 50.35 56.78 59.84 60.20 60.15 60.65 61.04 61.70 62.65 64.24 65.93 66.67 66.55 65.92 65.11 64.13 63.85 64.31 64.11 64.06 63.86 62.84 62.30 61.42 61.04 60.01 61.13 60.16 59.25 59.00 58.59 59.90 60.89 58.71 59.00 59.44 58.86
45.17 46.40 47.76 48.41 47.74 48.64 47.84 48.46 45.95 45.89 45.03 50.27 52.98 58.27 59.16 59.33 59.67 60.06 60.47 61.54 62.10 63.60 64.43 65.55 66.59 66.22 65.71 64.50 63.51 63.97 63.64 63.93 63.51 63.39 62.36 60.65 59.95 59.33 60.08 60.24 60.16 59.63 59.14 59.59 59.29 58.47 58.31 58.23 58.42
45.28 45.90 47.82 47.79 46.38 47.19 48.90 46.58 45.87 45.83 47.49 48.78 53.06 58.06 57.68 58.43 59.46 60.38 61.19 61.75 62.51 62.57 63.68 64.35 65.46 66.08 65.97 65.50 64.37 64.18 63.59 63.56 63.36 63.22 62.65 61.35 60.05 59.71 59.86 59.76 59.90 59.63 59.37 58.88 57.85 57.35 57.57 57.42 57.56
47.52 46.88 46.00 46.64 46.28 46.19 46.00 44.95 44.73 46.07 47.62 47.60 49.19 52.91 56.54 57.83 58.26 58.74 59.75 60.22 61.55 62.87 63.41 64.62 64.86 65.76 65.85 65.51 64.59 64.15 64.59 64.02 63.26 62.82 62.52 61.93 60.56 59.91 59.74 59.49 59.20 58.83 58.39 57.63 57.45 57.00 56.63 56.74 57.09
47.16 43.10 44.24 44.94 45.80 44.61 44.78 42.53 42.86 44.99 46.79 46.05 46.79 49.31 53.21 56.39 58.32 58.22 58.98 59.52 60.87 62.04 63.35 64.23 64.64 65.70 65.69 64.77 65.07 64.87 63.86 64.92 64.28 63.35 62.87 62.19 61.48 59.81 59.08 59.19 58.95 58.76 58.67 57.81 56.62 56.46 56.31 55.61 56.34
44.01 43.05 38.42 43.38 44.52 43.89 43.21 39.37 44.21 45.02 43.86 44.42 45.22 46.15 49.82 54.13 56.64 58.19 59.72 59.85 60.78 61.56 62.53 64.13 64.80 64.37 64.90 64.61 64.68 64.94 64.97 64.10 64.44 64.23 64.07 62.61 62.18 61.04 59.18 58.34 58.59 59.02 58.07 57.51 56.64 55.54 54.83 54.39 54.05
40.74 36.02 38.49 39.29 44.86 43.42 40.75 38.85 41.76 43.95 43.10 42.10 43.44 45.55 48.88 50.42 53.45 56.39 59.19 60.20 60.76 61.62 62.44 63.26 63.69 63.44 64.57 64.76 64.64 64.71 64.73 64.77 64.59 64.40 63.96 64.04 62.85 61.87 59.92 58.65 57.82 57.80 57.71 56.69 56.24 56.00 54.49 53.27 53.59
36.09 37.20 39.18 37.28 40.83 40.36 38.57 38.50 41.55 43.36 43.45 42.20 42.63 43.90 46.23 47.15 50.20 54.00 57.40 59.47 60.76 61.39 62.35 63.37 64.44 64.16 64.44 64.65 64.07 64.18 64.16 64.11 64.55 64.37 64.04 63.82 63.55 63.28 61.14 59.70 58.59 58.26 56.70 56.05 55.12 55.87 55.08 54.34 53.93
41.37 38.72 37.55 38.87 41.14 39.52 39.00 38.67 41.52 43.30 42.63 42.12 43.11 42.89 44.68 45.89 47.12 48.38 51.20 56.39 58.66 60.28 61.04 62.10 63.34 64.47 63.84 63.43 63.04 62.72 62.58 63.25 63.34 63.87 63.91 63.59 63.34 62.90 62.43 61.64 60.38 60.13 57.14 57.03 56.44 55.76 54.29 53.72 54.26
39.53 39.04 36.60 38.44 41.36 38.71 38.84 38.69 41.06 42.45 42.46 43.31 44.45 44.52 44.94 46.18 45.14 46.66 44.90 47.48 48.77 56.08 59.61 60.83 61.98 63.26 64.31 63.13 63.32 62.91 62.85 63.06 63.36 63.49 63.45 63.62 63.34 63.15 62.34 61.93 61.63 59.37 57.50 56.95 56.63 55.39 53.97 54.11 54.24
38.42 38.61 36.43 37.11 38.42 37.97 34.35 34.25 38.30 41.13 43.10 41.64 40.35 41.59 43.34 44.66 44.78 45.99 46.39 44.60 45.49 46.39 50.26 58.91 60.51 61.83 63.51 64.11 62.76 62.13 62.32 61.81 61.47 61.51 62.16 62.92 63.40 63.04 62.18 61.66 61.76 59.77 58.50 57.79 57.50 56.20 55.12 54.54 54.43
35.83 39.57 40.20 37.73 34.98 30.77 35.70 27.74 33.83 36.98 38.05 40.01 41.35 41.79 42.65 44.55 45.04 46.22 46.34 46.09 47.54 47.33 47.19 48.81 57.18 60.16 61.88 63.19 62.33 61.67 60.78 59.91 61.25 61.74 62.01 62.12 62.59 62.51 62.21 61.86 61.63 60.72 59.62 58.45 58.23 57.81 56.98 56.14 54.25
38.22 41.10 40.07 38.26 35.04 32.76 32.05 29.38 33.09 37.19 36.26 38.56 42.03 43.30 43.37 44.68 45.86 46.70 46.90 48.97 49.20 49.36 46.09 46.18 51.37 56.92 59.89 61.22 62.02 61.03 60.04 60.00 60.04 60.63 61.18 61.32 61.49 61.83 61.95 61.71 61.50 60.97 60.48 59.61 58.96 57.48 56.72 56.60 55.58
41.81 39.68 39.28 37.42 35.28 26.46 33.17 30.91 30.71 34.59 37.17 39.41 41.52 43.10 43.99 43.79 44.27 45.67 47.75 50.80 51.02 48.84 46.31 47.79 51.71 54.23 57.65 58.72 60.06 60.46 59.84 59.30 59.03 58.79 58.68 58.91 59.73 60.21 60.41 60.09 59.82 59.75 59.26 58.87 58.65 57.95 57.49 56.60 55.69
38.81 35.06 25.84 25.01 24.09 24.46 29.95 28.98 33.18 35.89 39.30 40.28 41.09 41.75 42.82 44.03 44.16 44.76 45.68 47.00 49.76 51.51 51.77 53.06 53.54 53.41 55.21 55.97 56.14 57.91 58.86 58.65 57.60 56.77 56.26 55.72 55.88 56.49 54.85 54.83 54.82 55.27 55.92 56.33 56.94 56.52 55.69 55.94 55.29
36.31 34.91 27.73 22.90 22.32 24.15 27.08 25.54 33.24 36.76 39.31 41.32 43.31 42.94 43.24 42.84 44.00 43.84 44.71 44.90 45.61 47.01 50.35 52.59 53.43 54.01 54.70 54.76 55.44 56.33 56.62 56.44 55.45 53.90 52.56 50.52 49.02 47.84 48.13 48.69 49.13 49.62 50.11 50.29 50.43 50.35 51.14 52.10 51.47
34.95 32.25 35.93 27.36 20.29 24.02 27.00 31.56 34.67 37.20 37.09 39.89 41.41 42.19 41.91 42.36 42.92 43.49 44.37 44.50 44.44 44.79 45.31 45.42 45.70 46.10 46.67 46.84 46.78 46.65 47.00 47.08 46.36 46.09 46.26 46.17 45.91 46.09 45.98 46.05 45.95 46.40 47.01 47.62 47.63 47.58 47.71 48.00 47.70
35.92 38.18 29.88 29.97 17.79 19.56 25.57 27.09 30.82 33.25 35.17 38.49 39.92 40.48 41.30 41.96 42.35 43.07 43.49 43.79 44.09 44.38 44.59 44.65 44.67 44.34 44.57 44.57 44.34 44.42 44.20 44.43 44.14 43.53 42.77 43.07 43.12 43.36 43.07 42.92 43.30 43.62 44.10 44.47 44.64 44.85 45.86 45.64 45.58
33.73 32.34 33.13 34.17 31.13 24.39 20.75 26.10 33.07 37.02 38.08 38.51 40.09 41.92 41.27 41.38 41.95 42.53 43.07 43.87 44.28 44.28 43.71 43.33 43.22 42.94 42.69 42.59 42.23 41.50 41.25 41.43 41.28 40.67 40.56 40.71 40.91 41.21 41.16 41.22 41.36 41.46 41.46 41.84 41.79 41.95 42.66 42.49 42.76
35.15 35.07 35.00 29.09 26.03 27.36 27.34 28.18 36.94 36.63 39.97 41.27 41.38 42.08 41.63 42.64 42.60 42.49 42.64 42.96 42.64 41.53 41.18 40.81 40.86 40.91 41.04 41.11 40.32 40.03 40.07 39.62 38.84 38.61 38.92 39.23 38.97 39.73 39.65 39.70 39.58 39.72 40.11 40.47 40.02 40.00 40.26 40.26 40.42

GFSSGP_sfc_wetblb_087.txt.gz
Wetbulb
61.67 57.94 54.38 52.31 45.03 41.95 39.43 43.39 48.09 47.20 47.67 50.08 51.47 52.35 52.63 53.26 53.94 49.32 64.57 66.87 67.87 68.57 69.62 69.87 71.18 71.53 71.30 71.72 71.64 71.90 71.65 70.59 69.30 69.19 69.36 68.93 69.53 69.12 68.45 68.22 69.05 68.86 68.08 68.12 68.58 69.09 69.30 69.51 69.23
58.36 57.33 52.25 48.01 40.96 36.95 37.30 43.44 45.56 48.86 50.46 50.87 52.01 51.55 51.78 53.57 59.66 61.70 62.78 67.25 68.26 68.72 69.02 69.43 70.10 71.22 71.43 71.59 71.57 71.73 71.30 70.32 68.96 69.20 68.81 69.10 70.23 69.43 68.62 67.99 68.76 67.74 67.53 67.92 68.37 68.87 69.33 68.97 68.60
57.91 56.18 47.36 44.39 40.37 37.38 38.84 43.40 46.99 49.68 50.98 49.49 48.67 53.19 53.24 56.13 60.01 61.58 66.31 67.42 67.46 67.28 68.26 68.59 69.91 70.95 71.12 71.52 71.03 71.24 70.83 70.06 68.83 68.85 68.57 68.38 69.63 69.24 68.33 67.78 67.59 68.06 67.47 67.16 68.31 68.47 68.37 67.66 67.38
53.35 50.57 47.26 40.86 38.92 40.77 42.40 45.34 47.39 47.41 48.64 50.08 51.43 50.39 55.16 59.62 61.41 64.06 67.05 65.78 65.99 66.87 68.06 68.99 70.25 70.82 71.14 71.51 70.85 70.92 70.59 69.21 68.58 68.91 68.36 67.93 68.20 68.49 67.94 67.43 67.59 68.20 67.40 67.34 67.87 67.92 67.78 66.71 66.33
50.24 47.93 42.30 39.61 39.92 42.22 44.95 48.31 48.07 46.19 46.54 46.90 49.55 50.52 54.09 60.98 64.62 65.46 64.54 65.11 65.52 66.67 67.94 68.68 69.66 70.39 71.25 71.18 70.77 70.64 70.07 68.86 68.13 68.39 68.35 67.41 67.06 67.35 68.18 67.19 67.19 67.42 67.81 67.67 67.29 67.12 66.59 66.01 65.69
46.72 46.97 39.69 36.96 39.19 42.94 44.60 48.07 47.80 45.73 46.36 47.63 51.39 52.89 53.61 61.96 62.76 63.08 64.97 64.52 66.69 66.80 67.91 68.12 66.51 68.02 69.63 70.33 70.41 70.14 69.79 69.20 68.25 68.05 68.07 67.28 66.69 67.13 67.64 67.57 67.29 67.31 67.46 67.23 66.73 66.49 66.13 65.41 64.78
45.37 43.64 38.86 38.18 39.07 41.73 45.02 47.77 46.08 45.05 45.48 45.91 52.37 50.93 54.77 59.51 62.61 64.19 65.25 65.18 66.48 67.00 66.60 66.16 66.48 66.24 66.10 67.52 68.50 68.84 68.86 68.61 68.19 68.07 67.71 67.49 67.26 66.81 67.69 68.12 67.98 67.77 67.53 67.15 66.65 66.33 65.69 64.86 64.01
47.31 45.01 39.70 38.88 39.93 40.40 45.48 45.58 45.15 46.73 46.14 50.28 53.82 50.25 51.23 58.33 62.91 64.05 65.66 65.18 65.30 65.29 64.86 64.00 64.88 65.42 65.16 65.68 64.89 65.63 66.71 67.22 66.89 66.21 64.96 64.12 64.31 64.59 64.61 64.82 67.24 67.15 66.86 66.76 66.48 65.99 65.25 64.27 63.28
48.19 41.23 38.83 40.99 41.10 41.77 45.09 43.88 45.73 47.70 49.02 50.04 53.06 53.01 57.00 62.27 62.58 62.55 64.08 64.18 64.07 63.88 63.27 62.80 63.31 63.99 64.68 64.61 63.40 63.55 64.09 64.29 63.90 63.19 61.89 61.11 61.22 61.33 61.56 62.33 65.32 66.37 65.71 65.52 65.38 65.05 64.13 62.94 61.97
43.83 40.81 42.52 44.80 43.70 43.54 45.29 45.34 45.59 46.32 46.75 47.09 54.93 57.98 60.47 61.26 60.86 59.56 62.19 62.46 62.70 63.39 62.65 62.33 62.06 63.29 64.45 65.61 64.29 64.00 63.23 62.44 62.24 61.80 60.95 61.02 60.08 60.91 60.76 59.24 61.03 63.63 63.65 64.05 63.48 62.54 62.53 60.83 58.69
45.06 42.08 44.29 44.99 45.84 47.31 45.88 44.58 45.94 46.02 43.03 47.67 54.68 56.80 58.56 57.82 58.37 58.97 59.41 62.58 62.75 63.69 65.19 65.21 63.32 63.32 62.66 63.45 63.37 63.55 63.09 62.30 61.89 60.42 60.59 59.94 59.90 59.79 59.31 58.33 58.29 57.94 58.45 59.34 59.71 57.85 57.99 58.36 57.40
42.81 44.28 45.17 46.91 46.36 47.20 45.95 46.52 44.58 44.86 45.08 49.93 57.88 59.03 58.53 57.74 58.01 58.76 59.09 60.82 61.96 63.31 64.04 65.44 65.24 64.51 62.66 62.53 62.67 63.03 62.82 62.58 61.87 61.24 60.60 59.16 57.81 57.54 59.16 58.62 58.27 57.90 57.89 58.28 58.08 57.35 57.45 57.00 57.17
43.29 43.69 46.04 45.57 45.23 46.32 47.20 44.78 44.30 44.07 44.23 50.85 57.90 58.85 57.97 57.88 57.78 59.04 60.11 60.84 62.22 62.35 63.61 63.77 64.97 64.92 64.70 62.86 62.17 62.55 62.14 62.43 62.40 61.71 60.94 59.69 58.66 58.22 58.73 58.75 58.85 58.44 57.84 57.76 56.97 56.35 56.48 56.29 56.50
45.46 45.30 44.72 44.96 43.75 44.53 44.40 41.97 43.92 44.30 44.81 51.19 56.23 55.73 57.37 57.63 58.45 58.25 58.95 59.78 61.34 62.77 63.19 63.91 63.49 65.43 64.93 64.56 63.35 64.17 63.44 62.59 62.04 61.66 60.98 60.43 59.30 58.68 58.54 58.24 58.18 57.90 57.49 56.84 56.64 56.06 55.64 55.64 55.87
44.81 41.83 41.56 42.99 43.66 42.90 44.28 40.54 40.97 44.79 44.95 45.82 49.14 52.48 54.53 56.85 57.40 58.25 59.52 59.19 61.60 62.35 63.63 63.77 63.87 64.32 64.93 64.44 64.16 63.10 63.65 64.15 62.92 61.69 61.45 60.90 60.08 58.81 58.47 58.16 57.94 57.70 57.63 56.69 55.45 55.24 55.14 54.50 54.86
42.11 39.95 36.72 40.69 43.48 43.51 41.40 36.61 42.46 44.41 43.89 42.90 44.08 45.72 51.27 54.45 56.11 56.74 57.82 58.78 60.27 60.90 63.05 64.06 64.48 63.95 65.12 64.33 64.55 63.37 63.02 62.65 62.40 63.61 62.90 61.23 61.04 59.77 57.69 57.56 57.64 57.80 57.17 56.39 55.56 54.44 53.90 53.65 53.17
38.17 32.57 34.38 37.78 42.67 41.04 38.62 36.16 40.87 43.01 42.80 41.29 40.91 42.55 46.04 50.41 52.99 55.67 57.59 57.80 58.83 60.34 61.52 63.08 63.31 63.08 62.99 64.39 64.53 64.43 64.40 63.14 62.88 63.54 63.40 62.96 62.23 60.81 58.82 57.38 57.00 56.92 56.69 55.94 55.36 54.92 53.52 52.69 53.56
33.11 33.16 34.88 35.02 39.57 38.56 36.70 36.43 40.11 42.55 41.42 40.49 39.74 41.62 45.01 47.90 51.22 53.93 56.79 58.07 58.89 59.72 61.05 62.99 63.24 62.96 62.84 64.15 64.04 64.07 64.00 64.17 64.35 64.00 63.73 63.30 63.35 62.83 60.82 58.77 57.46 57.19 56.09 56.92 54.01 54.61 55.36 54.63 54.13
38.22 36.75 36.52 35.78 39.90 38.34 36.94 37.00 39.78 41.29 40.10 40.02 38.86 39.31 42.41 45.54 48.98 51.61 55.39 57.47 58.05 58.98 60.43 62.44 62.23 62.34 62.76 63.27 62.72 62.59 62.48 63.03 63.14 63.78 63.80 63.61 63.27 62.99 62.30 61.54 60.10 59.55 57.78 56.84 56.31 55.77 54.66 54.03 53.78
37.73 36.46 33.38 36.75 39.59 38.21 36.56 37.80 39.28 40.10 40.17 40.99 41.72 40.37 42.16 42.21 42.99 45.62 46.72 49.51 55.57 57.64 59.01 61.01 62.78 62.80 62.76 62.71 63.25 63.01 62.81 62.91 63.24 63.33 63.39 63.51 63.13 62.89 62.26 61.73 61.21 60.57 58.35 56.70 56.41 55.52 54.08 54.08 53.89
36.84 35.41 33.39 35.00 36.70 36.97 34.99 32.85 37.46 40.58 39.95 40.50 40.73 41.51 41.84 42.77 42.83 42.93 44.88 43.79 44.27 46.66 52.47 58.38 60.97 63.24 63.10 62.71 61.22 61.94 62.02 61.55 61.35 61.40 61.95 62.68 63.07 62.84 62.14 61.87 61.23 60.60 59.15 58.22 57.61 56.81 55.37 54.48 54.37
34.25 38.11 38.25 36.10 33.64 30.70 34.28 28.33 33.39 36.40 38.23 39.32 39.98 39.95 40.95 43.12 43.46 43.84 43.56 43.75 44.03 45.56 45.53 47.10 56.14 61.16 63.14 62.70 61.37 61.57 60.60 59.45 60.68 61.34 61.64 62.04 62.45 62.46 62.23 61.59 61.14 60.56 59.59 58.55 57.94 57.71 56.82 55.44 54.32
36.16 39.26 37.66 36.11 34.31 31.33 30.32 28.39 31.33 35.64 35.29 36.56 37.51 39.72 40.74 42.22 44.26 45.28 46.22 47.55 47.68 48.24 45.03 44.46 49.52 56.72 61.17 62.64 62.53 61.60 60.39 59.34 59.77 60.71 61.02 60.87 61.01 61.28 61.41 61.31 61.10 60.53 59.98 59.25 58.53 57.57 56.69 56.44 55.46
39.82 38.30 37.15 35.39 31.79 25.30 29.96 28.81 28.14 32.38 36.51 35.56 37.84 39.78 41.75 42.35 43.64 45.43 47.61 49.83 48.34 45.73 43.80 44.31 51.27 54.61 57.89 61.42 62.25 60.81 59.63 59.26 58.80 58.52 58.37 58.19 58.85 59.15 58.53 59.07 58.70 58.89 58.10 57.57 57.50 56.76 56.68 56.16 55.59
38.23 34.08 24.42 24.31 23.02 23.30 27.18 26.92 31.16 35.22 37.54 38.73 40.46 40.09 40.57 42.40 43.00 44.33 46.62 48.03 48.39 48.30 49.00 50.73 52.44 52.34 54.27 55.81 58.70 59.17 59.02 58.54 57.37 56.58 55.87 55.24 54.29 50.71 50.09 50.64 49.34 49.50 49.57 49.77 50.06 50.62 50.78 50.77 50.76
34.33 32.45 24.60 21.25 20.42 22.91 26.65 26.26 32.42 35.20 37.45 40.18 41.49 40.84 41.24 41.22 42.54 43.12 43.50 44.01 46.14 48.99 49.16 50.40 51.54 51.69 52.63 53.27 53.12 56.07 56.18 54.72 51.62 51.44 49.10 47.94 45.65 45.20 45.53 45.55 45.81 46.04 46.63 46.59 46.49 46.43 46.21 46.57 46.08
33.76 31.23 34.45 26.41 16.75 22.25 24.97 28.37 34.44 34.76 36.52 38.74 39.32 40.06 39.67 40.54 41.18 41.93 42.36 42.51 42.80 43.59 44.97 46.67 46.87 46.18 46.10 46.10 47.53 47.78 47.45 46.42 44.10 43.85 43.94 42.94 43.00 43.41 42.48 42.45 42.37 42.74 43.20 43.66 43.46 43.59 43.45 43.63 43.48
35.37 37.12 29.48 26.89 17.69 17.85 22.76 24.36 29.24 31.49 34.05 37.62 38.23 38.61 39.19 40.05 40.66 41.11 41.36 41.50 41.87 42.33 42.45 43.07 43.61 43.21 43.28 43.38 43.81 43.21 42.37 41.90 41.23 41.01 40.19 40.13 40.36 40.57 40.28 40.21 40.33 40.31 40.47 40.71 40.63 40.30 41.27 40.81 40.71
32.31 29.92 31.12 31.82 27.09 21.84 18.93 25.14 32.66 35.58 35.46 37.01 38.16 39.55 39.83 39.91 40.31 40.44 40.90 41.42 41.60 41.38 41.45 41.24 41.82 41.84 41.31 41.28 40.75 39.99 39.30 39.14 39.04 38.70 38.39 38.64 38.90 38.81 38.60 38.66 38.55 38.46 38.42 38.57 38.23 38.36 38.97 38.38 38.33
32.85 33.01 32.87 27.66 25.09 26.23 24.83 27.48 35.02 34.62 36.68 38.88 39.38 40.28 39.83 40.67 40.87 40.63 40.75 40.51 39.88 39.54 39.45 39.43 39.61 39.94 39.63 39.60 38.94 38.16 38.14 37.51 37.09 36.73 36.95 37.12 36.83 37.10 36.94 36.67 36.52 36.49 36.80 36.61 36.35 36.85 37.29 36.15 36.08

GFSSGP_sfc_wetblb_090.txt.gz
Wetbulb
59.15 55.70 53.56 50.97 43.60 40.53 37.31 41.62 44.39 45.53 47.36 49.55 51.48 53.50 52.09 53.62 52.54 46.81 62.71 66.15 68.35 68.02 69.44 70.55 71.24 71.69 71.67 71.61 71.21 71.09 70.50 70.05 69.36 68.95 69.57 69.27 68.82 68.57 68.29 68.00 68.87 68.21 68.54 68.68 69.11 69.76 70.01 69.30 69.13
57.04 55.23 50.58 45.59 40.08 35.61 36.03 41.79 45.21 47.17 49.62 52.00 52.91 52.60 53.43 52.57 59.04 61.23 63.09 67.52 68.18 68.29 69.09 69.47 70.47 71.61 71.51 71.30 71.20 70.92 70.31 70.37 69.09 68.82 70.26 69.83 68.94 68.19 67.95 67.62 67.51 67.95 67.87 69.03 69.51 68.84 68.79 68.18 67.94
54.81 54.20 46.17 42.75 37.71 35.70 37.93 42.11 46.37 48.45 49.60 48.67 49.43 53.34 54.58 55.45 59.71 61.01 65.51 67.72 67.90 67.47 68.50 68.71 70.17 71.32 71.50 71.21 71.07 70.57 70.04 70.11 69.69 68.60 69.60 70.28 68.93 68.21 67.47 67.68 67.08 67.30 67.93 68.28 68.40 68.07 67.66 67.28 66.97
51.72 48.72 45.14 39.20 37.22 39.50 42.33 45.41 46.48 47.17 47.08 51.23 51.51 50.58 55.94 59.58 61.02 64.11 66.51 66.85 66.33 66.57 67.62 69.03 70.36 71.38 70.95 70.88 70.97 70.45 69.72 69.89 69.29 68.23 68.71 68.89 67.92 66.98 67.17 67.80 66.67 67.80 67.87 67.71 67.74 67.17 66.52 66.24 66.02
48.51 45.47 39.86 37.51 37.59 40.42 42.96 46.63 46.46 45.82 45.49 47.07 50.53 50.50 53.31 60.75 63.93 64.26 65.00 66.20 65.30 65.76 66.97 68.52 70.09 70.90 70.86 70.82 71.05 70.32 69.55 69.30 68.91 67.93 67.54 67.89 67.83 67.20 66.84 67.60 67.75 68.16 67.16 66.96 66.97 66.34 65.84 65.31 64.87
45.57 44.40 37.36 35.27 36.92 42.80 44.51 46.96 46.62 44.23 45.71 50.47 52.01 52.07 52.47 61.33 61.46 62.99 64.68 64.91 66.22 66.18 66.77 67.40 66.62 68.61 69.74 70.30 70.04 69.49 69.26 69.03 69.08 68.35 67.11 67.16 67.26 67.92 67.16 67.34 67.43 67.89 67.02 66.56 66.42 65.94 65.27 64.67 64.33
44.03 41.06 37.42 37.10 37.24 40.12 45.44 47.13 45.40 45.16 44.78 46.87 54.24 50.17 54.48 60.76 61.77 63.12 64.39 65.46 66.24 66.57 65.72 65.42 66.48 66.82 66.77 67.94 67.86 68.34 68.43 68.20 68.52 68.47 67.91 67.14 67.39 67.72 68.27 67.91 67.72 67.74 67.05 66.41 65.97 65.48 64.75 64.12 63.62
46.79 43.12 38.28 37.30 38.89 39.70 43.93 45.66 44.25 45.62 44.25 50.99 55.60 50.65 54.77 60.15 62.95 63.42 64.30 65.21 65.04 65.04 64.50 63.79 64.45 65.47 65.76 66.39 64.76 65.59 66.57 66.99 66.94 66.28 64.77 64.02 64.44 64.99 65.84 65.35 66.94 67.01 66.80 66.23 65.81 65.21 64.25 63.47 62.85
46.68 39.97 37.33 40.53 39.77 41.69 44.72 43.67 44.66 46.84 48.00 50.38 52.60 54.48 57.63 61.29 64.37 63.54 62.72 62.42 63.23 63.47 62.83 62.90 63.35 63.75 64.29 64.70 62.68 63.14 64.10 64.30 63.77 63.11 61.69 60.52 60.30 60.74 61.51 63.46 65.51 65.86 65.86 65.61 65.21 64.52 63.11 61.88 61.12
43.30 39.53 41.61 44.98 42.99 43.43 44.41 44.73 45.59 45.84 45.38 50.81 52.30 55.84 61.19 60.60 62.97 62.17 61.25 60.68 60.47 60.69 61.11 61.96 62.01 62.79 63.62 65.61 63.28 62.51 62.40 61.92 61.40 60.65 60.06 60.23 60.06 59.81 60.05 59.76 62.40 63.43 63.45 64.08 63.67 62.91 62.16 60.01 58.32
43.39 41.67 44.66 44.70 45.12 45.88 44.99 43.60 44.12 45.55 42.31 51.03 53.02 56.84 59.36 59.31 60.62 61.66 61.60 61.67 61.04 60.95 61.18 61.41 61.73 62.69 62.74 63.35 62.85 61.93 61.24 60.75 60.35 59.98 59.90 59.31 59.26 58.60 58.02 57.38 57.40 57.31 57.85 58.48 58.10 57.17 57.30 57.41 56.46
40.68 43.78 44.59 46.04 45.84 45.82 44.63 45.40 43.21 43.34 44.49 51.86 57.18 59.01 59.15 58.63 57.89 60.74 61.40 61.73 61.60 61.53 61.44 61.49 61.74 62.28 61.99 62.75 62.59 62.34 61.67 61.02 60.21 59.06 59.87 58.11 57.91 57.48 57.36 56.98 57.10 56.52 57.24 57.22 56.98 56.52 56.85 56.05 56.34
43.27 42.79 45.10 45.28 45.18 45.37 45.28 43.44 43.23 43.50 43.66 56.72 57.29 58.07 58.35 58.95 57.83 59.21 61.83 62.23 62.26 61.97 62.51 62.67 62.28 62.12 61.75 61.86 61.95 61.83 61.67 61.70 61.32 60.47 59.57 58.53 56.95 56.98 58.16 57.58 57.44 57.14 56.74 56.92 56.09 55.67 55.72 55.44 55.76
45.19 43.71 44.22 44.97 44.45 44.24 43.70 41.47 43.06 42.77 48.26 55.48 56.64 56.35 57.40 58.34 58.36 58.08 59.29 60.87 61.75 62.38 62.51 62.66 62.66 63.47 62.97 61.21 61.27 61.82 61.57 61.99 61.45 60.63 59.71 59.16 58.41 57.73 57.90 57.40 57.70 57.22 57.08 56.54 56.30 55.35 54.95 54.92 54.94
45.07 40.77 41.24 42.40 43.35 43.09 43.55 39.46 40.87 43.60 50.81 54.47 54.83 54.87 56.32 57.21 57.48 58.55 59.47 60.58 61.88 62.55 63.18 62.66 62.60 63.30 63.84 63.27 62.34 63.51 62.99 63.22 61.27 60.93 60.37 59.68 58.95 58.14 58.00 57.36 57.00 57.05 57.05 56.08 54.83 54.64 54.37 53.79 54.05
41.70 39.81 36.01 40.95 42.73 41.77 41.87 37.30 41.82 42.87 48.22 49.68 51.71 51.92 54.48 55.71 57.29 57.88 58.56 59.43 61.62 62.33 62.53 63.14 63.60 62.94 63.17 63.93 63.84 63.61 63.25 62.35 62.84 62.31 60.94 60.14 59.73 58.58 57.08 56.92 57.10 57.17 56.54 55.77 54.72 53.97 53.48 53.04 52.63
39.03 32.03 34.07 37.05 41.87 40.00 38.65 36.42 41.24 42.00 43.61 45.39 45.94 47.73 50.79 52.93 54.07 56.13 58.24 58.96 60.57 61.92 62.66 62.93 63.04 62.65 62.84 62.66 64.09 63.69 63.27 62.69 61.84 61.60 62.58 62.11 61.34 59.60 57.65 56.44 56.28 56.16 56.04 55.35 54.62 53.88 52.85 52.71 54.19
33.86 33.72 34.72 34.91 39.50 38.22 35.92 37.34 38.23 40.89 40.98 40.84 41.33 42.05 44.10 48.98 53.82 55.80 55.92 57.47 59.36 60.68 62.93 63.36 63.17 63.08 62.11 62.26 63.67 63.77 63.53 63.54 63.80 63.19 63.10 62.49 62.44 62.02 60.11 58.43 57.03 56.47 55.57 56.79 54.87 55.01 54.92 54.89 54.21
38.25 36.64 36.07 36.49 39.38 37.37 37.41 37.40 38.41 40.61 38.00 37.75 38.71 39.81 40.77 45.07 50.41 52.08 54.96 56.13 57.16 58.88 61.37 62.55 62.48 62.24 62.30 61.05 62.36 62.36 62.27 62.95 63.13 63.52 63.44 63.32 63.10 63.01 62.08 60.84 59.75 58.72 57.95 55.90 55.82 55.92 54.46 54.18 54.36
37.45 36.47 34.43 35.43 38.64 37.90 35.78 36.61 37.71 37.82 38.99 39.40 40.12 38.81 40.30 43.42 44.40 48.30 52.27 54.71 56.24 57.99 60.52 61.80 62.28 62.24 62.57 62.23 61.23 62.94 62.74 62.84 63.03 63.28 63.11 63.34 62.99 62.77 62.05 61.57 61.16 60.47 59.06 57.89 56.60 55.75 54.87 52.86 54.22
36.97 34.36 33.18 34.04 35.72 36.03 35.44 34.69 35.08 38.83 38.09 39.41 40.64 39.99 39.44 42.79 42.94 43.76 46.06 49.91 51.99 55.73 57.56 60.89 61.88 62.12 62.36 62.07 60.53 61.94 61.81 61.57 61.41 61.36 61.82 62.51 62.91 62.67 62.03 61.74 61.21 60.69 59.77 58.79 58.47 57.17 55.50 54.57 54.95
33.78 38.00 37.29 35.44 33.50 30.34 33.02 27.53 32.81 36.55 37.47 38.12 39.63 40.20 40.16 40.25 40.39 41.06 42.69 42.15 42.81 44.64 45.68 53.19 59.99 61.83 62.13 61.98 61.10 59.65 59.58 59.43 60.64 61.24 61.79 62.07 62.34 62.30 62.10 61.53 60.95 60.54 59.74 58.73 58.03 57.55 56.81 55.38 53.89
36.38 38.92 37.41 35.24 31.98 31.48 28.68 27.56 30.49 32.16 34.65 36.82 39.07 38.92 39.39 40.41 41.70 42.25 43.09 44.80 46.43 46.96 45.35 45.02 53.33 61.57 61.95 61.76 61.64 61.63 60.60 59.38 60.37 60.76 60.66 60.87 60.76 61.29 61.18 61.26 60.91 59.95 59.20 58.63 58.35 57.61 56.93 56.26 55.01
39.47 37.49 35.29 34.32 31.80 25.66 29.47 28.68 28.67 30.72 34.85 37.14 36.64 38.73 39.69 40.32 42.32 43.75 46.13 48.01 46.92 44.84 43.82 43.68 49.40 57.04 61.58 61.71 62.28 61.79 60.37 58.95 58.93 58.79 58.49 58.62 57.61 54.64 54.99 53.97 54.44 53.21 52.22 51.21 51.62 53.32 51.32 51.40 53.01
38.67 35.15 25.50 25.12 24.44 25.37 26.05 25.53 31.89 33.68 35.52 37.78 39.49 39.23 40.17 41.79 42.44 44.58 46.59 46.98 46.30 45.55 45.90 45.65 51.73 53.01 59.33 60.68 61.26 59.99 59.56 59.28 58.44 57.43 56.38 55.14 50.69 48.84 48.33 48.61 46.67 46.41 46.30 46.22 46.43 46.11 45.80 45.69 45.17
34.96 34.45 24.99 20.87 20.73 21.75 26.53 24.98 31.67 34.38 36.76 37.79 39.44 40.44 40.73 40.97 42.38 44.63 46.44 46.42 46.67 47.39 47.97 49.64 50.69 51.01 52.95 55.44 57.38 57.55 56.72 55.45 53.62 51.46 49.36 47.33 46.43 45.30 44.01 43.14 43.06 43.27 43.35 42.83 43.14 42.79 42.80 42.26 41.87
34.02 32.64 33.36 25.91 16.64 21.95 24.42 27.97 34.19 33.98 34.86 36.34 37.95 40.17 39.71 40.40 41.79 42.67 43.21 44.65 46.20 46.71 47.50 48.02 48.02 46.59 47.30 48.25 49.24 49.40 48.68 48.02 46.38 44.98 44.41 43.50 41.13 41.02 40.46 40.38 39.83 39.94 40.22 40.52 40.37 39.88 39.77 39.12 38.79
35.54 37.30 29.76 27.78 19.60 17.71 21.85 23.14 28.38 31.06 34.40 36.21 37.10 38.99 38.91 40.16 40.83 40.98 41.20 41.86 42.40 43.11 43.25 43.39 43.80 43.55 42.88 43.56 44.31 43.99 43.97 43.36 41.43 40.52 39.36 38.81 38.75 38.75 38.29 38.04 37.96 37.70 37.65 37.58 37.82 37.60 37.91 36.50 36.35
32.50 31.01 31.13 31.83 27.67 21.57 17.94 24.17 31.93 35.08 36.65 37.36 38.59 38.76 39.05 39.33 39.75 40.04 39.96 40.56 40.80 40.76 41.02 40.58 41.01 40.83 40.53 40.97 40.66 40.08 38.87 38.48 38.39 38.15 37.29 37.06 36.90 36.87 36.62 36.46 35.97 35.84 35.25 35.24 35.31 35.90 35.47 33.98 34.11
33.05 33.10 33.08 28.84 25.13 24.88 24.45 26.56 32.49 33.21 35.03 37.77 37.58 39.19 39.07 39.82 39.55 39.39 39.56 39.55 39.49 39.53 39.45 39.06 38.47 38.51 38.45 38.73 38.14 37.31 36.94 36.71 36.43 35.59 35.68 35.66 35.04 35.16 34.81 34.39 33.87 33.94 33.96 33.43 33.74 34.34 33.03 32.37 32.19

GFSSGP_sfc_wetblb_093.txt.gz
Wetbulb
58.33 53.92 52.47 50.71 42.73 40.20 36.62 40.94 44.64 44.33 44.51 48.70 52.43 52.10 50.86 52.86 50.30 44.67 62.14 65.53 67.80 67.65 69.32 70.30 71.39 71.79 71.42 70.89 70.92 70.44 70.09 69.23 69.50 69.21 68.91 68.52 68.72 68.23 67.85 67.66 68.45 68.86 68.56 69.77 69.79 69.54 68.91 68.25 68.52
54.90 53.32 49.93 44.40 39.53 35.56 36.14 39.58 43.64 45.20 49.75 53.98 52.19 52.53 52.86 51.41 58.35 60.94 61.98 67.27 67.64 68.17 68.95 69.24 70.62 71.73 71.29 71.21 70.72 70.28 70.19 69.82 69.86 70.33 69.30 68.46 68.06 67.44 67.34 67.19 67.79 68.80 69.72 68.92 68.94 68.85 68.19 67.51 67.61
53.81 51.65 45.74 41.53 36.39 35.17 36.07 41.63 44.89 46.12 50.56 47.94 51.02 53.79 53.76 54.30 59.17 61.00 64.87 67.27 67.44 67.59 68.22 68.84 70.38 71.46 71.29 71.12 70.31 70.19 70.05 69.91 69.68 70.72 69.68 68.47 67.60 67.65 67.04 67.44 67.71 68.02 68.52 68.07 67.66 67.66 67.34 66.28 66.74
50.90 48.28 44.50 38.89 35.68 38.74 40.67 44.34 46.18 45.37 46.24 51.59 52.42 51.07 54.82 59.00 60.21 63.95 66.85 66.73 66.39 66.48 67.74 68.94 70.55 71.45 71.09 70.91 70.18 69.83 69.77 69.50 69.15 69.30 68.55 67.58 67.14 67.58 67.99 66.96 67.69 67.82 67.73 67.67 67.03 66.77 66.17 65.54 65.58
47.65 44.75 38.92 35.81 36.49 39.04 41.00 45.90 45.07 44.43 45.08 47.14 50.52 50.08 51.96 59.89 64.45 65.62 65.52 65.88 65.24 65.57 66.87 68.20 69.94 70.55 70.76 70.90 70.22 69.88 69.86 69.15 68.20 68.40 68.26 67.33 66.78 67.30 67.64 68.14 67.52 67.12 67.03 66.83 66.14 65.73 65.19 64.95 64.86
44.70 43.36 36.53 34.83 35.88 41.48 43.18 45.17 45.14 42.98 46.57 49.84 51.86 51.06 52.02 60.54 62.59 63.82 65.10 64.48 65.41 65.61 66.40 67.59 67.04 68.52 69.66 70.02 69.62 69.27 69.57 69.19 67.97 67.32 67.48 67.43 67.17 67.36 67.30 67.67 67.52 66.72 66.26 66.11 65.67 65.00 64.62 64.44 64.18
42.96 40.37 36.57 35.74 35.61 39.74 43.92 45.36 42.76 45.11 47.78 47.63 53.81 49.74 56.16 57.45 61.30 63.68 64.02 64.46 64.96 65.54 65.07 65.62 66.98 67.07 66.58 67.34 67.56 67.99 68.52 68.55 68.21 67.63 67.36 67.28 67.94 68.06 67.83 67.83 67.91 66.76 66.17 65.68 65.34 64.71 64.30 63.93 63.60
44.59 41.74 36.80 36.38 37.09 39.69 43.32 44.77 44.69 45.96 42.42 52.81 54.80 50.32 54.86 58.43 61.73 63.52 64.01 63.63 63.73 63.38 63.56 63.98 65.08 66.24 65.89 65.41 64.49 65.19 66.43 66.94 66.82 65.86 64.76 63.95 65.10 65.96 65.84 65.07 66.98 66.81 66.19 65.64 65.09 64.46 63.94 63.42 62.98
44.66 38.75 36.27 38.29 38.15 39.55 43.18 42.13 44.74 46.41 47.23 49.15 52.03 54.00 57.47 60.78 62.46 62.40 62.55 62.84 63.11 62.52 61.86 62.40 63.47 64.33 64.53 63.98 61.95 62.83 63.75 64.04 63.54 62.48 61.19 59.97 59.96 61.21 62.86 63.47 65.40 66.09 65.76 65.22 64.59 63.74 62.63 61.70 60.67
42.32 37.99 39.87 42.77 41.41 41.90 43.69 43.70 45.17 46.02 48.45 47.62 50.04 54.23 60.01 61.16 60.99 60.19 60.08 59.62 60.79 60.06 60.59 61.39 61.76 62.86 63.73 64.50 62.31 62.07 61.76 61.03 60.73 60.11 59.08 59.57 59.04 58.99 59.99 60.48 62.03 63.23 63.43 64.10 63.72 62.76 61.19 58.99 57.00
41.74 39.64 43.12 43.49 43.84 44.69 44.37 43.17 45.17 45.41 43.58 49.87 50.68 56.14 59.11 60.35 60.20 59.97 60.13 60.20 60.12 60.23 60.57 60.75 61.05 61.75 62.72 62.64 61.45 60.88 60.20 59.46 59.35 58.82 58.91 58.84 58.50 57.56 57.05 56.70 56.86 56.56 57.40 57.37 57.05 56.46 56.65 56.26 55.85
39.51 42.63 43.21 44.86 45.39 44.61 43.25 44.44 44.79 44.74 45.09 50.38 54.55 59.09 59.12 59.90 59.94 59.99 60.03 60.25 59.60 59.52 59.62 60.45 60.91 61.32 61.19 62.38 61.48 60.62 59.85 59.02 58.52 58.71 59.07 57.77 57.23 56.32 55.95 55.91 55.66 55.78 56.60 56.21 55.83 55.58 55.98 55.39 55.41
42.76 42.49 43.75 43.49 44.27 43.37 44.71 42.86 44.03 43.41 43.67 54.50 57.02 59.18 58.42 59.55 60.11 60.93 61.33 61.27 60.65 59.57 59.70 60.36 60.60 60.79 60.83 61.04 60.73 60.52 60.05 60.00 59.34 58.60 58.93 57.96 57.09 56.62 56.68 56.31 56.24 55.92 55.84 56.13 55.61 54.96 54.89 54.81 54.96
44.17 43.95 43.40 42.97 42.83 43.20 43.48 41.49 43.09 42.61 51.17 54.13 56.70 57.52 58.21 58.27 58.39 58.98 60.55 60.68 60.70 60.87 60.63 60.88 61.04 61.51 61.19 60.57 60.17 60.76 60.76 60.97 60.40 59.47 58.59 58.07 56.82 56.59 57.22 56.70 56.73 56.34 56.14 55.83 55.37 54.80 54.35 54.21 54.05
44.04 40.60 41.21 41.07 41.59 42.08 43.38 38.85 40.62 42.01 53.41 53.47 54.23 56.13 57.15 57.86 57.21 58.69 60.87 60.84 61.48 61.70 61.90 61.09 61.05 61.67 61.21 60.39 60.84 60.79 60.71 61.57 60.71 60.12 59.12 58.40 58.15 57.27 57.04 56.44 56.22 56.32 56.11 55.31 54.43 53.89 53.62 53.27 53.47
40.27 40.27 35.87 39.77 40.87 40.79 41.07 37.21 41.70 44.48 52.53 52.21 52.51 52.61 54.35 55.45 56.77 57.72 59.85 61.26 61.86 61.91 61.47 62.03 62.18 61.40 61.61 61.40 61.51 62.01 61.54 61.59 60.83 60.51 59.80 59.11 58.73 58.02 56.69 56.26 56.15 56.25 55.69 55.31 54.26 53.47 53.34 52.74 51.96
39.78 33.58 33.32 37.73 40.40 39.04 38.77 38.09 41.73 42.31 51.17 51.21 52.09 52.57 53.85 54.90 54.92 56.27 58.04 59.85 61.45 61.87 61.95 61.67 61.64 61.73 61.49 61.29 63.13 63.56 63.12 62.22 61.71 61.54 61.60 60.98 60.35 58.76 56.78 55.94 55.62 55.58 55.42 54.77 55.39 53.12 52.92 53.02 53.38
35.97 32.64 34.45 35.95 38.87 36.41 36.44 36.84 37.13 40.18 46.19 49.25 50.38 50.15 51.44 53.49 55.64 56.96 56.85 58.43 60.38 61.55 62.07 62.34 62.23 62.38 61.75 61.37 62.32 63.38 63.11 63.07 62.98 62.21 62.37 61.87 61.67 61.02 59.57 58.13 56.74 55.72 55.58 56.53 55.85 53.43 55.41 55.10 53.35
36.18 36.20 35.72 36.95 39.48 37.12 37.21 38.99 39.14 38.61 37.16 40.76 41.84 43.71 47.40 51.06 55.48 55.70 56.28 56.75 57.43 59.87 61.22 62.06 61.88 62.02 61.86 60.05 61.78 62.09 61.95 62.50 62.71 63.14 62.76 62.52 62.54 62.36 61.24 60.40 59.71 58.50 57.61 57.60 56.45 55.74 54.84 53.93 53.62
37.47 34.43 35.30 36.69 38.47 37.18 35.65 37.89 37.82 37.37 38.42 39.97 42.10 40.63 42.88 44.68 46.17 50.02 51.98 53.96 55.13 57.98 60.85 61.77 62.23 62.01 62.41 62.37 60.51 60.92 62.32 62.63 62.90 63.03 63.06 63.10 62.87 62.68 62.09 61.57 60.79 60.20 59.14 58.32 57.28 55.87 55.51 54.35 54.12
37.95 33.95 35.45 36.17 36.51 36.47 33.69 34.85 35.46 37.78 36.45 38.35 39.10 38.56 39.76 42.04 45.36 45.55 48.43 52.27 54.08 55.95 59.30 61.24 62.13 61.98 62.45 61.98 60.08 60.59 61.76 61.52 61.42 61.28 61.68 62.37 62.75 62.51 61.79 61.70 61.09 60.63 60.06 59.15 58.51 57.52 56.02 54.90 55.20
35.20 39.50 37.53 35.63 35.44 31.71 33.67 28.66 32.05 35.88 37.20 37.52 38.45 38.21 38.51 39.16 41.64 43.50 45.76 48.11 51.31 54.54 56.61 60.40 61.63 61.86 62.24 61.49 61.05 58.59 58.25 59.03 60.58 61.20 61.76 61.90 62.27 62.21 62.20 61.78 61.32 60.40 59.85 58.97 58.15 57.52 57.02 55.57 53.76
37.25 38.55 36.84 35.98 33.14 30.09 29.59 26.68 30.27 31.31 36.41 36.72 38.11 38.34 38.83 38.11 40.06 42.29 42.73 44.29 43.66 45.51 48.10 54.93 59.21 60.72 61.45 61.42 61.42 59.98 58.94 59.57 60.33 60.58 60.73 60.92 60.72 60.71 60.58 60.45 59.46 58.25 57.19 56.55 56.39 55.45 53.97 54.07 52.97
39.84 37.27 35.97 35.02 31.96 27.02 30.84 28.94 28.53 29.63 34.31 39.04 39.85 40.29 39.17 39.01 38.98 40.28 41.95 44.89 45.85 45.01 44.04 43.97 53.53 59.96 60.87 61.08 60.94 61.03 60.58 58.74 58.77 59.04 58.99 58.20 54.40 52.51 52.40 52.09 51.31 50.82 50.12 48.81 47.60 47.59 46.69 46.51 49.15
37.79 33.80 26.75 25.64 24.68 25.33 26.01 26.06 36.53 32.34 34.58 36.85 40.82 40.66 38.61 39.56 40.27 41.84 45.03 46.41 45.97 44.58 43.80 43.43 45.62 55.49 61.14 60.88 60.62 61.43 61.03 59.35 59.00 58.66 57.51 53.29 50.26 48.61 47.79 47.91 46.75 44.60 43.96 44.15 44.23 43.51 42.61 42.11 41.23
34.87 33.69 26.67 21.40 22.85 26.07 25.51 24.33 31.09 34.16 34.46 36.66 36.72 36.97 37.60 39.18 40.73 42.76 44.97 46.20 46.36 46.05 45.06 44.16 46.97 50.76 59.71 60.82 61.19 59.03 59.39 58.40 56.59 55.58 52.66 48.75 46.76 45.54 44.70 42.93 41.29 41.02 40.90 40.70 40.64 40.19 39.76 38.24 37.61
35.34 31.88 36.18 26.94 18.15 21.39 24.59 27.99 33.53 32.84 34.19 35.99 36.43 36.65 38.52 39.82 41.07 43.28 45.32 45.69 45.55 45.96 46.12 46.30 48.49 50.70 57.65 58.86 57.76 54.72 53.60 52.13 48.62 46.68 46.20 44.46 43.24 41.90 39.55 38.92 38.13 37.87 38.16 38.41 38.59 37.45 35.92 35.46 35.31
36.62 38.80 29.17 28.34 20.56 16.11 21.66 22.68 30.19 30.89 34.09 34.94 35.81 36.27 38.10 39.66 41.05 42.32 43.44 44.27 44.76 45.43 44.94 45.29 46.20 49.18 49.31 50.11 50.61 49.83 47.43 46.01 44.40 43.68 41.64 40.89 39.29 37.87 37.12 36.51 36.17 35.61 35.63 36.06 36.02 35.02 34.18 32.99 33.15
33.70 32.30 32.34 33.24 28.14 21.91 17.68 24.39 30.83 34.80 36.69 35.83 37.48 37.83 38.51 39.48 40.41 41.02 40.86 41.96 43.00 42.43 42.56 42.77 42.16 43.26 44.12 44.68 42.64 42.00 42.34 41.13 40.99 40.04 38.27 36.80 36.45 35.87 35.21 34.95 34.55 34.01 33.22 33.55 33.79 33.45 32.13 31.21 31.10
36.41 35.19 34.20 30.08 24.97 24.46 24.75 26.02 32.65 32.69 34.17 36.46 36.34 37.50 37.89 39.28 40.03 39.89 40.02 39.90 40.10 40.64 40.49 40.21 39.61 39.59 39.27 40.73 40.68 39.89 39.33 38.02 37.32 35.95 35.23 35.20 34.40 34.21 33.61 33.22 32.70 32.18 31.79 31.72 32.07 31.00 30.94 30.12 29.81

GFSSGP_sfc_wetblb_096.txt.gz
Wetbulb
58.30 54.72 51.24 50.00 42.16 39.30 35.73 40.11 43.28 43.91 43.71 48.91 51.80 50.00 51.26 51.26 50.16 44.57 61.91 65.21 67.06 67.22 69.11 70.11 71.52 71.81 70.51 70.38 70.39 70.32 70.14 69.69 69.19 68.74 69.07 68.41 68.11 67.89 68.15 68.11 67.89 70.21 70.01 69.93 69.47 68.89 68.80 68.35 67.79
55.44 53.88 49.65 44.31 38.39 33.90 35.28 38.96 42.95 45.03 49.44 52.86 51.76 52.36 51.94 50.29 57.33 60.71 61.38 67.03 67.29 68.08 68.85 69.44 70.62 71.36 70.90 70.80 70.53 70.42 70.21 70.09 69.60 68.79 68.17 67.59 67.55 67.31 67.42 67.89 70.42 69.83 69.13 69.22 69.05 68.08 68.09 67.87 67.22
54.64 51.48 46.14 40.68 35.95 35.12 36.03 40.38 43.82 46.99 52.24 46.49 50.70 53.67 52.62 53.76 59.61 60.71 64.21 66.82 67.51 67.13 68.12 68.93 70.47 71.26 71.04 70.59 70.43 70.05 70.25 70.58 69.91 69.03 68.11 67.69 67.19 67.17 67.35 67.13 68.55 68.74 67.89 67.91 67.79 67.23 66.93 66.81 66.79
51.77 49.77 44.05 38.39 35.49 37.94 38.37 42.45 44.47 46.74 45.65 51.42 52.19 51.05 53.91 58.49 60.60 63.34 66.60 66.80 66.13 66.28 67.42 68.96 70.71 71.16 70.97 70.39 70.12 69.78 70.04 69.90 69.26 68.41 67.67 67.81 66.90 66.62 67.43 68.12 68.16 68.09 67.67 67.03 67.14 66.37 66.03 66.26 66.27
47.56 44.56 38.68 35.01 35.01 37.88 38.48 44.23 44.85 43.33 44.31 47.38 49.55 49.72 51.42 59.50 64.25 65.80 65.44 65.92 65.24 65.27 66.60 68.17 70.16 70.56 70.71 70.20 70.04 69.74 69.50 69.13 68.88 67.83 66.80 67.38 66.71 67.22 68.27 67.43 67.28 67.25 66.75 66.27 65.93 65.48 65.26 65.14 65.38
46.06 43.30 36.44 34.05 35.34 39.69 42.20 45.09 44.44 42.80 45.64 49.12 52.05 51.12 51.69 60.99 63.60 64.37 64.76 63.98 65.16 65.08 66.18 67.60 67.00 68.60 69.47 69.62 69.69 69.51 69.08 68.46 68.31 67.80 67.48 66.79 67.36 67.42 68.18 67.18 66.63 66.29 66.27 65.68 65.02 64.75 64.65 64.41 64.07
44.37 40.20 36.07 34.43 35.27 39.28 43.43 44.88 42.18 43.76 47.25 48.12 53.95 50.03 55.64 59.75 63.07 63.60 63.38 63.86 64.83 65.06 65.09 65.92 67.09 67.01 66.27 67.04 67.44 68.08 68.26 67.91 67.84 67.92 67.47 67.92 68.12 67.86 67.66 67.64 66.96 66.09 65.66 65.38 64.77 64.53 64.24 63.87 63.45
43.56 41.08 35.73 36.16 36.45 39.39 42.76 44.01 43.51 45.42 43.18 52.71 53.90 49.12 53.22 58.82 62.82 63.58 63.93 63.91 63.97 63.26 64.55 65.38 65.41 65.92 65.14 64.81 64.24 65.33 66.48 66.83 66.65 65.89 64.75 64.58 65.45 65.78 65.64 64.80 66.80 66.31 65.69 65.06 64.56 64.05 63.57 63.25 62.69
43.64 38.59 35.53 38.00 36.97 39.97 42.01 41.76 42.19 45.38 50.36 50.12 52.59 52.86 54.91 60.34 63.18 62.00 61.16 61.16 61.65 62.78 63.81 64.86 65.03 64.18 63.95 63.42 61.64 62.98 63.94 63.95 63.15 62.34 60.79 60.14 60.72 61.79 62.37 63.43 65.39 65.92 65.45 64.86 64.19 63.35 62.75 60.99 60.56
41.68 37.70 39.53 42.70 40.31 40.53 42.66 42.80 43.77 45.14 47.52 48.93 48.94 55.25 59.16 60.88 61.60 59.33 58.59 58.31 59.60 60.02 62.56 64.08 64.78 63.22 62.86 63.90 61.53 61.30 61.23 60.54 59.86 58.86 58.52 58.84 58.27 58.78 60.82 59.99 61.20 62.46 62.84 63.77 63.52 62.36 60.27 58.09 55.96
41.52 40.03 42.20 43.27 42.25 43.31 42.80 41.07 44.47 45.42 43.97 48.90 49.96 55.09 58.09 59.58 59.51 58.47 57.44 58.11 58.75 59.49 60.37 62.36 63.69 63.91 61.62 61.23 60.12 59.56 59.03 58.59 58.38 57.77 58.19 58.16 57.59 56.67 56.37 56.43 56.14 55.80 56.79 56.30 56.39 55.87 56.07 55.30 55.00
41.22 43.28 43.11 44.61 43.61 43.19 42.01 43.35 43.11 45.49 45.44 48.71 52.66 57.82 58.32 58.63 58.63 58.16 57.10 57.77 58.10 58.78 59.21 59.98 61.89 63.14 60.95 60.50 59.59 59.03 58.35 57.78 57.29 57.57 58.03 57.30 56.39 55.49 55.04 54.90 54.61 55.21 55.89 55.50 55.12 54.95 54.86 54.57 54.55
42.77 42.83 43.13 43.88 42.71 42.15 43.31 41.32 42.21 43.76 44.76 52.19 56.47 58.42 58.18 58.44 58.78 59.28 59.40 58.89 58.47 58.32 58.40 59.02 59.92 60.76 60.70 60.04 59.65 59.01 58.14 57.73 57.83 57.72 58.12 57.37 56.54 55.49 55.34 55.22 55.48 55.15 55.19 55.31 54.89 54.28 54.25 54.01 54.28
44.17 44.35 42.95 43.31 42.14 41.99 41.96 38.97 41.53 42.60 52.27 54.18 56.78 56.98 58.22 58.55 59.05 58.89 59.38 58.89 58.54 58.60 58.19 58.97 59.50 60.83 60.75 60.32 59.47 59.42 59.06 59.00 58.40 57.80 57.95 57.32 56.89 55.83 56.22 55.87 55.88 55.70 55.52 55.20 54.65 54.24 53.72 53.51 53.22
46.09 43.33 43.69 42.67 42.01 41.16 41.02 37.71 39.98 41.22 52.08 53.24 54.50 56.03 56.98 58.17 58.17 59.38 60.23 59.95 60.03 59.42 59.24 59.03 59.68 60.34 60.14 60.36 59.90 59.79 59.81 60.48 59.62 58.99 58.29 57.66 56.82 55.79 55.86 55.69 55.48 55.65 55.50 54.78 54.01 53.58 53.19 52.86 52.93
45.76 43.75 38.41 41.73 41.76 40.90 40.22 36.82 40.61 44.92 51.19 51.62 52.08 53.52 55.55 56.22 57.10 58.94 60.58 60.82 60.92 60.64 60.28 60.07 61.25 60.54 60.22 59.77 60.03 60.18 60.01 60.14 60.14 59.94 59.06 58.15 57.97 57.23 55.96 55.45 55.28 55.56 55.05 54.69 53.91 53.10 52.98 52.42 52.07
41.00 39.30 37.21 41.09 41.79 39.39 37.96 37.27 40.52 45.03 49.90 49.48 50.83 51.09 53.70 55.14 54.96 56.59 59.13 60.82 61.10 61.25 60.99 60.31 60.36 60.36 60.61 60.18 60.51 61.07 60.85 61.10 61.75 61.76 60.23 59.29 59.70 58.76 57.45 55.87 55.37 55.19 54.77 54.96 56.11 54.89 52.07 54.07 54.52
37.02 38.04 34.78 39.33 40.32 37.91 34.97 37.07 38.12 39.49 48.79 49.51 50.52 50.55 51.88 53.71 55.77 56.82 57.85 60.22 61.26 61.37 61.24 61.28 60.98 60.73 60.53 60.00 60.65 61.57 61.28 62.43 62.35 61.93 61.89 61.49 61.03 60.36 59.12 58.25 57.13 56.15 56.14 56.51 56.33 55.15 55.68 55.34 55.17
42.86 40.41 39.48 36.45 39.97 37.60 36.59 38.15 40.86 38.78 37.98 45.48 48.62 50.36 51.42 53.18 55.67 56.53 56.75 57.90 59.03 60.25 60.52 61.04 60.74 60.82 60.76 59.17 60.71 61.59 61.61 62.25 62.31 62.27 62.23 61.90 61.59 61.11 60.33 60.08 59.73 58.66 57.43 57.47 57.16 56.02 55.22 52.72 55.06
39.24 38.20 38.25 37.69 38.66 36.94 36.52 36.78 39.42 36.95 38.54 43.31 47.26 47.64 49.53 49.58 49.79 53.20 54.27 54.85 56.44 59.02 60.27 60.86 61.22 61.26 61.57 61.78 60.82 61.82 62.31 62.41 62.91 62.90 62.47 62.61 62.35 62.29 61.90 61.45 60.64 60.04 59.26 58.67 57.78 56.68 55.86 54.63 54.95
37.77 37.55 37.67 35.45 36.69 36.49 34.67 35.82 35.20 36.94 36.28 37.99 38.90 41.95 45.25 48.82 48.93 49.57 50.48 53.07 55.22 56.49 58.59 60.38 61.36 61.49 62.05 62.26 59.81 60.67 61.53 61.60 61.23 61.24 61.67 62.35 62.56 62.37 61.83 61.75 61.23 60.56 60.17 59.61 58.75 57.85 56.29 54.83 55.02
36.04 40.52 38.38 35.38 34.67 32.49 33.95 30.56 34.68 35.58 37.43 36.41 39.10 37.67 39.77 39.44 41.67 45.90 46.91 49.47 52.64 55.09 57.18 59.81 61.15 61.61 62.02 61.93 61.32 60.48 60.27 59.19 59.34 61.07 61.81 61.84 62.15 62.12 62.13 61.76 61.22 60.43 59.71 58.74 57.58 57.36 56.71 55.47 52.21
38.97 39.86 37.22 36.01 32.86 31.01 33.64 26.60 32.14 30.16 34.60 37.03 37.91 37.95 39.41 39.50 39.91 41.63 43.92 48.47 50.01 52.65 55.70 58.83 60.40 61.22 61.60 61.33 61.80 60.32 58.16 57.83 59.54 60.40 60.62 60.81 59.80 59.98 59.97 59.92 58.99 57.18 56.28 55.02 54.93 53.14 51.03 49.52 51.34
40.54 38.31 37.08 35.95 33.71 26.88 31.72 28.72 30.76 33.89 32.97 37.06 39.84 40.44 40.54 38.71 38.04 37.55 39.86 42.64 44.50 45.93 48.75 54.42 58.09 59.75 60.59 60.83 61.23 60.42 59.19 58.97 58.83 58.90 58.95 57.47 54.56 53.03 53.12 52.41 51.68 50.89 50.07 49.42 47.34 45.51 44.68 44.83 43.64
38.26 35.97 28.06 27.05 26.20 25.77 29.04 27.09 34.25 35.51 34.82 38.72 41.90 41.77 40.34 39.24 37.48 37.64 39.67 41.76 43.84 43.87 44.11 45.63 53.84 58.71 60.13 60.39 60.41 60.30 60.11 59.94 59.30 58.71 57.94 53.69 51.06 49.60 48.89 48.60 47.07 45.67 44.58 43.50 42.61 41.21 39.83 39.10 38.32
35.97 36.42 29.11 22.62 22.15 23.94 26.40 26.33 33.75 35.60 35.72 36.02 36.22 36.30 36.23 36.75 38.01 38.72 41.00 42.82 43.75 44.24 44.16 43.43 43.82 52.88 59.85 60.58 60.50 60.20 60.20 60.16 58.92 58.13 56.60 53.25 49.91 47.04 45.23 43.89 42.78 40.77 40.10 40.01 38.74 37.69 36.76 35.92 35.11
34.68 32.95 35.19 27.03 20.43 23.09 26.78 28.85 33.59 33.26 34.45 35.02 36.09 35.79 36.49 36.74 39.31 41.26 42.43 44.31 44.64 45.03 44.79 43.93 43.45 46.61 55.62 59.79 60.45 60.30 58.94 56.82 54.42 51.86 50.25 47.86 45.31 43.31 41.92 40.49 37.55 37.30 37.68 37.68 35.83 34.54 33.51 33.43 33.06
37.77 39.28 31.34 29.03 20.53 18.28 22.12 23.46 32.22 32.62 34.40 34.87 35.25 36.66 38.13 37.38 38.88 40.49 42.83 43.89 44.36 44.72 44.97 45.11 45.22 46.78 50.52 56.19 58.33 56.23 53.90 50.95 49.51 48.19 44.79 43.52 41.40 40.19 38.70 35.74 35.07 34.92 35.35 35.29 33.75 32.36 31.95 31.34 31.59
34.57 33.97 32.55 32.43 26.97 21.36 17.86 24.34 31.03 36.34 36.62 36.98 38.01 39.25 39.11 37.14 39.19 40.27 41.73 43.15 43.37 43.27 43.58 44.45 45.03 47.97 48.73 49.86 49.52 48.87 47.33 46.73 45.48 43.56 41.70 40.61 39.04 37.71 35.26 34.05 33.26 32.91 32.91 32.90 31.89 30.90 30.45 29.87 29.54
36.66 34.10 33.89 30.35 24.73 24.40 24.20 25.14 31.69 33.25 33.29 35.13 36.27 37.04 36.52 37.68 39.06 39.95 40.36 40.66 40.97 41.54 42.14 43.76 43.50 45.94 46.02 45.32 45.32 44.43 43.66 42.74 40.91 39.74 38.67 37.90 36.42 34.11 33.28 32.69 31.84 31.08 31.06 30.97 30.39 29.99 29.28 28.62 28.87

GFSSGP_sfc_wetblb_099.txt.gz
Wetbulb
58.91 55.03 54.28 52.76 45.82 43.74 41.09 43.73 47.21 47.16 48.05 52.33 53.45 53.67 53.93 54.72 52.82 49.11 63.33 66.30 67.02 68.86 70.36 71.09 71.36 71.01 70.41 70.61 70.37 70.41 70.16 69.55 69.18 68.73 68.61 68.48 68.84 69.57 69.55 70.10 70.98 70.87 69.42 69.12 69.07 68.81 68.36 67.60 67.00
55.23 54.62 53.22 48.15 41.32 38.38 39.75 43.61 45.51 47.90 53.50 54.22 53.85 54.50 54.29 54.64 59.19 61.11 63.33 67.14 68.30 69.30 70.37 70.92 70.44 70.92 70.66 70.51 70.43 70.61 70.68 70.06 68.64 68.18 68.08 67.75 68.61 68.80 69.93 69.91 70.32 69.78 69.36 68.74 68.43 68.48 67.77 67.13 66.41
56.20 52.01 49.77 44.48 39.55 38.62 39.94 43.62 46.91 49.72 53.19 50.73 53.23 55.95 55.86 55.99 60.01 61.88 66.20 67.59 68.74 69.20 70.02 70.43 70.32 71.06 70.83 70.64 70.45 70.80 70.88 70.25 68.83 68.23 67.86 67.77 67.93 67.38 67.64 69.40 69.01 68.55 68.34 67.87 67.54 67.39 67.18 66.83 65.97
52.26 51.23 46.97 41.77 40.15 42.91 42.66 45.99 47.89 50.73 50.49 53.11 54.52 54.08 57.75 60.96 61.54 64.44 67.25 68.24 68.10 68.63 69.68 69.89 70.65 71.07 70.76 70.48 70.42 70.60 70.83 70.01 68.66 68.27 67.99 67.26 66.98 67.70 68.92 68.76 68.40 67.72 67.26 67.09 66.84 66.66 66.81 66.53 65.59
50.09 47.24 41.23 39.50 40.50 42.41 42.45 47.11 49.22 47.55 48.08 51.37 53.03 52.84 55.81 61.99 64.72 66.27 66.94 67.45 66.95 67.79 69.14 70.25 70.14 70.33 70.46 70.11 70.14 70.38 70.20 69.04 67.44 67.68 67.50 66.75 67.57 67.87 67.86 67.73 67.65 66.83 66.59 66.24 66.01 65.74 65.53 65.44 65.13
46.90 45.13 38.79 37.55 39.35 42.61 45.96 47.20 47.40 46.64 48.57 52.23 53.27 54.09 56.27 63.05 63.85 65.50 66.53 66.31 66.90 67.23 68.43 69.77 67.43 68.44 69.25 69.53 69.44 69.53 69.61 69.32 68.40 67.42 67.57 67.65 68.35 68.41 67.23 66.85 66.63 66.63 65.87 65.41 65.11 65.01 64.77 64.46 64.17
45.57 42.63 39.58 38.47 39.21 42.70 46.17 46.50 45.92 47.26 49.41 51.22 55.51 52.90 56.94 61.34 63.88 65.05 65.27 65.97 66.48 67.16 67.71 68.64 69.21 67.76 66.29 67.27 67.49 67.99 68.26 68.36 68.37 68.33 68.05 67.93 67.79 68.38 68.02 67.41 66.39 65.97 65.63 65.12 64.89 64.52 64.15 63.94 63.54
45.40 43.52 39.25 39.15 39.10 41.86 45.25 45.70 46.41 49.08 48.74 54.77 56.12 50.94 54.75 60.52 63.98 64.37 64.75 64.24 64.79 65.96 66.78 67.54 68.12 67.91 67.34 67.39 64.37 65.36 66.43 67.03 66.92 65.96 65.45 64.85 65.27 65.46 65.52 65.03 66.60 65.94 65.30 64.82 64.32 64.06 63.78 63.28 63.02
47.70 40.98 38.44 40.69 40.08 42.83 44.26 44.49 45.79 49.51 52.21 52.54 54.37 54.58 57.56 62.18 63.83 62.69 61.71 61.92 62.84 63.78 65.50 66.73 66.46 66.25 65.97 66.03 63.63 63.64 63.93 63.90 63.27 62.83 61.57 62.32 64.87 65.02 65.29 63.57 65.25 65.60 65.12 64.66 64.00 63.41 62.21 60.43 60.47
44.12 40.66 41.99 44.58 42.65 42.55 43.96 45.09 45.26 48.72 50.01 50.87 52.74 57.34 60.21 62.35 62.26 60.56 59.13 58.36 60.11 61.16 64.02 65.82 65.61 65.08 65.00 64.46 64.41 64.75 63.31 62.87 62.73 62.24 62.35 62.59 62.66 63.38 62.92 60.18 60.08 61.44 62.02 63.22 63.10 61.76 59.76 59.20 60.00
43.72 42.09 45.00 45.07 44.50 44.12 44.16 43.35 46.25 47.42 47.05 49.99 51.16 55.35 58.85 60.42 60.96 58.99 58.46 59.17 59.85 61.04 63.23 64.78 65.08 64.56 64.13 63.31 63.12 62.99 62.52 61.91 61.23 61.27 61.44 61.14 60.40 60.47 61.02 60.85 59.86 60.47 57.83 59.78 59.49 59.63 59.75 59.37 59.08
42.99 43.46 43.62 44.71 43.95 43.56 42.86 44.14 44.78 47.06 47.90 49.80 53.57 57.94 58.73 59.05 59.27 58.63 58.28 58.31 59.15 59.62 61.91 63.82 64.58 64.09 63.29 62.92 62.32 61.79 61.13 60.98 60.56 60.67 61.05 60.73 60.06 59.55 59.19 58.96 59.13 60.22 60.49 60.48 60.23 59.77 58.92 58.79 58.48
43.02 44.01 44.60 44.36 44.06 43.78 43.49 43.15 44.29 45.23 46.65 51.31 56.41 58.37 58.38 58.78 59.16 59.65 59.33 58.84 59.13 60.10 61.41 62.71 63.74 64.06 63.10 62.44 62.07 61.23 60.55 60.28 60.56 60.66 60.92 60.75 60.20 59.42 59.17 59.35 60.01 60.13 60.15 60.14 60.07 59.44 58.78 58.49 58.22
44.63 46.00 45.10 45.44 43.66 44.19 42.22 41.19 43.18 44.57 52.20 53.69 56.59 57.32 58.34 59.00 59.21 59.06 58.79 58.63 58.68 59.46 60.36 61.81 62.77 63.45 63.12 62.52 61.96 61.31 60.69 60.59 60.72 60.78 61.18 60.32 60.44 59.88 60.07 60.03 60.30 60.52 60.39 60.04 59.46 58.89 58.30 57.94 57.43
47.06 45.12 47.39 47.79 43.26 43.20 42.52 40.04 41.29 44.13 52.16 53.08 54.76 56.82 57.63 58.55 59.09 59.32 60.06 59.19 59.38 59.54 59.73 60.05 61.57 62.83 62.77 62.56 62.02 61.57 61.45 60.97 60.85 60.79 60.94 60.18 59.82 59.34 59.70 60.27 60.05 60.35 59.98 59.26 58.91 58.48 58.32 58.46 57.90
45.19 44.42 41.31 47.13 43.70 42.86 42.87 38.22 43.05 45.82 51.07 51.69 53.27 54.82 57.40 57.88 59.01 60.13 60.82 60.79 60.53 60.02 59.31 60.15 61.03 61.35 61.90 62.37 62.24 62.07 61.64 62.05 62.26 62.00 61.55 60.48 60.07 59.54 59.56 59.55 59.70 59.90 59.55 59.34 58.04 57.34 58.28 57.95 57.88
41.11 38.84 38.48 41.94 44.82 42.01 40.49 39.10 42.20 44.99 49.49 49.59 52.01 53.70 55.56 57.01 56.70 58.97 60.81 61.33 61.40 60.85 60.09 59.57 60.78 60.85 61.28 61.48 61.94 62.15 62.17 61.94 62.47 62.80 61.97 61.10 60.06 59.41 59.06 58.83 59.44 59.19 59.08 58.20 57.71 57.46 56.58 57.64 58.90
38.12 38.47 38.63 40.34 43.08 39.06 38.37 38.17 41.02 41.73 48.25 47.89 50.30 52.32 54.18 55.41 56.77 58.28 59.81 61.24 61.77 61.77 61.36 60.66 60.63 61.25 61.39 61.35 61.16 61.94 62.25 62.37 63.31 63.26 62.86 61.62 60.93 60.32 59.76 59.44 58.84 58.11 57.51 57.77 57.97 57.19 57.35 58.11 58.14
42.27 40.92 39.50 38.37 40.89 40.68 38.10 38.55 41.69 40.66 43.42 46.48 48.18 50.54 52.60 54.61 57.48 57.27 58.15 60.06 61.03 61.47 61.34 61.10 60.45 60.97 61.29 60.83 60.56 61.02 61.43 62.57 62.92 62.64 62.69 62.17 61.64 61.03 60.30 60.37 60.06 59.34 58.66 58.75 58.43 57.63 56.76 56.84 58.41
42.16 41.34 40.90 41.00 39.81 39.52 40.92 41.54 41.56 38.55 39.16 42.84 47.30 48.82 50.96 52.29 53.51 55.58 56.53 57.80 59.65 60.97 61.37 61.37 61.24 61.29 61.34 61.90 62.06 62.68 62.93 63.42 63.30 63.18 62.47 62.42 61.97 61.65 61.07 60.99 60.91 60.66 59.82 59.31 58.91 58.13 57.23 56.52 56.77
40.62 40.66 40.15 39.25 37.62 37.91 35.42 35.88 39.61 38.63 37.90 38.65 42.12 47.23 49.51 51.53 52.61 53.65 54.69 55.98 57.84 59.59 60.77 61.28 61.70 61.73 61.93 62.18 61.41 61.53 62.51 62.09 61.89 62.14 62.28 62.39 62.48 62.42 62.11 62.22 62.15 61.53 61.00 61.02 59.85 59.08 57.54 56.01 55.53
37.03 40.84 38.77 37.13 36.16 33.92 36.78 27.51 38.64 39.58 38.13 36.73 40.03 39.40 44.52 48.03 49.55 51.71 52.06 53.87 56.09 57.85 59.82 61.30 61.83 62.03 62.24 62.54 61.63 61.45 61.25 60.19 61.11 61.67 62.77 63.15 62.87 62.60 62.38 62.23 62.10 61.42 60.57 59.47 58.60 58.16 57.68 56.31 53.59
39.96 41.20 38.00 37.02 34.56 34.20 32.89 30.89 35.64 36.93 35.85 37.75 38.88 39.42 41.74 43.70 46.17 48.04 49.59 52.20 54.02 56.40 57.25 59.53 60.93 61.86 62.30 62.41 62.56 61.73 61.61 61.74 61.19 61.23 61.10 61.45 61.35 61.94 61.87 61.63 60.55 59.04 57.84 57.30 55.79 53.90 53.56 54.02 53.14
41.53 38.80 37.59 36.58 35.45 28.52 33.48 32.48 32.33 36.24 37.44 38.59 40.60 41.73 42.10 42.21 41.31 43.58 43.89 45.51 48.73 52.22 55.38 57.61 59.35 60.58 61.85 62.05 62.34 61.82 61.74 60.26 60.09 59.68 59.32 58.76 57.13 56.20 56.29 55.67 54.94 53.59 52.60 51.75 49.98 49.46 49.43 48.36 47.47
39.81 37.38 29.16 26.96 26.59 26.89 29.14 29.49 36.96 39.61 37.02 39.54 41.67 41.32 42.74 42.73 41.12 40.40 39.73 40.78 43.50 47.14 52.00 55.13 57.76 58.88 60.79 61.26 61.59 61.78 61.82 61.08 60.87 60.28 59.02 56.28 53.83 52.41 51.84 51.06 49.56 48.58 47.74 46.55 46.02 44.53 43.44 42.91 41.90
37.28 37.11 30.29 24.78 23.01 24.90 26.50 28.11 33.33 39.92 45.92 45.08 39.45 39.44 39.53 39.92 39.71 40.37 41.37 41.92 42.42 44.63 47.63 51.38 55.29 57.66 59.89 60.81 61.11 61.59 61.69 61.12 61.08 60.18 58.18 56.78 55.21 52.05 48.92 46.27 45.37 44.45 43.49 42.68 41.36 40.82 40.01 39.13 38.74
35.32 34.16 35.47 28.33 18.32 21.35 25.30 29.56 34.96 34.92 35.41 35.47 35.77 37.29 38.97 39.14 39.41 40.99 41.72 41.63 42.85 44.31 46.01 47.39 50.38 56.51 59.11 60.22 60.76 60.78 60.99 61.03 59.40 58.89 57.25 53.69 49.50 46.38 44.45 43.10 41.71 41.28 40.62 39.36 38.52 38.05 36.96 36.92 36.73
37.88 38.56 31.40 30.91 24.82 19.66 24.15 24.63 32.07 32.36 34.90 36.15 35.92 37.53 39.47 39.25 38.63 39.43 40.64 41.68 43.55 44.81 44.79 44.70 44.92 48.55 54.83 59.12 59.83 59.81 60.06 58.87 57.10 54.40 51.10 48.70 44.79 42.85 40.99 39.92 39.42 39.14 38.03 36.83 36.37 35.67 35.40 35.21 34.97
35.65 34.78 34.65 33.04 27.51 23.18 18.86 26.48 31.81 37.56 38.61 37.11 38.84 38.51 39.75 40.05 38.62 39.16 41.22 43.33 44.49 45.01 45.01 45.22 45.02 45.44 47.20 53.36 57.54 55.81 54.14 53.75 52.16 50.98 48.05 45.38 42.53 40.39 38.57 37.78 37.50 36.83 35.89 34.93 34.48 34.19 33.62 32.90 33.09
36.86 35.78 34.23 28.94 25.56 24.80 24.25 25.19 33.53 32.79 34.87 35.38 36.80 37.20 38.60 39.14 38.94 39.46 41.30 42.56 43.15 43.83 44.08 44.61 45.04 46.41 47.47 50.86 51.78 50.76 50.24 48.77 47.78 45.76 44.05 42.25 40.04 38.31 36.54 35.71 35.52 34.57 34.24 33.45 33.15 32.56 32.21 32.21 31.95

GFSSGP_sfc_wetblb_102.txt.gz
Wetbulb
61.43 59.51 60.70 59.55 51.10 50.64 47.47 47.97 52.13 51.13 52.35 54.96 57.60 57.43 56.97 58.64 55.63 52.56 66.78 68.02 69.32 70.04 71.00 71.37 71.08 70.97 70.09 70.30 70.37 70.38 70.26 70.37 69.53 69.24 69.28 68.99 69.82 70.69 70.57 70.92 70.57 70.02 69.04 69.20 68.68 68.19 67.44 66.39 65.74
58.79 58.00 60.19 57.34 48.80 45.48 47.87 50.52 49.93 52.76 56.24 58.19 58.44 58.48 57.81 57.07 60.66 62.26 64.96 67.92 69.40 69.95 71.18 71.10 69.99 70.74 70.20 70.42 70.65 70.40 70.05 69.95 68.95 68.39 68.70 68.88 70.13 70.59 70.01 69.86 69.79 68.90 68.42 68.50 68.15 67.81 66.78 65.95 65.40
58.29 56.21 55.48 52.65 49.12 46.31 46.91 50.08 52.93 55.57 56.06 56.36 56.61 59.55 58.86 58.23 61.21 63.34 67.36 68.82 69.84 70.08 70.81 70.66 70.12 70.75 70.16 70.43 70.39 70.62 70.03 69.44 68.71 68.24 68.39 67.88 69.29 69.44 69.84 69.29 68.77 68.34 67.68 67.62 67.54 67.31 66.62 65.86 65.18
57.15 57.02 53.78 48.52 45.44 47.49 47.88 51.16 53.82 55.06 53.99 56.12 57.82 56.12 60.94 63.69 62.53 65.62 68.05 69.30 69.25 69.21 70.01 69.92 70.61 70.84 70.36 70.63 70.83 70.77 70.19 68.87 69.11 68.24 68.24 67.98 68.27 68.36 69.52 68.29 67.76 67.54 67.10 66.96 67.02 66.95 66.31 65.50 64.89
57.42 55.17 48.85 46.60 45.68 47.62 48.82 50.81 54.89 53.98 53.68 56.07 57.37 55.56 57.99 63.24 66.31 66.59 67.67 67.96 67.82 68.83 69.63 70.63 70.15 70.36 70.45 70.67 70.90 70.55 69.70 69.15 68.91 68.62 67.70 67.50 68.17 68.28 68.24 67.57 67.08 66.85 66.38 66.22 65.92 65.61 65.34 65.07 64.61
53.51 53.39 46.35 44.52 45.85 47.54 50.82 52.72 55.51 52.94 54.21 55.86 55.87 57.15 58.97 64.97 64.53 66.10 67.80 68.12 68.99 68.62 69.32 70.30 67.44 68.57 69.28 69.93 70.11 69.70 68.86 68.63 68.81 68.08 68.43 68.59 68.05 67.43 67.08 67.00 66.46 66.03 65.64 65.37 65.17 64.95 64.69 64.36 64.16
51.84 50.38 46.76 46.26 46.45 46.94 50.41 53.94 54.07 53.43 53.80 54.55 58.94 55.09 59.01 61.91 65.20 66.67 67.18 68.26 68.49 68.52 68.82 70.19 69.73 68.06 66.50 67.39 67.89 68.58 68.65 68.27 68.13 68.34 67.79 68.22 68.10 68.00 67.23 67.00 66.27 65.62 65.30 65.00 64.61 64.22 64.11 63.99 63.34
53.71 51.90 46.38 46.41 45.41 45.98 51.64 51.63 52.51 54.22 53.05 58.77 60.47 54.32 56.14 61.29 65.28 66.34 66.48 66.73 66.78 67.74 68.53 69.24 69.38 68.43 68.09 68.40 64.37 65.32 66.81 67.03 67.05 66.56 65.32 64.69 65.36 65.80 65.77 65.12 66.10 65.43 64.90 64.41 64.42 63.77 63.49 63.31 62.65
51.51 48.58 45.82 46.78 45.68 47.74 51.61 50.15 50.79 54.59 55.68 57.15 58.27 57.55 61.13 64.68 64.74 64.46 63.59 63.77 64.01 65.27 68.04 69.28 68.65 67.89 67.67 67.96 65.24 63.84 63.75 63.65 63.66 63.60 62.23 63.95 66.72 66.63 65.91 63.24 64.99 65.18 64.75 64.24 63.65 62.68 61.54 60.77 60.29
50.04 48.23 46.88 48.90 48.82 48.58 50.97 51.54 50.61 52.81 53.85 54.63 56.00 59.49 63.42 63.64 63.06 61.97 61.36 61.16 61.47 62.96 66.59 68.30 66.54 67.24 66.87 66.49 67.11 66.37 65.29 65.55 66.40 66.67 66.18 66.18 66.14 65.64 64.38 60.62 60.37 60.94 61.98 62.79 62.19 61.27 60.45 61.40 62.48
49.71 48.28 48.64 47.20 49.16 48.65 49.18 49.72 52.44 51.91 51.21 54.13 54.89 57.98 61.17 61.91 62.33 61.64 61.55 61.08 61.91 62.92 65.58 67.17 66.02 67.52 66.09 65.60 66.17 65.98 64.87 64.53 65.12 65.87 65.85 65.59 64.98 64.71 64.83 63.77 63.03 63.29 59.28 62.75 62.80 63.14 62.71 62.23 62.44
47.72 47.25 47.80 47.34 47.57 48.06 47.82 49.52 49.78 52.27 52.54 54.34 57.73 60.36 60.28 60.49 60.90 60.95 60.34 62.14 62.11 62.20 65.08 66.72 66.86 66.95 65.92 65.08 64.78 65.00 64.00 63.58 63.85 64.29 64.33 63.79 62.92 62.62 62.44 62.64 63.45 64.46 64.76 63.86 64.00 63.46 62.71 62.43 62.01
48.42 46.42 47.79 47.18 48.19 47.94 47.48 48.13 49.75 50.70 52.59 54.09 58.69 60.20 59.96 60.39 61.57 61.64 62.74 61.93 61.89 60.55 63.76 65.60 66.77 66.76 65.81 64.58 64.25 63.85 63.48 63.33 63.24 64.07 64.39 64.31 63.38 62.53 63.02 63.28 63.91 64.44 64.60 64.35 63.97 63.57 62.85 62.52 61.96
50.93 48.61 48.88 48.33 47.70 47.08 46.81 47.34 47.82 50.48 54.22 55.10 58.30 59.31 60.23 60.75 61.75 61.01 61.86 61.35 60.54 61.98 61.83 64.38 65.98 66.24 65.95 64.97 64.16 63.25 63.03 63.15 63.45 64.01 64.33 63.89 64.05 63.86 63.82 63.97 64.26 64.75 64.79 64.53 63.95 63.00 62.79 62.76 62.40
49.82 46.94 49.18 49.74 48.91 45.91 47.12 46.55 46.07 50.45 54.17 54.74 57.03 59.11 60.14 60.18 61.62 60.95 62.96 61.92 60.67 61.41 63.62 62.96 63.94 64.80 64.80 65.20 64.76 64.01 63.07 63.15 63.71 64.09 64.57 63.97 63.84 63.21 63.82 64.35 64.38 64.49 64.54 63.66 63.83 63.48 63.02 62.88 62.59
47.30 47.90 43.99 48.48 48.22 49.15 48.52 43.58 49.68 50.33 53.34 53.52 56.10 58.28 59.53 59.92 61.06 62.68 63.69 63.26 61.51 61.35 61.91 64.11 63.88 63.31 63.25 65.37 65.22 64.76 64.22 63.40 63.72 64.20 64.59 64.03 63.62 63.25 63.49 63.88 64.07 64.32 63.98 63.86 63.37 62.29 62.06 62.39 62.28
44.26 41.76 43.34 45.43 49.11 50.13 46.94 45.31 49.45 48.07 51.72 52.50 55.39 57.17 58.55 59.70 60.71 62.67 63.92 63.96 63.25 61.69 61.61 61.94 63.64 64.44 65.16 65.35 65.34 65.19 64.83 64.40 64.88 65.54 65.59 64.86 63.86 62.39 62.33 62.44 63.38 63.39 63.06 62.63 61.71 61.92 60.60 61.13 61.63
40.13 40.72 42.31 43.92 46.39 46.28 47.81 46.34 46.76 50.42 48.84 50.67 53.36 56.42 57.67 58.81 59.77 62.27 63.49 64.36 64.06 63.49 62.36 62.11 62.31 62.78 63.66 64.56 64.79 64.79 64.57 64.41 64.93 65.68 64.88 63.91 62.26 61.71 61.64 61.55 61.52 61.89 59.89 59.70 59.80 59.99 61.59 60.78 61.23
47.39 45.07 44.10 46.28 45.67 46.52 46.44 46.91 47.39 50.22 48.19 48.69 51.50 53.59 56.55 57.97 60.82 62.40 63.22 63.51 64.25 64.62 63.58 62.66 61.69 62.35 62.62 62.42 62.29 62.77 62.49 63.70 64.44 65.52 65.75 64.89 63.70 62.11 61.28 61.65 61.34 60.42 59.96 60.61 60.16 60.08 60.13 60.33 60.92
44.81 44.28 44.20 43.64 43.09 45.13 46.66 45.35 49.79 51.59 51.53 49.80 49.50 51.73 54.27 56.99 58.90 60.72 62.01 63.25 63.78 64.25 63.91 63.90 62.91 62.27 62.71 62.90 63.90 64.47 64.42 64.95 65.41 65.70 64.95 63.91 63.55 62.82 61.76 61.80 61.75 61.40 61.36 60.50 60.21 59.45 59.43 59.03 59.61
43.92 43.65 43.96 42.42 42.23 42.17 37.88 40.64 45.81 49.33 52.16 52.81 48.95 49.94 53.23 55.63 57.03 58.73 60.04 61.82 63.41 63.72 63.79 64.17 64.12 63.64 63.28 63.72 64.59 64.71 65.24 65.05 64.33 64.66 63.64 64.23 63.24 62.89 62.50 62.27 62.49 62.51 62.68 62.66 61.92 60.35 59.12 57.97 58.55
38.82 43.90 43.23 39.32 39.28 36.50 41.58 34.88 45.69 47.40 48.62 50.00 47.71 47.86 50.56 53.99 56.55 58.22 59.22 60.40 61.76 63.16 64.74 64.45 64.83 64.81 64.47 64.57 64.08 63.62 63.12 62.35 63.12 64.10 64.38 64.04 63.94 63.37 63.27 63.14 63.35 63.37 62.87 62.14 60.93 60.27 59.71 58.64 56.77
40.46 43.18 42.08 39.94 37.52 36.12 36.95 33.18 42.83 47.10 44.78 47.97 50.82 49.78 49.26 51.42 54.75 56.58 57.95 59.56 61.30 62.63 63.57 64.49 64.87 64.89 65.08 64.95 64.52 64.04 63.82 64.54 64.82 64.27 63.08 63.28 64.17 65.17 64.51 63.59 63.07 62.46 61.31 60.36 59.03 57.68 57.31 57.86 56.64
42.38 39.76 39.01 37.50 36.39 30.50 37.78 36.20 40.33 44.91 44.99 47.48 50.28 48.97 48.76 49.27 50.87 54.54 57.53 58.63 59.75 61.23 62.03 62.64 63.63 64.13 64.95 64.68 64.67 64.11 63.69 64.05 64.26 63.23 61.39 61.63 62.38 61.74 62.95 60.93 60.31 59.46 57.94 57.21 55.34 54.68 55.74 55.25 54.20
41.96 39.28 31.20 29.53 29.81 32.16 34.66 37.17 40.91 47.29 49.60 48.79 49.10 49.90 49.04 49.59 49.39 49.83 52.25 54.16 56.44 58.15 59.97 61.19 62.05 62.69 64.07 64.64 64.52 64.63 64.52 64.56 64.07 63.59 62.21 60.08 58.17 57.16 58.19 57.70 55.25 54.22 52.69 51.26 50.83 51.76 50.56 50.17 47.58
38.53 39.50 33.71 27.87 29.28 33.81 32.68 32.93 40.06 45.82 48.94 50.10 46.85 47.99 49.12 49.06 49.17 49.09 49.60 50.66 53.00 54.69 56.42 58.06 60.07 61.27 63.10 63.92 64.05 64.84 64.92 64.88 64.67 64.43 64.06 62.11 60.59 58.26 56.11 53.91 51.69 49.93 48.31 47.29 48.02 47.98 45.58 45.02 44.56
36.68 35.84 38.33 32.55 25.52 30.20 35.20 37.75 41.63 42.97 43.60 41.68 45.31 48.81 47.51 46.92 46.91 46.53 47.86 48.58 48.85 49.65 52.27 56.30 57.60 59.58 61.68 62.89 63.65 63.91 64.18 64.25 64.14 64.33 64.64 62.20 59.73 53.29 51.28 49.75 47.92 46.20 44.66 44.46 45.46 43.92 41.55 41.98 41.64
40.95 41.37 33.91 35.19 29.17 27.31 35.18 33.47 36.91 41.69 43.53 43.87 42.49 43.50 46.97 49.06 46.06 45.60 46.32 46.97 47.96 49.02 49.99 52.45 56.07 58.33 60.49 62.05 62.85 62.67 62.70 62.41 62.99 63.23 61.41 58.72 54.43 50.68 47.32 45.49 44.37 42.66 42.18 42.18 42.62 41.43 40.63 39.82 39.64
36.80 35.81 36.81 36.87 35.56 31.11 29.80 36.01 42.50 41.71 43.54 43.22 43.83 43.30 43.86 45.41 46.58 46.05 45.79 46.58 47.59 48.31 49.28 50.09 51.69 54.57 58.45 60.56 61.51 61.58 61.03 60.79 60.93 59.86 58.50 56.32 49.59 48.24 44.78 42.89 41.26 40.40 40.20 40.88 40.44 39.55 38.95 38.32 37.41
40.58 37.90 37.79 34.36 30.48 32.61 32.05 34.83 40.28 39.89 39.57 40.25 42.23 43.01 43.94 44.05 45.46 45.59 46.47 47.18 47.64 48.25 48.71 49.43 50.04 51.12 53.49 58.02 59.37 59.00 58.67 57.08 55.73 54.80 52.72 49.58 47.63 45.26 42.45 40.62 39.56 38.56 39.27 39.33 38.74 36.89 37.21 37.07 36.46

GFSSGP_sfc_wetblb_105.txt.gz
Wetbulb
64.05 61.53 61.15 60.15 52.34 51.78 49.31 49.60 53.05 52.03 53.38 56.29 59.53 57.59 57.45 59.78 56.91 53.37 66.75 68.63 70.33 69.54 70.32 70.38 71.03 70.44 69.35 69.33 70.04 70.86 70.97 70.25 69.63 69.42 69.14 70.05 70.53 70.54 69.96 69.84 70.23 69.58 69.08 68.52 67.62 66.97 66.47 66.01 65.61
59.45 59.57 60.12 57.07 49.71 47.33 49.01 52.32 50.47 53.34 56.93 58.74 59.35 59.05 58.03 58.13 62.63 63.43 64.44 68.93 70.30 69.60 70.16 70.21 69.94 70.33 69.64 69.84 70.38 70.30 70.13 69.85 69.08 68.95 68.76 69.78 70.55 70.51 69.96 69.17 69.63 68.48 68.40 67.97 67.40 66.93 66.22 65.67 65.18
59.03 58.44 55.46 52.68 50.40 47.67 48.78 51.27 53.69 56.19 57.91 57.76 57.83 61.10 60.20 59.71 63.15 65.00 67.50 69.03 69.52 69.34 70.06 69.77 70.02 70.17 69.88 69.92 70.39 70.06 69.55 69.32 68.96 68.98 69.23 70.22 69.70 69.38 69.36 68.96 68.11 67.66 67.17 67.11 67.39 66.80 66.01 65.39 64.99
56.26 56.91 55.04 48.81 48.46 51.60 50.71 52.83 55.69 55.88 55.91 58.22 58.47 56.97 61.92 65.02 63.80 66.10 68.16 68.11 68.34 68.75 69.80 69.31 70.34 69.96 70.02 70.10 70.37 69.97 69.41 68.98 68.63 68.17 67.90 68.21 68.81 68.90 68.31 68.05 67.56 67.12 66.95 67.05 66.87 66.23 65.59 65.06 64.60
57.02 55.80 48.74 47.99 49.41 50.04 51.32 52.56 56.17 55.23 55.22 56.76 58.23 56.29 59.14 63.73 66.39 66.74 67.19 69.08 68.71 68.74 69.83 69.71 70.06 70.24 70.17 70.56 70.39 69.98 69.30 69.01 68.85 68.39 68.35 68.53 68.71 68.34 67.66 67.37 66.91 66.58 66.37 66.00 65.72 65.44 65.14 64.75 64.32
51.36 53.06 47.67 45.95 49.09 49.98 51.47 53.31 55.31 55.90 55.86 57.16 56.37 57.45 59.71 65.14 64.82 66.14 68.14 67.98 68.41 68.20 68.85 69.45 67.29 68.59 69.66 69.88 69.76 69.32 69.27 68.69 68.36 68.20 68.42 68.13 67.95 67.60 67.11 66.60 66.32 65.90 65.54 65.29 65.14 64.94 64.56 64.31 63.87
51.95 51.05 48.18 49.23 49.56 48.82 50.99 54.76 55.21 55.19 55.10 55.87 58.63 54.27 60.71 62.77 65.28 66.52 66.99 67.40 67.71 68.28 68.41 69.14 68.64 67.47 66.82 67.64 67.90 68.09 68.29 67.93 67.89 68.25 68.75 68.14 67.90 67.61 67.06 66.80 65.78 65.49 65.15 64.69 64.37 64.30 64.21 63.63 62.91
54.57 52.41 48.70 49.43 48.24 48.70 53.14 54.63 56.57 55.80 54.98 59.81 59.91 53.76 56.53 63.57 65.20 66.41 66.38 66.23 66.44 67.32 68.16 68.45 68.29 67.44 67.68 68.05 64.46 65.58 66.56 66.67 66.43 65.86 65.50 65.00 65.41 65.66 65.40 64.71 65.73 65.01 64.65 64.58 63.99 63.56 63.39 62.85 62.36
54.72 48.35 46.60 48.53 48.91 49.78 53.78 52.77 54.16 56.53 56.19 57.76 59.32 57.79 62.03 65.42 65.54 65.51 64.39 64.46 64.86 65.85 67.42 68.03 67.95 67.46 67.32 67.08 65.08 63.88 63.70 64.36 63.77 63.81 62.97 63.78 66.15 65.79 65.04 63.19 64.97 64.87 64.40 64.06 63.14 62.19 61.16 61.26 61.12
51.27 48.77 48.87 51.58 51.52 50.30 52.59 53.14 53.05 53.24 54.49 55.48 57.16 60.36 64.33 63.90 63.67 63.21 61.96 62.36 62.14 63.25 66.66 67.58 67.90 67.43 66.51 66.01 66.04 65.70 65.51 66.36 65.81 65.64 65.68 65.75 65.68 65.08 63.83 60.74 61.20 62.23 63.22 62.89 61.92 60.87 61.22 61.39 62.67
52.25 49.28 52.12 49.76 51.24 50.73 50.92 52.62 53.95 52.77 52.01 54.56 54.82 58.30 62.35 61.86 62.29 61.84 62.35 63.34 62.54 63.71 65.96 66.87 67.76 67.44 65.96 65.10 65.42 64.90 64.31 65.08 65.84 66.09 65.92 65.68 65.06 64.57 64.50 63.19 62.91 62.77 60.12 62.61 62.66 62.96 62.75 62.82 62.81
48.90 52.70 51.99 49.25 49.46 49.90 49.52 52.13 51.57 53.08 53.82 54.73 57.13 60.33 61.85 60.65 61.34 62.02 62.48 63.32 63.01 62.94 65.88 67.69 67.75 67.04 65.55 65.24 64.86 64.47 63.27 63.91 64.34 65.16 65.06 64.23 63.10 63.02 63.02 62.77 63.67 64.41 64.40 63.67 63.68 63.18 62.99 62.83 62.56
50.58 50.95 49.50 49.40 49.79 49.70 49.65 49.46 50.12 51.81 55.32 55.29 58.33 60.29 60.78 61.11 61.38 63.77 63.99 64.04 64.21 62.52 64.79 66.49 67.36 66.41 65.33 64.08 64.08 63.94 63.29 62.93 63.68 64.15 64.26 64.00 63.06 62.78 63.03 63.34 63.83 64.05 64.22 63.92 63.48 63.17 62.88 62.72 62.53
52.04 51.88 49.01 48.92 50.88 48.49 49.07 49.76 49.18 52.08 54.55 54.92 58.12 59.46 60.84 61.40 61.28 62.52 62.65 63.47 62.05 62.55 63.84 64.92 65.78 66.39 65.94 63.70 63.53 63.30 63.44 63.25 63.35 64.19 64.40 64.51 64.15 63.59 63.81 63.91 63.99 64.15 64.36 64.08 63.49 63.09 62.84 62.71 62.83
51.18 48.86 49.56 49.39 52.33 51.24 49.59 48.75 47.34 52.39 53.87 54.29 56.71 58.90 60.37 61.44 62.76 62.72 63.45 63.59 61.54 62.12 63.01 63.58 64.55 65.43 65.91 64.27 63.79 63.34 63.04 63.04 63.26 64.00 64.73 64.30 64.07 63.98 64.10 64.07 63.92 64.29 64.34 63.77 63.71 63.09 62.87 62.53 62.54
47.21 47.62 44.32 49.92 50.75 51.23 50.53 45.90 51.82 53.27 52.37 52.84 55.05 57.27 59.36 60.87 62.31 63.31 63.60 64.54 62.34 61.44 62.39 63.72 63.81 64.24 64.35 65.00 64.55 64.03 63.43 63.21 63.92 64.37 64.79 64.34 64.13 63.84 63.73 63.69 63.66 64.14 63.92 63.78 63.03 62.23 61.30 61.66 61.11
46.40 42.33 43.73 46.76 51.20 50.12 50.04 47.36 53.00 51.59 50.92 51.74 53.61 55.95 57.90 59.90 61.34 62.84 63.93 65.02 63.20 60.79 61.86 63.22 64.19 63.97 63.54 64.93 65.04 64.75 64.48 63.51 63.63 64.30 64.65 64.70 64.26 63.96 64.00 63.72 63.69 63.71 63.41 63.20 62.29 61.52 61.82 60.91 59.88
42.15 42.11 43.37 44.03 48.47 48.03 48.10 47.68 52.23 52.56 51.60 51.14 51.99 54.02 56.71 58.32 60.10 62.45 63.79 65.14 64.43 61.43 61.37 62.61 64.20 64.40 64.83 65.63 65.08 64.93 64.76 64.37 64.48 64.71 65.32 65.55 64.73 63.83 63.20 63.00 62.68 62.92 62.73 61.76 61.61 60.65 61.97 61.41 61.07
46.57 44.39 43.59 46.47 47.99 48.05 46.87 47.40 50.27 53.30 53.93 52.98 51.65 52.15 53.72 57.19 60.22 62.29 63.41 64.73 64.68 63.21 61.14 61.42 62.00 63.03 64.07 64.26 63.47 63.35 62.93 63.61 64.09 65.38 65.82 65.57 64.57 63.70 63.43 62.86 62.84 62.66 61.78 61.82 61.24 61.33 61.10 61.44 61.30
45.26 44.05 44.28 46.52 46.70 46.61 47.41 47.16 50.14 52.18 53.07 54.39 53.34 53.46 52.80 54.54 58.28 60.46 62.31 63.68 64.21 63.93 62.83 61.82 61.95 61.95 62.47 62.89 63.33 63.45 63.39 63.85 64.24 65.49 65.75 65.85 65.11 64.12 62.95 63.17 62.38 62.02 60.48 60.84 60.42 59.99 60.29 59.67 60.10
45.40 44.14 45.13 44.09 44.71 45.15 44.89 44.34 47.32 50.90 52.86 54.45 55.60 55.92 54.57 53.26 55.38 58.71 60.68 62.35 64.04 64.25 64.66 63.70 63.40 62.88 62.64 62.65 62.94 63.33 64.50 64.75 63.73 64.31 65.42 65.55 64.84 64.13 63.44 62.05 62.43 61.97 61.81 61.91 61.75 61.13 60.17 58.71 59.11
41.42 47.10 47.16 42.77 42.38 38.39 44.87 36.26 46.04 49.60 50.82 52.60 54.20 55.16 55.78 53.83 54.30 57.20 59.63 61.32 63.23 64.21 65.88 65.85 65.43 64.41 63.50 62.93 62.64 62.90 62.91 62.21 63.94 64.77 65.57 65.34 65.06 64.41 63.85 62.56 62.14 62.17 63.16 62.20 62.36 61.17 60.45 59.08 57.66
42.97 47.30 45.68 43.72 39.96 38.10 38.60 34.85 43.44 48.35 47.49 50.62 52.25 54.27 56.23 55.12 54.39 55.32 58.40 60.66 62.46 64.36 64.83 65.99 66.11 65.77 64.86 64.03 63.08 63.45 63.50 64.11 64.98 64.92 64.55 64.49 65.03 65.21 64.62 64.36 63.55 63.12 62.76 61.90 59.99 59.80 58.81 58.96 58.06
44.77 41.36 40.72 38.22 37.78 32.85 40.31 37.79 40.63 44.89 47.68 50.28 52.22 53.19 55.28 54.62 53.92 55.09 57.90 60.40 61.94 63.67 64.72 65.35 65.41 65.25 65.78 64.88 64.39 64.00 63.92 64.14 64.09 64.13 63.62 64.22 63.98 63.53 64.16 64.34 63.79 62.76 61.33 59.59 58.32 56.99 56.82 57.21 57.21
44.19 40.28 32.83 31.56 32.00 32.63 39.25 38.57 40.61 47.15 50.27 51.22 52.12 52.90 54.12 55.63 54.96 54.15 55.29 57.99 59.71 61.42 62.99 63.91 64.58 64.01 65.04 65.29 64.96 64.36 64.51 64.81 64.47 64.67 64.25 63.36 62.59 61.89 62.26 62.26 60.11 59.34 57.65 55.14 53.97 53.80 54.09 54.79 51.75
40.57 42.02 35.15 27.37 29.72 34.10 36.25 34.58 40.77 47.83 50.38 50.50 52.29 52.26 51.47 53.58 52.63 52.97 54.04 56.47 58.94 59.67 61.27 62.46 62.57 62.85 64.46 64.98 65.04 65.52 65.54 65.21 65.20 65.35 64.88 63.69 62.61 61.82 62.24 60.51 59.13 56.85 54.11 51.28 50.98 50.14 49.20 49.63 47.18
37.52 37.79 43.45 34.30 29.09 32.83 36.95 40.22 44.25 46.24 45.91 47.54 47.56 49.29 51.91 50.99 50.75 52.00 52.96 53.56 56.19 58.44 59.34 60.48 61.27 61.79 63.06 63.90 64.72 65.10 65.09 64.97 64.75 65.30 65.55 64.24 63.75 61.77 60.09 58.01 54.90 52.25 50.15 48.78 47.78 45.45 43.97 45.72 44.69
42.99 43.04 34.54 36.64 30.21 28.55 35.72 37.41 38.70 43.79 45.82 47.50 47.67 47.93 48.96 50.29 52.58 50.90 49.79 50.89 52.07 53.83 56.13 58.25 60.10 60.54 61.27 62.80 63.72 64.08 64.25 64.52 64.95 65.18 64.46 63.79 62.78 58.70 56.57 54.30 51.89 47.57 46.37 45.71 45.15 42.88 43.17 42.29 41.96
38.62 37.54 40.15 39.84 38.54 32.22 31.30 37.07 45.80 44.87 41.76 42.76 44.88 45.49 45.90 46.28 47.40 49.04 50.08 49.74 50.17 51.02 51.83 52.59 55.26 57.63 58.93 60.41 62.08 62.75 63.04 63.49 63.92 63.67 63.55 62.90 60.78 56.16 53.74 51.64 49.30 46.86 43.65 43.02 43.63 41.78 41.31 40.32 39.27
42.63 39.63 40.28 34.42 32.47 35.31 34.20 35.62 42.00 42.96 43.50 43.47 43.87 44.67 45.80 46.14 46.68 47.66 48.23 48.74 49.19 49.48 50.11 50.56 51.64 52.58 55.67 58.90 60.86 61.55 62.54 62.60 62.02 61.74 61.65 60.12 57.00 54.18 53.19 49.42 46.29 43.28 41.78 41.13 41.03 39.88 39.55 38.59 37.09

GFSSGP_sfc_wetblb_108.txt.gz
Wetbulb
61.60 58.82 59.19 57.23 49.70 48.57 46.37 47.16 50.52 50.31 50.75 53.52 57.03 56.70 56.01 57.61 56.27 52.00 64.43 68.40 68.56 68.85 69.47 69.81 70.86 69.96 69.69 70.69 71.13 70.96 71.13 70.82 70.03 69.31 70.06 70.90 70.59 69.93 69.70 69.96 70.27 69.06 67.88 67.61 67.20 66.83 66.38 65.63 65.46
58.88 58.32 57.33 54.49 45.35 44.45 45.84 49.30 48.98 52.28 54.40 56.40 56.88 56.45 55.31 55.71 61.45 61.58 62.39 68.56 68.98 68.82 69.04 69.35 69.61 70.26 70.28 70.71 70.59 70.61 70.63 70.50 68.97 69.40 70.28 71.16 70.46 69.67 69.11 68.79 68.92 68.34 67.62 67.14 67.03 66.56 66.08 65.16 64.58
59.75 57.73 51.85 49.39 46.52 43.80 45.51 48.76 51.82 54.49 55.53 55.23 55.26 58.78 58.62 57.47 61.91 62.55 65.76 68.51 68.22 68.40 69.22 68.93 69.65 70.45 70.55 70.47 70.27 69.96 69.83 69.92 69.79 69.53 70.06 70.26 70.04 69.82 68.66 68.07 67.69 67.41 66.93 66.73 66.81 66.21 65.76 65.01 64.12
55.30 55.02 52.02 45.06 45.81 49.49 48.49 50.63 54.26 53.23 53.05 56.04 55.71 55.40 59.83 63.31 62.46 65.29 66.68 67.94 68.21 68.54 68.27 69.24 69.84 70.44 70.44 70.44 70.06 68.27 68.40 68.81 67.81 69.54 69.53 70.08 69.36 68.81 68.20 67.64 67.33 66.64 66.67 66.44 66.33 65.86 65.38 64.81 64.22
55.63 52.32 45.77 44.27 46.04 48.85 49.05 51.04 54.75 52.37 52.40 53.86 53.98 53.99 56.73 62.63 65.13 65.48 66.37 67.12 67.34 67.78 67.66 68.52 69.75 70.22 70.28 70.37 70.03 69.50 69.22 69.24 68.92 68.93 69.15 68.98 68.63 67.98 67.50 67.01 66.83 66.27 65.97 65.79 65.71 65.43 65.08 64.58 64.07
50.80 51.42 44.30 42.53 46.44 48.94 48.58 50.53 51.30 52.84 53.05 54.21 52.25 55.36 57.49 64.27 64.00 64.37 67.16 66.98 67.24 67.15 67.64 67.78 66.85 68.36 69.44 69.56 69.63 69.38 68.85 68.62 68.70 68.69 68.85 68.57 68.05 67.17 66.87 66.45 65.97 65.61 65.40 65.38 65.26 64.90 64.57 64.20 63.63
49.57 48.21 44.30 46.44 46.76 46.63 49.16 51.44 49.59 52.02 51.93 53.38 55.19 52.31 58.55 61.72 64.49 64.81 65.96 65.97 66.27 67.43 67.26 66.68 67.07 66.63 66.47 66.93 67.28 67.95 67.63 67.75 67.98 68.75 68.11 67.59 67.71 67.50 66.70 66.53 65.62 65.20 64.84 64.62 64.64 64.47 64.07 63.57 62.95
51.42 49.78 45.98 46.84 45.97 46.88 50.71 51.93 52.80 52.78 51.92 56.94 55.76 50.26 54.48 60.85 65.15 64.93 65.22 65.09 65.03 66.35 67.09 66.57 65.72 66.47 66.71 65.97 64.51 65.24 66.13 66.27 66.69 66.39 65.47 64.61 64.95 65.19 64.98 64.30 65.45 64.80 64.82 64.30 63.78 63.57 63.01 62.81 62.14
52.88 46.05 43.94 46.88 47.39 47.77 51.13 49.51 51.52 52.95 53.80 53.14 55.71 56.36 60.46 63.50 65.10 63.88 63.47 63.58 63.79 64.01 66.87 66.55 65.44 64.95 65.71 65.74 62.82 63.16 63.89 64.01 63.93 63.81 62.75 62.42 63.25 63.62 63.27 63.11 64.69 64.84 64.47 63.53 62.80 61.85 61.55 62.00 61.54
48.66 46.07 47.42 50.21 48.84 47.32 50.52 49.57 51.01 49.77 51.06 50.83 54.18 58.99 62.87 62.92 63.70 62.34 61.82 61.55 62.45 61.12 65.54 66.71 65.87 64.92 64.76 65.52 64.41 63.96 64.01 63.39 63.35 63.27 62.76 64.24 62.32 61.72 61.69 59.64 61.67 63.00 63.14 63.17 61.89 61.71 61.74 60.00 58.67
49.61 45.62 51.30 48.79 49.44 49.44 49.73 49.11 51.02 48.98 47.82 51.65 52.47 57.54 60.68 62.29 62.48 61.92 61.96 61.84 61.66 61.48 64.87 66.35 66.01 64.93 63.08 62.94 62.52 62.49 62.53 62.70 62.45 62.42 62.44 62.51 61.73 59.87 59.92 58.47 58.00 57.39 58.32 59.02 59.98 59.77 59.58 59.62 59.02
45.83 50.73 52.03 50.69 49.93 49.04 47.78 49.64 48.48 49.19 48.55 51.31 53.21 59.69 59.83 59.57 61.37 61.54 61.00 62.06 61.51 61.28 64.24 66.15 66.11 64.55 62.16 62.12 61.48 60.63 60.36 61.35 61.59 62.25 62.50 61.13 60.20 59.76 59.18 58.78 59.50 59.37 60.11 59.32 59.23 59.00 59.22 59.13 59.24
47.88 49.10 49.91 48.94 48.25 48.69 49.15 46.71 46.26 47.08 50.62 52.23 56.78 59.45 59.10 59.41 61.06 61.95 62.60 62.84 61.35 60.48 63.27 65.24 65.25 64.29 62.07 61.32 61.00 60.15 59.21 60.11 60.81 61.13 61.35 60.43 59.01 58.30 58.52 59.46 60.01 59.72 59.88 59.75 59.06 58.85 59.14 58.91 59.35
51.18 51.08 48.65 47.70 48.21 48.29 48.24 48.06 47.09 47.63 49.69 51.30 56.41 56.20 58.71 59.14 60.24 61.56 61.79 62.02 62.33 61.50 61.53 64.41 65.53 65.02 62.30 60.19 59.95 59.74 59.37 59.34 60.02 60.57 60.83 61.12 59.99 59.32 60.01 59.97 60.34 60.01 60.09 59.82 59.39 59.13 58.74 58.61 58.98
51.26 47.44 48.96 45.82 47.45 49.03 50.00 48.33 48.00 48.01 50.34 49.87 52.89 55.47 57.35 59.11 60.02 60.58 62.12 61.61 61.80 61.65 61.77 62.44 64.64 64.94 63.55 60.35 59.72 59.49 59.71 59.93 59.40 60.64 61.29 61.26 61.31 60.53 60.51 60.36 60.22 60.41 60.44 60.24 59.82 59.41 58.69 58.57 59.58
45.28 45.65 40.96 46.45 47.64 49.79 49.49 42.65 51.01 52.25 46.99 48.47 50.31 52.88 55.94 58.43 59.81 60.98 61.90 62.30 61.17 60.72 60.80 62.73 63.70 64.00 63.91 60.78 59.99 59.70 59.31 59.27 59.84 60.61 61.37 61.38 61.60 61.06 60.22 60.38 60.28 60.67 60.25 60.05 58.86 57.98 57.47 57.73 57.82
43.69 39.14 40.24 44.07 48.59 46.92 46.98 43.99 50.23 53.70 48.63 46.03 48.04 49.68 54.48 56.51 58.95 60.84 61.97 62.21 61.60 59.57 60.41 61.37 62.80 63.61 63.55 62.39 61.13 60.45 59.81 59.31 60.17 60.86 61.23 61.44 61.52 60.96 60.25 60.30 61.10 60.81 59.96 59.10 58.65 57.06 57.66 56.71 56.75
38.87 39.84 42.28 41.25 46.50 46.63 44.35 44.56 48.51 50.14 47.85 46.56 46.71 47.69 49.89 54.76 57.76 59.65 61.08 62.22 62.90 58.35 59.89 61.27 62.47 62.71 62.38 62.06 62.07 60.86 60.61 60.04 60.04 60.38 61.12 61.74 61.48 61.34 60.53 59.89 59.58 59.95 59.60 58.61 57.94 56.69 57.44 58.61 58.27
44.56 42.43 42.02 43.92 47.74 45.00 43.90 45.32 46.85 49.85 49.17 48.54 48.29 47.51 47.98 51.24 56.54 60.00 60.56 61.54 62.12 58.67 57.78 60.66 61.43 62.18 62.40 61.89 61.22 59.55 59.95 60.40 60.14 60.68 61.78 62.65 62.35 61.44 60.27 59.82 59.50 59.29 58.80 58.42 58.33 57.55 57.69 58.58 58.55
44.75 43.39 41.90 44.76 44.86 44.01 44.37 44.67 48.05 48.98 49.23 50.83 51.60 50.63 48.24 49.02 53.04 57.10 59.42 60.43 61.53 59.77 57.37 58.32 61.40 62.07 62.46 62.58 62.60 61.20 61.12 61.20 61.27 61.19 62.30 62.90 62.06 61.42 60.46 59.78 59.27 59.13 57.98 57.95 57.81 57.89 57.85 57.53 57.76
43.79 41.78 41.95 41.65 42.28 43.21 41.20 40.51 44.41 48.45 50.32 51.18 52.15 52.72 52.16 49.75 49.88 54.00 57.77 59.57 61.08 60.82 58.54 58.21 59.26 60.72 61.63 62.26 61.92 60.64 59.79 59.60 59.75 60.49 61.74 63.19 62.65 61.75 60.42 60.05 59.78 59.29 59.74 59.33 58.91 59.33 58.49 56.32 56.68
41.02 46.29 45.65 42.29 40.49 36.91 41.80 34.48 41.86 46.54 47.28 49.27 51.10 51.74 52.97 53.11 50.03 51.57 56.55 58.31 60.25 61.46 61.62 59.82 59.23 59.54 60.19 60.63 60.23 59.35 58.64 58.26 60.15 60.93 62.10 62.67 63.02 61.91 61.43 60.50 59.92 60.86 60.52 60.27 59.02 59.85 59.39 57.63 55.37
41.92 47.07 44.54 42.96 40.10 38.21 38.64 35.60 38.38 44.83 44.70 48.10 50.75 52.14 52.86 54.08 52.57 50.17 53.38 58.19 60.32 61.50 62.11 62.24 61.04 60.14 60.26 60.19 59.96 59.22 58.62 60.41 61.15 61.85 61.71 62.86 62.84 62.33 61.93 61.30 60.32 59.94 60.33 60.58 60.18 59.21 58.71 58.06 56.26
44.98 41.91 40.40 39.27 38.67 32.87 38.05 36.23 37.04 41.19 44.21 46.31 49.03 50.62 51.24 53.41 54.49 51.90 51.25 55.71 58.82 60.95 61.67 62.37 62.37 61.79 61.57 60.41 60.09 59.42 59.39 60.16 60.82 61.11 61.40 61.93 62.11 62.12 62.02 61.39 60.66 60.36 60.30 59.58 59.51 58.60 57.72 57.10 55.71
43.61 40.19 32.30 31.56 31.21 31.45 38.32 36.27 39.14 43.96 46.09 46.65 46.74 48.27 49.90 50.73 53.46 52.30 49.27 51.63 56.57 58.46 60.65 61.67 62.23 62.29 62.87 61.81 60.64 60.03 60.48 61.23 61.40 61.58 61.73 61.00 61.15 61.09 61.25 61.58 61.18 60.72 60.46 59.30 57.47 56.27 55.29 55.01 53.25
40.68 40.33 31.14 25.55 25.92 27.95 31.91 30.40 37.62 46.66 48.73 48.00 48.19 47.79 48.96 46.71 49.26 50.14 49.44 50.17 53.29 57.24 59.11 60.89 61.56 62.01 62.86 62.94 62.23 61.95 61.48 62.13 62.53 62.56 62.65 62.02 61.73 61.58 61.74 61.79 61.58 60.75 58.64 56.32 54.55 52.98 52.16 50.97 47.75
39.97 37.69 41.17 31.39 23.34 26.78 31.21 35.47 41.07 43.17 43.15 43.59 43.99 44.57 45.99 47.52 46.92 45.68 47.31 48.83 51.87 54.36 56.93 59.34 60.62 61.55 62.29 62.71 63.06 62.67 62.65 62.26 62.62 62.94 63.13 62.86 62.27 61.03 60.04 60.19 58.42 54.91 53.13 52.61 51.55 50.83 46.81 45.57 43.53
41.57 42.33 34.00 33.09 23.42 22.60 29.16 31.01 34.19 37.78 40.34 42.36 42.47 42.36 43.72 44.25 43.99 45.34 45.55 46.32 47.14 51.58 54.77 56.02 58.37 59.54 60.60 61.69 62.66 62.83 62.98 62.95 62.99 62.87 62.39 62.67 62.12 59.75 58.49 58.34 55.27 52.30 51.51 49.96 47.70 45.17 44.30 43.27 41.31
37.93 37.57 37.59 37.44 33.95 27.47 25.00 30.10 39.83 39.66 37.63 39.73 40.53 40.91 40.07 40.17 41.46 42.73 43.52 44.51 45.05 45.61 47.45 51.18 54.09 56.48 57.61 59.04 60.65 61.39 61.96 62.59 62.82 62.65 62.42 62.59 61.24 59.50 57.80 55.45 52.09 50.56 48.75 47.58 45.03 42.73 41.99 40.78 39.39
40.98 39.34 38.64 32.76 29.72 31.53 29.74 30.14 38.03 38.33 38.79 39.93 40.21 41.85 41.17 40.25 41.47 42.50 43.10 43.54 43.48 43.43 43.94 44.77 46.13 50.21 53.31 55.44 57.11 57.94 59.72 60.04 61.03 61.70 62.00 60.31 60.51 57.11 55.43 52.10 50.10 48.42 47.50 45.52 43.31 41.39 40.72 39.03 36.62

GFSSGP_sfc_wetblb_111.txt.gz
Wetbulb
60.87 56.81 53.50 53.31 47.31 44.13 40.52 43.09 47.13 47.75 48.89 52.34 55.00 55.75 55.40 56.51 55.35 51.58 64.73 67.63 68.42 68.61 69.47 70.05 70.23 70.55 71.29 71.23 71.42 71.31 71.20 70.95 70.76 70.82 70.86 70.61 70.18 70.29 69.57 69.00 68.82 67.41 67.37 67.16 66.85 66.32 65.79 65.49 65.39
59.39 56.88 53.22 48.84 41.79 41.32 42.23 44.53 46.83 49.26 51.87 54.40 55.77 55.98 55.80 54.88 60.09 60.66 63.54 67.90 68.44 68.40 68.97 68.41 69.36 70.58 70.67 71.08 70.99 70.86 70.80 70.11 70.45 70.37 71.11 70.23 69.51 69.26 68.85 68.06 67.42 66.81 67.17 67.05 66.68 66.13 65.02 64.74 65.14
58.46 55.57 49.19 45.43 41.23 39.62 41.28 46.73 49.56 52.31 54.26 53.26 53.47 58.10 56.85 56.84 60.20 60.72 66.55 68.12 67.83 67.86 68.20 68.26 69.54 70.55 70.51 70.48 70.33 70.29 70.13 70.08 70.12 70.36 70.86 70.34 69.48 68.62 68.09 67.37 67.10 66.65 66.95 66.67 66.49 65.90 64.99 64.71 64.75
52.79 52.19 48.19 43.35 42.31 47.24 45.27 50.01 50.99 50.30 53.05 54.87 55.76 54.01 58.13 61.45 61.15 64.74 67.80 68.15 67.23 67.45 67.82 68.59 70.00 70.54 70.48 69.85 69.66 69.07 69.63 70.03 69.77 71.06 70.41 69.66 69.21 68.48 67.49 66.90 66.42 66.45 66.34 66.30 66.14 65.58 64.97 64.63 64.70
52.01 49.13 42.48 41.22 43.14 46.37 45.71 52.21 52.05 49.96 50.62 51.08 53.28 53.39 55.29 61.34 63.40 65.50 67.35 68.01 66.60 66.98 67.52 68.14 69.53 70.21 70.27 69.93 69.24 68.42 67.52 69.04 69.11 69.98 69.44 68.94 68.34 67.59 67.14 66.75 66.34 66.02 65.95 65.84 65.64 65.23 64.70 64.25 64.09
48.31 47.40 40.50 39.20 43.94 46.67 46.03 49.82 51.91 50.33 50.82 51.39 53.95 54.49 55.08 61.98 62.00 64.85 66.50 66.76 66.86 66.05 67.56 68.10 66.66 68.03 69.16 69.40 69.21 69.11 68.94 69.05 68.95 69.47 69.41 68.17 67.50 66.95 66.62 66.20 65.88 65.71 65.64 65.45 65.11 64.74 64.25 63.73 63.40
46.22 45.80 41.81 42.05 42.94 43.63 46.56 50.18 49.16 50.11 51.48 51.02 54.10 53.34 56.15 59.58 62.54 64.67 64.50 66.43 66.25 66.33 66.59 66.38 67.00 66.85 66.22 67.02 67.13 67.51 67.82 67.81 68.53 68.71 68.37 67.80 67.27 67.03 66.41 66.27 65.45 65.12 64.93 64.92 64.55 64.15 63.74 63.21 62.82
48.91 47.15 43.83 42.83 43.57 43.25 47.30 49.22 49.72 50.57 49.83 53.88 54.00 52.89 54.61 59.13 62.75 63.78 64.22 65.98 65.98 65.60 65.29 65.12 65.71 65.89 65.06 65.04 63.92 64.71 65.80 66.86 67.09 66.28 65.15 64.53 65.02 65.17 64.84 64.09 65.27 64.93 64.55 64.12 63.77 63.19 62.97 62.44 62.08
53.25 43.11 42.78 45.06 44.80 44.71 48.55 47.11 50.09 51.49 52.61 53.09 54.88 55.04 58.27 62.09 63.13 62.45 62.72 63.90 65.24 65.07 64.59 64.93 64.53 65.10 64.62 63.83 62.14 62.83 63.53 64.29 64.06 63.32 62.14 61.52 62.12 62.64 62.72 62.66 64.44 64.83 64.03 63.36 62.72 62.32 61.98 61.60 60.66
50.07 44.63 46.10 50.40 44.70 43.58 48.33 47.72 49.28 49.10 49.51 50.19 56.20 59.71 61.22 61.50 61.19 60.24 61.06 61.25 62.44 63.72 63.77 64.06 63.37 64.54 64.52 64.65 62.96 62.68 62.47 61.74 62.50 62.09 62.86 63.03 62.13 61.23 61.50 60.32 62.26 63.32 62.90 63.03 62.22 62.24 61.79 59.67 57.91
49.18 45.92 49.05 47.36 47.94 47.89 47.93 47.46 49.10 48.20 46.19 50.71 53.29 58.02 59.78 59.27 60.29 61.37 61.45 61.84 61.80 62.64 64.13 64.30 63.73 64.38 63.46 63.50 62.31 61.74 61.88 61.33 61.49 61.59 62.53 62.02 59.85 58.84 58.26 57.19 57.41 56.79 58.22 57.83 59.25 58.94 58.45 58.08 57.76
44.01 49.86 50.87 50.92 49.14 48.19 46.73 46.71 46.22 47.27 47.57 50.67 57.85 60.04 59.97 59.32 60.77 61.01 61.26 61.56 61.54 60.61 63.69 65.66 65.33 63.73 61.71 62.48 60.80 60.72 60.97 60.63 60.31 60.75 61.12 59.87 58.75 58.14 58.30 57.05 57.30 57.17 57.08 57.59 57.91 57.59 57.98 57.88 58.08
47.55 49.54 50.36 50.10 47.97 47.68 47.65 44.98 44.48 44.66 47.10 51.35 59.30 59.83 58.47 58.82 60.38 61.91 62.42 62.37 61.77 60.46 62.73 65.41 65.60 62.84 61.41 60.41 60.16 59.11 59.01 59.86 60.38 60.61 61.01 59.76 58.19 57.28 57.38 57.75 58.55 58.87 58.81 58.51 57.68 57.50 57.97 57.71 58.27
51.58 51.06 50.03 47.60 46.51 47.52 46.65 46.09 46.55 46.26 47.89 54.12 58.52 57.33 57.30 57.89 59.24 60.97 61.29 61.86 61.58 61.00 60.69 65.02 65.19 63.61 62.21 59.81 59.20 58.26 58.06 59.19 59.53 59.52 59.53 59.27 58.03 57.36 57.77 58.09 58.77 58.66 58.85 58.46 58.27 58.06 57.79 57.63 58.36
50.36 47.25 49.16 45.57 45.02 45.69 47.94 44.71 46.95 47.13 48.79 51.44 53.51 56.30 57.07 57.69 58.32 59.19 61.04 61.96 61.86 61.11 61.04 62.40 64.89 63.74 61.80 59.61 58.94 58.22 58.03 58.62 58.58 59.20 59.62 59.65 59.02 58.25 58.96 58.88 58.95 59.20 59.40 59.15 58.81 58.35 57.24 57.38 59.24
45.19 43.72 41.73 48.35 44.46 45.60 46.65 40.85 49.34 51.86 47.32 47.07 50.09 52.01 56.58 57.82 58.73 58.88 61.22 62.53 62.51 61.23 60.95 61.48 64.07 63.59 62.82 59.18 58.25 58.28 58.11 57.73 58.15 59.36 59.62 59.89 60.17 59.62 59.05 59.10 58.99 59.41 59.30 59.00 58.18 57.01 56.55 56.38 56.70
39.41 34.83 37.25 41.49 44.80 44.92 45.21 42.97 49.04 51.47 48.07 45.73 45.68 48.59 53.80 56.63 58.50 59.02 60.71 60.40 60.39 61.29 61.06 61.72 63.18 63.17 63.84 62.51 58.69 58.34 57.83 58.00 58.29 59.09 59.76 59.95 60.27 59.79 58.92 59.09 59.08 59.26 58.83 57.95 57.54 56.07 56.17 55.46 55.49
34.91 36.71 38.66 39.51 43.74 43.65 42.53 43.36 46.54 48.46 46.72 45.37 45.43 45.84 50.21 55.21 57.67 59.64 60.68 61.36 61.61 60.26 60.83 61.93 62.40 62.44 63.06 63.05 60.24 58.55 58.40 58.13 58.81 59.60 60.55 60.30 60.30 59.80 58.89 58.77 58.66 58.85 58.17 57.55 57.01 55.94 55.79 55.72 55.84
40.37 39.46 39.62 41.39 45.48 42.96 41.47 41.32 43.82 47.15 44.50 43.84 44.06 45.32 45.73 52.79 57.83 59.76 60.62 61.58 61.46 57.56 59.41 60.36 61.28 61.69 62.10 60.97 59.87 58.32 57.79 57.92 58.30 59.68 60.52 60.89 60.62 60.07 59.34 58.98 58.42 58.26 57.87 57.47 57.10 55.92 54.86 55.55 57.63
42.37 39.51 38.59 42.40 43.72 42.87 41.81 42.26 46.08 45.55 46.45 47.33 47.19 47.39 46.56 46.67 51.85 57.74 58.44 60.46 60.92 57.56 58.52 59.36 60.72 61.36 61.91 62.12 61.09 59.95 59.10 58.98 59.33 59.17 59.70 61.21 60.81 60.61 59.96 59.23 58.48 58.24 57.20 56.80 56.49 55.98 55.12 56.07 56.69
41.82 39.84 40.09 39.37 40.58 40.77 39.72 39.27 41.96 45.11 46.77 48.22 49.15 50.04 50.87 49.10 47.53 55.45 57.17 58.95 60.14 59.20 56.29 58.90 60.14 60.99 61.86 62.01 61.61 60.15 58.99 58.28 58.18 58.41 59.61 60.88 61.38 60.97 60.22 59.36 59.04 58.38 57.97 57.30 56.62 56.23 56.24 55.80 56.33
38.81 43.69 43.74 40.81 38.02 34.35 40.53 33.82 40.84 43.65 45.62 47.75 49.37 49.31 50.95 51.10 48.41 50.36 56.96 57.76 58.90 59.95 57.33 57.25 60.13 60.77 61.57 61.91 61.18 60.45 59.12 58.35 59.63 59.95 60.29 60.98 61.69 61.11 60.53 60.09 59.72 58.90 58.68 57.52 57.63 57.65 56.90 57.05 54.75
40.12 45.27 43.38 40.67 37.62 38.22 38.37 35.63 37.67 43.13 42.06 44.74 48.42 50.25 51.20 51.25 51.37 49.70 54.73 57.93 59.33 60.50 58.89 56.95 57.61 60.27 61.25 61.41 61.25 60.30 59.48 59.40 59.43 59.49 59.03 60.39 61.75 61.58 61.11 60.44 59.88 59.35 58.93 58.72 58.34 57.82 57.88 58.52 55.88
43.87 41.09 39.97 39.69 38.86 33.16 38.55 36.82 36.06 39.57 41.95 45.56 48.26 49.42 50.32 51.45 51.90 51.92 51.00 57.13 58.48 60.08 60.75 58.97 56.81 57.50 59.38 59.99 60.21 59.69 59.11 58.17 57.99 58.92 59.35 60.39 61.35 61.68 61.23 60.83 59.97 59.73 59.46 58.85 58.51 58.54 58.74 58.13 56.34
42.59 39.45 32.66 31.91 31.45 29.68 38.02 34.96 38.85 42.85 44.74 45.84 46.37 46.47 47.28 47.84 50.11 52.30 49.24 50.89 56.58 58.29 59.79 60.45 59.03 57.46 58.01 58.31 58.67 59.21 58.92 58.50 58.60 59.38 60.09 60.32 61.01 61.22 61.17 60.70 60.00 59.34 59.22 59.10 59.02 58.14 58.46 57.29 56.24
40.30 39.96 31.13 25.59 26.45 29.21 32.88 31.12 36.97 45.29 48.29 48.45 46.94 46.35 46.78 46.65 46.16 49.11 50.48 49.38 55.23 57.52 59.11 60.05 60.53 60.15 59.75 58.83 58.50 58.93 58.91 58.85 59.22 60.39 60.96 61.16 61.39 61.75 61.89 60.93 60.84 60.05 59.21 58.79 58.55 58.37 57.91 55.60 53.58
37.62 37.20 40.57 30.54 19.63 25.13 29.62 33.31 39.65 42.02 44.50 44.12 43.57 43.39 43.21 44.68 46.32 45.71 47.46 46.85 51.35 55.69 57.66 59.36 60.08 60.82 61.42 61.20 60.50 59.32 59.22 58.92 59.50 60.33 61.45 61.57 61.89 61.73 61.35 60.70 60.38 59.97 58.88 58.05 56.96 57.04 54.87 53.90 50.76
41.02 43.26 34.25 33.53 20.52 20.46 26.49 28.90 32.32 36.97 40.75 42.49 41.27 41.25 42.44 42.08 42.41 44.24 43.94 45.10 46.60 51.42 55.26 57.36 59.97 60.21 61.04 61.74 62.09 61.69 60.62 59.84 60.02 60.77 61.01 61.57 61.60 60.89 59.95 59.64 59.71 59.29 57.43 54.88 53.65 51.42 48.73 48.14 45.02
37.09 37.83 37.39 37.03 31.84 25.39 22.42 27.70 37.39 39.89 39.73 39.30 39.34 39.55 38.43 38.38 39.30 40.69 41.77 42.52 42.85 43.95 49.95 53.64 56.29 58.72 59.13 60.31 61.47 61.52 61.67 61.44 60.90 60.59 60.98 61.31 59.72 60.02 58.96 58.81 58.27 56.56 54.94 52.93 52.84 50.66 47.58 46.53 41.65
40.52 39.27 38.80 32.95 29.08 30.02 28.44 29.02 38.65 37.91 37.92 38.92 38.79 40.53 40.22 39.90 40.23 41.01 41.66 41.93 42.11 42.10 42.16 43.39 45.84 51.62 54.74 56.25 58.81 58.82 60.32 60.48 60.72 60.79 61.22 60.49 59.43 60.16 59.72 58.51 56.89 55.12 53.19 51.39 51.13 48.20 46.39 44.96 40.89

GFSSGP_sfc_wetblb_114.txt.gz
Wetbulb
61.92 58.44 52.45 52.91 46.07 42.98 39.81 42.32 45.19 46.41 46.60 51.67 54.03 55.92 54.98 55.75 53.44 49.67 63.36 66.32 66.85 68.39 69.21 69.05 70.91 71.58 71.30 71.08 70.91 70.97 71.45 71.35 70.97 70.75 70.60 70.26 69.54 69.07 67.87 67.31 66.83 67.12 67.02 66.66 66.13 65.99 66.39 66.15 65.84
59.47 56.62 52.34 47.52 41.71 39.11 40.50 43.83 45.24 47.36 50.49 54.47 56.48 56.15 55.22 53.50 58.87 62.45 64.12 67.50 68.45 68.20 68.38 68.11 69.89 71.36 70.88 71.22 70.96 70.71 70.21 71.05 70.63 70.90 70.26 69.72 69.21 68.37 67.79 67.10 66.89 66.80 66.70 66.54 65.66 65.73 65.91 65.39 65.84
55.48 54.24 48.56 44.66 40.50 38.87 39.96 46.84 47.69 50.45 52.05 52.29 54.01 57.75 56.08 55.95 59.51 61.45 65.80 67.63 67.85 67.47 67.18 68.02 69.67 70.72 70.63 70.77 70.83 70.39 70.56 70.61 70.24 70.46 69.91 69.35 68.57 67.95 67.36 66.42 66.50 66.19 66.42 66.22 65.82 65.61 65.14 65.30 65.82
52.62 51.34 47.19 42.46 41.27 43.97 44.75 48.74 49.46 49.77 51.13 54.75 55.67 53.90 57.70 60.57 60.23 64.45 67.25 66.95 66.72 66.43 67.00 68.42 69.83 70.22 69.95 70.05 70.11 70.27 70.02 69.87 70.27 70.61 70.02 69.02 68.23 67.35 66.62 66.18 66.51 66.23 66.15 66.11 65.70 65.10 64.99 65.15 65.30
51.74 47.79 40.85 39.61 42.03 44.49 47.83 50.50 49.87 48.35 49.60 51.77 54.73 53.29 54.26 60.86 63.16 66.11 66.47 67.01 65.97 66.01 67.02 68.22 69.35 69.90 69.44 69.21 69.41 70.31 69.85 70.49 70.88 70.88 69.43 68.78 67.90 67.08 66.40 66.33 66.07 65.95 65.73 65.66 65.20 64.70 64.53 64.60 64.87
47.48 45.74 39.67 39.32 41.94 45.63 46.11 51.22 50.58 49.44 50.22 52.35 54.41 54.07 54.96 60.63 63.21 65.41 67.03 66.41 66.28 65.83 66.84 67.82 66.88 68.03 68.72 68.64 69.06 68.80 68.68 69.99 69.80 69.92 68.80 67.78 67.22 66.72 66.16 65.87 65.78 65.66 65.49 65.25 64.77 64.27 63.96 64.08 64.10
45.28 43.88 40.19 40.73 41.09 42.61 45.52 49.36 48.55 50.56 51.18 50.99 56.55 52.74 55.21 57.18 61.70 66.18 66.36 65.72 65.59 66.57 66.36 65.78 66.64 66.99 66.01 66.81 67.13 67.67 68.54 68.55 69.06 69.04 68.22 67.58 67.12 66.79 66.08 65.68 65.13 65.20 65.08 64.60 64.29 63.64 63.39 63.23 63.42
46.70 46.03 42.56 43.56 43.57 44.24 45.93 48.15 48.97 50.11 50.06 54.50 56.78 52.17 53.74 58.83 61.63 63.68 65.08 63.94 64.36 65.31 65.15 64.50 64.96 65.76 65.16 64.57 63.57 64.59 65.90 67.08 66.84 66.49 65.59 64.95 65.12 65.30 64.85 64.06 65.10 64.61 64.28 63.99 63.42 63.13 62.67 62.54 62.31
50.63 43.24 42.82 45.17 42.31 43.41 46.78 45.70 49.19 50.63 51.77 53.86 56.06 55.07 56.98 61.08 61.65 61.03 63.70 63.18 63.46 63.71 64.42 64.55 64.06 63.96 63.84 63.40 61.76 62.47 64.13 64.48 63.75 63.02 62.28 61.44 61.61 61.95 61.72 62.25 64.43 64.34 64.06 63.30 62.90 62.26 61.46 61.37 60.21
46.99 42.06 45.29 49.97 43.97 41.98 46.55 45.89 48.45 49.04 48.76 50.86 54.48 58.09 59.49 60.35 60.54 59.51 62.31 62.54 62.86 62.32 62.52 64.31 63.59 63.46 63.10 63.85 61.96 61.53 62.64 62.05 61.26 60.52 60.60 61.44 61.00 60.92 61.57 60.34 62.18 63.25 62.63 63.04 62.22 61.91 61.70 59.19 57.02
47.68 44.83 48.90 48.02 47.38 45.81 46.57 45.72 47.60 48.34 46.24 50.62 53.12 56.91 58.16 58.65 58.79 58.91 61.01 63.07 63.05 63.05 62.87 62.46 63.54 63.76 62.73 62.01 61.32 60.85 60.25 60.21 60.54 60.19 61.34 61.12 59.84 58.47 58.05 57.47 58.19 57.39 58.03 57.20 58.14 58.19 57.50 56.95 56.65
43.90 50.38 51.46 52.31 49.84 47.36 45.11 45.52 45.08 45.98 47.01 50.22 55.69 58.75 58.85 58.54 58.77 59.37 59.93 61.51 62.78 63.22 63.16 63.07 62.85 63.83 62.52 62.12 60.64 60.20 59.92 59.43 59.49 60.16 60.67 59.03 57.71 56.35 55.85 55.43 55.10 55.49 56.44 56.58 56.72 56.74 56.99 57.06 57.23
44.49 47.89 51.92 53.41 50.05 46.73 46.52 44.08 44.04 43.59 45.65 52.66 59.04 58.87 58.49 58.99 59.14 59.25 61.03 62.10 62.45 63.07 63.27 64.41 63.01 62.63 62.03 61.65 60.28 59.73 59.51 59.45 59.66 59.64 60.20 58.87 57.33 56.59 56.75 56.25 56.65 56.75 57.37 57.26 56.78 57.00 57.48 57.04 57.38
49.18 49.46 50.29 50.50 47.38 46.48 45.30 44.93 45.93 44.66 47.77 55.83 58.07 57.27 57.74 58.01 58.28 59.19 60.53 61.35 61.22 62.09 63.51 64.23 63.30 62.70 62.06 61.05 59.71 58.94 58.74 59.49 59.54 59.49 59.87 59.29 58.01 56.91 56.83 56.59 57.53 57.67 57.62 57.72 57.35 57.13 56.88 57.01 57.64
49.40 46.30 48.57 50.04 46.68 44.08 46.92 43.30 44.79 46.07 51.75 54.98 55.39 55.35 56.39 57.45 57.79 59.07 60.32 61.05 61.44 61.99 62.09 62.64 64.62 62.07 62.05 60.42 60.25 59.00 58.36 59.11 58.81 59.14 59.21 58.55 57.85 56.56 56.73 57.09 57.51 57.84 58.14 57.68 57.55 57.11 56.61 56.42 59.05
44.87 42.45 38.32 45.34 45.25 45.68 44.92 40.38 46.96 49.26 46.35 50.99 52.73 53.77 55.57 56.84 57.87 58.76 59.81 61.12 61.70 62.56 60.70 62.35 64.02 63.24 61.38 60.25 59.99 59.16 58.34 58.38 58.67 58.75 58.80 58.49 58.53 57.68 57.51 57.50 58.07 58.48 58.32 58.02 57.24 56.09 55.49 54.94 54.18
38.46 34.48 36.46 41.33 45.16 43.93 44.24 41.71 46.96 49.00 48.72 45.87 47.96 51.51 54.90 55.87 56.56 58.24 59.56 60.96 61.57 61.63 60.44 60.68 62.73 62.99 60.11 59.01 59.36 58.58 58.07 57.71 57.99 58.64 58.77 58.72 59.16 58.68 58.24 58.30 58.48 58.52 58.24 57.45 56.98 55.67 54.67 54.41 53.86
33.09 33.33 36.58 38.01 43.20 42.09 41.86 41.78 44.51 46.78 46.91 45.97 44.31 45.81 51.62 55.10 56.81 58.53 59.22 60.93 59.97 61.11 60.78 61.02 62.31 63.09 62.20 60.28 57.43 57.16 57.03 57.10 57.34 58.54 59.39 58.92 59.29 58.84 58.02 58.10 58.12 58.30 57.41 56.85 56.09 55.34 55.42 54.55 53.66
38.79 37.67 37.45 38.93 44.24 40.23 40.66 42.56 42.98 46.20 44.14 44.03 43.07 43.17 44.98 52.67 57.07 59.06 59.35 59.97 60.25 59.58 60.04 60.18 61.22 62.83 62.59 61.01 58.35 56.43 56.48 56.45 56.72 57.92 59.17 59.51 59.43 58.89 57.77 57.91 57.94 57.53 57.01 56.95 56.43 55.26 54.43 54.18 55.24
39.81 36.75 36.11 40.71 42.87 40.73 40.05 40.25 44.35 43.42 43.94 44.81 44.51 44.10 44.06 44.83 52.85 57.09 58.45 59.06 59.82 58.54 59.69 59.89 61.20 62.02 62.20 62.80 60.87 58.16 57.69 56.60 57.81 57.97 58.14 59.69 59.28 59.27 58.52 58.05 57.52 57.41 56.55 56.23 55.79 54.46 53.90 53.70 55.10
40.26 38.01 37.33 38.30 39.96 40.08 37.67 38.14 40.91 43.49 45.20 45.85 46.63 47.82 47.51 47.22 46.56 53.23 57.19 58.45 59.79 59.53 58.36 59.24 60.68 61.59 62.00 62.15 60.31 58.54 57.59 56.97 56.49 56.25 57.38 59.24 59.71 59.44 59.24 58.61 58.48 57.56 57.03 56.91 55.57 55.22 54.56 53.47 54.78
36.29 42.22 42.38 41.02 38.20 33.10 38.88 32.31 38.93 42.94 43.97 44.92 47.37 48.00 48.65 49.05 50.65 49.26 55.52 57.37 58.84 60.19 58.64 59.09 59.56 60.68 61.37 61.63 60.87 59.90 59.03 57.53 58.55 58.28 58.68 58.70 59.88 59.98 59.90 59.36 59.07 58.54 58.01 56.95 56.71 56.39 55.47 54.98 54.22
38.16 43.22 42.18 40.98 38.55 37.79 37.51 34.93 36.35 41.16 40.47 43.69 46.93 49.12 50.19 50.87 50.72 50.49 51.64 56.99 58.98 60.26 59.56 58.10 58.70 59.35 60.23 60.90 61.28 60.32 59.47 59.71 59.26 59.08 58.52 58.77 59.69 60.55 60.21 59.99 59.14 58.85 57.90 57.81 56.98 55.35 56.15 56.79 54.76
43.39 40.57 39.58 36.89 38.20 33.46 36.50 35.86 34.25 38.84 41.43 43.49 46.28 47.64 48.99 49.33 50.00 51.28 50.58 55.42 57.83 59.67 59.84 57.38 57.15 58.37 59.69 60.15 60.56 60.24 59.74 59.56 58.41 57.60 57.88 58.64 59.36 60.33 60.50 60.27 59.74 59.16 58.66 57.85 57.32 57.08 56.80 56.77 56.85
42.55 38.35 31.45 30.63 30.46 28.10 35.59 33.75 37.38 41.40 43.31 46.08 46.84 47.10 46.33 46.93 48.04 49.58 49.70 50.30 55.98 57.52 58.75 57.98 55.71 56.59 59.11 59.69 59.88 60.13 59.67 59.34 58.79 57.97 58.19 58.11 58.64 59.23 60.33 60.20 59.57 59.22 58.68 58.51 58.18 57.18 57.04 56.73 57.37
38.91 38.36 29.35 24.44 25.32 27.39 34.30 32.11 36.56 43.37 47.74 48.69 47.90 46.41 45.44 45.40 46.14 46.85 49.54 48.66 54.07 56.74 58.24 58.86 56.46 55.89 57.05 59.01 59.29 59.87 60.05 59.56 59.24 58.43 58.73 58.87 59.22 59.81 60.18 60.32 60.48 59.66 59.01 58.36 57.85 57.66 57.24 57.30 56.93
37.39 35.85 38.73 29.26 19.14 24.22 29.49 32.97 37.42 40.78 42.53 45.53 45.50 44.46 44.65 44.05 43.74 45.11 45.87 48.25 48.79 55.06 57.60 58.99 58.83 57.40 56.33 56.75 58.19 58.45 59.01 59.14 58.98 58.79 58.82 59.16 59.67 60.18 60.20 60.23 59.70 59.74 58.92 58.37 57.89 57.30 56.81 56.57 56.49
41.19 41.94 34.40 34.34 22.58 19.92 25.94 27.37 33.30 35.25 40.08 44.26 41.85 41.88 42.31 42.54 41.92 41.77 43.07 44.00 45.05 52.08 56.23 58.30 59.24 59.35 59.03 58.01 57.68 57.76 57.94 58.40 58.72 58.71 58.05 59.01 60.04 60.17 59.31 59.67 59.64 59.40 58.97 58.43 57.66 57.42 57.63 56.19 54.97
38.15 37.11 37.87 36.77 30.21 25.54 21.82 27.87 35.84 40.17 42.28 43.62 42.16 41.00 40.27 39.18 39.35 40.27 40.75 41.14 41.51 43.87 50.74 52.95 55.30 57.33 58.26 59.90 60.49 59.60 59.03 58.56 58.40 58.02 58.34 58.84 59.72 59.98 59.59 59.41 59.18 58.98 59.11 59.09 57.89 57.54 56.53 53.20 53.40
41.03 38.04 38.55 32.84 30.17 29.25 27.77 30.11 37.10 36.02 38.00 39.32 38.96 38.92 38.11 38.80 39.47 40.20 40.48 40.59 41.17 41.66 41.97 46.37 51.46 53.70 55.24 56.62 58.21 58.87 60.31 60.06 59.07 58.32 58.47 59.01 59.48 60.02 59.85 59.21 58.62 58.35 58.74 58.14 56.03 55.81 53.86 51.72 50.62

GFSSGP_sfc_wetblb_117.txt.gz
Wetbulb
61.20 57.13 52.65 52.37 46.25 43.04 38.97 42.16 43.28 45.50 46.20 51.71 53.96 53.51 52.42 54.59 50.91 45.55 63.27 65.68 66.15 67.80 69.02 69.51 71.39 71.70 71.30 70.98 71.32 71.52 71.66 71.22 70.94 70.72 69.96 69.09 68.18 67.52 66.78 66.87 66.51 66.76 66.45 66.25 66.83 66.69 66.13 66.24 66.39
55.09 55.51 52.40 46.65 42.52 38.97 40.65 43.10 44.28 46.53 51.78 55.71 55.50 55.32 53.88 52.01 58.51 62.78 63.87 66.00 68.22 67.97 67.78 68.58 70.54 71.39 70.80 70.99 71.10 71.38 71.60 71.17 70.70 70.11 69.57 68.92 68.15 67.15 66.70 66.51 66.36 66.46 65.89 66.03 66.63 66.37 66.24 66.22 65.93
55.05 52.99 49.13 43.91 39.21 39.16 40.00 43.85 45.96 49.46 53.45 51.68 54.19 56.53 54.26 54.23 61.26 62.15 65.08 67.57 67.66 66.59 66.97 68.00 70.00 71.05 70.72 70.93 70.59 70.77 71.15 70.58 70.28 69.66 69.40 68.55 67.59 66.92 66.33 65.98 65.88 66.27 65.88 65.94 66.10 65.80 66.15 66.10 65.91
52.92 51.87 46.78 42.61 39.60 43.25 43.83 46.94 49.20 49.07 49.87 54.44 55.25 53.01 56.06 59.89 60.32 63.27 66.85 66.81 65.91 65.40 66.70 68.34 70.07 70.40 70.19 70.49 70.25 70.66 70.18 70.36 70.58 69.69 68.93 68.32 67.64 66.75 65.57 66.37 65.36 65.70 65.76 65.53 65.68 65.74 65.75 65.82 65.58
52.11 48.42 40.73 38.57 40.27 43.39 46.04 48.81 48.97 48.41 48.58 51.60 53.34 51.68 53.44 59.78 63.79 65.90 65.63 66.43 64.80 64.94 66.34 67.64 69.17 69.73 69.82 70.04 70.34 70.27 70.27 70.89 70.99 69.92 68.45 67.62 66.87 66.46 65.85 65.84 65.27 65.60 65.34 65.21 65.17 65.05 65.12 65.31 65.41
47.64 45.69 39.23 37.65 40.97 43.97 47.01 49.14 48.37 47.78 49.36 52.41 53.77 53.65 55.06 59.53 63.71 64.38 65.92 65.04 65.59 65.39 66.29 67.33 66.50 67.56 68.26 68.86 69.89 69.71 70.50 70.61 70.41 69.58 68.25 67.58 66.93 65.91 65.72 65.65 65.63 65.36 65.15 64.72 64.50 64.26 64.36 64.45 64.31
46.40 42.85 40.49 39.05 41.14 41.68 45.10 49.35 46.27 48.27 49.40 49.76 55.83 51.79 53.99 57.00 62.56 65.37 65.91 65.86 65.28 65.93 65.84 65.93 66.16 65.94 65.34 66.29 66.67 67.27 69.21 69.15 69.27 68.72 68.31 67.57 67.10 66.40 65.90 65.82 65.40 65.19 64.69 64.34 64.00 63.59 63.60 63.72 63.59
46.52 44.84 41.30 40.19 43.28 41.81 44.63 46.49 48.30 49.65 48.06 55.33 56.02 51.28 53.11 58.09 62.19 65.31 65.17 64.73 65.10 64.68 64.62 64.42 64.85 65.11 64.47 63.95 63.75 64.79 66.00 67.26 67.18 66.69 65.68 64.81 64.94 65.34 64.76 63.93 65.14 64.85 64.28 63.75 63.30 63.15 62.78 62.24 62.80
48.66 41.02 39.73 42.56 42.87 43.21 47.99 45.60 48.71 50.07 50.92 53.73 55.60 55.21 55.76 60.55 61.52 63.35 62.64 62.67 63.31 63.47 63.14 63.55 63.76 63.71 63.50 62.59 61.39 62.40 64.04 64.13 63.89 63.51 62.33 61.51 61.14 61.39 61.30 61.71 64.15 64.50 64.05 63.11 62.68 61.98 61.36 61.19 60.72
45.20 40.81 42.89 47.62 43.69 41.03 43.31 45.19 48.47 48.64 49.00 49.54 51.82 57.10 58.36 59.75 59.25 60.44 61.08 60.30 60.93 61.77 62.95 63.19 62.91 62.72 62.66 63.10 61.25 61.53 62.56 61.38 60.78 60.72 60.28 60.57 59.90 59.72 60.44 59.64 61.96 62.90 62.68 63.14 62.14 61.66 61.11 58.59 56.39
46.14 42.54 46.22 46.80 47.06 45.35 44.02 44.60 46.22 47.65 46.28 50.37 51.49 55.06 57.31 57.43 57.62 60.18 61.35 61.86 60.87 61.56 62.76 63.35 62.32 62.38 61.78 61.43 60.56 60.19 60.35 59.94 59.11 58.86 59.48 59.59 59.37 58.16 58.04 57.60 58.24 57.15 57.45 56.76 57.67 57.48 56.64 56.66 56.15
43.81 48.35 49.49 51.71 51.20 49.84 44.19 45.12 44.05 46.49 47.28 49.27 53.66 57.19 57.79 57.95 57.72 58.53 60.17 61.59 61.51 61.76 62.65 62.83 62.58 62.13 61.31 61.10 60.13 59.48 59.38 58.92 58.58 58.75 59.92 58.76 57.14 55.73 55.22 55.33 55.00 54.60 55.80 55.32 55.70 56.17 56.28 56.09 56.44
43.20 45.09 49.76 52.38 52.13 47.51 46.04 44.01 43.64 43.34 44.44 52.20 56.90 57.54 57.63 58.33 58.35 58.17 59.66 61.65 63.05 61.90 62.33 62.70 62.62 62.51 61.87 60.81 60.26 59.56 58.84 58.74 58.89 59.05 59.59 58.84 56.87 55.28 54.70 54.46 54.32 54.86 55.28 55.68 55.60 55.80 56.26 56.02 56.38
46.68 47.10 48.31 49.48 47.89 45.96 43.79 43.42 46.00 44.51 46.72 54.19 56.37 56.04 56.89 58.06 58.49 57.62 58.59 59.98 62.15 62.50 62.81 63.10 62.17 63.00 62.47 61.43 59.95 59.89 59.20 58.91 58.78 58.68 58.87 58.52 57.59 56.10 55.96 55.50 55.80 55.99 56.73 56.73 56.37 56.11 56.09 55.91 56.16
48.52 44.70 46.99 48.19 49.00 46.18 44.17 41.88 43.50 46.43 51.51 53.42 54.56 54.28 55.64 57.35 57.09 58.83 59.51 59.83 60.91 62.50 63.42 63.71 62.19 62.57 61.71 61.42 60.79 59.70 59.70 59.58 59.11 59.01 58.88 58.82 57.94 56.73 56.51 56.33 55.97 56.91 56.99 56.77 56.25 56.31 56.21 55.70 56.86
43.30 40.96 37.87 44.35 47.23 47.68 44.63 40.24 45.75 47.65 50.75 51.09 52.89 52.93 54.49 56.45 57.04 58.60 58.89 59.33 59.91 60.75 61.95 63.51 63.94 62.11 61.49 60.71 60.16 59.52 58.91 58.93 59.09 58.93 58.81 58.73 58.23 56.78 55.82 56.04 56.63 57.39 57.13 56.91 56.23 55.74 54.90 54.41 53.96
37.34 33.00 34.85 40.74 44.89 44.74 43.65 40.56 46.37 47.37 45.57 46.78 50.32 52.30 54.40 55.26 56.11 57.63 58.21 59.51 59.94 60.62 60.44 61.25 64.06 61.18 61.14 61.12 59.92 59.28 58.05 58.05 58.38 58.11 58.33 58.29 58.02 57.20 56.09 56.37 56.97 57.71 57.27 56.71 56.29 55.12 53.84 53.66 53.09
33.05 32.71 35.32 36.67 41.47 40.36 40.21 40.24 43.46 45.26 45.93 45.83 44.79 49.78 52.74 54.68 55.77 58.15 58.66 59.14 60.07 60.34 59.94 60.68 61.78 63.53 60.38 60.08 59.73 57.61 57.31 57.72 57.90 58.33 58.75 58.36 58.52 58.14 56.84 56.85 57.19 57.27 56.27 55.83 55.20 54.63 54.16 53.54 52.69
37.27 36.15 36.32 37.07 42.90 39.53 39.24 41.57 45.24 46.64 43.42 44.05 43.80 43.04 46.79 52.56 56.64 57.68 58.20 58.72 58.93 58.77 59.05 59.70 60.06 62.15 62.21 58.55 56.58 56.51 56.91 56.60 56.64 57.56 58.44 58.39 58.26 57.84 57.37 56.85 56.83 56.67 56.39 56.12 55.68 54.50 53.81 53.50 53.79
38.13 35.16 34.44 39.22 42.24 39.52 38.91 38.88 41.88 43.28 43.33 44.65 45.45 44.45 44.10 43.74 49.82 54.38 57.54 57.78 58.39 59.04 59.38 59.35 59.73 61.28 62.48 62.31 59.86 58.64 57.73 56.47 57.62 56.87 56.63 58.36 58.22 58.31 58.21 57.24 56.85 56.53 56.07 55.50 55.00 54.02 52.94 52.93 53.62
38.54 37.49 35.48 36.69 39.92 38.57 36.19 36.94 40.62 41.99 43.85 44.81 44.63 47.09 46.82 46.40 46.34 47.96 55.38 57.55 58.36 58.58 58.68 59.38 59.67 60.44 62.15 62.96 60.57 57.71 56.44 56.02 54.73 54.70 56.32 57.49 58.69 58.58 58.37 57.69 57.71 56.91 56.97 56.83 55.34 54.90 53.53 52.27 52.56
36.22 40.75 40.84 39.20 37.10 31.89 36.25 30.25 36.81 40.18 42.58 43.44 46.18 46.68 46.61 46.34 46.93 48.25 51.41 56.21 58.01 58.93 59.71 59.82 60.10 60.42 61.44 62.44 61.23 59.83 57.86 55.97 56.89 56.78 56.95 57.31 58.51 58.82 58.72 58.30 57.75 57.40 57.21 56.79 56.71 56.06 55.46 52.85 51.62
38.09 41.91 40.94 39.79 36.88 35.66 34.57 34.09 34.89 39.21 39.94 41.62 45.19 47.28 48.05 48.76 48.99 49.08 48.40 54.65 57.85 59.52 59.78 59.71 59.76 59.94 61.05 61.55 61.89 60.43 59.95 59.79 58.42 57.28 56.06 56.56 57.35 58.80 58.91 58.89 58.01 57.86 57.82 57.64 57.07 54.72 55.00 55.14 53.69
42.10 39.48 38.24 36.46 36.02 30.25 34.75 34.00 33.39 37.80 39.26 41.73 44.42 46.45 48.19 48.94 49.35 50.21 51.23 51.51 55.63 58.37 59.61 59.73 58.81 58.67 60.20 60.71 60.69 60.52 59.81 59.62 58.46 56.84 57.13 57.29 57.71 58.02 59.00 58.74 58.73 58.47 58.38 57.56 56.97 56.49 55.62 55.76 55.76
41.85 36.68 31.22 29.99 29.57 26.19 32.52 32.00 36.28 39.35 41.25 42.91 44.88 45.75 47.21 46.84 47.99 47.98 48.68 48.00 51.38 55.23 58.33 59.52 57.84 57.75 58.54 59.32 60.04 60.24 59.94 59.71 59.18 58.47 57.56 57.60 57.35 57.93 58.49 58.69 58.66 58.81 58.66 58.24 57.66 56.43 56.17 55.74 55.46
38.93 38.29 30.39 23.33 24.59 26.27 30.78 29.33 34.47 41.84 45.79 46.72 46.45 46.56 45.03 45.51 45.82 46.34 48.23 49.29 49.70 53.93 57.32 58.85 57.52 57.16 57.90 58.51 58.95 59.59 60.10 59.95 59.83 59.84 59.31 58.41 58.70 58.69 59.15 59.34 59.29 59.03 58.83 58.33 57.62 57.50 56.83 56.59 55.90
37.73 35.74 38.56 31.25 18.59 22.88 28.42 32.99 37.46 39.42 40.18 43.06 45.01 46.22 45.19 45.61 46.34 46.02 46.62 46.62 48.10 51.89 55.96 57.67 58.05 56.52 57.09 58.06 58.82 59.07 59.58 59.60 59.24 59.41 59.41 59.15 58.91 58.94 58.28 58.69 58.93 59.21 58.69 58.39 57.92 57.51 56.91 56.39 56.02
39.80 41.53 33.84 34.39 24.94 20.34 25.32 26.94 31.85 34.21 38.36 42.23 44.65 44.35 43.39 43.48 43.77 43.68 43.80 44.17 45.45 48.47 54.29 56.62 58.06 57.15 56.38 57.14 58.74 58.91 59.31 59.55 59.65 59.43 58.47 58.00 58.64 58.39 57.76 57.99 58.41 58.58 58.71 58.20 58.00 57.98 57.68 57.01 56.63
38.02 36.34 37.78 36.49 31.26 24.63 22.11 28.12 34.53 38.90 40.27 41.66 43.32 42.84 41.91 41.61 41.26 41.51 41.27 41.57 41.56 43.85 50.90 53.86 56.12 57.34 56.26 55.56 56.59 57.38 57.92 58.42 58.87 58.61 58.44 58.26 58.09 58.12 57.91 58.16 58.31 58.24 58.14 58.40 58.17 57.95 58.18 57.07 56.61
40.48 37.83 38.18 32.83 27.76 29.80 26.98 30.63 36.70 37.28 37.25 37.75 40.32 40.80 39.45 38.51 37.75 38.22 39.48 40.51 40.79 40.89 45.31 50.66 52.99 54.23 55.60 56.96 56.75 55.94 56.08 55.94 55.99 56.53 56.99 56.88 56.75 57.31 58.12 57.97 57.78 58.24 58.73 58.90 58.44 57.75 57.29 56.83 55.19